<?xml version='1.0' encoding='UTF-8'?><gpx version="1.1" creator="JPX - https://github.com/jenetics/jpx" xmlns="http://www.topografix.com/GPX/1/1"><trk><trkseg><trkpt lat="-37.99907540409103" lon="146.0347052912295"><ele>340.0</ele><time>2026-05-06T01:15:40.999Z</time></trkpt><trkpt lat="-37.99898344301252" lon="146.03474028988362"><ele>340.0</ele><time>2026-05-06T01:15:43.999Z</time></trkpt><trkpt lat="-37.998948787337326" lon="146.03481544252324"><ele>340.0</ele><time>2026-05-06T01:15:44.999Z</time></trkpt><trkpt lat="-37.99892543716338" lon="146.03494375299059"><ele>340.0</ele><time>2026-05-06T01:15:46.999Z</time></trkpt><trkpt lat="-37.998910976864984" lon="146.0350303407962"><ele>340.0</ele><time>2026-05-06T01:15:47.999Z</time></trkpt><trkpt lat="-37.99889809292399" lon="146.03516197186883"><ele>340.0</ele><time>2026-05-06T01:15:49.999Z</time></trkpt><trkpt lat="-37.99886009926415" lon="146.03523694846297"><ele>340.3333333333333</ele><time>2026-05-06T01:15:50.999Z</time></trkpt><trkpt lat="-37.99884749066184" lon="146.0353172135374"><ele>340.66666666666663</ele><time>2026-05-06T01:15:51.999Z</time></trkpt><trkpt lat="-37.9987689185587" lon="146.03531876916614"><ele>341.0</ele><time>2026-05-06T01:15:52.999Z</time></trkpt><trkpt lat="-37.99868594404759" lon="146.0353417472894"><ele>341.3333333333333</ele><time>2026-05-06T01:15:54.999Z</time></trkpt><trkpt lat="-37.99859545306327" lon="146.03535274196736"><ele>341.6666666666667</ele><time>2026-05-06T01:15:56.999Z</time></trkpt><trkpt lat="-37.998528675424105" lon="146.03536451590622"><ele>342.0</ele><time>2026-05-06T01:15:57.999Z</time></trkpt><trkpt lat="-37.99844907556088" lon="146.035378550605"><ele>342.0</ele><time>2026-05-06T01:15:59.999Z</time></trkpt><trkpt lat="-37.99841205490961" lon="146.03562492220513"><ele>342.0</ele><time>2026-05-06T01:16:01.999Z</time></trkpt><trkpt lat="-37.99835285349274" lon="146.03567430617244"><ele>342.0</ele><time>2026-05-06T01:16:02.999Z</time></trkpt><trkpt lat="-37.998311448083626" lon="146.03574347567567"><ele>342.0</ele><time>2026-05-06T01:16:03.999Z</time></trkpt><trkpt lat="-37.99824685653505" lon="146.03588379696728"><ele>342.20000000000005</ele><time>2026-05-06T01:16:05.999Z</time></trkpt><trkpt lat="-37.99820249321257" lon="146.03598079453982"><ele>342.4</ele><time>2026-05-06T01:16:07.999Z</time></trkpt><trkpt lat="-37.99820366282166" lon="146.0361255061393"><ele>342.6</ele><time>2026-05-06T01:16:09.999Z</time></trkpt><trkpt lat="-37.998193422532395" lon="146.03621806231735"><ele>342.79999999999995</ele><time>2026-05-06T01:16:10.999Z</time></trkpt><trkpt lat="-37.998156396258224" lon="146.03635771185165"><ele>343.0</ele><time>2026-05-06T01:16:12.999Z</time></trkpt><trkpt lat="-37.998098853758655" lon="146.03641005417265"><ele>343.0</ele><time>2026-05-06T01:16:13.999Z</time></trkpt><trkpt lat="-37.9980452915692" lon="146.03647428249445"><ele>343.0</ele><time>2026-05-06T01:16:14.999Z</time></trkpt><trkpt lat="-37.997968664804915" lon="146.0365870374529"><ele>343.0</ele><time>2026-05-06T01:16:16.999Z</time></trkpt><trkpt lat="-37.997920208127255" lon="146.03667953773262"><ele>343.0</ele><time>2026-05-06T01:16:18.999Z</time></trkpt><trkpt lat="-37.99783831199732" lon="146.03672606417274"><ele>343.0</ele><time>2026-05-06T01:16:20.999Z</time></trkpt><trkpt lat="-37.99775687134487" lon="146.0367835340862"><ele>343.0</ele><time>2026-05-06T01:16:22.999Z</time></trkpt><trkpt lat="-37.997678131244236" lon="146.03682816163447"><ele>343.0</ele><time>2026-05-06T01:16:24.999Z</time></trkpt><trkpt lat="-37.997590457956726" lon="146.03683423664086"><ele>343.0</ele><time>2026-05-06T01:16:26.999Z</time></trkpt><trkpt lat="-37.99751563730885" lon="146.03689536425586"><ele>343.0</ele><time>2026-05-06T01:16:28.999Z</time></trkpt><trkpt lat="-37.99741003115324" lon="146.03693353481594"><ele>343.0</ele><time>2026-05-06T01:16:30.999Z</time></trkpt><trkpt lat="-37.99736710955464" lon="146.03699729394705"><ele>343.0</ele><time>2026-05-06T01:16:32.999Z</time></trkpt><trkpt lat="-37.99728212160562" lon="146.03706772911423"><ele>344.59999999999997</ele><time>2026-05-06T01:16:34.999Z</time></trkpt><trkpt lat="-37.997198587158834" lon="146.03713424395627"><ele>346.2</ele><time>2026-05-06T01:16:36.999Z</time></trkpt><trkpt lat="-37.99710638122347" lon="146.03713829709199"><ele>347.8</ele><time>2026-05-06T01:16:38.999Z</time></trkpt><trkpt lat="-37.99703487701488" lon="146.03712330700458"><ele>349.4</ele><time>2026-05-06T01:16:40.999Z</time></trkpt><trkpt lat="-37.99700248214425" lon="146.03724715710888"><ele>351.0</ele><time>2026-05-06T01:16:43.998Z</time></trkpt><trkpt lat="-37.996946252812755" lon="146.03736902447278"><ele>351.0</ele><time>2026-05-06T01:16:46Z</time></trkpt><trkpt lat="-37.99684821940607" lon="146.03737183784534"><ele>351.0</ele><time>2026-05-06T01:16:50Z</time></trkpt><trkpt lat="-37.99682067286935" lon="146.03747069078412"><ele>351.0</ele><time>2026-05-06T01:16:54Z</time></trkpt><trkpt lat="-37.99683644901943" lon="146.0375703787184"><ele>351.0</ele><time>2026-05-06T01:16:58Z</time></trkpt><trkpt lat="-37.996889676477515" lon="146.0376252890866"><ele>351.0</ele><time>2026-05-06T01:17:02Z</time></trkpt><trkpt lat="-37.99690281036507" lon="146.03770712179966"><ele>351.0</ele><time>2026-05-06T01:17:08Z</time></trkpt><trkpt lat="-37.996921409949785" lon="146.03779794833886"><ele>350.8333333333333</ele><time>2026-05-06T01:17:12Z</time></trkpt><trkpt lat="-37.9968980838019" lon="146.0378785013999"><ele>350.6666666666667</ele><time>2026-05-06T01:17:15Z</time></trkpt><trkpt lat="-37.99688142245637" lon="146.03796471184825"><ele>350.5</ele><time>2026-05-06T01:17:17Z</time></trkpt><trkpt lat="-37.99691478646891" lon="146.03803414602604"><ele>350.33333333333337</ele><time>2026-05-06T01:17:18.999Z</time></trkpt><trkpt lat="-37.99698675416144" lon="146.03812725502843"><ele>350.1666666666667</ele><time>2026-05-06T01:17:24.999Z</time></trkpt><trkpt lat="-37.996998170113216" lon="146.03822302177716"><ele>350.0</ele><time>2026-05-06T01:17:25.999Z</time></trkpt><trkpt lat="-37.99699993199081" lon="146.0383679298308"><ele>349.2</ele><time>2026-05-06T01:17:27.999Z</time></trkpt><trkpt lat="-37.99701682157124" lon="146.03848080628222"><ele>348.4</ele><time>2026-05-06T01:17:28.999Z</time></trkpt><trkpt lat="-37.99703934078547" lon="146.03861015535313"><ele>347.6</ele><time>2026-05-06T01:17:29.999Z</time></trkpt><trkpt lat="-37.99706383338557" lon="146.0387517156028"><ele>346.8</ele><time>2026-05-06T01:17:30.999Z</time></trkpt><trkpt lat="-37.997068561520095" lon="146.03887998408194"><ele>346.0</ele><time>2026-05-06T01:17:31.999Z</time></trkpt><trkpt lat="-37.997090050344134" lon="146.03906311987404"><ele>347.0</ele><time>2026-05-06T01:17:32.999Z</time></trkpt><trkpt lat="-37.997080441690805" lon="146.03921767612852"><ele>348.0</ele><time>2026-05-06T01:17:33.999Z</time></trkpt><trkpt lat="-37.99705863280144" lon="146.03937302819145"><ele>349.0</ele><time>2026-05-06T01:17:34.999Z</time></trkpt><trkpt lat="-37.99703804516587" lon="146.03954583497028"><ele>350.0</ele><time>2026-05-06T01:17:35.999Z</time></trkpt><trkpt lat="-37.99699853719872" lon="146.03971173527327"><ele>350.0</ele><time>2026-05-06T01:17:36.999Z</time></trkpt><trkpt lat="-37.996962751631045" lon="146.03990117692834"><ele>350.0</ele><time>2026-05-06T01:17:37.999Z</time></trkpt><trkpt lat="-37.996924472403805" lon="146.04008087207472"><ele>350.0</ele><time>2026-05-06T01:17:38.999Z</time></trkpt><trkpt lat="-37.99688973838669" lon="146.04025630568378"><ele>350.0</ele><time>2026-05-06T01:17:39.999Z</time></trkpt><trkpt lat="-37.9968314869321" lon="146.04041832547819"><ele>351.25</ele><time>2026-05-06T01:17:40.999Z</time></trkpt><trkpt lat="-37.996741578330955" lon="146.0405495993869"><ele>352.5</ele><time>2026-05-06T01:17:41.999Z</time></trkpt><trkpt lat="-37.99665972706446" lon="146.04068650907863"><ele>353.75</ele><time>2026-05-06T01:17:42.999Z</time></trkpt><trkpt lat="-37.99656447481034" lon="146.04083540810535"><ele>355.0</ele><time>2026-05-06T01:17:43.999Z</time></trkpt><trkpt lat="-37.99646075876722" lon="146.0409797093222"><ele>357.0</ele><time>2026-05-06T01:17:44.999Z</time></trkpt><trkpt lat="-37.99634758030278" lon="146.0411244501344"><ele>359.0</ele><time>2026-05-06T01:17:45.999Z</time></trkpt><trkpt lat="-37.99625050402406" lon="146.04129541944573"><ele>361.0</ele><time>2026-05-06T01:17:46.999Z</time></trkpt><trkpt lat="-37.99617008611708" lon="146.0414549043979"><ele>361.0</ele><time>2026-05-06T01:17:47.999Z</time></trkpt><trkpt lat="-37.996106083193084" lon="146.04162163521647"><ele>361.0</ele><time>2026-05-06T01:17:48.999Z</time></trkpt><trkpt lat="-37.996024155222" lon="146.04172379632422"><ele>361.0</ele><time>2026-05-06T01:17:49.999Z</time></trkpt><trkpt lat="-37.99594293897706" lon="146.04179566500108"><ele>361.0</ele><time>2026-05-06T01:17:50.999Z</time></trkpt><trkpt lat="-37.99586224839323" lon="146.04183027894013"><ele>361.0</ele><time>2026-05-06T01:17:51.999Z</time></trkpt><trkpt lat="-37.99577991374694" lon="146.04182568733495"><ele>360.6</ele><time>2026-05-06T01:17:52.999Z</time></trkpt><trkpt lat="-37.99568190601563" lon="146.04180126660322"><ele>360.20000000000005</ele><time>2026-05-06T01:17:53.999Z</time></trkpt><trkpt lat="-37.995604509611894" lon="146.04173504690658"><ele>359.79999999999995</ele><time>2026-05-06T01:17:54.999Z</time></trkpt><trkpt lat="-37.99552512463189" lon="146.04165869527924"><ele>359.4</ele><time>2026-05-06T01:17:55.999Z</time></trkpt><trkpt lat="-37.995431210217085" lon="146.0415606726516"><ele>359.0</ele><time>2026-05-06T01:17:56.999Z</time></trkpt><trkpt lat="-37.99533003283788" lon="146.04144784022483"><ele>359.0</ele><time>2026-05-06T01:17:57.999Z</time></trkpt><trkpt lat="-37.995220877874374" lon="146.0413263496177"><ele>359.0</ele><time>2026-05-06T01:17:58.999Z</time></trkpt><trkpt lat="-37.99510537335529" lon="146.0412044729583"><ele>359.0</ele><time>2026-05-06T01:17:59.999Z</time></trkpt><trkpt lat="-37.99500394768502" lon="146.04109801955963"><ele>359.0</ele><time>2026-05-06T01:18:00.999Z</time></trkpt><trkpt lat="-37.994900234570316" lon="146.04099307187514"><ele>359.0</ele><time>2026-05-06T01:18:01.999Z</time></trkpt><trkpt lat="-37.99478199936061" lon="146.04090904264805"><ele>359.0</ele><time>2026-05-06T01:18:02.999Z</time></trkpt><trkpt lat="-37.994666144747235" lon="146.04082851892744"><ele>359.0</ele><time>2026-05-06T01:18:03.999Z</time></trkpt><trkpt lat="-37.9945460888901" lon="146.04076736161005"><ele>359.0</ele><time>2026-05-06T01:18:04.999Z</time></trkpt><trkpt lat="-37.994432647882725" lon="146.04072481706783"><ele>359.0</ele><time>2026-05-06T01:18:05.999Z</time></trkpt><trkpt lat="-37.9943123425815" lon="146.04068892574793"><ele>359.0</ele><time>2026-05-06T01:18:06.999Z</time></trkpt><trkpt lat="-37.99420050799327" lon="146.04066084691553"><ele>359.0</ele><time>2026-05-06T01:18:07.999Z</time></trkpt><trkpt lat="-37.99408761268754" lon="146.04064866777702"><ele>359.0</ele><time>2026-05-06T01:18:08.999Z</time></trkpt><trkpt lat="-37.99397003631824" lon="146.04067244079064"><ele>358.0</ele><time>2026-05-06T01:18:09.999Z</time></trkpt><trkpt lat="-37.99386942155745" lon="146.04072646673887"><ele>357.0</ele><time>2026-05-06T01:18:10.999Z</time></trkpt><trkpt lat="-37.99377650564898" lon="146.04081698416502"><ele>356.0</ele><time>2026-05-06T01:18:11.999Z</time></trkpt><trkpt lat="-37.99367701794867" lon="146.04094234936778"><ele>355.0</ele><time>2026-05-06T01:18:12.999Z</time></trkpt><trkpt lat="-37.99357555454641" lon="146.0410767866808"><ele>355.0</ele><time>2026-05-06T01:18:13.999Z</time></trkpt><trkpt lat="-37.99347909929655" lon="146.04120197338838"><ele>355.0</ele><time>2026-05-06T01:18:14.999Z</time></trkpt><trkpt lat="-37.99336946998582" lon="146.04130980977695"><ele>355.0</ele><time>2026-05-06T01:18:15.999Z</time></trkpt><trkpt lat="-37.99324484295283" lon="146.04136692023232"><ele>355.0</ele><time>2026-05-06T01:18:16.999Z</time></trkpt><trkpt lat="-37.993124194488644" lon="146.0414132366192"><ele>353.0</ele><time>2026-05-06T01:18:17.999Z</time></trkpt><trkpt lat="-37.99298360838157" lon="146.04143920643952"><ele>351.0</ele><time>2026-05-06T01:18:18.999Z</time></trkpt><trkpt lat="-37.99284854636062" lon="146.0414491816938"><ele>349.0</ele><time>2026-05-06T01:18:19.999Z</time></trkpt><trkpt lat="-37.992729895936215" lon="146.04146430910544"><ele>347.0</ele><time>2026-05-06T01:18:20.999Z</time></trkpt><trkpt lat="-37.992641081574234" lon="146.04149971226775"><ele>347.0</ele><time>2026-05-06T01:18:21.999Z</time></trkpt><trkpt lat="-37.99255474401004" lon="146.04153825783143"><ele>347.0</ele><time>2026-05-06T01:18:22.999Z</time></trkpt><trkpt lat="-37.992475752089014" lon="146.04160743232998"><ele>347.0</ele><time>2026-05-06T01:18:23.999Z</time></trkpt><trkpt lat="-37.992397927007396" lon="146.04171799987452"><ele>347.0</ele><time>2026-05-06T01:18:24.999Z</time></trkpt><trkpt lat="-37.992323168350566" lon="146.0418591580227"><ele>347.0</ele><time>2026-05-06T01:18:25.999Z</time></trkpt><trkpt lat="-37.99224798901865" lon="146.04201966032971"><ele>348.5</ele><time>2026-05-06T01:18:26.999Z</time></trkpt><trkpt lat="-37.992181457855374" lon="146.04218798118075"><ele>350.0</ele><time>2026-05-06T01:18:27.999Z</time></trkpt><trkpt lat="-37.992108230290825" lon="146.04234171196194"><ele>351.5</ele><time>2026-05-06T01:18:28.999Z</time></trkpt><trkpt lat="-37.99203716874595" lon="146.04248644378268"><ele>353.0</ele><time>2026-05-06T01:18:29.999Z</time></trkpt><trkpt lat="-37.99196374854505" lon="146.04264201640026"><ele>356.25</ele><time>2026-05-06T01:18:30.998Z</time></trkpt><trkpt lat="-37.991906133697604" lon="146.04280102876245"><ele>359.5</ele><time>2026-05-06T01:18:31.998Z</time></trkpt><trkpt lat="-37.99185424037212" lon="146.04297379457256"><ele>362.75</ele><time>2026-05-06T01:18:32.998Z</time></trkpt><trkpt lat="-37.99180627219353" lon="146.04314067848713"><ele>366.0</ele><time>2026-05-06T01:18:33.998Z</time></trkpt><trkpt lat="-37.99176446661161" lon="146.04333065372555"><ele>366.5</ele><time>2026-05-06T01:18:34.998Z</time></trkpt><trkpt lat="-37.991731678539566" lon="146.04351798224621"><ele>367.0</ele><time>2026-05-06T01:18:35.998Z</time></trkpt><trkpt lat="-37.991699297555954" lon="146.0436912086796"><ele>367.5</ele><time>2026-05-06T01:18:36.998Z</time></trkpt><trkpt lat="-37.99166995554111" lon="146.04386103716624"><ele>368.0</ele><time>2026-05-06T01:18:37.998Z</time></trkpt><trkpt lat="-37.991645101700854" lon="146.04401413027375"><ele>365.0</ele><time>2026-05-06T01:18:38.998Z</time></trkpt><trkpt lat="-37.991610859696046" lon="146.04417747570582"><ele>362.0</ele><time>2026-05-06T01:18:39.998Z</time></trkpt><trkpt lat="-37.99156690141526" lon="146.0443278436852"><ele>359.0</ele><time>2026-05-06T01:18:40.998Z</time></trkpt><trkpt lat="-37.99149554928109" lon="146.04448128877294"><ele>356.0</ele><time>2026-05-06T01:18:41.998Z</time></trkpt><trkpt lat="-37.99141275433713" lon="146.04460868123806"><ele>356.0</ele><time>2026-05-06T01:18:42.998Z</time></trkpt><trkpt lat="-37.99132169841292" lon="146.0447098762061"><ele>356.0</ele><time>2026-05-06T01:18:43.998Z</time></trkpt><trkpt lat="-37.99120499027297" lon="146.04480161058746"><ele>356.0</ele><time>2026-05-06T01:18:44.998Z</time></trkpt><trkpt lat="-37.9910809118643" lon="146.04486611441877"><ele>356.0</ele><time>2026-05-06T01:18:45.998Z</time></trkpt><trkpt lat="-37.990950370026155" lon="146.0449032695719"><ele>353.75</ele><time>2026-05-06T01:18:46.998Z</time></trkpt><trkpt lat="-37.99082373692009" lon="146.04490749377376"><ele>351.5</ele><time>2026-05-06T01:18:47.998Z</time></trkpt><trkpt lat="-37.99069901846821" lon="146.04493284512623"><ele>349.25</ele><time>2026-05-06T01:18:48.998Z</time></trkpt><trkpt lat="-37.99057881609807" lon="146.04494081811572"><ele>347.0</ele><time>2026-05-06T01:18:49.998Z</time></trkpt><trkpt lat="-37.990466543300904" lon="146.0449503120476"><ele>347.20000000000005</ele><time>2026-05-06T01:18:51Z</time></trkpt><trkpt lat="-37.99037779411709" lon="146.04497365065956"><ele>347.4</ele><time>2026-05-06T01:18:52Z</time></trkpt><trkpt lat="-37.990294369778795" lon="146.04502159606812"><ele>347.6</ele><time>2026-05-06T01:18:53Z</time></trkpt><trkpt lat="-37.990225642417485" lon="146.04510413998528"><ele>347.79999999999995</ele><time>2026-05-06T01:18:54Z</time></trkpt><trkpt lat="-37.990163439124345" lon="146.04521475598756"><ele>348.0</ele><time>2026-05-06T01:18:55Z</time></trkpt><trkpt lat="-37.99011058737192" lon="146.04533053829437"><ele>348.0</ele><time>2026-05-06T01:18:56Z</time></trkpt><trkpt lat="-37.99006342313047" lon="146.04545455745316"><ele>348.0</ele><time>2026-05-06T01:18:57Z</time></trkpt><trkpt lat="-37.99003710292399" lon="146.04558769590165"><ele>348.0</ele><time>2026-05-06T01:18:58Z</time></trkpt><trkpt lat="-37.99003093585621" lon="146.04572639692194"><ele>348.0</ele><time>2026-05-06T01:18:59Z</time></trkpt><trkpt lat="-37.99003792087627" lon="146.04586043492648"><ele>348.0</ele><time>2026-05-06T01:19:00Z</time></trkpt><trkpt lat="-37.99006881818102" lon="146.04599689846933"><ele>349.75</ele><time>2026-05-06T01:19:01Z</time></trkpt><trkpt lat="-37.99012295840683" lon="146.04614068972694"><ele>351.5</ele><time>2026-05-06T01:19:02Z</time></trkpt><trkpt lat="-37.99019872839723" lon="146.0462989438451"><ele>353.25</ele><time>2026-05-06T01:19:03Z</time></trkpt><trkpt lat="-37.99027184683263" lon="146.0464522694043"><ele>355.0</ele><time>2026-05-06T01:19:04Z</time></trkpt><trkpt lat="-37.99033801103237" lon="146.04659440946406"><ele>354.8333333333333</ele><time>2026-05-06T01:19:05Z</time></trkpt><trkpt lat="-37.99039481817131" lon="146.04672441295432"><ele>354.66666666666663</ele><time>2026-05-06T01:19:06Z</time></trkpt><trkpt lat="-37.990442007054824" lon="146.04683319852037"><ele>354.5</ele><time>2026-05-06T01:19:07Z</time></trkpt><trkpt lat="-37.990473994645434" lon="146.04692718441478"><ele>354.3333333333333</ele><time>2026-05-06T01:19:08Z</time></trkpt><trkpt lat="-37.99048875408468" lon="146.0470136966011"><ele>354.1666666666667</ele><time>2026-05-06T01:19:09Z</time></trkpt><trkpt lat="-37.990474072711116" lon="146.04711604500991"><ele>354.0</ele><time>2026-05-06T01:19:10Z</time></trkpt><trkpt lat="-37.99041997629941" lon="146.04719851221856"><ele>354.0</ele><time>2026-05-06T01:19:11Z</time></trkpt><trkpt lat="-37.99034482104433" lon="146.0472919449618"><ele>354.0</ele><time>2026-05-06T01:19:12Z</time></trkpt><trkpt lat="-37.99025570639528" lon="146.04737830607735"><ele>354.0</ele><time>2026-05-06T01:19:13Z</time></trkpt><trkpt lat="-37.9901839660818" lon="146.04745941561046"><ele>354.0</ele><time>2026-05-06T01:19:14Z</time></trkpt><trkpt lat="-37.990125920202786" lon="146.04754343682023"><ele>354.0</ele><time>2026-05-06T01:19:15Z</time></trkpt><trkpt lat="-37.99007948830765" lon="146.04762798564175"><ele>353.4</ele><time>2026-05-06T01:19:16Z</time></trkpt><trkpt lat="-37.990064860732076" lon="146.04772206081597"><ele>352.79999999999995</ele><time>2026-05-06T01:19:17Z</time></trkpt><trkpt lat="-37.99008459926107" lon="146.04784928768893"><ele>352.20000000000005</ele><time>2026-05-06T01:19:17.999Z</time></trkpt><trkpt lat="-37.99012956872477" lon="146.0479639399793"><ele>351.6</ele><time>2026-05-06T01:19:18.999Z</time></trkpt><trkpt lat="-37.99017737284133" lon="146.0480718455631"><ele>351.0</ele><time>2026-05-06T01:19:19.999Z</time></trkpt><trkpt lat="-37.99017466071904" lon="146.0481764486319"><ele>351.0</ele><time>2026-05-06T01:19:20.999Z</time></trkpt><trkpt lat="-37.99010278085505" lon="146.04823910612166"><ele>351.0</ele><time>2026-05-06T01:19:21.999Z</time></trkpt><trkpt lat="-37.990013087686634" lon="146.04826836251786"><ele>351.0</ele><time>2026-05-06T01:19:22.999Z</time></trkpt><trkpt lat="-37.98991159278502" lon="146.04835658725082"><ele>351.0</ele><time>2026-05-06T01:19:23.999Z</time></trkpt><trkpt lat="-37.989802776676775" lon="146.04844481644128"><ele>351.0</ele><time>2026-05-06T01:19:24.999Z</time></trkpt><trkpt lat="-37.98970385586176" lon="146.04856563507497"><ele>347.25</ele><time>2026-05-06T01:19:25.999Z</time></trkpt><trkpt lat="-37.98960425912334" lon="146.04867671205295"><ele>343.5</ele><time>2026-05-06T01:19:26.999Z</time></trkpt><trkpt lat="-37.989534538335015" lon="146.04881276328607"><ele>339.75</ele><time>2026-05-06T01:19:27.999Z</time></trkpt><trkpt lat="-37.989469670980306" lon="146.04894462203336"><ele>336.0</ele><time>2026-05-06T01:19:28.999Z</time></trkpt><trkpt lat="-37.98942728157921" lon="146.0490916674596"><ele>336.75</ele><time>2026-05-06T01:19:29.999Z</time></trkpt><trkpt lat="-37.98939830466772" lon="146.04925341753008"><ele>337.5</ele><time>2026-05-06T01:19:30.999Z</time></trkpt><trkpt lat="-37.989351237367295" lon="146.04939437290287"><ele>338.25</ele><time>2026-05-06T01:19:31.999Z</time></trkpt><trkpt lat="-37.98926308362939" lon="146.0495075093014"><ele>339.0</ele><time>2026-05-06T01:19:32.999Z</time></trkpt><trkpt lat="-37.989177517074424" lon="146.04961079576313"><ele>336.2</ele><time>2026-05-06T01:19:33.999Z</time></trkpt><trkpt lat="-37.98908880200759" lon="146.04969659129722"><ele>333.4</ele><time>2026-05-06T01:19:34.999Z</time></trkpt><trkpt lat="-37.98900768677063" lon="146.0497619634563"><ele>330.6</ele><time>2026-05-06T01:19:35.999Z</time></trkpt><trkpt lat="-37.98891298417845" lon="146.0498195408294"><ele>327.8</ele><time>2026-05-06T01:19:36.999Z</time></trkpt><trkpt lat="-37.98881324189628" lon="146.04985826299654"><ele>325.0</ele><time>2026-05-06T01:19:37.999Z</time></trkpt><trkpt lat="-37.988713648458685" lon="146.04985470660915"><ele>325.0</ele><time>2026-05-06T01:19:38.999Z</time></trkpt><trkpt lat="-37.98858106019243" lon="146.0498195360905"><ele>325.0</ele><time>2026-05-06T01:19:39.999Z</time></trkpt><trkpt lat="-37.98844208924737" lon="146.049731579105"><ele>325.0</ele><time>2026-05-06T01:19:40.999Z</time></trkpt><trkpt lat="-37.988315537316076" lon="146.04963027572708"><ele>325.0</ele><time>2026-05-06T01:19:41.999Z</time></trkpt><trkpt lat="-37.9881977044011" lon="146.0495382617791"><ele>324.25</ele><time>2026-05-06T01:19:42.999Z</time></trkpt><trkpt lat="-37.988076580811075" lon="146.04944763856247"><ele>323.5</ele><time>2026-05-06T01:19:43.999Z</time></trkpt><trkpt lat="-37.98797020903234" lon="146.0493710981175"><ele>322.75</ele><time>2026-05-06T01:19:44.999Z</time></trkpt><trkpt lat="-37.987874380975136" lon="146.04932051447014"><ele>322.0</ele><time>2026-05-06T01:19:45.999Z</time></trkpt><trkpt lat="-37.98777350542857" lon="146.04931372160743"><ele>322.0</ele><time>2026-05-06T01:19:46.999Z</time></trkpt><trkpt lat="-37.9876769389129" lon="146.0493662272992"><ele>322.0</ele><time>2026-05-06T01:19:47.999Z</time></trkpt><trkpt lat="-37.98759265585033" lon="146.04942146502634"><ele>322.0</ele><time>2026-05-06T01:19:48.999Z</time></trkpt><trkpt lat="-37.9875276667834" lon="146.04951929634436"><ele>322.0</ele><time>2026-05-06T01:19:49.999Z</time></trkpt><trkpt lat="-37.987467807280545" lon="146.04965612491097"><ele>322.0</ele><time>2026-05-06T01:19:50.999Z</time></trkpt><trkpt lat="-37.98737310066257" lon="146.04974273621485"><ele>321.5</ele><time>2026-05-06T01:19:51.999Z</time></trkpt><trkpt lat="-37.98728761740784" lon="146.04982152389175"><ele>321.0</ele><time>2026-05-06T01:19:52.999Z</time></trkpt><trkpt lat="-37.98719077279275" lon="146.04987596635053"><ele>320.5</ele><time>2026-05-06T01:19:53.999Z</time></trkpt><trkpt lat="-37.987052162551436" lon="146.04986081118614"><ele>320.0</ele><time>2026-05-06T01:19:54.999Z</time></trkpt><trkpt lat="-37.98692300094012" lon="146.04981719651607"><ele>320.0</ele><time>2026-05-06T01:19:55.999Z</time></trkpt><trkpt lat="-37.986786238888854" lon="146.04977162083344"><ele>320.0</ele><time>2026-05-06T01:19:56.999Z</time></trkpt><trkpt lat="-37.98663549141595" lon="146.04974077332872"><ele>320.0</ele><time>2026-05-06T01:19:57.999Z</time></trkpt><trkpt lat="-37.98650016166965" lon="146.0497016244238"><ele>320.0</ele><time>2026-05-06T01:19:58.999Z</time></trkpt><trkpt lat="-37.98637793354659" lon="146.04969036947506"><ele>318.0</ele><time>2026-05-06T01:19:59.999Z</time></trkpt><trkpt lat="-37.98624299396607" lon="146.0496871867669"><ele>316.0</ele><time>2026-05-06T01:20:00.999Z</time></trkpt><trkpt lat="-37.986114543218626" lon="146.0497486007222"><ele>314.0</ele><time>2026-05-06T01:20:01.999Z</time></trkpt><trkpt lat="-37.985997208047074" lon="146.0497870766393"><ele>312.0</ele><time>2026-05-06T01:20:02.999Z</time></trkpt><trkpt lat="-37.98587693829094" lon="146.04981531405616"><ele>311.2</ele><time>2026-05-06T01:20:03.999Z</time></trkpt><trkpt lat="-37.98576389604901" lon="146.04980029607674"><ele>310.4</ele><time>2026-05-06T01:20:04.999Z</time></trkpt><trkpt lat="-37.985648755578005" lon="146.0497770962306"><ele>309.6</ele><time>2026-05-06T01:20:05.999Z</time></trkpt><trkpt lat="-37.98556106717411" lon="146.04972562889066"><ele>308.8</ele><time>2026-05-06T01:20:06.999Z</time></trkpt><trkpt lat="-37.98549346894" lon="146.04963129112596"><ele>308.0</ele><time>2026-05-06T01:20:07.999Z</time></trkpt><trkpt lat="-37.98542161724437" lon="146.0495145559525"><ele>308.0</ele><time>2026-05-06T01:20:08.999Z</time></trkpt><trkpt lat="-37.98535925298957" lon="146.04939559544556"><ele>308.0</ele><time>2026-05-06T01:20:09.999Z</time></trkpt><trkpt lat="-37.98526905171155" lon="146.04923891031186"><ele>308.0</ele><time>2026-05-06T01:20:10.999Z</time></trkpt><trkpt lat="-37.985203880498766" lon="146.04906568864948"><ele>308.0</ele><time>2026-05-06T01:20:11.999Z</time></trkpt><trkpt lat="-37.9851526681211" lon="146.04888166057964"><ele>307.25</ele><time>2026-05-06T01:20:12.999Z</time></trkpt><trkpt lat="-37.985097169430624" lon="146.04872078495052"><ele>306.5</ele><time>2026-05-06T01:20:13.999Z</time></trkpt><trkpt lat="-37.9850445555652" lon="146.04856154556757"><ele>305.75</ele><time>2026-05-06T01:20:14.999Z</time></trkpt><trkpt lat="-37.98499360836705" lon="146.04840361168053"><ele>305.0</ele><time>2026-05-06T01:20:15.999Z</time></trkpt><trkpt lat="-37.98495277917225" lon="146.0482449607047"><ele>304.4</ele><time>2026-05-06T01:20:16.999Z</time></trkpt><trkpt lat="-37.984921348138265" lon="146.0481140937376"><ele>303.8</ele><time>2026-05-06T01:20:17.999Z</time></trkpt><trkpt lat="-37.98488611187992" lon="146.0479840586384"><ele>303.2</ele><time>2026-05-06T01:20:18.999Z</time></trkpt><trkpt lat="-37.98484093849199" lon="146.04787090833432"><ele>302.6</ele><time>2026-05-06T01:20:19.999Z</time></trkpt><trkpt lat="-37.98477101393706" lon="146.04776773080692"><ele>302.0</ele><time>2026-05-06T01:20:20.999Z</time></trkpt><trkpt lat="-37.98466778206546" lon="146.04768701508954"><ele>302.0</ele><time>2026-05-06T01:20:21.999Z</time></trkpt><trkpt lat="-37.9845360848013" lon="146.04763723888937"><ele>302.0</ele><time>2026-05-06T01:20:22.999Z</time></trkpt><trkpt lat="-37.984412213376146" lon="146.04757701811266"><ele>302.0</ele><time>2026-05-06T01:20:23.999Z</time></trkpt><trkpt lat="-37.984307335281855" lon="146.04748951917233"><ele>302.0</ele><time>2026-05-06T01:20:24.999Z</time></trkpt><trkpt lat="-37.98422273211986" lon="146.04739029980738"><ele>300.4</ele><time>2026-05-06T01:20:25.999Z</time></trkpt><trkpt lat="-37.984151018157185" lon="146.04730800585534"><ele>298.79999999999995</ele><time>2026-05-06T01:20:26.999Z</time></trkpt><trkpt lat="-37.984067710690226" lon="146.04727049053767"><ele>297.2</ele><time>2026-05-06T01:20:27.999Z</time></trkpt><trkpt lat="-37.98397038188352" lon="146.04723444614942"><ele>295.59999999999997</ele><time>2026-05-06T01:20:28.999Z</time></trkpt><trkpt lat="-37.98386175168911" lon="146.04726905633717"><ele>294.0</ele><time>2026-05-06T01:20:29.999Z</time></trkpt><trkpt lat="-37.98375168880319" lon="146.04731410657212"><ele>294.0</ele><time>2026-05-06T01:20:30.999Z</time></trkpt><trkpt lat="-37.983648518631036" lon="146.0473714714593"><ele>294.0</ele><time>2026-05-06T01:20:31.999Z</time></trkpt><trkpt lat="-37.98356881521226" lon="146.0474482430458"><ele>294.0</ele><time>2026-05-06T01:20:32.998Z</time></trkpt><trkpt lat="-37.98349838396733" lon="146.04754081943184"><ele>294.0</ele><time>2026-05-06T01:20:33.998Z</time></trkpt><trkpt lat="-37.98344195262733" lon="146.04765901731523"><ele>294.0</ele><time>2026-05-06T01:20:34.998Z</time></trkpt><trkpt lat="-37.98340037026008" lon="146.0477909373941"><ele>296.0</ele><time>2026-05-06T01:20:35.998Z</time></trkpt><trkpt lat="-37.98338150058791" lon="146.04793580991546"><ele>298.0</ele><time>2026-05-06T01:20:36.998Z</time></trkpt><trkpt lat="-37.98338458608428" lon="146.0480959344079"><ele>300.0</ele><time>2026-05-06T01:20:37.998Z</time></trkpt><trkpt lat="-37.98338754863309" lon="146.04826053783654"><ele>302.0</ele><time>2026-05-06T01:20:38.998Z</time></trkpt><trkpt lat="-37.983393112951305" lon="146.04842221120356"><ele>303.25</ele><time>2026-05-06T01:20:39.998Z</time></trkpt><trkpt lat="-37.98340094040413" lon="146.04859882694254"><ele>304.5</ele><time>2026-05-06T01:20:40.998Z</time></trkpt><trkpt lat="-37.98340687648133" lon="146.0487565884829"><ele>305.75</ele><time>2026-05-06T01:20:41.998Z</time></trkpt><trkpt lat="-37.983406590772375" lon="146.04891051370794"><ele>307.0</ele><time>2026-05-06T01:20:42.998Z</time></trkpt><trkpt lat="-37.983365551900356" lon="146.04904137312434"><ele>305.75</ele><time>2026-05-06T01:20:43.998Z</time></trkpt><trkpt lat="-37.98332442772666" lon="146.0491676739074"><ele>304.5</ele><time>2026-05-06T01:20:44.998Z</time></trkpt><trkpt lat="-37.983240908048224" lon="146.0492946700465"><ele>303.25</ele><time>2026-05-06T01:20:45.998Z</time></trkpt><trkpt lat="-37.98315257602932" lon="146.0494287823341"><ele>302.0</ele><time>2026-05-06T01:20:46.998Z</time></trkpt><trkpt lat="-37.98305852528703" lon="146.04955198211215"><ele>302.0</ele><time>2026-05-06T01:20:47.998Z</time></trkpt><trkpt lat="-37.982953525119946" lon="146.0496623747774"><ele>302.0</ele><time>2026-05-06T01:20:48.998Z</time></trkpt><trkpt lat="-37.982855117509246" lon="146.04976600888273"><ele>302.0</ele><time>2026-05-06T01:20:49.998Z</time></trkpt><trkpt lat="-37.98275492714941" lon="146.049868940338"><ele>302.0</ele><time>2026-05-06T01:20:50.998Z</time></trkpt><trkpt lat="-37.982654914179726" lon="146.04996556391535"><ele>300.75</ele><time>2026-05-06T01:20:51.998Z</time></trkpt><trkpt lat="-37.98253763799223" lon="146.05003568763863"><ele>299.5</ele><time>2026-05-06T01:20:52.998Z</time></trkpt><trkpt lat="-37.982424164457456" lon="146.05010888532493"><ele>298.25</ele><time>2026-05-06T01:20:53.998Z</time></trkpt><trkpt lat="-37.98230937173057" lon="146.0501798956699"><ele>297.0</ele><time>2026-05-06T01:20:54.998Z</time></trkpt><trkpt lat="-37.98220531607485" lon="146.05026475551563"><ele>297.0</ele><time>2026-05-06T01:20:56Z</time></trkpt><trkpt lat="-37.982097732766896" lon="146.0503123413885"><ele>297.0</ele><time>2026-05-06T01:20:57Z</time></trkpt><trkpt lat="-37.98200011921425" lon="146.05035866598018"><ele>297.0</ele><time>2026-05-06T01:20:58Z</time></trkpt><trkpt lat="-37.98190914528484" lon="146.05041451606158"><ele>297.0</ele><time>2026-05-06T01:20:59Z</time></trkpt><trkpt lat="-37.98183057686967" lon="146.0504858113859"><ele>297.0</ele><time>2026-05-06T01:21:00Z</time></trkpt><trkpt lat="-37.981759610088346" lon="146.0505808880943"><ele>297.0</ele><time>2026-05-06T01:21:01Z</time></trkpt><trkpt lat="-37.98171277367652" lon="146.0507077056045"><ele>297.0</ele><time>2026-05-06T01:21:02Z</time></trkpt><trkpt lat="-37.9816880988891" lon="146.05084455520074"><ele>297.0</ele><time>2026-05-06T01:21:03Z</time></trkpt><trkpt lat="-37.981675850208745" lon="146.05097231446862"><ele>297.0</ele><time>2026-05-06T01:21:04Z</time></trkpt><trkpt lat="-37.98169282600063" lon="146.05107284653187"><ele>297.0</ele><time>2026-05-06T01:21:05Z</time></trkpt><trkpt lat="-37.98173854865984" lon="146.05116101784324"><ele>298.0</ele><time>2026-05-06T01:21:06Z</time></trkpt><trkpt lat="-37.981811843795775" lon="146.05122299443983"><ele>299.0</ele><time>2026-05-06T01:21:07Z</time></trkpt><trkpt lat="-37.9818978253953" lon="146.05126481710556"><ele>300.0</ele><time>2026-05-06T01:21:08Z</time></trkpt><trkpt lat="-37.98199373613977" lon="146.05125359357262"><ele>301.0</ele><time>2026-05-06T01:21:09Z</time></trkpt><trkpt lat="-37.98210435903889" lon="146.0512087582528"><ele>302.0</ele><time>2026-05-06T01:21:10Z</time></trkpt><trkpt lat="-37.982228147700056" lon="146.05115677868207"><ele>302.0</ele><time>2026-05-06T01:21:11Z</time></trkpt><trkpt lat="-37.98235704757348" lon="146.05110537191342"><ele>302.0</ele><time>2026-05-06T01:21:12Z</time></trkpt><trkpt lat="-37.98246834414733" lon="146.05107295859506"><ele>302.0</ele><time>2026-05-06T01:21:13Z</time></trkpt><trkpt lat="-37.98255625642526" lon="146.0511104640089"><ele>302.0</ele><time>2026-05-06T01:21:14Z</time></trkpt><trkpt lat="-37.98262896245395" lon="146.05115029822068"><ele>302.0</ele><time>2026-05-06T01:21:15Z</time></trkpt><trkpt lat="-37.982693156226134" lon="146.05120821886004"><ele>305.2</ele><time>2026-05-06T01:21:16Z</time></trkpt><trkpt lat="-37.98273570516895" lon="146.05131857982568"><ele>308.4</ele><time>2026-05-06T01:21:17Z</time></trkpt><trkpt lat="-37.98276261513795" lon="146.05140589871888"><ele>311.6</ele><time>2026-05-06T01:21:18Z</time></trkpt><trkpt lat="-37.982769475484794" lon="146.05154577839764"><ele>314.8</ele><time>2026-05-06T01:21:19Z</time></trkpt><trkpt lat="-37.982788011200356" lon="146.05170299479946"><ele>318.0</ele><time>2026-05-06T01:21:20Z</time></trkpt><trkpt lat="-37.98282195579251" lon="146.05184110015213"><ele>318.0</ele><time>2026-05-06T01:21:21Z</time></trkpt><trkpt lat="-37.982858586488575" lon="146.05197387644387"><ele>318.0</ele><time>2026-05-06T01:21:21.999Z</time></trkpt><trkpt lat="-37.98289042606872" lon="146.0520926237649"><ele>318.0</ele><time>2026-05-06T01:21:22.999Z</time></trkpt><trkpt lat="-37.98292747674332" lon="146.05220370337832"><ele>318.0</ele><time>2026-05-06T01:21:23.999Z</time></trkpt><trkpt lat="-37.982956587298034" lon="146.05232988470263"><ele>318.0</ele><time>2026-05-06T01:21:24.999Z</time></trkpt><trkpt lat="-37.9829637868234" lon="146.05247493689123"><ele>317.5</ele><time>2026-05-06T01:21:25.999Z</time></trkpt><trkpt lat="-37.982935517722225" lon="146.05261765422514"><ele>317.0</ele><time>2026-05-06T01:21:26.999Z</time></trkpt><trkpt lat="-37.9828791551881" lon="146.05275896964005"><ele>316.5</ele><time>2026-05-06T01:21:27.999Z</time></trkpt><trkpt lat="-37.982822953284504" lon="146.05290265318436"><ele>316.0</ele><time>2026-05-06T01:21:28.999Z</time></trkpt><trkpt lat="-37.982784922987044" lon="146.053028008868"><ele>316.0</ele><time>2026-05-06T01:21:29.999Z</time></trkpt><trkpt lat="-37.98275309703341" lon="146.05314854673694"><ele>316.0</ele><time>2026-05-06T01:21:30.999Z</time></trkpt><trkpt lat="-37.982722547980195" lon="146.0532699022507"><ele>316.0</ele><time>2026-05-06T01:21:31.999Z</time></trkpt><trkpt lat="-37.982692428844864" lon="146.05339464361222"><ele>316.0</ele><time>2026-05-06T01:21:32.999Z</time></trkpt><trkpt lat="-37.98266466591482" lon="146.05351626253045"><ele>316.0</ele><time>2026-05-06T01:21:33.999Z</time></trkpt><trkpt lat="-37.98265018756779" lon="146.05364679870922"><ele>315.2</ele><time>2026-05-06T01:21:34.999Z</time></trkpt><trkpt lat="-37.982656262151764" lon="146.05376661011243"><ele>314.40000000000003</ele><time>2026-05-06T01:21:35.999Z</time></trkpt><trkpt lat="-37.982684397371955" lon="146.05389617951167"><ele>313.6</ele><time>2026-05-06T01:21:36.999Z</time></trkpt><trkpt lat="-37.98272862686803" lon="146.05400583467573"><ele>312.8</ele><time>2026-05-06T01:21:37.999Z</time></trkpt><trkpt lat="-37.98277963779765" lon="146.0541034799909"><ele>312.0</ele><time>2026-05-06T01:21:38.999Z</time></trkpt><trkpt lat="-37.98283922833774" lon="146.05417660362068"><ele>310.2</ele><time>2026-05-06T01:21:39.999Z</time></trkpt><trkpt lat="-37.982929174558194" lon="146.05423719109174"><ele>308.4</ele><time>2026-05-06T01:21:40.999Z</time></trkpt><trkpt lat="-37.98303033442285" lon="146.05428281383476"><ele>306.6</ele><time>2026-05-06T01:21:41.999Z</time></trkpt><trkpt lat="-37.98311252599981" lon="146.05432163590382"><ele>304.8</ele><time>2026-05-06T01:21:42.999Z</time></trkpt><trkpt lat="-37.98317226799162" lon="146.05437862360188"><ele>303.0</ele><time>2026-05-06T01:21:43.999Z</time></trkpt><trkpt lat="-37.98321305332991" lon="146.05447808086063"><ele>303.0</ele><time>2026-05-06T01:21:44.999Z</time></trkpt><trkpt lat="-37.98320203348992" lon="146.05460809144438"><ele>303.0</ele><time>2026-05-06T01:21:45.999Z</time></trkpt><trkpt lat="-37.98318096248638" lon="146.05475497045217"><ele>303.0</ele><time>2026-05-06T01:21:46.999Z</time></trkpt><trkpt lat="-37.98315666908549" lon="146.0549099887958"><ele>303.0</ele><time>2026-05-06T01:21:47.999Z</time></trkpt><trkpt lat="-37.98313285953715" lon="146.055073484659"><ele>301.0</ele><time>2026-05-06T01:21:48.999Z</time></trkpt><trkpt lat="-37.983123401898546" lon="146.05524708877311"><ele>299.0</ele><time>2026-05-06T01:21:49.999Z</time></trkpt><trkpt lat="-37.98310138681812" lon="146.0554274614476"><ele>297.0</ele><time>2026-05-06T01:21:50.999Z</time></trkpt><trkpt lat="-37.98308142818158" lon="146.05561702140065"><ele>295.0</ele><time>2026-05-06T01:21:51.999Z</time></trkpt><trkpt lat="-37.983060720075635" lon="146.05578394412547"><ele>294.5</ele><time>2026-05-06T01:21:52.999Z</time></trkpt><trkpt lat="-37.98304341391631" lon="146.05593573167067"><ele>294.0</ele><time>2026-05-06T01:21:53.999Z</time></trkpt><trkpt lat="-37.983028638120125" lon="146.05608871976264"><ele>293.5</ele><time>2026-05-06T01:21:54.999Z</time></trkpt><trkpt lat="-37.983014678949274" lon="146.05623033875733"><ele>293.0</ele><time>2026-05-06T01:21:55.999Z</time></trkpt><trkpt lat="-37.98300364416307" lon="146.05638206693084"><ele>293.0</ele><time>2026-05-06T01:21:56.999Z</time></trkpt><trkpt lat="-37.982998107520565" lon="146.05652645024696"><ele>293.0</ele><time>2026-05-06T01:21:57.999Z</time></trkpt><trkpt lat="-37.9829892392906" lon="146.05667086122745"><ele>293.0</ele><time>2026-05-06T01:21:58.999Z</time></trkpt><trkpt lat="-37.983003388796256" lon="146.0568233266156"><ele>293.0</ele><time>2026-05-06T01:21:59.999Z</time></trkpt><trkpt lat="-37.98301470927334" lon="146.05699478544443"><ele>291.5</ele><time>2026-05-06T01:22:00.999Z</time></trkpt><trkpt lat="-37.983050904339166" lon="146.05717534630503"><ele>290.0</ele><time>2026-05-06T01:22:01.999Z</time></trkpt><trkpt lat="-37.983093851036045" lon="146.05735741539164"><ele>288.5</ele><time>2026-05-06T01:22:02.999Z</time></trkpt><trkpt lat="-37.98313182688026" lon="146.05752740709661"><ele>287.0</ele><time>2026-05-06T01:22:03.999Z</time></trkpt><trkpt lat="-37.98316978163648" lon="146.05768668460252"><ele>285.75</ele><time>2026-05-06T01:22:04.999Z</time></trkpt><trkpt lat="-37.983212618583195" lon="146.05785672618032"><ele>284.5</ele><time>2026-05-06T01:22:05.999Z</time></trkpt><trkpt lat="-37.98325455221173" lon="146.05801400586972"><ele>283.25</ele><time>2026-05-06T01:22:06.999Z</time></trkpt><trkpt lat="-37.98328408021267" lon="146.05815653881993"><ele>282.0</ele><time>2026-05-06T01:22:07.999Z</time></trkpt><trkpt lat="-37.983314908158256" lon="146.0583176305875"><ele>280.5</ele><time>2026-05-06T01:22:08.999Z</time></trkpt><trkpt lat="-37.98333743298618" lon="146.05847325861578"><ele>279.0</ele><time>2026-05-06T01:22:09.999Z</time></trkpt><trkpt lat="-37.98335121315335" lon="146.0586340614988"><ele>277.5</ele><time>2026-05-06T01:22:10.999Z</time></trkpt><trkpt lat="-37.983352289395036" lon="146.05878519063575"><ele>276.0</ele><time>2026-05-06T01:22:11.999Z</time></trkpt><trkpt lat="-37.983345250032826" lon="146.0589393066268"><ele>276.0</ele><time>2026-05-06T01:22:12.999Z</time></trkpt><trkpt lat="-37.98333183884235" lon="146.0590800276143"><ele>276.0</ele><time>2026-05-06T01:22:13.999Z</time></trkpt><trkpt lat="-37.98332729721628" lon="146.05923384204758"><ele>276.0</ele><time>2026-05-06T01:22:14.999Z</time></trkpt><trkpt lat="-37.983338522517" lon="146.05939142231097"><ele>276.0</ele><time>2026-05-06T01:22:15.999Z</time></trkpt><trkpt lat="-37.983372480135245" lon="146.05956096022652"><ele>279.0</ele><time>2026-05-06T01:22:16.999Z</time></trkpt><trkpt lat="-37.98338882365209" lon="146.05973053325718"><ele>282.0</ele><time>2026-05-06T01:22:17.999Z</time></trkpt><trkpt lat="-37.983406697431064" lon="146.05989649087397"><ele>285.0</ele><time>2026-05-06T01:22:18.999Z</time></trkpt><trkpt lat="-37.983437623098624" lon="146.06008167768323"><ele>288.0</ele><time>2026-05-06T01:22:19.999Z</time></trkpt><trkpt lat="-37.98341889477132" lon="146.06026367299245"><ele>288.0</ele><time>2026-05-06T01:22:20.999Z</time></trkpt><trkpt lat="-37.98341502813558" lon="146.06040819333214"><ele>288.0</ele><time>2026-05-06T01:22:21.999Z</time></trkpt><trkpt lat="-37.98341963648417" lon="146.06058274048476"><ele>288.0</ele><time>2026-05-06T01:22:22.999Z</time></trkpt><trkpt lat="-37.983436058451794" lon="146.06075495771805"><ele>288.0</ele><time>2026-05-06T01:22:23.999Z</time></trkpt><trkpt lat="-37.983453633171806" lon="146.06092301223975"><ele>286.5</ele><time>2026-05-06T01:22:24.999Z</time></trkpt><trkpt lat="-37.983440687652426" lon="146.06107878152105"><ele>285.0</ele><time>2026-05-06T01:22:25.999Z</time></trkpt><trkpt lat="-37.98344480599174" lon="146.06125320733506"><ele>283.5</ele><time>2026-05-06T01:22:26.999Z</time></trkpt><trkpt lat="-37.983432065931815" lon="146.06143098563172"><ele>282.0</ele><time>2026-05-06T01:22:27.999Z</time></trkpt><trkpt lat="-37.983412584977515" lon="146.0616074850816"><ele>281.0</ele><time>2026-05-06T01:22:28.999Z</time></trkpt><trkpt lat="-37.98338993286313" lon="146.06179258995041"><ele>280.0</ele><time>2026-05-06T01:22:29.999Z</time></trkpt><trkpt lat="-37.98338104185402" lon="146.0619628141797"><ele>279.0</ele><time>2026-05-06T01:22:30.999Z</time></trkpt><trkpt lat="-37.98338114784845" lon="146.0621359830417"><ele>278.0</ele><time>2026-05-06T01:22:31.999Z</time></trkpt><trkpt lat="-37.983383955326474" lon="146.0623260833026"><ele>277.25</ele><time>2026-05-06T01:22:32.999Z</time></trkpt><trkpt lat="-37.983392993846856" lon="146.06252346280786"><ele>276.5</ele><time>2026-05-06T01:22:33.998Z</time></trkpt><trkpt lat="-37.98340326533281" lon="146.0627107047637"><ele>275.75</ele><time>2026-05-06T01:22:34.998Z</time></trkpt><trkpt lat="-37.98341988809776" lon="146.06287564429496"><ele>275.0</ele><time>2026-05-06T01:22:35.998Z</time></trkpt><trkpt lat="-37.983446115473654" lon="146.06304849881892"><ele>275.0</ele><time>2026-05-06T01:22:36.998Z</time></trkpt><trkpt lat="-37.98347262705022" lon="146.06321593041366"><ele>275.0</ele><time>2026-05-06T01:22:37.998Z</time></trkpt><trkpt lat="-37.983497367370894" lon="146.0633988385818"><ele>275.0</ele><time>2026-05-06T01:22:38.998Z</time></trkpt><trkpt lat="-37.9835138458381" lon="146.06355968704142"><ele>275.0</ele><time>2026-05-06T01:22:39.998Z</time></trkpt><trkpt lat="-37.98351071854083" lon="146.06370712369846"><ele>273.0</ele><time>2026-05-06T01:22:40.998Z</time></trkpt><trkpt lat="-37.983501425305555" lon="146.06383473584313"><ele>271.0</ele><time>2026-05-06T01:22:41.998Z</time></trkpt><trkpt lat="-37.983486187085056" lon="146.0639686046598"><ele>269.0</ele><time>2026-05-06T01:22:42.998Z</time></trkpt><trkpt lat="-37.98345349369653" lon="146.06413862298479"><ele>267.0</ele><time>2026-05-06T01:22:43.998Z</time></trkpt><trkpt lat="-37.98339109243908" lon="146.06427237588443"><ele>265.4</ele><time>2026-05-06T01:22:44.998Z</time></trkpt><trkpt lat="-37.98335715787484" lon="146.06440456488122"><ele>263.79999999999995</ele><time>2026-05-06T01:22:45.998Z</time></trkpt><trkpt lat="-37.98331336351845" lon="146.06453774662583"><ele>262.2</ele><time>2026-05-06T01:22:46.998Z</time></trkpt><trkpt lat="-37.98327693494817" lon="146.0646649563747"><ele>260.59999999999997</ele><time>2026-05-06T01:22:47.998Z</time></trkpt><trkpt lat="-37.98324949212323" lon="146.06480932421258"><ele>259.0</ele><time>2026-05-06T01:22:48.998Z</time></trkpt><trkpt lat="-37.98325756765184" lon="146.06494391762396"><ele>257.75</ele><time>2026-05-06T01:22:49.998Z</time></trkpt><trkpt lat="-37.98329086580272" lon="146.0650822050724"><ele>256.5</ele><time>2026-05-06T01:22:50.998Z</time></trkpt><trkpt lat="-37.98333912799532" lon="146.06523267181774"><ele>255.25</ele><time>2026-05-06T01:22:51.998Z</time></trkpt><trkpt lat="-37.98340068521919" lon="146.06537778266073"><ele>254.0</ele><time>2026-05-06T01:22:52.998Z</time></trkpt><trkpt lat="-37.98346050817586" lon="146.06551029117705"><ele>254.0</ele><time>2026-05-06T01:22:53.998Z</time></trkpt><trkpt lat="-37.983526270518865" lon="146.0656478302658"><ele>254.0</ele><time>2026-05-06T01:22:54.998Z</time></trkpt><trkpt lat="-37.983580771313136" lon="146.0657617352281"><ele>254.0</ele><time>2026-05-06T01:22:55.998Z</time></trkpt><trkpt lat="-37.983613418480545" lon="146.0658989475837"><ele>254.0</ele><time>2026-05-06T01:22:56.998Z</time></trkpt><trkpt lat="-37.983631361568804" lon="146.06604144034193"><ele>252.0</ele><time>2026-05-06T01:22:57.998Z</time></trkpt><trkpt lat="-37.98363077444758" lon="146.06623262757358"><ele>250.0</ele><time>2026-05-06T01:22:58.998Z</time></trkpt><trkpt lat="-37.98364062748696" lon="146.0664511857785"><ele>248.0</ele><time>2026-05-06T01:22:59.998Z</time></trkpt><trkpt lat="-37.98368247008945" lon="146.06664097084743"><ele>247.25</ele><time>2026-05-06T01:23:00.998Z</time></trkpt><trkpt lat="-37.983722653040346" lon="146.06681988167367"><ele>246.5</ele><time>2026-05-06T01:23:02Z</time></trkpt><trkpt lat="-37.98374785146312" lon="146.06698663049232"><ele>245.75</ele><time>2026-05-06T01:23:03Z</time></trkpt><trkpt lat="-37.98372919419678" lon="146.06715025199424"><ele>245.0</ele><time>2026-05-06T01:23:04Z</time></trkpt><trkpt lat="-37.983695951037866" lon="146.06731767072105"><ele>244.75</ele><time>2026-05-06T01:23:05Z</time></trkpt><trkpt lat="-37.98365389559072" lon="146.06747338647594"><ele>244.5</ele><time>2026-05-06T01:23:06Z</time></trkpt><trkpt lat="-37.98359700027441" lon="146.06763588154337"><ele>244.25</ele><time>2026-05-06T01:23:07Z</time></trkpt><trkpt lat="-37.98353716255501" lon="146.06777142579645"><ele>244.0</ele><time>2026-05-06T01:23:08Z</time></trkpt><trkpt lat="-37.983475612988116" lon="146.06787102974957"><ele>244.0</ele><time>2026-05-06T01:23:09Z</time></trkpt><trkpt lat="-37.9834212272401" lon="146.06794590100537"><ele>243.99999999999997</ele><time>2026-05-06T01:23:10Z</time></trkpt><trkpt lat="-37.98334495956659" lon="146.06797310411895"><ele>243.99999999999997</ele><time>2026-05-06T01:23:11Z</time></trkpt><trkpt lat="-37.98324695695037" lon="146.06791479183042"><ele>244.0</ele><time>2026-05-06T01:23:12Z</time></trkpt><trkpt lat="-37.983142462269235" lon="146.06787006735172"><ele>244.0</ele><time>2026-05-06T01:23:13Z</time></trkpt><trkpt lat="-37.983026104973106" lon="146.0677995085183"><ele>247.25</ele><time>2026-05-06T01:23:14Z</time></trkpt><trkpt lat="-37.98290160040084" lon="146.06771839316102"><ele>250.5</ele><time>2026-05-06T01:23:15Z</time></trkpt><trkpt lat="-37.98276550057341" lon="146.06763219220065"><ele>253.75</ele><time>2026-05-06T01:23:16Z</time></trkpt><trkpt lat="-37.98263281376713" lon="146.0675584809628"><ele>257.0</ele><time>2026-05-06T01:23:17Z</time></trkpt><trkpt lat="-37.98251466125435" lon="146.06751372418844"><ele>258.33333333333337</ele><time>2026-05-06T01:23:18Z</time></trkpt><trkpt lat="-37.982414635089" lon="146.06745526024736"><ele>259.6666666666667</ele><time>2026-05-06T01:23:19Z</time></trkpt><trkpt lat="-37.98233703219958" lon="146.0674181664264"><ele>261.0</ele><time>2026-05-06T01:23:20Z</time></trkpt><trkpt lat="-37.98225735462895" lon="146.067402241052"><ele>262.3333333333333</ele><time>2026-05-06T01:23:21Z</time></trkpt><trkpt lat="-37.98218302882159" lon="146.06743017534987"><ele>263.66666666666663</ele><time>2026-05-06T01:23:22Z</time></trkpt><trkpt lat="-37.98213964249921" lon="146.06751657523145"><ele>265.0</ele><time>2026-05-06T01:23:23Z</time></trkpt><trkpt lat="-37.98210352628985" lon="146.06760401354887"><ele>265.0</ele><time>2026-05-06T01:23:23.999Z</time></trkpt><trkpt lat="-37.982060032901174" lon="146.06770796610812"><ele>265.0</ele><time>2026-05-06T01:23:24.999Z</time></trkpt><trkpt lat="-37.982063964128734" lon="146.06783381343837"><ele>265.0</ele><time>2026-05-06T01:23:25.999Z</time></trkpt><trkpt lat="-37.98208930298761" lon="146.0679518555674"><ele>265.0</ele><time>2026-05-06T01:23:26.999Z</time></trkpt><trkpt lat="-37.98211095433668" lon="146.06810166286738"><ele>265.0</ele><time>2026-05-06T01:23:27.999Z</time></trkpt><trkpt lat="-37.9821139958488" lon="146.06822692941415"><ele>264.75</ele><time>2026-05-06T01:23:28.999Z</time></trkpt><trkpt lat="-37.98208712056769" lon="146.06835295393643"><ele>264.5</ele><time>2026-05-06T01:23:29.999Z</time></trkpt><trkpt lat="-37.98202379441411" lon="146.06847777945663"><ele>264.25</ele><time>2026-05-06T01:23:30.999Z</time></trkpt><trkpt lat="-37.98194516602428" lon="146.0686052056612"><ele>264.0</ele><time>2026-05-06T01:23:31.999Z</time></trkpt><trkpt lat="-37.98186134196063" lon="146.06872497395372"><ele>264.0</ele><time>2026-05-06T01:23:32.999Z</time></trkpt><trkpt lat="-37.981764190539224" lon="146.06885784296497"><ele>264.0</ele><time>2026-05-06T01:23:33.999Z</time></trkpt><trkpt lat="-37.98167619386435" lon="146.06899288895315"><ele>264.0</ele><time>2026-05-06T01:23:34.999Z</time></trkpt><trkpt lat="-37.98157383578765" lon="146.06911934156545"><ele>264.0</ele><time>2026-05-06T01:23:35.999Z</time></trkpt><trkpt lat="-37.98144780703253" lon="146.06921778606466"><ele>264.25</ele><time>2026-05-06T01:23:36.999Z</time></trkpt><trkpt lat="-37.98135395601006" lon="146.06927909239653"><ele>264.5</ele><time>2026-05-06T01:23:37.999Z</time></trkpt><trkpt lat="-37.98125689708646" lon="146.06931614028923"><ele>264.75</ele><time>2026-05-06T01:23:38.999Z</time></trkpt><trkpt lat="-37.98113814123517" lon="146.06933945136794"><ele>265.0</ele><time>2026-05-06T01:23:39.999Z</time></trkpt><trkpt lat="-37.981012652453245" lon="146.06935915709266"><ele>265.0</ele><time>2026-05-06T01:23:40.999Z</time></trkpt><trkpt lat="-37.98087769412081" lon="146.06938499723438"><ele>265.0</ele><time>2026-05-06T01:23:41.999Z</time></trkpt><trkpt lat="-37.98077054859205" lon="146.06943938955243"><ele>265.0</ele><time>2026-05-06T01:23:42.999Z</time></trkpt><trkpt lat="-37.98065717978158" lon="146.06947399205805"><ele>265.0</ele><time>2026-05-06T01:23:43.999Z</time></trkpt><trkpt lat="-37.980550619935954" lon="146.069575800693"><ele>265.75</ele><time>2026-05-06T01:23:44.999Z</time></trkpt><trkpt lat="-37.9804471127764" lon="146.06968242631487"><ele>266.5</ele><time>2026-05-06T01:23:45.999Z</time></trkpt><trkpt lat="-37.980329219013434" lon="146.06977202447686"><ele>267.25</ele><time>2026-05-06T01:23:46.999Z</time></trkpt><trkpt lat="-37.980222487749685" lon="146.06987204618957"><ele>268.0</ele><time>2026-05-06T01:23:47.999Z</time></trkpt><trkpt lat="-37.980113441077265" lon="146.06997057810514"><ele>268.0</ele><time>2026-05-06T01:23:48.999Z</time></trkpt><trkpt lat="-37.98002197322352" lon="146.07001213894347"><ele>268.0</ele><time>2026-05-06T01:23:49.999Z</time></trkpt><trkpt lat="-37.979946907821756" lon="146.07004850694796"><ele>268.0</ele><time>2026-05-06T01:23:50.999Z</time></trkpt><trkpt lat="-37.97986250287176" lon="146.07012198149178"><ele>268.0</ele><time>2026-05-06T01:23:51.999Z</time></trkpt><trkpt lat="-37.97979769101332" lon="146.07022579602264"><ele>268.0</ele><time>2026-05-06T01:23:52.999Z</time></trkpt><trkpt lat="-37.97974763700989" lon="146.0703454092444"><ele>269.0</ele><time>2026-05-06T01:23:53.999Z</time></trkpt><trkpt lat="-37.97969115546949" lon="146.07048614254327"><ele>270.0</ele><time>2026-05-06T01:23:54.999Z</time></trkpt><trkpt lat="-37.97963824794503" lon="146.07062612381247"><ele>271.0</ele><time>2026-05-06T01:23:55.999Z</time></trkpt><trkpt lat="-37.97958700891149" lon="146.07077985743936"><ele>272.0</ele><time>2026-05-06T01:23:56.999Z</time></trkpt><trkpt lat="-37.979544792357416" lon="146.0709345163213"><ele>272.0</ele><time>2026-05-06T01:23:57.999Z</time></trkpt><trkpt lat="-37.97951509033286" lon="146.0711083069822"><ele>272.0</ele><time>2026-05-06T01:23:58.999Z</time></trkpt><trkpt lat="-37.979492863811295" lon="146.0712867913853"><ele>272.0</ele><time>2026-05-06T01:23:59.999Z</time></trkpt><trkpt lat="-37.97947615313098" lon="146.07145103412938"><ele>272.0</ele><time>2026-05-06T01:24:00.999Z</time></trkpt><trkpt lat="-37.97945756711036" lon="146.07160110220516"><ele>271.8</ele><time>2026-05-06T01:24:01.999Z</time></trkpt><trkpt lat="-37.979438119396725" lon="146.07173590385045"><ele>271.6</ele><time>2026-05-06T01:24:02.999Z</time></trkpt><trkpt lat="-37.979424205013274" lon="146.07186712379203"><ele>271.40000000000003</ele><time>2026-05-06T01:24:03.999Z</time></trkpt><trkpt lat="-37.97941112048523" lon="146.07200003503166"><ele>271.2</ele><time>2026-05-06T01:24:04.999Z</time></trkpt><trkpt lat="-37.9794426083344" lon="146.0721202111708"><ele>271.0</ele><time>2026-05-06T01:24:05.999Z</time></trkpt><trkpt lat="-37.979467142319876" lon="146.07222943431168"><ele>271.0</ele><time>2026-05-06T01:24:06.999Z</time></trkpt><trkpt lat="-37.97950510962164" lon="146.07235089570437"><ele>271.0</ele><time>2026-05-06T01:24:07.999Z</time></trkpt><trkpt lat="-37.97954411885417" lon="146.07250802606242"><ele>271.0</ele><time>2026-05-06T01:24:08.999Z</time></trkpt><trkpt lat="-37.97960973956401" lon="146.0726621218593"><ele>271.0</ele><time>2026-05-06T01:24:09.999Z</time></trkpt><trkpt lat="-37.979660240434875" lon="146.0728163971703"><ele>270.75</ele><time>2026-05-06T01:24:10.999Z</time></trkpt><trkpt lat="-37.97970509894599" lon="146.07297790073542"><ele>270.5</ele><time>2026-05-06T01:24:11.999Z</time></trkpt><trkpt lat="-37.97972965471887" lon="146.07314664767375"><ele>270.25</ele><time>2026-05-06T01:24:12.999Z</time></trkpt><trkpt lat="-37.97974793869894" lon="146.07329599295022"><ele>270.0</ele><time>2026-05-06T01:24:13.999Z</time></trkpt><trkpt lat="-37.97975143452022" lon="146.07342635130672"><ele>269.8</ele><time>2026-05-06T01:24:14.999Z</time></trkpt><trkpt lat="-37.97974306772268" lon="146.07356245407064"><ele>269.6</ele><time>2026-05-06T01:24:15.999Z</time></trkpt><trkpt lat="-37.979731115987875" lon="146.07369798317478"><ele>269.4</ele><time>2026-05-06T01:24:16.999Z</time></trkpt><trkpt lat="-37.97970122540325" lon="146.07383048747508"><ele>269.2</ele><time>2026-05-06T01:24:17.999Z</time></trkpt><trkpt lat="-37.97964839868474" lon="146.07395592316058"><ele>269.0</ele><time>2026-05-06T01:24:18.999Z</time></trkpt><trkpt lat="-37.97958882087606" lon="146.07409090837385"><ele>270.25</ele><time>2026-05-06T01:24:19.999Z</time></trkpt><trkpt lat="-37.97952155491608" lon="146.0742268646374"><ele>271.5</ele><time>2026-05-06T01:24:20.999Z</time></trkpt><trkpt lat="-37.97944587818978" lon="146.07435721974022"><ele>272.75</ele><time>2026-05-06T01:24:21.999Z</time></trkpt><trkpt lat="-37.97935974389989" lon="146.0744776163054"><ele>274.0</ele><time>2026-05-06T01:24:22.999Z</time></trkpt><trkpt lat="-37.979263124949746" lon="146.07459763531045"><ele>270.25</ele><time>2026-05-06T01:24:23.999Z</time></trkpt><trkpt lat="-37.97916395731906" lon="146.07470195674512"><ele>266.5</ele><time>2026-05-06T01:24:24.999Z</time></trkpt><trkpt lat="-37.979058012712784" lon="146.07480847621594"><ele>262.75</ele><time>2026-05-06T01:24:25.999Z</time></trkpt><trkpt lat="-37.97895976684373" lon="146.07491102681357"><ele>259.0</ele><time>2026-05-06T01:24:26.999Z</time></trkpt><trkpt lat="-37.978870987523926" lon="146.07500281147279"><ele>259.0</ele><time>2026-05-06T01:24:27.999Z</time></trkpt><trkpt lat="-37.978785708336595" lon="146.07510574363027"><ele>259.0</ele><time>2026-05-06T01:24:28.999Z</time></trkpt><trkpt lat="-37.97868924977019" lon="146.07519682559965"><ele>259.0</ele><time>2026-05-06T01:24:29.999Z</time></trkpt><trkpt lat="-37.97858238147685" lon="146.07530419590574"><ele>259.0</ele><time>2026-05-06T01:24:30.999Z</time></trkpt><trkpt lat="-37.978488131384644" lon="146.0754025232675"><ele>259.0</ele><time>2026-05-06T01:24:31.999Z</time></trkpt><trkpt lat="-37.97840249478513" lon="146.07549988562084"><ele>259.0</ele><time>2026-05-06T01:24:32.999Z</time></trkpt><trkpt lat="-37.97833368044629" lon="146.07558494672958"><ele>259.0</ele><time>2026-05-06T01:24:33.999Z</time></trkpt><trkpt lat="-37.97828073901452" lon="146.075669372529"><ele>259.0</ele><time>2026-05-06T01:24:34.998Z</time></trkpt><trkpt lat="-37.97825816831776" lon="146.07576138931887"><ele>259.0</ele><time>2026-05-06T01:24:35.998Z</time></trkpt><trkpt lat="-37.97827196615656" lon="146.07589550480913"><ele>260.8</ele><time>2026-05-06T01:24:37.998Z</time></trkpt><trkpt lat="-37.97832426178491" lon="146.07596956430066"><ele>262.59999999999997</ele><time>2026-05-06T01:24:38.998Z</time></trkpt><trkpt lat="-37.97840507429971" lon="146.07604749709643"><ele>264.4</ele><time>2026-05-06T01:24:39.998Z</time></trkpt><trkpt lat="-37.97849054028285" lon="146.07615156337766"><ele>266.2</ele><time>2026-05-06T01:24:40.998Z</time></trkpt><trkpt lat="-37.97854489248372" lon="146.07627224714443"><ele>268.0</ele><time>2026-05-06T01:24:41.998Z</time></trkpt><trkpt lat="-37.978605559175726" lon="146.07638081339522"><ele>268.0</ele><time>2026-05-06T01:24:42.998Z</time></trkpt><trkpt lat="-37.978634551681836" lon="146.0765095954666"><ele>268.0</ele><time>2026-05-06T01:24:43.998Z</time></trkpt><trkpt lat="-37.97862968648878" lon="146.07664268245685"><ele>268.0</ele><time>2026-05-06T01:24:44.998Z</time></trkpt><trkpt lat="-37.97861203811518" lon="146.07677159744554"><ele>268.0</ele><time>2026-05-06T01:24:45.998Z</time></trkpt><trkpt lat="-37.97858009361989" lon="146.076900401554"><ele>268.0</ele><time>2026-05-06T01:24:46.998Z</time></trkpt><trkpt lat="-37.97851675333767" lon="146.0770135790723"><ele>268.0</ele><time>2026-05-06T01:24:47.998Z</time></trkpt><trkpt lat="-37.9784247719913" lon="146.07710667708602"><ele>268.0</ele><time>2026-05-06T01:24:48.998Z</time></trkpt><trkpt lat="-37.978327571551475" lon="146.0771919314164"><ele>268.0</ele><time>2026-05-06T01:24:49.998Z</time></trkpt><trkpt lat="-37.97823109374308" lon="146.07729528810464"><ele>268.0</ele><time>2026-05-06T01:24:50.998Z</time></trkpt><trkpt lat="-37.978147166521644" lon="146.07739502285023"><ele>264.0</ele><time>2026-05-06T01:24:51.998Z</time></trkpt><trkpt lat="-37.97806959324148" lon="146.0774927340895"><ele>260.0</ele><time>2026-05-06T01:24:52.998Z</time></trkpt><trkpt lat="-37.97799576510716" lon="146.0775866549378"><ele>256.0</ele><time>2026-05-06T01:24:53.998Z</time></trkpt><trkpt lat="-37.9779263116466" lon="146.0776744779411"><ele>252.0</ele><time>2026-05-06T01:24:54.998Z</time></trkpt><trkpt lat="-37.97785562312529" lon="146.07777021797682"><ele>248.0</ele><time>2026-05-06T01:24:55.998Z</time></trkpt><trkpt lat="-37.977786958698324" lon="146.07785817933654"><ele>248.0</ele><time>2026-05-06T01:24:56.998Z</time></trkpt><trkpt lat="-37.97771168485363" lon="146.07795257653544"><ele>248.0</ele><time>2026-05-06T01:24:57.998Z</time></trkpt><trkpt lat="-37.977634926713435" lon="146.07804599104233"><ele>248.0</ele><time>2026-05-06T01:24:58.998Z</time></trkpt><trkpt lat="-37.97755267527086" lon="146.0781434489797"><ele>248.0</ele><time>2026-05-06T01:24:59.998Z</time></trkpt><trkpt lat="-37.97746985280573" lon="146.07824656654302"><ele>248.0</ele><time>2026-05-06T01:25:00.998Z</time></trkpt><trkpt lat="-37.977392584617284" lon="146.07833385958241"><ele>245.25</ele><time>2026-05-06T01:25:01.998Z</time></trkpt><trkpt lat="-37.97730575287127" lon="146.0784235255698"><ele>242.5</ele><time>2026-05-06T01:25:02.998Z</time></trkpt><trkpt lat="-37.97721485724456" lon="146.0785018631096"><ele>239.75</ele><time>2026-05-06T01:25:03.998Z</time></trkpt><trkpt lat="-37.97710516291408" lon="146.07856776439436"><ele>237.0</ele><time>2026-05-06T01:25:04.998Z</time></trkpt><trkpt lat="-37.97699003254854" lon="146.07858108462472"><ele>237.0</ele><time>2026-05-06T01:25:05.998Z</time></trkpt><trkpt lat="-37.97686817142408" lon="146.0785924110657"><ele>237.0</ele><time>2026-05-06T01:25:06.998Z</time></trkpt><trkpt lat="-37.976743860846625" lon="146.07859434413461"><ele>237.0</ele><time>2026-05-06T01:25:08Z</time></trkpt><trkpt lat="-37.97662574665627" lon="146.07860383219324"><ele>237.0</ele><time>2026-05-06T01:25:09Z</time></trkpt><trkpt lat="-37.97651404724678" lon="146.0785821737644"><ele>235.0</ele><time>2026-05-06T01:25:10Z</time></trkpt><trkpt lat="-37.976409681979895" lon="146.07855521551073"><ele>233.0</ele><time>2026-05-06T01:25:11Z</time></trkpt><trkpt lat="-37.97630674288413" lon="146.07852283321975"><ele>231.0</ele><time>2026-05-06T01:25:12Z</time></trkpt><trkpt lat="-37.97621428898859" lon="146.07843014239782"><ele>229.0</ele><time>2026-05-06T01:25:13Z</time></trkpt><trkpt lat="-37.976155260314314" lon="146.07832838375376"><ele>227.0</ele><time>2026-05-06T01:25:14Z</time></trkpt><trkpt lat="-37.97609215154076" lon="146.07819613730223"><ele>225.39999999999998</ele><time>2026-05-06T01:25:15Z</time></trkpt><trkpt lat="-37.9760219972133" lon="146.0780617886302"><ele>223.79999999999998</ele><time>2026-05-06T01:25:16Z</time></trkpt><trkpt lat="-37.975950218916985" lon="146.07795108823214"><ele>222.2</ele><time>2026-05-06T01:25:17Z</time></trkpt><trkpt lat="-37.97588251351929" lon="146.07785095447107"><ele>220.6</ele><time>2026-05-06T01:25:18Z</time></trkpt><trkpt lat="-37.97579899132097" lon="146.07777425205757"><ele>219.0</ele><time>2026-05-06T01:25:19Z</time></trkpt><trkpt lat="-37.9757163117803" lon="146.07771738278615"><ele>219.0</ele><time>2026-05-06T01:25:20Z</time></trkpt><trkpt lat="-37.97562268590615" lon="146.07767719714263"><ele>218.99999999999997</ele><time>2026-05-06T01:25:21Z</time></trkpt><trkpt lat="-37.975519250386945" lon="146.07765108962872"><ele>218.99999999999997</ele><time>2026-05-06T01:25:22Z</time></trkpt><trkpt lat="-37.97541147845089" lon="146.07763972067303"><ele>219.0</ele><time>2026-05-06T01:25:23Z</time></trkpt><trkpt lat="-37.975304027974" lon="146.0776406128046"><ele>219.0</ele><time>2026-05-06T01:25:24Z</time></trkpt><trkpt lat="-37.97518699114122" lon="146.07765129531026"><ele>219.0</ele><time>2026-05-06T01:25:25Z</time></trkpt><trkpt lat="-37.97507055200226" lon="146.07767326392946"><ele>219.0</ele><time>2026-05-06T01:25:26Z</time></trkpt><trkpt lat="-37.974956687588524" lon="146.0777078714191"><ele>219.0</ele><time>2026-05-06T01:25:27Z</time></trkpt><trkpt lat="-37.974842724962485" lon="146.07774551695567"><ele>219.0</ele><time>2026-05-06T01:25:28Z</time></trkpt><trkpt lat="-37.97472911531189" lon="146.0778018336433"><ele>218.2</ele><time>2026-05-06T01:25:28.999Z</time></trkpt><trkpt lat="-37.974632118445875" lon="146.07785590137763"><ele>217.39999999999998</ele><time>2026-05-06T01:25:29.999Z</time></trkpt><trkpt lat="-37.97454476765893" lon="146.07791767547948"><ele>216.6</ele><time>2026-05-06T01:25:30.999Z</time></trkpt><trkpt lat="-37.97445963954487" lon="146.0779934082439"><ele>215.8</ele><time>2026-05-06T01:25:31.999Z</time></trkpt><trkpt lat="-37.97437728900125" lon="146.078085640688"><ele>215.0</ele><time>2026-05-06T01:25:32.999Z</time></trkpt><trkpt lat="-37.97430367328039" lon="146.07818644339534"><ele>215.0</ele><time>2026-05-06T01:25:33.999Z</time></trkpt><trkpt lat="-37.97423739219987" lon="146.07829520002232"><ele>215.0</ele><time>2026-05-06T01:25:34.999Z</time></trkpt><trkpt lat="-37.974184229339436" lon="146.07841567500486"><ele>215.0</ele><time>2026-05-06T01:25:35.999Z</time></trkpt><trkpt lat="-37.97413477577816" lon="146.078528989703"><ele>215.0</ele><time>2026-05-06T01:25:36.999Z</time></trkpt><trkpt lat="-37.97409573286983" lon="146.07864381364996"><ele>215.0</ele><time>2026-05-06T01:25:37.999Z</time></trkpt><trkpt lat="-37.97406918767907" lon="146.07875766099616"><ele>215.0</ele><time>2026-05-06T01:25:38.999Z</time></trkpt><trkpt lat="-37.97406071366612" lon="146.07887290020557"><ele>215.0</ele><time>2026-05-06T01:25:39.999Z</time></trkpt><trkpt lat="-37.97407287814766" lon="146.07898677449543"><ele>215.0</ele><time>2026-05-06T01:25:40.999Z</time></trkpt><trkpt lat="-37.97410586590564" lon="146.07908390837684"><ele>215.0</ele><time>2026-05-06T01:25:41.999Z</time></trkpt><trkpt lat="-37.97416179287355" lon="146.07918752892647"><ele>215.0</ele><time>2026-05-06T01:25:42.999Z</time></trkpt><trkpt lat="-37.97424139164147" lon="146.07924981943876"><ele>217.2</ele><time>2026-05-06T01:25:43.999Z</time></trkpt><trkpt lat="-37.97432051903073" lon="146.0793305793291"><ele>219.4</ele><time>2026-05-06T01:25:44.999Z</time></trkpt><trkpt lat="-37.974422686536634" lon="146.0793849984466"><ele>221.60000000000002</ele><time>2026-05-06T01:25:45.999Z</time></trkpt><trkpt lat="-37.974518101252755" lon="146.07942329507236"><ele>223.8</ele><time>2026-05-06T01:25:46.999Z</time></trkpt><trkpt lat="-37.974612031872766" lon="146.07945142503903"><ele>226.0</ele><time>2026-05-06T01:25:47.999Z</time></trkpt><trkpt lat="-37.974687055973625" lon="146.07948205876605"><ele>226.0</ele><time>2026-05-06T01:25:48.999Z</time></trkpt><trkpt lat="-37.97476696855099" lon="146.0795638728096"><ele>226.00000000000003</ele><time>2026-05-06T01:25:50.999Z</time></trkpt><trkpt lat="-37.97480141801315" lon="146.07970533227746"><ele>226.00000000000003</ele><time>2026-05-06T01:25:51.999Z</time></trkpt><trkpt lat="-37.97477026506289" lon="146.07982714333355"><ele>226.0</ele><time>2026-05-06T01:25:52.999Z</time></trkpt><trkpt lat="-37.974679043655925" lon="146.07992241118362"><ele>226.0</ele><time>2026-05-06T01:25:53.999Z</time></trkpt><trkpt lat="-37.9745746969708" lon="146.08003851697777"><ele>225.0</ele><time>2026-05-06T01:25:54.999Z</time></trkpt><trkpt lat="-37.9744749766375" lon="146.08015963099214"><ele>224.0</ele><time>2026-05-06T01:25:55.999Z</time></trkpt><trkpt lat="-37.974357985512874" lon="146.08028644797983"><ele>223.0</ele><time>2026-05-06T01:25:56.999Z</time></trkpt><trkpt lat="-37.97425848739586" lon="146.08040291872575"><ele>222.0</ele><time>2026-05-06T01:25:57.999Z</time></trkpt><trkpt lat="-37.97414483822546" lon="146.08045731940186"><ele>216.75</ele><time>2026-05-06T01:25:58.999Z</time></trkpt><trkpt lat="-37.974037115420565" lon="146.08051201214175"><ele>211.5</ele><time>2026-05-06T01:25:59.999Z</time></trkpt><trkpt lat="-37.97391248659119" lon="146.08056773523668"><ele>206.25</ele><time>2026-05-06T01:26:00.999Z</time></trkpt><trkpt lat="-37.973778561813326" lon="146.0806240129846"><ele>201.0</ele><time>2026-05-06T01:26:01.999Z</time></trkpt><trkpt lat="-37.97364391148974" lon="146.08067850561162"><ele>201.0</ele><time>2026-05-06T01:26:02.999Z</time></trkpt><trkpt lat="-37.97351760572787" lon="146.0807528928796"><ele>201.0</ele><time>2026-05-06T01:26:03.999Z</time></trkpt><trkpt lat="-37.97336757367559" lon="146.0808151672065"><ele>201.0</ele><time>2026-05-06T01:26:04.999Z</time></trkpt><trkpt lat="-37.97322876487862" lon="146.0808701282129"><ele>201.0</ele><time>2026-05-06T01:26:05.999Z</time></trkpt><trkpt lat="-37.97308433197551" lon="146.0809283884848"><ele>199.75</ele><time>2026-05-06T01:26:06.999Z</time></trkpt><trkpt lat="-37.972956704488546" lon="146.08098566442223"><ele>198.5</ele><time>2026-05-06T01:26:07.999Z</time></trkpt><trkpt lat="-37.97282647796472" lon="146.08104973612024"><ele>197.25</ele><time>2026-05-06T01:26:08.999Z</time></trkpt><trkpt lat="-37.97270768320762" lon="146.0811178620963"><ele>196.0</ele><time>2026-05-06T01:26:09.999Z</time></trkpt><trkpt lat="-37.97259685912797" lon="146.08119286669356"><ele>192.0</ele><time>2026-05-06T01:26:10.999Z</time></trkpt><trkpt lat="-37.97249931737497" lon="146.08127171766264"><ele>188.0</ele><time>2026-05-06T01:26:11.999Z</time></trkpt><trkpt lat="-37.97240556342738" lon="146.08135588766234"><ele>184.0</ele><time>2026-05-06T01:26:12.999Z</time></trkpt><trkpt lat="-37.972333607728004" lon="146.08147024950887"><ele>180.0</ele><time>2026-05-06T01:26:13.999Z</time></trkpt><trkpt lat="-37.97225981523061" lon="146.081584619683"><ele>182.75</ele><time>2026-05-06T01:26:14.999Z</time></trkpt><trkpt lat="-37.97218195590963" lon="146.08173541973795"><ele>185.5</ele><time>2026-05-06T01:26:15.999Z</time></trkpt><trkpt lat="-37.97210666455092" lon="146.08189316203098"><ele>188.25</ele><time>2026-05-06T01:26:16.999Z</time></trkpt><trkpt lat="-37.97204879646221" lon="146.08205222684745"><ele>191.0</ele><time>2026-05-06T01:26:17.999Z</time></trkpt><trkpt lat="-37.971987629537146" lon="146.0822079194364"><ele>191.0</ele><time>2026-05-06T01:26:18.999Z</time></trkpt><trkpt lat="-37.971913805827405" lon="146.08237890781837"><ele>191.0</ele><time>2026-05-06T01:26:19.999Z</time></trkpt><trkpt lat="-37.9718467192537" lon="146.08253381894326"><ele>191.0</ele><time>2026-05-06T01:26:20.999Z</time></trkpt><trkpt lat="-37.971785261582696" lon="146.08267460242882"><ele>191.0</ele><time>2026-05-06T01:26:21.999Z</time></trkpt><trkpt lat="-37.971709293793836" lon="146.0828100347843"><ele>189.0</ele><time>2026-05-06T01:26:22.999Z</time></trkpt><trkpt lat="-37.97162572378312" lon="146.08293823355376"><ele>187.0</ele><time>2026-05-06T01:26:23.999Z</time></trkpt><trkpt lat="-37.971563725581845" lon="146.08308346275555"><ele>185.0</ele><time>2026-05-06T01:26:24.999Z</time></trkpt><trkpt lat="-37.97150737700698" lon="146.0832425282511"><ele>183.0</ele><time>2026-05-06T01:26:25.999Z</time></trkpt><trkpt lat="-37.97145782721091" lon="146.08341034671977"><ele>183.0</ele><time>2026-05-06T01:26:26.999Z</time></trkpt><trkpt lat="-37.97140508393815" lon="146.08357023863678"><ele>183.0</ele><time>2026-05-06T01:26:27.999Z</time></trkpt><trkpt lat="-37.97134557149182" lon="146.08371920510035"><ele>183.0</ele><time>2026-05-06T01:26:28.999Z</time></trkpt><trkpt lat="-37.9712934597749" lon="146.08386213185344"><ele>183.0</ele><time>2026-05-06T01:26:29.999Z</time></trkpt><trkpt lat="-37.971237589156075" lon="146.0840127148719"><ele>183.5</ele><time>2026-05-06T01:26:30.999Z</time></trkpt><trkpt lat="-37.97118522771159" lon="146.0841638006157"><ele>184.0</ele><time>2026-05-06T01:26:31.999Z</time></trkpt><trkpt lat="-37.971127185083745" lon="146.0843189795724"><ele>184.5</ele><time>2026-05-06T01:26:32.999Z</time></trkpt><trkpt lat="-37.9710905430165" lon="146.0844651860019"><ele>185.0</ele><time>2026-05-06T01:26:33.999Z</time></trkpt><trkpt lat="-37.97106812658965" lon="146.08461186193765"><ele>185.0</ele><time>2026-05-06T01:26:34.999Z</time></trkpt><trkpt lat="-37.97106098291904" lon="146.08477475872598"><ele>185.0</ele><time>2026-05-06T01:26:35.999Z</time></trkpt><trkpt lat="-37.97105718041841" lon="146.08493843845798"><ele>185.0</ele><time>2026-05-06T01:26:36.999Z</time></trkpt><trkpt lat="-37.97106585852428" lon="146.08508795535894"><ele>185.0</ele><time>2026-05-06T01:26:37.999Z</time></trkpt><trkpt lat="-37.971075428809065" lon="146.08522791684962"><ele>184.2</ele><time>2026-05-06T01:26:38.999Z</time></trkpt><trkpt lat="-37.97109237412555" lon="146.08537660135116"><ele>183.4</ele><time>2026-05-06T01:26:39.999Z</time></trkpt><trkpt lat="-37.97110714075278" lon="146.0855167811248"><ele>182.60000000000002</ele><time>2026-05-06T01:26:40.999Z</time></trkpt><trkpt lat="-37.97113049385494" lon="146.08564853576826"><ele>181.8</ele><time>2026-05-06T01:26:41.999Z</time></trkpt><trkpt lat="-37.971150791420236" lon="146.08577552810502"><ele>181.0</ele><time>2026-05-06T01:26:42.998Z</time></trkpt><trkpt lat="-37.971169994387154" lon="146.08590312827437"><ele>180.20000000000002</ele><time>2026-05-06T01:26:43.998Z</time></trkpt><trkpt lat="-37.9711709966408" lon="146.08603948228284"><ele>179.4</ele><time>2026-05-06T01:26:44.998Z</time></trkpt><trkpt lat="-37.97115456249566" lon="146.08617178929802"><ele>178.6</ele><time>2026-05-06T01:26:45.998Z</time></trkpt><trkpt lat="-37.9711219418647" lon="146.0862757834982"><ele>177.8</ele><time>2026-05-06T01:26:46.998Z</time></trkpt><trkpt lat="-37.971079023739875" lon="146.08638048771473"><ele>177.0</ele><time>2026-05-06T01:26:47.998Z</time></trkpt><trkpt lat="-37.97104157649297" lon="146.086497034953"><ele>176.8</ele><time>2026-05-06T01:26:48.998Z</time></trkpt><trkpt lat="-37.971009603246266" lon="146.08662612461333"><ele>176.6</ele><time>2026-05-06T01:26:49.998Z</time></trkpt><trkpt lat="-37.97098872130499" lon="146.08673613700404"><ele>176.4</ele><time>2026-05-06T01:26:50.998Z</time></trkpt><trkpt lat="-37.97097156265771" lon="146.08683191992475"><ele>176.20000000000002</ele><time>2026-05-06T01:26:51.998Z</time></trkpt><trkpt lat="-37.970919015707516" lon="146.08698513136426"><ele>176.0</ele><time>2026-05-06T01:26:53.998Z</time></trkpt><trkpt lat="-37.97085547338331" lon="146.08705317926265"><ele>176.33333333333331</ele><time>2026-05-06T01:26:54.998Z</time></trkpt><trkpt lat="-37.9707678578328" lon="146.0871017816809"><ele>176.66666666666666</ele><time>2026-05-06T01:26:55.998Z</time></trkpt><trkpt lat="-37.9707015100476" lon="146.0871273175749"><ele>177.0</ele><time>2026-05-06T01:26:56.998Z</time></trkpt><trkpt lat="-37.9706406035654" lon="146.0871541073978"><ele>177.33333333333334</ele><time>2026-05-06T01:26:57.998Z</time></trkpt><trkpt lat="-37.97055943068746" lon="146.08715048778362"><ele>177.66666666666669</ele><time>2026-05-06T01:26:59.998Z</time></trkpt><trkpt lat="-37.97047699405017" lon="146.08706620886085"><ele>178.0</ele><time>2026-05-06T01:29:55.999Z</time></trkpt><trkpt lat="-37.97042505930311" lon="146.08701951083185"><ele>178.0</ele><time>2026-05-06T01:29:56.999Z</time></trkpt><trkpt lat="-37.97036779965134" lon="146.08697730210795"><ele>178.0</ele><time>2026-05-06T01:29:57.999Z</time></trkpt><trkpt lat="-37.97029621153995" lon="146.0869243433014"><ele>178.0</ele><time>2026-05-06T01:29:58.999Z</time></trkpt><trkpt lat="-37.970217523939795" lon="146.08685881177436"><ele>178.0</ele><time>2026-05-06T01:29:59.999Z</time></trkpt><trkpt lat="-37.97017114413272" lon="146.0867872728821"><ele>178.0</ele><time>2026-05-06T01:30:00.999Z</time></trkpt><trkpt lat="-37.97012542168804" lon="146.08669022809158"><ele>178.0</ele><time>2026-05-06T01:30:01.999Z</time></trkpt><trkpt lat="-37.97009193653488" lon="146.0865870059222"><ele>177.60000000000002</ele><time>2026-05-06T01:30:02.999Z</time></trkpt><trkpt lat="-37.970048676280484" lon="146.08648272858792"><ele>177.20000000000002</ele><time>2026-05-06T01:30:03.999Z</time></trkpt><trkpt lat="-37.96999331571884" lon="146.0863946792468"><ele>176.8</ele><time>2026-05-06T01:30:04.999Z</time></trkpt><trkpt lat="-37.96992937473894" lon="146.0863004060919"><ele>176.4</ele><time>2026-05-06T01:30:05.999Z</time></trkpt><trkpt lat="-37.96984556384357" lon="146.0861679443503"><ele>176.0</ele><time>2026-05-06T01:30:07.999Z</time></trkpt><trkpt lat="-37.969802438077465" lon="146.08608668996453"><ele>178.16666666666666</ele><time>2026-05-06T01:30:08.999Z</time></trkpt><trkpt lat="-37.96975996376451" lon="146.0860267009383"><ele>180.33333333333331</ele><time>2026-05-06T01:30:09.999Z</time></trkpt><trkpt lat="-37.96971799785204" lon="146.08595552093357"><ele>182.5</ele><time>2026-05-06T01:30:10.999Z</time></trkpt><trkpt lat="-37.96965865259975" lon="146.0858593426629"><ele>184.66666666666666</ele><time>2026-05-06T01:30:11.999Z</time></trkpt><trkpt lat="-37.96960024550716" lon="146.0857810635757"><ele>186.83333333333334</ele><time>2026-05-06T01:30:12.999Z</time></trkpt><trkpt lat="-37.969540850587954" lon="146.08570593682103"><ele>189.0</ele><time>2026-05-06T01:30:13.999Z</time></trkpt><trkpt lat="-37.96946401775261" lon="146.0855967029602"><ele>189.83333333333334</ele><time>2026-05-06T01:30:14.999Z</time></trkpt><trkpt lat="-37.969408513973775" lon="146.08549096567202"><ele>190.66666666666669</ele><time>2026-05-06T01:30:15.999Z</time></trkpt><trkpt lat="-37.96937348384353" lon="146.08542212133668"><ele>191.5</ele><time>2026-05-06T01:30:16.999Z</time></trkpt><trkpt lat="-37.96931287417169" lon="146.08533093181984"><ele>192.33333333333334</ele><time>2026-05-06T01:30:17.999Z</time></trkpt><trkpt lat="-37.969249199937536" lon="146.08526506339123"><ele>193.16666666666669</ele><time>2026-05-06T01:30:18.999Z</time></trkpt><trkpt lat="-37.9691849656579" lon="146.085198865332"><ele>194.0</ele><time>2026-05-06T01:30:19.999Z</time></trkpt><trkpt lat="-37.96913437685151" lon="146.0850859383271"><ele>198.16666666666669</ele><time>2026-05-06T01:30:20.999Z</time></trkpt><trkpt lat="-37.96911611301413" lon="146.08499576849914"><ele>202.33333333333334</ele><time>2026-05-06T01:30:21.999Z</time></trkpt><trkpt lat="-37.969068045732804" lon="146.08490635832774"><ele>206.5</ele><time>2026-05-06T01:30:22.999Z</time></trkpt><trkpt lat="-37.96902881278828" lon="146.08478270952403"><ele>210.66666666666669</ele><time>2026-05-06T01:30:23.999Z</time></trkpt><trkpt lat="-37.96903289564425" lon="146.08468117445048"><ele>214.83333333333334</ele><time>2026-05-06T01:30:24.999Z</time></trkpt><trkpt lat="-37.96902589854742" lon="146.08459054433837"><ele>219.0</ele><time>2026-05-06T01:30:25.999Z</time></trkpt><trkpt lat="-37.969007498295085" lon="146.08447717157236"><ele>219.16666666666666</ele><time>2026-05-06T01:30:26.999Z</time></trkpt><trkpt lat="-37.96900361475101" lon="146.08437786150444"><ele>219.33333333333331</ele><time>2026-05-06T01:30:27.999Z</time></trkpt><trkpt lat="-37.969017132390555" lon="146.08426084505948"><ele>219.5</ele><time>2026-05-06T01:30:28.999Z</time></trkpt><trkpt lat="-37.969029974412614" lon="146.08416385537396"><ele>219.66666666666666</ele><time>2026-05-06T01:30:29.999Z</time></trkpt><trkpt lat="-37.969040245373215" lon="146.08405063136001"><ele>219.83333333333331</ele><time>2026-05-06T01:30:30.999Z</time></trkpt><trkpt lat="-37.96900831172713" lon="146.08393632331436"><ele>220.0</ele><time>2026-05-06T01:30:31.999Z</time></trkpt><trkpt lat="-37.968955079001205" lon="146.08379362556153"><ele>219.25</ele><time>2026-05-06T01:30:32.999Z</time></trkpt><trkpt lat="-37.968907940942856" lon="146.0836473294177"><ele>218.5</ele><time>2026-05-06T01:30:33.999Z</time></trkpt><trkpt lat="-37.96886719717361" lon="146.08351899035983"><ele>217.75</ele><time>2026-05-06T01:30:34.999Z</time></trkpt><trkpt lat="-37.96882084812245" lon="146.08338422394897"><ele>217.0</ele><time>2026-05-06T01:30:35.999Z</time></trkpt><trkpt lat="-37.96875807055784" lon="146.08322141634636"><ele>217.0</ele><time>2026-05-06T01:30:36.999Z</time></trkpt><trkpt lat="-37.96868670546977" lon="146.08308118319985"><ele>217.0</ele><time>2026-05-06T01:30:37.999Z</time></trkpt><trkpt lat="-37.96862730162051" lon="146.08294366186422"><ele>217.0</ele><time>2026-05-06T01:30:38.999Z</time></trkpt><trkpt lat="-37.96858266920996" lon="146.08279365571042"><ele>217.0</ele><time>2026-05-06T01:30:39.999Z</time></trkpt><trkpt lat="-37.96858293748535" lon="146.08265504913496"><ele>217.0</ele><time>2026-05-06T01:30:40.999Z</time></trkpt><trkpt lat="-37.968586915497355" lon="146.08250802874696"><ele>217.0</ele><time>2026-05-06T01:30:41.999Z</time></trkpt><trkpt lat="-37.96840418100714" lon="146.0824107645462"><ele>217.0</ele><time>2026-05-06T01:30:42.999Z</time></trkpt><trkpt lat="-37.968371923913146" lon="146.0823144851445"><ele>217.0</ele><time>2026-05-06T01:30:43.999Z</time></trkpt><trkpt lat="-37.96834569462964" lon="146.0822340807904"><ele>219.99999999999997</ele><time>2026-05-06T01:30:44.999Z</time></trkpt><trkpt lat="-37.96829957314243" lon="146.08212482042453"><ele>223.0</ele><time>2026-05-06T01:30:45.999Z</time></trkpt><trkpt lat="-37.96825764348064" lon="146.08201694141633"><ele>226.0</ele><time>2026-05-06T01:30:46.999Z</time></trkpt><trkpt lat="-37.968225909145396" lon="146.08193267904002"><ele>229.0</ele><time>2026-05-06T01:30:47.999Z</time></trkpt><trkpt lat="-37.9681983384075" lon="146.08184244807862"><ele>231.99999999999997</ele><time>2026-05-06T01:30:48.999Z</time></trkpt><trkpt lat="-37.968159634093354" lon="146.08173553511745"><ele>235.0</ele><time>2026-05-06T01:30:49.999Z</time></trkpt><trkpt lat="-37.96810057080809" lon="146.08162308866306"><ele>234.4</ele><time>2026-05-06T01:30:50.999Z</time></trkpt><trkpt lat="-37.96804239681995" lon="146.08155078486055"><ele>233.8</ele><time>2026-05-06T01:30:51.999Z</time></trkpt><trkpt lat="-37.96799172657357" lon="146.08146767932234"><ele>233.2</ele><time>2026-05-06T01:30:52.999Z</time></trkpt><trkpt lat="-37.96793373532029" lon="146.08136494010046"><ele>232.6</ele><time>2026-05-06T01:30:53.999Z</time></trkpt><trkpt lat="-37.967864094629306" lon="146.0812710514773"><ele>232.0</ele><time>2026-05-06T01:30:54.999Z</time></trkpt><trkpt lat="-37.96777354335137" lon="146.08121727595153"><ele>232.0</ele><time>2026-05-06T01:30:55.998Z</time></trkpt><trkpt lat="-37.96766836952186" lon="146.0811729906363"><ele>232.0</ele><time>2026-05-06T01:30:56.998Z</time></trkpt><trkpt lat="-37.96754873191908" lon="146.0811149941473"><ele>232.0</ele><time>2026-05-06T01:30:57.998Z</time></trkpt><trkpt lat="-37.96743618746538" lon="146.08104857402398"><ele>232.0</ele><time>2026-05-06T01:30:58.998Z</time></trkpt><trkpt lat="-37.967338193314156" lon="146.08095767852166"><ele>234.0</ele><time>2026-05-06T01:30:59.998Z</time></trkpt><trkpt lat="-37.96724766159682" lon="146.0808578377146"><ele>236.0</ele><time>2026-05-06T01:31:00.998Z</time></trkpt><trkpt lat="-37.96719629482666" lon="146.08075848246048"><ele>238.0</ele><time>2026-05-06T01:31:01.998Z</time></trkpt><trkpt lat="-37.96716370877729" lon="146.08063866877217"><ele>240.0</ele><time>2026-05-06T01:31:02.998Z</time></trkpt><trkpt lat="-37.96713460223155" lon="146.08051000845788"><ele>242.0</ele><time>2026-05-06T01:31:03.998Z</time></trkpt><trkpt lat="-37.9670966682129" lon="146.08040107664445"><ele>243.83333333333334</ele><time>2026-05-06T01:31:04.998Z</time></trkpt><trkpt lat="-37.967060916821296" lon="146.08029453721755"><ele>245.66666666666669</ele><time>2026-05-06T01:31:05.998Z</time></trkpt><trkpt lat="-37.96701105531628" lon="146.08019289586835"><ele>247.5</ele><time>2026-05-06T01:31:06.998Z</time></trkpt><trkpt lat="-37.96697536778309" lon="146.08008443637362"><ele>249.33333333333331</ele><time>2026-05-06T01:31:07.998Z</time></trkpt><trkpt lat="-37.966941216207275" lon="146.08000013277086"><ele>251.16666666666666</ele><time>2026-05-06T01:31:08.998Z</time></trkpt><trkpt lat="-37.966907740200234" lon="146.0799089856966"><ele>253.0</ele><time>2026-05-06T01:31:09.998Z</time></trkpt><trkpt lat="-37.966870062911916" lon="146.07982334210132"><ele>255.49999999999997</ele><time>2026-05-06T01:31:10.998Z</time></trkpt><trkpt lat="-37.966836838974515" lon="146.07974469546164"><ele>258.0</ele><time>2026-05-06T01:31:11.998Z</time></trkpt><trkpt lat="-37.96680618342843" lon="146.07966088845873"><ele>260.5</ele><time>2026-05-06T01:31:12.998Z</time></trkpt><trkpt lat="-37.96677744220911" lon="146.07958214610912"><ele>263.0</ele><time>2026-05-06T01:31:13.998Z</time></trkpt><trkpt lat="-37.96673843625454" lon="146.0795108009266"><ele>265.5</ele><time>2026-05-06T01:31:14.998Z</time></trkpt><trkpt lat="-37.96670123737992" lon="146.0794372026433"><ele>268.0</ele><time>2026-05-06T01:31:15.998Z</time></trkpt><trkpt lat="-37.966610648217205" lon="146.07930929486082"><ele>268.2</ele><time>2026-05-06T01:31:17.998Z</time></trkpt><trkpt lat="-37.96659802474481" lon="146.07920580905642"><ele>268.4</ele><time>2026-05-06T01:31:18.998Z</time></trkpt><trkpt lat="-37.96661130576285" lon="146.07909117683974"><ele>268.59999999999997</ele><time>2026-05-06T01:31:19.998Z</time></trkpt><trkpt lat="-37.96663767301926" lon="146.0789771568406"><ele>268.8</ele><time>2026-05-06T01:31:20.998Z</time></trkpt><trkpt lat="-37.966691683178475" lon="146.07887844866656"><ele>269.0</ele><time>2026-05-06T01:31:21.998Z</time></trkpt><trkpt lat="-37.96676488982768" lon="146.07878207725392"><ele>270.0</ele><time>2026-05-06T01:31:22.998Z</time></trkpt><trkpt lat="-37.966849588878134" lon="146.07868354044157"><ele>271.0</ele><time>2026-05-06T01:31:23.998Z</time></trkpt><trkpt lat="-37.96694123016688" lon="146.0785811586014"><ele>272.0</ele><time>2026-05-06T01:31:24.998Z</time></trkpt><trkpt lat="-37.96702355254107" lon="146.07847648162976"><ele>273.0</ele><time>2026-05-06T01:31:26Z</time></trkpt><trkpt lat="-37.96709660061645" lon="146.07836529945905"><ele>273.0</ele><time>2026-05-06T01:31:27Z</time></trkpt><trkpt lat="-37.96717693282316" lon="146.07827060699307"><ele>273.0</ele><time>2026-05-06T01:31:28Z</time></trkpt><trkpt lat="-37.9672431350971" lon="146.0781975033711"><ele>273.0</ele><time>2026-05-06T01:31:29Z</time></trkpt><trkpt lat="-37.96728773589281" lon="146.07807090235562"><ele>273.0</ele><time>2026-05-06T01:31:30Z</time></trkpt><trkpt lat="-37.967318013202025" lon="146.07791989141825"><ele>273.0</ele><time>2026-05-06T01:31:31Z</time></trkpt><trkpt lat="-37.967343405065314" lon="146.077786925083"><ele>273.6</ele><time>2026-05-06T01:31:32Z</time></trkpt><trkpt lat="-37.96737335956706" lon="146.07764019662125"><ele>274.20000000000005</ele><time>2026-05-06T01:31:33Z</time></trkpt><trkpt lat="-37.96741839217001" lon="146.0775054508322"><ele>274.8</ele><time>2026-05-06T01:31:34Z</time></trkpt><trkpt lat="-37.9674616039953" lon="146.0773856351962"><ele>275.40000000000003</ele><time>2026-05-06T01:31:35Z</time></trkpt><trkpt lat="-37.967502027158204" lon="146.07726891151074"><ele>276.0</ele><time>2026-05-06T01:31:36Z</time></trkpt><trkpt lat="-37.96753211417654" lon="146.07714992742464"><ele>275.25</ele><time>2026-05-06T01:31:37Z</time></trkpt><trkpt lat="-37.96755462934534" lon="146.07700567194547"><ele>274.5</ele><time>2026-05-06T01:31:38Z</time></trkpt><trkpt lat="-37.96758325564504" lon="146.0768679227514"><ele>273.75</ele><time>2026-05-06T01:31:39Z</time></trkpt><trkpt lat="-37.967644239081345" lon="146.0767337509609"><ele>273.0</ele><time>2026-05-06T01:31:40Z</time></trkpt><trkpt lat="-37.967697782842905" lon="146.07660248065525"><ele>273.0</ele><time>2026-05-06T01:31:41Z</time></trkpt><trkpt lat="-37.967727155087" lon="146.07645660610365"><ele>273.0</ele><time>2026-05-06T01:31:42Z</time></trkpt><trkpt lat="-37.967730565618595" lon="146.0763033344567"><ele>273.0</ele><time>2026-05-06T01:31:43Z</time></trkpt><trkpt lat="-37.967736188478845" lon="146.07615787672964"><ele>273.0</ele><time>2026-05-06T01:31:44Z</time></trkpt><trkpt lat="-37.967747775279136" lon="146.07600973725854"><ele>273.0</ele><time>2026-05-06T01:31:45Z</time></trkpt><trkpt lat="-37.96776894052806" lon="146.07585863632013"><ele>273.0</ele><time>2026-05-06T01:31:45.999Z</time></trkpt><trkpt lat="-37.967815066916145" lon="146.075726507153"><ele>273.0</ele><time>2026-05-06T01:31:46.999Z</time></trkpt><trkpt lat="-37.96786987178244" lon="146.07559398304446"><ele>273.0</ele><time>2026-05-06T01:31:47.999Z</time></trkpt><trkpt lat="-37.967882782740375" lon="146.07549548711586"><ele>273.0</ele><time>2026-05-06T01:31:48.999Z</time></trkpt><trkpt lat="-37.96788897130474" lon="146.0753997553848"><ele>274.8</ele><time>2026-05-06T01:31:49.999Z</time></trkpt><trkpt lat="-37.96787978712893" lon="146.07528593238644"><ele>276.6</ele><time>2026-05-06T01:31:50.999Z</time></trkpt><trkpt lat="-37.967890011221726" lon="146.07516678545358"><ele>278.4</ele><time>2026-05-06T01:31:51.999Z</time></trkpt><trkpt lat="-37.96789033612218" lon="146.07504366874088"><ele>280.2</ele><time>2026-05-06T01:31:52.999Z</time></trkpt><trkpt lat="-37.967894270790225" lon="146.0749377721991"><ele>282.0</ele><time>2026-05-06T01:31:53.999Z</time></trkpt><trkpt lat="-37.96791389911059" lon="146.0748242938081"><ele>282.8</ele><time>2026-05-06T01:31:54.999Z</time></trkpt><trkpt lat="-37.96791576491228" lon="146.07473634249516"><ele>283.6</ele><time>2026-05-06T01:31:55.999Z</time></trkpt><trkpt lat="-37.967881777076194" lon="146.07465538873396"><ele>284.40000000000003</ele><time>2026-05-06T01:31:56.999Z</time></trkpt><trkpt lat="-37.96779942817065" lon="146.07455026653204"><ele>285.2</ele><time>2026-05-06T01:31:57.999Z</time></trkpt><trkpt lat="-37.96770123702705" lon="146.07445720766094"><ele>286.0</ele><time>2026-05-06T01:31:58.999Z</time></trkpt><trkpt lat="-37.96761613658449" lon="146.0743685099272"><ele>288.6</ele><time>2026-05-06T01:31:59.999Z</time></trkpt><trkpt lat="-37.96752102575792" lon="146.07426912373097"><ele>291.20000000000005</ele><time>2026-05-06T01:32:00.999Z</time></trkpt><trkpt lat="-37.967446664244164" lon="146.07417570744423"><ele>293.79999999999995</ele><time>2026-05-06T01:32:01.999Z</time></trkpt><trkpt lat="-37.96737590534507" lon="146.0740993310629"><ele>296.4</ele><time>2026-05-06T01:32:02.999Z</time></trkpt><trkpt lat="-37.96730682959642" lon="146.07400949250254"><ele>299.0</ele><time>2026-05-06T01:32:03.999Z</time></trkpt><trkpt lat="-37.967237551857856" lon="146.07391646216786"><ele>299.59999999999997</ele><time>2026-05-06T01:32:04.999Z</time></trkpt><trkpt lat="-37.967152409725074" lon="146.07381311500066"><ele>300.2</ele><time>2026-05-06T01:32:05.999Z</time></trkpt><trkpt lat="-37.96709621544295" lon="146.0737331706201"><ele>300.79999999999995</ele><time>2026-05-06T01:32:06.999Z</time></trkpt><trkpt lat="-37.967022042725965" lon="146.07371754545105"><ele>301.4</ele><time>2026-05-06T01:32:07.999Z</time></trkpt><trkpt lat="-37.96692131129815" lon="146.07372935646126"><ele>302.0</ele><time>2026-05-06T01:32:08.999Z</time></trkpt><trkpt lat="-37.966807513355434" lon="146.07376826488291"><ele>302.0</ele><time>2026-05-06T01:32:09.999Z</time></trkpt><trkpt lat="-37.966719291320004" lon="146.0737885369711"><ele>302.0</ele><time>2026-05-06T01:32:10.999Z</time></trkpt><trkpt lat="-37.96664657182017" lon="146.07376526017467"><ele>302.0</ele><time>2026-05-06T01:32:11.999Z</time></trkpt><trkpt lat="-37.96655870939622" lon="146.0737162503918"><ele>302.0</ele><time>2026-05-06T01:32:12.999Z</time></trkpt><trkpt lat="-37.966499098348706" lon="146.073674985987"><ele>302.0</ele><time>2026-05-06T01:32:13.999Z</time></trkpt><trkpt lat="-37.96643126379814" lon="146.07361976312643"><ele>302.0</ele><time>2026-05-06T01:32:14.999Z</time></trkpt><trkpt lat="-37.966368408972166" lon="146.07354238068214"><ele>302.0</ele><time>2026-05-06T01:32:15.999Z</time></trkpt><trkpt lat="-37.96630907848004" lon="146.0734709667478"><ele>302.0</ele><time>2026-05-06T01:32:16.999Z</time></trkpt><trkpt lat="-37.96626643731574" lon="146.07338849771796"><ele>302.0</ele><time>2026-05-06T01:32:17.999Z</time></trkpt><trkpt lat="-37.96622683876855" lon="146.0732841788975"><ele>302.0</ele><time>2026-05-06T01:32:18.999Z</time></trkpt><trkpt lat="-37.96619856899055" lon="146.07318824255478"><ele>302.0</ele><time>2026-05-06T01:32:19.999Z</time></trkpt><trkpt lat="-37.96615392494484" lon="146.07309252074438"><ele>302.0</ele><time>2026-05-06T01:32:20.999Z</time></trkpt><trkpt lat="-37.96611237448945" lon="146.07299259837393"><ele>299.4</ele><time>2026-05-06T01:32:21.999Z</time></trkpt><trkpt lat="-37.96602722580431" lon="146.07292168175175"><ele>296.79999999999995</ele><time>2026-05-06T01:32:22.999Z</time></trkpt><trkpt lat="-37.96594048905851" lon="146.07285609386958"><ele>294.2</ele><time>2026-05-06T01:32:23.999Z</time></trkpt><trkpt lat="-37.965858284496946" lon="146.07282466947774"><ele>291.59999999999997</ele><time>2026-05-06T01:32:24.999Z</time></trkpt><trkpt lat="-37.96576727871435" lon="146.07279377922333"><ele>289.0</ele><time>2026-05-06T01:32:25.999Z</time></trkpt><trkpt lat="-37.96565443066916" lon="146.0727490985056"><ele>289.0</ele><time>2026-05-06T01:32:26.999Z</time></trkpt><trkpt lat="-37.96556830526007" lon="146.07269701634615"><ele>289.0</ele><time>2026-05-06T01:32:27.999Z</time></trkpt><trkpt lat="-37.965485219627496" lon="146.07266832656123"><ele>289.0</ele><time>2026-05-06T01:32:28.999Z</time></trkpt><trkpt lat="-37.96537200676716" lon="146.07264818900762"><ele>289.0</ele><time>2026-05-06T01:32:29.999Z</time></trkpt><trkpt lat="-37.9652592437347" lon="146.07266031389727"><ele>289.0</ele><time>2026-05-06T01:32:30.999Z</time></trkpt><trkpt lat="-37.96515769264125" lon="146.0726727236393"><ele>289.0</ele><time>2026-05-06T01:32:31.999Z</time></trkpt><trkpt lat="-37.96507349228519" lon="146.0727039437675"><ele>289.0</ele><time>2026-05-06T01:32:32.999Z</time></trkpt><trkpt lat="-37.96499287244184" lon="146.0727403373841"><ele>289.0</ele><time>2026-05-06T01:32:33.999Z</time></trkpt><trkpt lat="-37.96492097491602" lon="146.07276108833167"><ele>289.0</ele><time>2026-05-06T01:32:34.999Z</time></trkpt><trkpt lat="-37.96483131102432" lon="146.07277750877097"><ele>289.0</ele><time>2026-05-06T01:32:35.999Z</time></trkpt><trkpt lat="-37.96475071861938" lon="146.07277700372683"><ele>289.0</ele><time>2026-05-06T01:32:36.999Z</time></trkpt><trkpt lat="-37.964658537289196" lon="146.07278599784718"><ele>291.2</ele><time>2026-05-06T01:32:37.999Z</time></trkpt><trkpt lat="-37.964593637886196" lon="146.07279685990204"><ele>293.4</ele><time>2026-05-06T01:32:38.999Z</time></trkpt><trkpt lat="-37.964538725708756" lon="146.07273889321405"><ele>295.6</ele><time>2026-05-06T01:32:40.999Z</time></trkpt><trkpt lat="-37.96448215636225" lon="146.0726004290285"><ele>297.8</ele><time>2026-05-06T01:32:42.999Z</time></trkpt><trkpt lat="-37.96444118677859" lon="146.07248437422572"><ele>300.0</ele><time>2026-05-06T01:32:43.999Z</time></trkpt><trkpt lat="-37.96439600493848" lon="146.07238308888128"><ele>301.0</ele><time>2026-05-06T01:32:44.999Z</time></trkpt><trkpt lat="-37.96436006580736" lon="146.07229536990226"><ele>302.0</ele><time>2026-05-06T01:32:45.999Z</time></trkpt><trkpt lat="-37.964344351458614" lon="146.07216855975142"><ele>303.0</ele><time>2026-05-06T01:32:46.999Z</time></trkpt><trkpt lat="-37.964337780119855" lon="146.07203122388444"><ele>304.0</ele><time>2026-05-06T01:32:47.999Z</time></trkpt><trkpt lat="-37.964344782534326" lon="146.07189513432994"><ele>305.0</ele><time>2026-05-06T01:32:48.999Z</time></trkpt><trkpt lat="-37.964355847163" lon="146.07175111905488"><ele>304.75</ele><time>2026-05-06T01:32:49.999Z</time></trkpt><trkpt lat="-37.96436709225117" lon="146.0716042277048"><ele>304.5</ele><time>2026-05-06T01:32:50.999Z</time></trkpt><trkpt lat="-37.96438065239522" lon="146.07146340685028"><ele>304.25</ele><time>2026-05-06T01:32:51.999Z</time></trkpt><trkpt lat="-37.964399481798466" lon="146.07131980637288"><ele>304.0</ele><time>2026-05-06T01:32:52.999Z</time></trkpt><trkpt lat="-37.964410550387626" lon="146.07116838879264"><ele>304.0</ele><time>2026-05-06T01:32:53.999Z</time></trkpt><trkpt lat="-37.96440490451106" lon="146.07101411338937"><ele>304.0</ele><time>2026-05-06T01:32:54.999Z</time></trkpt><trkpt lat="-37.96439348487843" lon="146.07087216589946"><ele>304.0</ele><time>2026-05-06T01:32:55.999Z</time></trkpt><trkpt lat="-37.964385100031485" lon="146.07074463960328"><ele>304.0</ele><time>2026-05-06T01:32:56.999Z</time></trkpt><trkpt lat="-37.96439492056477" lon="146.07061289161356"><ele>304.0</ele><time>2026-05-06T01:32:57.999Z</time></trkpt><trkpt lat="-37.96440090176188" lon="146.07049287637236"><ele>303.0</ele><time>2026-05-06T01:32:58.999Z</time></trkpt><trkpt lat="-37.96440112849431" lon="146.07038243937106"><ele>302.0</ele><time>2026-05-06T01:32:59.999Z</time></trkpt><trkpt lat="-37.96436954119851" lon="146.0702897944248"><ele>301.0</ele><time>2026-05-06T01:33:00.998Z</time></trkpt><trkpt lat="-37.964311753385466" lon="146.0701785817582"><ele>300.0</ele><time>2026-05-06T01:33:01.998Z</time></trkpt><trkpt lat="-37.96424303043195" lon="146.07006516465586"><ele>299.0</ele><time>2026-05-06T01:33:02.998Z</time></trkpt><trkpt lat="-37.9641800576989" lon="146.06997290125906"><ele>299.33333333333337</ele><time>2026-05-06T01:33:03.998Z</time></trkpt><trkpt lat="-37.96412091440661" lon="146.06988056572305"><ele>299.6666666666667</ele><time>2026-05-06T01:33:04.998Z</time></trkpt><trkpt lat="-37.96405375143294" lon="146.0698421140901"><ele>300.0</ele><time>2026-05-06T01:33:05.998Z</time></trkpt><trkpt lat="-37.96397779286046" lon="146.06982980475505"><ele>300.3333333333333</ele><time>2026-05-06T01:33:06.998Z</time></trkpt><trkpt lat="-37.96387890214249" lon="146.0698170077472"><ele>300.66666666666663</ele><time>2026-05-06T01:33:07.998Z</time></trkpt><trkpt lat="-37.96377686724821" lon="146.0698167577934"><ele>301.0</ele><time>2026-05-06T01:33:08.998Z</time></trkpt><trkpt lat="-37.963657731391386" lon="146.06982930547622"><ele>301.0</ele><time>2026-05-06T01:33:09.998Z</time></trkpt><trkpt lat="-37.963543628430706" lon="146.06983007124884"><ele>301.0</ele><time>2026-05-06T01:33:10.998Z</time></trkpt><trkpt lat="-37.96343890414388" lon="146.06983501238142"><ele>301.0</ele><time>2026-05-06T01:33:11.998Z</time></trkpt><trkpt lat="-37.96332745092751" lon="146.06984026786247"><ele>301.0</ele><time>2026-05-06T01:33:12.998Z</time></trkpt><trkpt lat="-37.963218273145195" lon="146.06984554063993"><ele>301.0</ele><time>2026-05-06T01:33:13.998Z</time></trkpt><trkpt lat="-37.96313027813385" lon="146.06984215613622"><ele>301.5</ele><time>2026-05-06T01:33:14.998Z</time></trkpt><trkpt lat="-37.963033861384936" lon="146.06981502766112"><ele>302.0</ele><time>2026-05-06T01:33:15.998Z</time></trkpt><trkpt lat="-37.96295699814093" lon="146.06976154928526"><ele>302.5</ele><time>2026-05-06T01:33:16.998Z</time></trkpt><trkpt lat="-37.96288395309214" lon="146.06970903317136"><ele>303.0</ele><time>2026-05-06T01:33:17.998Z</time></trkpt><trkpt lat="-37.96280358293156" lon="146.0696623330913"><ele>303.5</ele><time>2026-05-06T01:33:18.998Z</time></trkpt><trkpt lat="-37.96271619613323" lon="146.06967498236395"><ele>304.0</ele><time>2026-05-06T01:33:19.998Z</time></trkpt><trkpt lat="-37.962616598311264" lon="146.06970524051266"><ele>304.0</ele><time>2026-05-06T01:33:20.998Z</time></trkpt><trkpt lat="-37.96254360026023" lon="146.06970462277792"><ele>304.0</ele><time>2026-05-06T01:33:21.998Z</time></trkpt><trkpt lat="-37.96247026076406" lon="146.06973068429994"><ele>304.0</ele><time>2026-05-06T01:33:22.998Z</time></trkpt><trkpt lat="-37.962382906067" lon="146.06974608604662"><ele>304.0</ele><time>2026-05-06T01:33:23.998Z</time></trkpt><trkpt lat="-37.962290734398636" lon="146.06975740628025"><ele>304.0</ele><time>2026-05-06T01:33:24.998Z</time></trkpt><trkpt lat="-37.96221299664491" lon="146.06975704452898"><ele>304.0</ele><time>2026-05-06T01:33:25.998Z</time></trkpt><trkpt lat="-37.96212761649017" lon="146.06975655863673"><ele>307.0</ele><time>2026-05-06T01:33:26.998Z</time></trkpt><trkpt lat="-37.96203748830429" lon="146.06974040066248"><ele>310.0</ele><time>2026-05-06T01:33:27.998Z</time></trkpt><trkpt lat="-37.961955433732975" lon="146.069688833675"><ele>313.0</ele><time>2026-05-06T01:33:28.998Z</time></trkpt><trkpt lat="-37.96189949985194" lon="146.06953280682743"><ele>316.0</ele><time>2026-05-06T01:33:31Z</time></trkpt><trkpt lat="-37.961881227756834" lon="146.06939960087118"><ele>319.0</ele><time>2026-05-06T01:33:32Z</time></trkpt><trkpt lat="-37.96185876904715" lon="146.06926096333672"><ele>319.0</ele><time>2026-05-06T01:33:33Z</time></trkpt><trkpt lat="-37.96181866858239" lon="146.06913516445618"><ele>319.0</ele><time>2026-05-06T01:33:34Z</time></trkpt><trkpt lat="-37.96175621854387" lon="146.0689979932143"><ele>319.0</ele><time>2026-05-06T01:33:35Z</time></trkpt><trkpt lat="-37.961701959552116" lon="146.06884667565745"><ele>319.0</ele><time>2026-05-06T01:33:36Z</time></trkpt><trkpt lat="-37.9616409585472" lon="146.06869336430486"><ele>319.0</ele><time>2026-05-06T01:33:37Z</time></trkpt><trkpt lat="-37.96157897322356" lon="146.06855197686448"><ele>319.0</ele><time>2026-05-06T01:33:38Z</time></trkpt><trkpt lat="-37.96151165775756" lon="146.0683945944453"><ele>319.0</ele><time>2026-05-06T01:33:39Z</time></trkpt><trkpt lat="-37.96146016414515" lon="146.06826497108597"><ele>319.0</ele><time>2026-05-06T01:33:40Z</time></trkpt><trkpt lat="-37.961409228332315" lon="146.06811437491885"><ele>319.0</ele><time>2026-05-06T01:33:41Z</time></trkpt><trkpt lat="-37.96135314278522" lon="146.06798323532868"><ele>319.0</ele><time>2026-05-06T01:33:42Z</time></trkpt><trkpt lat="-37.961286188341084" lon="146.06788528783483"><ele>319.0</ele><time>2026-05-06T01:33:43Z</time></trkpt><trkpt lat="-37.96121915662677" lon="146.06777949698326"><ele>319.0</ele><time>2026-05-06T01:33:44Z</time></trkpt><trkpt lat="-37.961156448999795" lon="146.06769848668392"><ele>319.0</ele><time>2026-05-06T01:33:45Z</time></trkpt><trkpt lat="-37.96106999498278" lon="146.0675941010352"><ele>319.0</ele><time>2026-05-06T01:33:46Z</time></trkpt><trkpt lat="-37.9609925229857" lon="146.06747687264757"><ele>319.0</ele><time>2026-05-06T01:33:47Z</time></trkpt><trkpt lat="-37.96092105736455" lon="146.06737822114377"><ele>319.0</ele><time>2026-05-06T01:33:48Z</time></trkpt><trkpt lat="-37.960864505835076" lon="146.06729597466455"><ele>319.0</ele><time>2026-05-06T01:33:49Z</time></trkpt><trkpt lat="-37.960793131061074" lon="146.0672212490319"><ele>319.0</ele><time>2026-05-06T01:33:50Z</time></trkpt><trkpt lat="-37.960749411309216" lon="146.0671452442195"><ele>320.3333333333333</ele><time>2026-05-06T01:33:51Z</time></trkpt><trkpt lat="-37.960734876479286" lon="146.06706255639637"><ele>321.66666666666663</ele><time>2026-05-06T01:33:52Z</time></trkpt><trkpt lat="-37.96071305982739" lon="146.06696186274976"><ele>323.0</ele><time>2026-05-06T01:33:53Z</time></trkpt><trkpt lat="-37.960646583485406" lon="146.06690739502156"><ele>324.3333333333333</ele><time>2026-05-06T01:33:53.999Z</time></trkpt><trkpt lat="-37.96056475419762" lon="146.06688276990374"><ele>325.6666666666667</ele><time>2026-05-06T01:33:54.999Z</time></trkpt><trkpt lat="-37.96047552434159" lon="146.06688384120477"><ele>327.0</ele><time>2026-05-06T01:33:55.999Z</time></trkpt><trkpt lat="-37.96036424504133" lon="146.06689833390362"><ele>327.0</ele><time>2026-05-06T01:33:56.999Z</time></trkpt><trkpt lat="-37.96025744295274" lon="146.0668849870666"><ele>327.0</ele><time>2026-05-06T01:33:57.999Z</time></trkpt><trkpt lat="-37.96015068594727" lon="146.06686261015275"><ele>327.0</ele><time>2026-05-06T01:33:58.999Z</time></trkpt><trkpt lat="-37.960063787546716" lon="146.0668497694711"><ele>327.0</ele><time>2026-05-06T01:33:59.999Z</time></trkpt><trkpt lat="-37.959984991787806" lon="146.06686673793925"><ele>327.0</ele><time>2026-05-06T01:34:00.999Z</time></trkpt><trkpt lat="-37.95986321874164" lon="146.06690626368896"><ele>328.6</ele><time>2026-05-06T01:34:01.999Z</time></trkpt><trkpt lat="-37.95977023601766" lon="146.06694414410512"><ele>330.20000000000005</ele><time>2026-05-06T01:34:02.999Z</time></trkpt><trkpt lat="-37.959686525949365" lon="146.06698856410407"><ele>331.8</ele><time>2026-05-06T01:34:03.999Z</time></trkpt><trkpt lat="-37.95960734321925" lon="146.06702294644612"><ele>333.4</ele><time>2026-05-06T01:34:04.999Z</time></trkpt><trkpt lat="-37.95950138721417" lon="146.0670521643574"><ele>335.0</ele><time>2026-05-06T01:34:05.999Z</time></trkpt><trkpt lat="-37.95939129509494" lon="146.06707064225125"><ele>335.0</ele><time>2026-05-06T01:34:06.999Z</time></trkpt><trkpt lat="-37.95931144245696" lon="146.06710006382843"><ele>335.0</ele><time>2026-05-06T01:34:07.999Z</time></trkpt><trkpt lat="-37.95922547430526" lon="146.06711761227396"><ele>335.0</ele><time>2026-05-06T01:34:08.999Z</time></trkpt><trkpt lat="-37.95914916255085" lon="146.0671105849891"><ele>335.0</ele><time>2026-05-06T01:34:09.999Z</time></trkpt><trkpt lat="-37.959087395916185" lon="146.06699134467658"><ele>335.0</ele><time>2026-05-06T01:34:11.999Z</time></trkpt><trkpt lat="-37.95906705456856" lon="146.06690621795528"><ele>335.0</ele><time>2026-05-06T01:34:12.999Z</time></trkpt><trkpt lat="-37.959027698325606" lon="146.06680603181152"><ele>337.4</ele><time>2026-05-06T01:34:13.999Z</time></trkpt><trkpt lat="-37.95899440519701" lon="146.06670600254344"><ele>339.8</ele><time>2026-05-06T01:34:14.999Z</time></trkpt><trkpt lat="-37.958976689592696" lon="146.0665794887753"><ele>342.20000000000005</ele><time>2026-05-06T01:34:15.999Z</time></trkpt><trkpt lat="-37.95897509317534" lon="146.06645864069768"><ele>344.6</ele><time>2026-05-06T01:34:16.999Z</time></trkpt><trkpt lat="-37.95898967793792" lon="146.066334805598"><ele>347.0</ele><time>2026-05-06T01:34:17.999Z</time></trkpt><trkpt lat="-37.95899025285594" lon="146.06622253013037"><ele>347.0</ele><time>2026-05-06T01:34:18.999Z</time></trkpt><trkpt lat="-37.9589741177019" lon="146.06610702608302"><ele>347.0</ele><time>2026-05-06T01:34:19.999Z</time></trkpt><trkpt lat="-37.958975960843496" lon="146.06599559907485"><ele>347.0</ele><time>2026-05-06T01:34:20.999Z</time></trkpt><trkpt lat="-37.95887122925299" lon="146.0658209290125"><ele>347.0</ele><time>2026-05-06T01:34:21.999Z</time></trkpt><trkpt lat="-37.95883493002853" lon="146.0656659143594"><ele>346.8</ele><time>2026-05-06T01:34:22.999Z</time></trkpt><trkpt lat="-37.958812185513324" lon="146.0655058078553"><ele>346.6</ele><time>2026-05-06T01:34:23.999Z</time></trkpt><trkpt lat="-37.95873974724842" lon="146.06546558575656"><ele>346.40000000000003</ele><time>2026-05-06T01:34:24.999Z</time></trkpt><trkpt lat="-37.958694946704114" lon="146.06539802340404"><ele>346.20000000000005</ele><time>2026-05-06T01:34:25.999Z</time></trkpt><trkpt lat="-37.95855897306515" lon="146.0653181510386"><ele>346.0</ele><time>2026-05-06T01:34:27.999Z</time></trkpt><trkpt lat="-37.958478553982424" lon="146.0653080186095"><ele>346.0</ele><time>2026-05-06T01:34:28.999Z</time></trkpt><trkpt lat="-37.95840281317744" lon="146.06529069788456"><ele>346.0</ele><time>2026-05-06T01:34:29.999Z</time></trkpt><trkpt lat="-37.95833311547461" lon="146.0652662122816"><ele>346.0</ele><time>2026-05-06T01:34:30.999Z</time></trkpt><trkpt lat="-37.958263191029666" lon="146.0652135924799"><ele>346.0</ele><time>2026-05-06T01:34:31.999Z</time></trkpt><trkpt lat="-37.95819720935956" lon="146.06516204641503"><ele>346.0</ele><time>2026-05-06T01:34:32.999Z</time></trkpt><trkpt lat="-37.958122330372824" lon="146.06511283683818"><ele>346.0</ele><time>2026-05-06T01:34:33.999Z</time></trkpt><trkpt lat="-37.95802873284503" lon="146.06510708515546"><ele>346.25</ele><time>2026-05-06T01:34:34.999Z</time></trkpt><trkpt lat="-37.95792185134968" lon="146.06510734032867"><ele>346.5</ele><time>2026-05-06T01:34:35.999Z</time></trkpt><trkpt lat="-37.95773226803045" lon="146.06505627477515"><ele>346.75</ele><time>2026-05-06T01:34:37.999Z</time></trkpt><trkpt lat="-37.95763148232674" lon="146.06502787703252"><ele>347.0</ele><time>2026-05-06T01:34:38.999Z</time></trkpt><trkpt lat="-37.9575130023774" lon="146.06498892243832"><ele>346.20000000000005</ele><time>2026-05-06T01:34:39.999Z</time></trkpt><trkpt lat="-37.957404601542194" lon="146.06496368928705"><ele>345.4</ele><time>2026-05-06T01:34:40.999Z</time></trkpt><trkpt lat="-37.95730143671713" lon="146.06495057009317"><ele>344.6</ele><time>2026-05-06T01:34:41.999Z</time></trkpt><trkpt lat="-37.957211923862495" lon="146.06492650052138"><ele>343.79999999999995</ele><time>2026-05-06T01:34:42.999Z</time></trkpt><trkpt lat="-37.95711296737858" lon="146.06491378457875"><ele>343.0</ele><time>2026-05-06T01:34:43.999Z</time></trkpt><trkpt lat="-37.957035634383125" lon="146.0649125216075"><ele>340.75</ele><time>2026-05-06T01:34:44.999Z</time></trkpt><trkpt lat="-37.95687700241033" lon="146.06490322004205"><ele>338.5</ele><time>2026-05-06T01:34:46.999Z</time></trkpt><trkpt lat="-37.956797110845095" lon="146.0648392510493"><ele>336.25</ele><time>2026-05-06T01:34:47.999Z</time></trkpt><trkpt lat="-37.95668197884784" lon="146.06479024161126"><ele>334.0</ele><time>2026-05-06T01:34:48.999Z</time></trkpt><trkpt lat="-37.95657440294417" lon="146.06475189866316"><ele>337.6</ele><time>2026-05-06T01:34:49.999Z</time></trkpt><trkpt lat="-37.95650820421095" lon="146.06469536737126"><ele>341.2</ele><time>2026-05-06T01:34:50.999Z</time></trkpt><trkpt lat="-37.956434762981246" lon="146.0646113512224"><ele>344.8</ele><time>2026-05-06T01:34:51.999Z</time></trkpt><trkpt lat="-37.95636663057753" lon="146.0645503216217"><ele>348.40000000000003</ele><time>2026-05-06T01:34:52.999Z</time></trkpt><trkpt lat="-37.956293911459426" lon="146.06445610658514"><ele>352.0</ele><time>2026-05-06T01:34:53.999Z</time></trkpt><trkpt lat="-37.956200107812705" lon="146.06438710051245"><ele>352.0</ele><time>2026-05-06T01:34:54.999Z</time></trkpt><trkpt lat="-37.9561168491585" lon="146.06430910969814"><ele>352.0</ele><time>2026-05-06T01:34:55.999Z</time></trkpt><trkpt lat="-37.95606009880615" lon="146.06423025426906"><ele>352.0</ele><time>2026-05-06T01:34:56.999Z</time></trkpt><trkpt lat="-37.95601398005448" lon="146.06412387362744"><ele>352.0</ele><time>2026-05-06T01:34:57.999Z</time></trkpt><trkpt lat="-37.955968176775684" lon="146.06397706510296"><ele>352.0</ele><time>2026-05-06T01:34:58.999Z</time></trkpt><trkpt lat="-37.95593171352538" lon="146.06384723704755"><ele>352.8</ele><time>2026-05-06T01:34:59.999Z</time></trkpt><trkpt lat="-37.955894979080256" lon="146.06371476301953"><ele>353.6</ele><time>2026-05-06T01:35:00.999Z</time></trkpt><trkpt lat="-37.955861293210944" lon="146.06359248928862"><ele>354.40000000000003</ele><time>2026-05-06T01:35:01.999Z</time></trkpt><trkpt lat="-37.95583439922086" lon="146.06347778719584"><ele>355.20000000000005</ele><time>2026-05-06T01:35:02.999Z</time></trkpt><trkpt lat="-37.955771146817455" lon="146.06334826235943"><ele>356.0</ele><time>2026-05-06T01:35:03.999Z</time></trkpt><trkpt lat="-37.955698286194405" lon="146.06321908753895"><ele>356.0</ele><time>2026-05-06T01:35:04.999Z</time></trkpt><trkpt lat="-37.95562954533562" lon="146.06311314758221"><ele>356.0</ele><time>2026-05-06T01:35:05.999Z</time></trkpt><trkpt lat="-37.95557159360876" lon="146.06300342966313"><ele>356.0</ele><time>2026-05-06T01:35:06.999Z</time></trkpt><trkpt lat="-37.955521605358925" lon="146.06288799276288"><ele>356.0</ele><time>2026-05-06T01:35:07.999Z</time></trkpt><trkpt lat="-37.955476419662205" lon="146.06275427700993"><ele>356.0</ele><time>2026-05-06T01:35:08.999Z</time></trkpt><trkpt lat="-37.95544945840011" lon="146.06262213827782"><ele>356.0</ele><time>2026-05-06T01:35:09.998Z</time></trkpt><trkpt lat="-37.955423744121674" lon="146.06248558282903"><ele>356.0</ele><time>2026-05-06T01:35:10.998Z</time></trkpt><trkpt lat="-37.95539583541005" lon="146.06235143232973"><ele>356.0</ele><time>2026-05-06T01:35:11.998Z</time></trkpt><trkpt lat="-37.95536723289918" lon="146.06222190233757"><ele>356.0</ele><time>2026-05-06T01:35:12.998Z</time></trkpt><trkpt lat="-37.955343040083974" lon="146.06210392547482"><ele>356.0</ele><time>2026-05-06T01:35:13.998Z</time></trkpt><trkpt lat="-37.95530980403742" lon="146.06200263530067"><ele>357.20000000000005</ele><time>2026-05-06T01:35:14.998Z</time></trkpt><trkpt lat="-37.955260289447246" lon="146.0619021377889"><ele>358.40000000000003</ele><time>2026-05-06T01:35:15.998Z</time></trkpt><trkpt lat="-37.95518859584153" lon="146.0617930149681"><ele>359.6</ele><time>2026-05-06T01:35:16.998Z</time></trkpt><trkpt lat="-37.95512503198311" lon="146.0616780488474"><ele>360.8</ele><time>2026-05-06T01:35:17.998Z</time></trkpt><trkpt lat="-37.95506040136522" lon="146.06155986606518"><ele>362.0</ele><time>2026-05-06T01:35:18.998Z</time></trkpt><trkpt lat="-37.95500582976638" lon="146.0614496537681"><ele>362.0</ele><time>2026-05-06T01:35:19.998Z</time></trkpt><trkpt lat="-37.95493666717137" lon="146.06132481672878"><ele>362.0</ele><time>2026-05-06T01:35:20.998Z</time></trkpt><trkpt lat="-37.954879362266205" lon="146.06120570168255"><ele>362.0</ele><time>2026-05-06T01:35:21.998Z</time></trkpt><trkpt lat="-37.95482134214336" lon="146.06107252430184"><ele>362.0</ele><time>2026-05-06T01:35:22.998Z</time></trkpt><trkpt lat="-37.954768665387014" lon="146.0609498805575"><ele>362.0</ele><time>2026-05-06T01:35:23.998Z</time></trkpt><trkpt lat="-37.95472523401237" lon="146.06082568153928"><ele>362.0</ele><time>2026-05-06T01:35:24.998Z</time></trkpt><trkpt lat="-37.95466374264795" lon="146.06071515265162"><ele>362.0</ele><time>2026-05-06T01:35:25.998Z</time></trkpt><trkpt lat="-37.954600874112536" lon="146.0606253534701"><ele>362.0</ele><time>2026-05-06T01:35:26.998Z</time></trkpt><trkpt lat="-37.9545216614277" lon="146.0605244390853"><ele>362.0</ele><time>2026-05-06T01:35:27.998Z</time></trkpt><trkpt lat="-37.95442916097487" lon="146.06043691435562"><ele>359.25</ele><time>2026-05-06T01:35:28.998Z</time></trkpt><trkpt lat="-37.95432769511492" lon="146.0603458452387"><ele>356.5</ele><time>2026-05-06T01:35:29.998Z</time></trkpt><trkpt lat="-37.95422012213852" lon="146.0602782652964"><ele>353.75</ele><time>2026-05-06T01:35:30.998Z</time></trkpt><trkpt lat="-37.95412745903702" lon="146.06021238512264"><ele>351.0</ele><time>2026-05-06T01:35:31.998Z</time></trkpt><trkpt lat="-37.95402080737779" lon="146.06012427155164"><ele>354.0</ele><time>2026-05-06T01:35:32.998Z</time></trkpt><trkpt lat="-37.95394034283541" lon="146.06003133722157"><ele>357.0</ele><time>2026-05-06T01:35:33.998Z</time></trkpt><trkpt lat="-37.95385586356261" lon="146.05996430288556"><ele>360.0</ele><time>2026-05-06T01:35:34.998Z</time></trkpt><trkpt lat="-37.95377970779854" lon="146.05990535284192"><ele>363.0</ele><time>2026-05-06T01:35:35.998Z</time></trkpt><trkpt lat="-37.953692420790574" lon="146.05983193170528"><ele>366.0</ele><time>2026-05-06T01:35:37Z</time></trkpt><trkpt lat="-37.953612044467434" lon="146.05973401202309"><ele>366.0</ele><time>2026-05-06T01:35:38Z</time></trkpt><trkpt lat="-37.953523368464914" lon="146.05964245444116"><ele>366.0</ele><time>2026-05-06T01:35:39Z</time></trkpt><trkpt lat="-37.95346102432471" lon="146.0595831308834"><ele>366.0</ele><time>2026-05-06T01:35:40Z</time></trkpt><trkpt lat="-37.95335315680602" lon="146.0594921815033"><ele>366.0</ele><time>2026-05-06T01:35:42Z</time></trkpt><trkpt lat="-37.953264228944455" lon="146.05946173587918"><ele>366.0</ele><time>2026-05-06T01:35:43Z</time></trkpt><trkpt lat="-37.953192935339004" lon="146.05943611175766"><ele>370.8</ele><time>2026-05-06T01:35:44Z</time></trkpt><trkpt lat="-37.953104131622645" lon="146.05940384349347"><ele>375.6</ele><time>2026-05-06T01:35:45Z</time></trkpt><trkpt lat="-37.95303125013151" lon="146.05934129309867"><ele>380.4</ele><time>2026-05-06T01:35:46Z</time></trkpt><trkpt lat="-37.95296310911277" lon="146.05925421741523"><ele>385.2</ele><time>2026-05-06T01:35:47Z</time></trkpt><trkpt lat="-37.952897756746495" lon="146.05915561308635"><ele>390.0</ele><time>2026-05-06T01:35:48Z</time></trkpt><trkpt lat="-37.95282341072882" lon="146.05906437477216"><ele>390.0</ele><time>2026-05-06T01:35:49Z</time></trkpt><trkpt lat="-37.952733957522526" lon="146.05897678381598"><ele>390.0</ele><time>2026-05-06T01:35:50Z</time></trkpt><trkpt lat="-37.9526339837268" lon="146.05885005893373"><ele>390.0</ele><time>2026-05-06T01:35:51Z</time></trkpt><trkpt lat="-37.95253177471455" lon="146.0587431412992"><ele>390.0</ele><time>2026-05-06T01:35:52Z</time></trkpt><trkpt lat="-37.95245288973923" lon="146.05862341933292"><ele>393.75</ele><time>2026-05-06T01:35:53Z</time></trkpt><trkpt lat="-37.952379393310025" lon="146.05848845697113"><ele>397.5</ele><time>2026-05-06T01:35:54Z</time></trkpt><trkpt lat="-37.95231428044619" lon="146.0583430549386"><ele>401.25</ele><time>2026-05-06T01:35:55Z</time></trkpt><trkpt lat="-37.952256010001996" lon="146.0582047103017"><ele>405.0</ele><time>2026-05-06T01:35:56Z</time></trkpt><trkpt lat="-37.95218724910384" lon="146.05807458853675"><ele>405.0</ele><time>2026-05-06T01:35:57Z</time></trkpt><trkpt lat="-37.952138178561896" lon="146.05795679777017"><ele>405.0</ele><time>2026-05-06T01:35:58Z</time></trkpt><trkpt lat="-37.9520829952181" lon="146.0578600185063"><ele>405.0</ele><time>2026-05-06T01:35:59Z</time></trkpt><trkpt lat="-37.95202085048871" lon="146.05772610465712"><ele>405.0</ele><time>2026-05-06T01:36:00Z</time></trkpt><trkpt lat="-37.95196938669588" lon="146.05758920538432"><ele>405.0</ele><time>2026-05-06T01:36:01Z</time></trkpt><trkpt lat="-37.951923361850504" lon="146.05747873768522"><ele>404.2</ele><time>2026-05-06T01:36:01.999Z</time></trkpt><trkpt lat="-37.951875256601284" lon="146.05737186771916"><ele>403.4</ele><time>2026-05-06T01:36:02.999Z</time></trkpt><trkpt lat="-37.95181160852105" lon="146.0572598146232"><ele>402.6</ele><time>2026-05-06T01:36:03.999Z</time></trkpt><trkpt lat="-37.95175143200547" lon="146.0571502238513"><ele>401.8</ele><time>2026-05-06T01:36:04.999Z</time></trkpt><trkpt lat="-37.9517063094179" lon="146.05704433963635"><ele>401.0</ele><time>2026-05-06T01:36:05.999Z</time></trkpt><trkpt lat="-37.95168592097993" lon="146.056934917056"><ele>400.4</ele><time>2026-05-06T01:36:06.999Z</time></trkpt><trkpt lat="-37.95160499274735" lon="146.05680978179782"><ele>399.8</ele><time>2026-05-06T01:36:08.999Z</time></trkpt><trkpt lat="-37.951637716923315" lon="146.05668066205652"><ele>399.2</ele><time>2026-05-06T01:36:10.999Z</time></trkpt><trkpt lat="-37.95168435927519" lon="146.05658079956635"><ele>398.59999999999997</ele><time>2026-05-06T01:36:11.999Z</time></trkpt><trkpt lat="-37.951722769280664" lon="146.056472300079"><ele>398.0</ele><time>2026-05-06T01:36:12.999Z</time></trkpt><trkpt lat="-37.9517525882942" lon="146.05638264000603"><ele>398.0</ele><time>2026-05-06T01:36:13.999Z</time></trkpt><trkpt lat="-37.95177838147898" lon="146.05624911510085"><ele>398.0</ele><time>2026-05-06T01:36:15.999Z</time></trkpt><trkpt lat="-37.95184613527559" lon="146.05614492140143"><ele>398.0</ele><time>2026-05-06T01:36:17.999Z</time></trkpt><trkpt lat="-37.95193660192651" lon="146.0560984605606"><ele>398.0</ele><time>2026-05-06T01:36:19.999Z</time></trkpt><trkpt lat="-37.95200730774878" lon="146.05602939186363"><ele>398.0</ele><time>2026-05-06T01:36:21.999Z</time></trkpt><trkpt lat="-37.952066660833744" lon="146.05593654712763"><ele>398.0</ele><time>2026-05-06T01:36:23.999Z</time></trkpt><trkpt lat="-37.95212625294774" lon="146.05582994730702"><ele>398.0</ele><time>2026-05-06T01:36:25.999Z</time></trkpt><trkpt lat="-37.952161876045764" lon="146.05571685618239"><ele>398.0</ele><time>2026-05-06T01:36:27.999Z</time></trkpt><trkpt lat="-37.952185526292936" lon="146.0556382856975"><ele>398.0</ele><time>2026-05-06T01:36:28.999Z</time></trkpt><trkpt lat="-37.95223166231857" lon="146.0555021941492"><ele>398.0</ele><time>2026-05-06T01:36:30.999Z</time></trkpt><trkpt lat="-37.95227001794398" lon="146.0553613180062"><ele>396.59999999999997</ele><time>2026-05-06T01:36:32.999Z</time></trkpt><trkpt lat="-37.95229432976058" lon="146.05522000663862"><ele>395.2</ele><time>2026-05-06T01:36:34.999Z</time></trkpt><trkpt lat="-37.952319425435185" lon="146.0551374863214"><ele>393.8</ele><time>2026-05-06T01:36:35.999Z</time></trkpt><trkpt lat="-37.95236635227062" lon="146.05500075071598"><ele>392.4</ele><time>2026-05-06T01:36:37.999Z</time></trkpt><trkpt lat="-37.952392584377385" lon="146.05491675821852"><ele>391.0</ele><time>2026-05-06T01:36:39.999Z</time></trkpt><trkpt lat="-37.952355572815584" lon="146.05502416943574"><ele>390.99999999999994</ele><time>2026-05-06T01:36:47.999Z</time></trkpt><trkpt lat="-37.952326378386104" lon="146.05509578762513"><ele>391.0</ele><time>2026-05-06T01:36:48.999Z</time></trkpt><trkpt lat="-37.952308177553114" lon="146.05518145969523"><ele>391.0</ele><time>2026-05-06T01:36:49.999Z</time></trkpt><trkpt lat="-37.95227979449687" lon="146.05526486986795"><ele>391.0</ele><time>2026-05-06T01:36:50.999Z</time></trkpt><trkpt lat="-37.952257132838405" lon="146.0553588549522"><ele>391.0</ele><time>2026-05-06T01:36:51.999Z</time></trkpt><trkpt lat="-37.95224036190918" lon="146.05543963941312"><ele>390.99999999999994</ele><time>2026-05-06T01:36:52.999Z</time></trkpt><trkpt lat="-37.95222145375346" lon="146.05551797382705"><ele>391.0</ele><time>2026-05-06T01:36:53.999Z</time></trkpt><trkpt lat="-37.95219277054291" lon="146.0556196657807"><ele>391.00000000000006</ele><time>2026-05-06T01:36:54.999Z</time></trkpt><trkpt lat="-37.95215298074968" lon="146.05570912541623"><ele>391.0</ele><time>2026-05-06T01:36:55.999Z</time></trkpt><trkpt lat="-37.95211454940161" lon="146.05581372760508"><ele>391.0</ele><time>2026-05-06T01:36:56.999Z</time></trkpt><trkpt lat="-37.95208189388446" lon="146.0558942847486"><ele>391.0</ele><time>2026-05-06T01:36:57.999Z</time></trkpt><trkpt lat="-37.95201702306381" lon="146.05597565000508"><ele>391.00000000000006</ele><time>2026-05-06T01:36:58.999Z</time></trkpt><trkpt lat="-37.95194519436766" lon="146.05604993149137"><ele>391.0</ele><time>2026-05-06T01:36:59.999Z</time></trkpt><trkpt lat="-37.95187109001814" lon="146.0561107680601"><ele>392.4</ele><time>2026-05-06T01:37:00.999Z</time></trkpt><trkpt lat="-37.951798273812734" lon="146.05615586860478"><ele>393.8</ele><time>2026-05-06T01:37:01.999Z</time></trkpt><trkpt lat="-37.95173630729301" lon="146.05626786069968"><ele>395.2</ele><time>2026-05-06T01:37:03.999Z</time></trkpt><trkpt lat="-37.95173273820648" lon="146.056363622754"><ele>396.59999999999997</ele><time>2026-05-06T01:37:04.999Z</time></trkpt><trkpt lat="-37.95171768696972" lon="146.05650048106045"><ele>398.0</ele><time>2026-05-06T01:37:05.999Z</time></trkpt><trkpt lat="-37.95168839137755" lon="146.0566076046563"><ele>401.8333333333333</ele><time>2026-05-06T01:37:06.999Z</time></trkpt><trkpt lat="-37.9516607836541" lon="146.05668718623187"><ele>405.66666666666663</ele><time>2026-05-06T01:37:07.999Z</time></trkpt><trkpt lat="-37.95161016911376" lon="146.0568087303544"><ele>409.5</ele><time>2026-05-06T01:37:09.999Z</time></trkpt><trkpt lat="-37.95154828662513" lon="146.05686561547085"><ele>413.33333333333337</ele><time>2026-05-06T01:37:10.999Z</time></trkpt><trkpt lat="-37.95148194187079" lon="146.05689968028997"><ele>417.1666666666667</ele><time>2026-05-06T01:37:11.999Z</time></trkpt><trkpt lat="-37.95141202434756" lon="146.05694344638854"><ele>421.0</ele><time>2026-05-06T01:37:12.999Z</time></trkpt><trkpt lat="-37.9513523342284" lon="146.05698235714684"><ele>421.0</ele><time>2026-05-06T01:37:13.999Z</time></trkpt><trkpt lat="-37.95129866687598" lon="146.05702926141686"><ele>421.0</ele><time>2026-05-06T01:37:14.999Z</time></trkpt><trkpt lat="-37.951190761327815" lon="146.05700500399863"><ele>421.0</ele><time>2026-05-06T01:37:16.998Z</time></trkpt><trkpt lat="-37.95110718759696" lon="146.05696848842626"><ele>421.0</ele><time>2026-05-06T01:37:17.998Z</time></trkpt><trkpt lat="-37.95101125172361" lon="146.0569429163671"><ele>421.0</ele><time>2026-05-06T01:37:18.998Z</time></trkpt><trkpt lat="-37.95091615648912" lon="146.0569333971163"><ele>421.20000000000005</ele><time>2026-05-06T01:37:19.998Z</time></trkpt><trkpt lat="-37.95079754876643" lon="146.0569072763141"><ele>421.40000000000003</ele><time>2026-05-06T01:37:20.998Z</time></trkpt><trkpt lat="-37.95069618641489" lon="146.0568611885582"><ele>421.6</ele><time>2026-05-06T01:37:21.998Z</time></trkpt><trkpt lat="-37.95059615397333" lon="146.0568208296077"><ele>421.8</ele><time>2026-05-06T01:37:22.998Z</time></trkpt><trkpt lat="-37.95051176612194" lon="146.05678593154698"><ele>422.0</ele><time>2026-05-06T01:37:23.998Z</time></trkpt><trkpt lat="-37.95044539347647" lon="146.05674281442649"><ele>422.0</ele><time>2026-05-06T01:37:24.998Z</time></trkpt><trkpt lat="-37.95042691659783" lon="146.05665246970506"><ele>422.0</ele><time>2026-05-06T01:37:25.998Z</time></trkpt><trkpt lat="-37.950398515641666" lon="146.05653585183532"><ele>422.0</ele><time>2026-05-06T01:37:26.998Z</time></trkpt><trkpt lat="-37.95036496782498" lon="146.05645054468152"><ele>422.0</ele><time>2026-05-06T01:37:27.998Z</time></trkpt><trkpt lat="-37.95031795418122" lon="146.05635335571705"><ele>422.0</ele><time>2026-05-06T01:37:28.998Z</time></trkpt><trkpt lat="-37.950222196838" lon="146.05620823275981"><ele>420.66666666666663</ele><time>2026-05-06T01:37:30.998Z</time></trkpt><trkpt lat="-37.950149030214796" lon="146.05612630857203"><ele>419.3333333333333</ele><time>2026-05-06T01:37:31.998Z</time></trkpt><trkpt lat="-37.95009537970626" lon="146.0560423753667"><ele>418.0</ele><time>2026-05-06T01:37:32.998Z</time></trkpt><trkpt lat="-37.95004462187774" lon="146.0559733073534"><ele>416.66666666666663</ele><time>2026-05-06T01:37:33.998Z</time></trkpt><trkpt lat="-37.949992682141236" lon="146.0558955663614"><ele>415.3333333333333</ele><time>2026-05-06T01:37:34.998Z</time></trkpt><trkpt lat="-37.949960213299235" lon="146.05578562824402"><ele>414.0</ele><time>2026-05-06T01:37:35.998Z</time></trkpt><trkpt lat="-37.94994355529981" lon="146.05564775931825"><ele>412.6</ele><time>2026-05-06T01:37:36.998Z</time></trkpt><trkpt lat="-37.949944769777915" lon="146.05552388819908"><ele>411.2</ele><time>2026-05-06T01:37:37.998Z</time></trkpt><trkpt lat="-37.949859027531936" lon="146.0554224687356"><ele>409.8</ele><time>2026-05-06T01:37:38.998Z</time></trkpt><trkpt lat="-37.94979580742351" lon="146.05534026863128"><ele>408.40000000000003</ele><time>2026-05-06T01:37:39.998Z</time></trkpt><trkpt lat="-37.949721690713055" lon="146.05525985016396"><ele>407.0</ele><time>2026-05-06T01:37:40.998Z</time></trkpt><trkpt lat="-37.94967468473632" lon="146.05515108652307"><ele>406.99999999999994</ele><time>2026-05-06T01:37:41.998Z</time></trkpt><trkpt lat="-37.94964066792204" lon="146.05504407685058"><ele>407.0</ele><time>2026-05-06T01:37:43Z</time></trkpt><trkpt lat="-37.949600423348436" lon="146.0549332565055"><ele>407.0</ele><time>2026-05-06T01:37:44Z</time></trkpt><trkpt lat="-37.949545973313626" lon="146.05486930047135"><ele>407.0</ele><time>2026-05-06T01:37:45Z</time></trkpt><trkpt lat="-37.94946938038266" lon="146.05484828305848"><ele>406.99999999999994</ele><time>2026-05-06T01:37:46Z</time></trkpt><trkpt lat="-37.94938737074569" lon="146.0548449443001"><ele>407.0</ele><time>2026-05-06T01:37:47Z</time></trkpt><trkpt lat="-37.949328571225685" lon="146.05480463874426"><ele>407.3333333333333</ele><time>2026-05-06T01:37:48Z</time></trkpt><trkpt lat="-37.94928616210039" lon="146.05472459749384"><ele>407.66666666666663</ele><time>2026-05-06T01:37:49Z</time></trkpt><trkpt lat="-37.949247013481" lon="146.05460042616352"><ele>408.0</ele><time>2026-05-06T01:37:50Z</time></trkpt><trkpt lat="-37.94922791746708" lon="146.0544930979912"><ele>408.33333333333337</ele><time>2026-05-06T01:37:51Z</time></trkpt><trkpt lat="-37.94917540129136" lon="146.05439891387084"><ele>408.6666666666667</ele><time>2026-05-06T01:37:52Z</time></trkpt><trkpt lat="-37.94911306799252" lon="146.05434275909877"><ele>409.0</ele><time>2026-05-06T01:37:53Z</time></trkpt><trkpt lat="-37.94905890437265" lon="146.05428276338208"><ele>409.00000000000006</ele><time>2026-05-06T01:37:54Z</time></trkpt><trkpt lat="-37.94900378237749" lon="146.0542431612609"><ele>409.0</ele><time>2026-05-06T01:37:55Z</time></trkpt><trkpt lat="-37.94892849504782" lon="146.05426783328244"><ele>409.0</ele><time>2026-05-06T01:37:56Z</time></trkpt><trkpt lat="-37.94884847859318" lon="146.05432283387395"><ele>409.0</ele><time>2026-05-06T01:37:57Z</time></trkpt><trkpt lat="-37.94877531465406" lon="146.0543679166778"><ele>409.00000000000006</ele><time>2026-05-06T01:37:58Z</time></trkpt><trkpt lat="-37.94870673128037" lon="146.05437687584032"><ele>409.0</ele><time>2026-05-06T01:37:59Z</time></trkpt><trkpt lat="-37.94863442011082" lon="146.05434126221957"><ele>409.0</ele><time>2026-05-06T01:38:00Z</time></trkpt><trkpt lat="-37.948587315864934" lon="146.0542807314838"><ele>409.0</ele><time>2026-05-06T01:38:01Z</time></trkpt><trkpt lat="-37.948533512133885" lon="146.0542095097783"><ele>409.0</ele><time>2026-05-06T01:38:02Z</time></trkpt><trkpt lat="-37.94840194523456" lon="146.05417019279946"><ele>409.0</ele><time>2026-05-06T01:38:04Z</time></trkpt><trkpt lat="-37.94828673478054" lon="146.05418640308326"><ele>409.0</ele><time>2026-05-06T01:38:05Z</time></trkpt><trkpt lat="-37.948184221190964" lon="146.0541681403274"><ele>409.50000000000006</ele><time>2026-05-06T01:38:06Z</time></trkpt><trkpt lat="-37.948092745163905" lon="146.0541293583622"><ele>410.0</ele><time>2026-05-06T01:38:07Z</time></trkpt><trkpt lat="-37.948005497765664" lon="146.05407414276783"><ele>410.5</ele><time>2026-05-06T01:38:07.999Z</time></trkpt><trkpt lat="-37.947932820604635" lon="146.05401643314767"><ele>411.0</ele><time>2026-05-06T01:38:08.999Z</time></trkpt><trkpt lat="-37.94786595998929" lon="146.0539486197252"><ele>411.50000000000006</ele><time>2026-05-06T01:38:09.999Z</time></trkpt><trkpt lat="-37.94780653304285" lon="146.05388228342863"><ele>412.0</ele><time>2026-05-06T01:38:10.999Z</time></trkpt><trkpt lat="-37.94773321802684" lon="146.05383144671134"><ele>410.8</ele><time>2026-05-06T01:38:11.999Z</time></trkpt><trkpt lat="-37.947617535329805" lon="146.05388937320652"><ele>409.6</ele><time>2026-05-06T01:38:13.999Z</time></trkpt><trkpt lat="-37.9475197413093" lon="146.05394819594244"><ele>408.40000000000003</ele><time>2026-05-06T01:38:14.999Z</time></trkpt><trkpt lat="-37.947436248247996" lon="146.05397465249104"><ele>407.20000000000005</ele><time>2026-05-06T01:38:15.999Z</time></trkpt><trkpt lat="-37.94736145233515" lon="146.05397968105717"><ele>406.0</ele><time>2026-05-06T01:38:16.999Z</time></trkpt><trkpt lat="-37.947235345603815" lon="146.0539861449563"><ele>406.0</ele><time>2026-05-06T01:38:18.999Z</time></trkpt><trkpt lat="-37.947167381192244" lon="146.0539856956085"><ele>406.0</ele><time>2026-05-06T01:38:19.999Z</time></trkpt><trkpt lat="-37.947043340059906" lon="146.05396717275326"><ele>406.0</ele><time>2026-05-06T01:38:21.999Z</time></trkpt><trkpt lat="-37.94691504065868" lon="146.053935591533"><ele>406.0</ele><time>2026-05-06T01:38:23.999Z</time></trkpt><trkpt lat="-37.94677673387092" lon="146.0538517521407"><ele>405.0</ele><time>2026-05-06T01:38:25.999Z</time></trkpt><trkpt lat="-37.94670205580539" lon="146.05378389130456"><ele>404.0</ele><time>2026-05-06T01:38:26.999Z</time></trkpt><trkpt lat="-37.94661755616628" lon="146.05376786902744"><ele>403.0</ele><time>2026-05-06T01:38:27.999Z</time></trkpt><trkpt lat="-37.946548838057346" lon="146.05370020428973"><ele>402.0</ele><time>2026-05-06T01:38:28.999Z</time></trkpt><trkpt lat="-37.94647472080324" lon="146.05361434521444"><ele>401.0</ele><time>2026-05-06T01:38:29.999Z</time></trkpt><trkpt lat="-37.946391221547024" lon="146.05353196969054"><ele>401.0</ele><time>2026-05-06T01:38:30.999Z</time></trkpt><trkpt lat="-37.9463219409075" lon="146.05346397783143"><ele>401.0</ele><time>2026-05-06T01:38:31.999Z</time></trkpt><trkpt lat="-37.94624960290991" lon="146.0533908724126"><ele>401.0</ele><time>2026-05-06T01:38:32.999Z</time></trkpt><trkpt lat="-37.9461635489538" lon="146.05332820691757"><ele>401.0</ele><time>2026-05-06T01:38:33.999Z</time></trkpt><trkpt lat="-37.94608526389113" lon="146.05323810112827"><ele>401.0</ele><time>2026-05-06T01:38:34.999Z</time></trkpt><trkpt lat="-37.946015930672864" lon="146.0531493715893"><ele>401.0</ele><time>2026-05-06T01:38:35.999Z</time></trkpt><trkpt lat="-37.94593346276759" lon="146.05310079360234"><ele>401.0</ele><time>2026-05-06T01:38:36.999Z</time></trkpt><trkpt lat="-37.94583387145009" lon="146.05307228170273"><ele>401.0</ele><time>2026-05-06T01:38:37.999Z</time></trkpt><trkpt lat="-37.94573717611362" lon="146.05306029837885"><ele>401.0</ele><time>2026-05-06T01:38:38.999Z</time></trkpt><trkpt lat="-37.945650565531515" lon="146.05305351575973"><ele>401.0</ele><time>2026-05-06T01:38:39.999Z</time></trkpt><trkpt lat="-37.94556464418774" lon="146.05306539443617"><ele>400.99999999999994</ele><time>2026-05-06T01:38:40.999Z</time></trkpt><trkpt lat="-37.94550237336847" lon="146.05305086990782"><ele>401.0</ele><time>2026-05-06T01:38:41.999Z</time></trkpt><trkpt lat="-37.94543980226093" lon="146.0529973497724"><ele>401.0</ele><time>2026-05-06T01:38:42.999Z</time></trkpt><trkpt lat="-37.94535108353085" lon="146.05297600717017"><ele>401.0</ele><time>2026-05-06T01:38:43.999Z</time></trkpt><trkpt lat="-37.94528076359835" lon="146.05293487715403"><ele>400.99999999999994</ele><time>2026-05-06T01:38:44.999Z</time></trkpt><trkpt lat="-37.945207886435014" lon="146.05290018692986"><ele>401.0</ele><time>2026-05-06T01:38:45.999Z</time></trkpt><trkpt lat="-37.94513529151583" lon="146.05286309275093"><ele>400.99999999999994</ele><time>2026-05-06T01:38:46.999Z</time></trkpt><trkpt lat="-37.94505766607732" lon="146.05283812351834"><ele>401.0</ele><time>2026-05-06T01:38:47.999Z</time></trkpt><trkpt lat="-37.944975213162536" lon="146.05280844094588"><ele>401.0</ele><time>2026-05-06T01:38:48.999Z</time></trkpt><trkpt lat="-37.94490825610129" lon="146.05279521497485"><ele>401.0</ele><time>2026-05-06T01:38:49.999Z</time></trkpt><trkpt lat="-37.94483734735437" lon="146.0527848288868"><ele>400.99999999999994</ele><time>2026-05-06T01:38:50.999Z</time></trkpt><trkpt lat="-37.94474589263014" lon="146.0528138881849"><ele>401.0</ele><time>2026-05-06T01:38:51.999Z</time></trkpt><trkpt lat="-37.94463621188276" lon="146.05288332339734"><ele>403.99999999999994</ele><time>2026-05-06T01:38:52.999Z</time></trkpt><trkpt lat="-37.94455911753891" lon="146.05294136554258"><ele>407.0</ele><time>2026-05-06T01:38:53.999Z</time></trkpt><trkpt lat="-37.94447404069015" lon="146.05297159376192"><ele>410.0</ele><time>2026-05-06T01:38:54.999Z</time></trkpt><trkpt lat="-37.9443973207652" lon="146.05297074793728"><ele>413.0</ele><time>2026-05-06T01:38:55.999Z</time></trkpt><trkpt lat="-37.9443350975776" lon="146.0530069773508"><ele>415.99999999999994</ele><time>2026-05-06T01:38:56.999Z</time></trkpt><trkpt lat="-37.94428816860526" lon="146.05308339322426"><ele>419.0</ele><time>2026-05-06T01:38:57.999Z</time></trkpt><trkpt lat="-37.94422243345001" lon="146.05316494673204"><ele>419.99999999999994</ele><time>2026-05-06T01:38:58.999Z</time></trkpt><trkpt lat="-37.94416534459833" lon="146.05326047372415"><ele>421.0</ele><time>2026-05-06T01:38:59.999Z</time></trkpt><trkpt lat="-37.944107924070096" lon="146.05336307898202"><ele>422.0</ele><time>2026-05-06T01:39:00.999Z</time></trkpt><trkpt lat="-37.94406475870279" lon="146.05345998088134"><ele>423.0</ele><time>2026-05-06T01:39:01.999Z</time></trkpt><trkpt lat="-37.944018503156016" lon="146.05353619723894"><ele>423.99999999999994</ele><time>2026-05-06T01:39:02.999Z</time></trkpt><trkpt lat="-37.9439472057442" lon="146.05357537152454"><ele>425.0</ele><time>2026-05-06T01:39:03.999Z</time></trkpt><trkpt lat="-37.94388100737794" lon="146.05359380838138"><ele>425.0</ele><time>2026-05-06T01:39:04.999Z</time></trkpt><trkpt lat="-37.94381317397641" lon="146.05356686712997"><ele>425.0</ele><time>2026-05-06T01:39:05.999Z</time></trkpt><trkpt lat="-37.943764562118915" lon="146.05350700939383"><ele>425.0</ele><time>2026-05-06T01:39:06.999Z</time></trkpt><trkpt lat="-37.943668556756755" lon="146.05336286362385"><ele>425.0</ele><time>2026-05-06T01:39:08.999Z</time></trkpt><trkpt lat="-37.94358200732467" lon="146.05323433632253"><ele>425.0</ele><time>2026-05-06T01:39:09.999Z</time></trkpt><trkpt lat="-37.943513452268775" lon="146.05314267869102"><ele>425.0</ele><time>2026-05-06T01:39:10.999Z</time></trkpt><trkpt lat="-37.94342458038431" lon="146.05301539217248"><ele>425.0</ele><time>2026-05-06T01:39:11.999Z</time></trkpt><trkpt lat="-37.94334463435916" lon="146.0529167838224"><ele>425.0</ele><time>2026-05-06T01:39:12.999Z</time></trkpt><trkpt lat="-37.94326150505164" lon="146.05282205207982"><ele>425.0</ele><time>2026-05-06T01:39:13.999Z</time></trkpt><trkpt lat="-37.94316826232543" lon="146.05273814167145"><ele>424.2</ele><time>2026-05-06T01:39:14.999Z</time></trkpt><trkpt lat="-37.943073760471705" lon="146.05265750675557"><ele>423.4</ele><time>2026-05-06T01:39:15.999Z</time></trkpt><trkpt lat="-37.94300030736877" lon="146.0525661536269"><ele>422.6</ele><time>2026-05-06T01:39:16.999Z</time></trkpt><trkpt lat="-37.94295306722933" lon="146.05244378662536"><ele>421.8</ele><time>2026-05-06T01:39:17.999Z</time></trkpt><trkpt lat="-37.942899459247585" lon="146.05232770755293"><ele>421.0</ele><time>2026-05-06T01:39:18.999Z</time></trkpt><trkpt lat="-37.94284420345896" lon="146.05223914802255"><ele>421.0</ele><time>2026-05-06T01:39:19.999Z</time></trkpt><trkpt lat="-37.942787221279204" lon="146.05217800581386"><ele>421.0</ele><time>2026-05-06T01:39:20.999Z</time></trkpt><trkpt lat="-37.942717024884224" lon="146.05215816556918"><ele>421.0</ele><time>2026-05-06T01:39:21.998Z</time></trkpt><trkpt lat="-37.94261793304235" lon="146.0521521555589"><ele>421.0</ele><time>2026-05-06T01:39:22.998Z</time></trkpt><trkpt lat="-37.94251207355647" lon="146.0521664005312"><ele>421.0</ele><time>2026-05-06T01:39:23.998Z</time></trkpt><trkpt lat="-37.94239794227751" lon="146.05218654358924"><ele>422.8</ele><time>2026-05-06T01:39:24.998Z</time></trkpt><trkpt lat="-37.942283996337956" lon="146.05219958537916"><ele>424.6</ele><time>2026-05-06T01:39:25.998Z</time></trkpt><trkpt lat="-37.94217544743044" lon="146.05220244888102"><ele>426.4</ele><time>2026-05-06T01:39:26.998Z</time></trkpt><trkpt lat="-37.942082433846664" lon="146.05220835038824"><ele>428.2</ele><time>2026-05-06T01:39:27.998Z</time></trkpt><trkpt lat="-37.94200056763678" lon="146.05223576445798"><ele>430.0</ele><time>2026-05-06T01:39:28.998Z</time></trkpt><trkpt lat="-37.94190956855583" lon="146.05229665774388"><ele>430.0</ele><time>2026-05-06T01:39:29.998Z</time></trkpt><trkpt lat="-37.9418259796114" lon="146.05241831514394"><ele>430.0</ele><time>2026-05-06T01:39:30.998Z</time></trkpt><trkpt lat="-37.94173367090025" lon="146.0524550184521"><ele>430.0</ele><time>2026-05-06T01:39:31.998Z</time></trkpt><trkpt lat="-37.94165817865524" lon="146.052460338641"><ele>430.0</ele><time>2026-05-06T01:39:32.998Z</time></trkpt><trkpt lat="-37.94157547795399" lon="146.05243769992978"><ele>430.0</ele><time>2026-05-06T01:39:33.998Z</time></trkpt><trkpt lat="-37.94149080909996" lon="146.05239517925017"><ele>430.83333333333337</ele><time>2026-05-06T01:39:34.998Z</time></trkpt><trkpt lat="-37.941404740440646" lon="146.0523725694545"><ele>431.6666666666667</ele><time>2026-05-06T01:39:35.998Z</time></trkpt><trkpt lat="-37.94132340400996" lon="146.05233605836582"><ele>432.5</ele><time>2026-05-06T01:39:36.998Z</time></trkpt><trkpt lat="-37.94124677227637" lon="146.0522718035361"><ele>433.33333333333337</ele><time>2026-05-06T01:39:37.998Z</time></trkpt><trkpt lat="-37.94119295779734" lon="146.05220717375067"><ele>434.1666666666667</ele><time>2026-05-06T01:39:38.998Z</time></trkpt><trkpt lat="-37.941091833536184" lon="146.05218513766002"><ele>435.0</ele><time>2026-05-06T01:39:39.998Z</time></trkpt><trkpt lat="-37.94099913115885" lon="146.05214183942735"><ele>435.0</ele><time>2026-05-06T01:39:40.998Z</time></trkpt><trkpt lat="-37.94093524356954" lon="146.05208906050746"><ele>435.0</ele><time>2026-05-06T01:39:41.998Z</time></trkpt><trkpt lat="-37.940899424125355" lon="146.0520098122952"><ele>435.0</ele><time>2026-05-06T01:39:42.998Z</time></trkpt><trkpt lat="-37.94089822662225" lon="146.05191149858837"><ele>435.0</ele><time>2026-05-06T01:39:43.998Z</time></trkpt><trkpt lat="-37.94089937865802" lon="146.05176785939332"><ele>435.0</ele><time>2026-05-06T01:39:44.998Z</time></trkpt><trkpt lat="-37.940887389360796" lon="146.05163624062817"><ele>435.0</ele><time>2026-05-06T01:39:45.998Z</time></trkpt><trkpt lat="-37.94085708411057" lon="146.05153996350532"><ele>434.8333333333333</ele><time>2026-05-06T01:39:46.998Z</time></trkpt><trkpt lat="-37.940821155912964" lon="146.05145187040517"><ele>434.66666666666663</ele><time>2026-05-06T01:39:47.998Z</time></trkpt><trkpt lat="-37.94076750263686" lon="146.05135228272988"><ele>434.5</ele><time>2026-05-06T01:39:49Z</time></trkpt><trkpt lat="-37.94071852638435" lon="146.05125129611721"><ele>434.3333333333333</ele><time>2026-05-06T01:39:50Z</time></trkpt><trkpt lat="-37.94067820781629" lon="146.05115823665238"><ele>434.16666666666663</ele><time>2026-05-06T01:39:51Z</time></trkpt><trkpt lat="-37.94064038116128" lon="146.05107712555295"><ele>434.0</ele><time>2026-05-06T01:39:52Z</time></trkpt><trkpt lat="-37.94059895228418" lon="146.05095622391983"><ele>433.99999999999994</ele><time>2026-05-06T01:39:53Z</time></trkpt><trkpt lat="-37.9405719944222" lon="146.05084991743178"><ele>434.0</ele><time>2026-05-06T01:39:54Z</time></trkpt><trkpt lat="-37.940537538846435" lon="146.05075479839826"><ele>434.0</ele><time>2026-05-06T01:39:55Z</time></trkpt><trkpt lat="-37.94049709327139" lon="146.0506630688102"><ele>434.0</ele><time>2026-05-06T01:39:56Z</time></trkpt><trkpt lat="-37.94046267946633" lon="146.0505556909899"><ele>433.99999999999994</ele><time>2026-05-06T01:39:57Z</time></trkpt><trkpt lat="-37.940422394013446" lon="146.0504575405702"><ele>434.0</ele><time>2026-05-06T01:39:58Z</time></trkpt><trkpt lat="-37.94037193714068" lon="146.05034027742124"><ele>431.2</ele><time>2026-05-06T01:39:59Z</time></trkpt><trkpt lat="-37.94031507403915" lon="146.05022601609554"><ele>428.4</ele><time>2026-05-06T01:40:00Z</time></trkpt><trkpt lat="-37.94025602881557" lon="146.0501104976982"><ele>425.6</ele><time>2026-05-06T01:40:01Z</time></trkpt><trkpt lat="-37.94020692984621" lon="146.0500004141503"><ele>422.8</ele><time>2026-05-06T01:40:02Z</time></trkpt><trkpt lat="-37.9401523907412" lon="146.04990327766748"><ele>420.0</ele><time>2026-05-06T01:40:03Z</time></trkpt><trkpt lat="-37.940089889932764" lon="146.04978157774428"><ele>421.8</ele><time>2026-05-06T01:40:04Z</time></trkpt><trkpt lat="-37.94004145576492" lon="146.04968370403904"><ele>423.6</ele><time>2026-05-06T01:40:05Z</time></trkpt><trkpt lat="-37.9399887438793" lon="146.04956854244608"><ele>425.4</ele><time>2026-05-06T01:40:06Z</time></trkpt><trkpt lat="-37.939924854532975" lon="146.0494769379734"><ele>427.2</ele><time>2026-05-06T01:40:07Z</time></trkpt><trkpt lat="-37.93985968335871" lon="146.04940397233702"><ele>429.0</ele><time>2026-05-06T01:40:08Z</time></trkpt><trkpt lat="-37.939760154358" lon="146.0493282987118"><ele>429.0</ele><time>2026-05-06T01:40:09Z</time></trkpt><trkpt lat="-37.93965590793799" lon="146.04927398663892"><ele>429.0</ele><time>2026-05-06T01:40:10Z</time></trkpt><trkpt lat="-37.93956382591708" lon="146.0492008847932"><ele>429.0</ele><time>2026-05-06T01:40:11Z</time></trkpt><trkpt lat="-37.939483448519184" lon="146.04911874754598"><ele>429.0</ele><time>2026-05-06T01:40:12Z</time></trkpt><trkpt lat="-37.93939970473372" lon="146.049019793709"><ele>429.0</ele><time>2026-05-06T01:40:12.999Z</time></trkpt><trkpt lat="-37.9393261777417" lon="146.04893798754063"><ele>430.0</ele><time>2026-05-06T01:40:13.999Z</time></trkpt><trkpt lat="-37.93924488560951" lon="146.04887032384661"><ele>431.0</ele><time>2026-05-06T01:40:14.999Z</time></trkpt><trkpt lat="-37.93917327232782" lon="146.04880451857952"><ele>432.0</ele><time>2026-05-06T01:40:15.999Z</time></trkpt><trkpt lat="-37.939097358921174" lon="146.04875542629802"><ele>433.0</ele><time>2026-05-06T01:40:16.999Z</time></trkpt><trkpt lat="-37.93901572976941" lon="146.04871425127524"><ele>434.0</ele><time>2026-05-06T01:40:17.999Z</time></trkpt><trkpt lat="-37.93896336098475" lon="146.04865846219263"><ele>435.0</ele><time>2026-05-06T01:40:18.999Z</time></trkpt><trkpt lat="-37.938910770130335" lon="146.04854562080925"><ele>435.0</ele><time>2026-05-06T01:40:19.999Z</time></trkpt><trkpt lat="-37.93885423569991" lon="146.04841903966354"><ele>435.0</ele><time>2026-05-06T01:40:20.999Z</time></trkpt><trkpt lat="-37.93883345313735" lon="146.04830413147673"><ele>435.0</ele><time>2026-05-06T01:40:21.999Z</time></trkpt><trkpt lat="-37.938819552788914" lon="146.0481736049318"><ele>435.0</ele><time>2026-05-06T01:40:22.999Z</time></trkpt><trkpt lat="-37.93881464757797" lon="146.0480389490607"><ele>435.0</ele><time>2026-05-06T01:40:23.999Z</time></trkpt><trkpt lat="-37.93879115630277" lon="146.04792427816707"><ele>434.0</ele><time>2026-05-06T01:40:24.999Z</time></trkpt><trkpt lat="-37.938778386511125" lon="146.04779478675175"><ele>433.0</ele><time>2026-05-06T01:40:25.999Z</time></trkpt><trkpt lat="-37.93875733223034" lon="146.04767997622295"><ele>432.0</ele><time>2026-05-06T01:40:26.999Z</time></trkpt><trkpt lat="-37.93871892113781" lon="146.04758217014165"><ele>431.0</ele><time>2026-05-06T01:40:27.999Z</time></trkpt><trkpt lat="-37.938656854752836" lon="146.04748999980933"><ele>430.0</ele><time>2026-05-06T01:40:28.999Z</time></trkpt><trkpt lat="-37.93860254977883" lon="146.0473741588781"><ele>428.6</ele><time>2026-05-06T01:40:29.999Z</time></trkpt><trkpt lat="-37.93857835850497" lon="146.0472491481589"><ele>427.2</ele><time>2026-05-06T01:40:30.999Z</time></trkpt><trkpt lat="-37.93857682065218" lon="146.0471494386022"><ele>425.79999999999995</ele><time>2026-05-06T01:40:31.999Z</time></trkpt><trkpt lat="-37.938587945726155" lon="146.0470257683959"><ele>424.4</ele><time>2026-05-06T01:40:32.999Z</time></trkpt><trkpt lat="-37.93858201218666" lon="146.04689400364828"><ele>423.0</ele><time>2026-05-06T01:40:33.999Z</time></trkpt><trkpt lat="-37.93854063288492" lon="146.04677092829516"><ele>423.0</ele><time>2026-05-06T01:40:34.999Z</time></trkpt><trkpt lat="-37.93851030873912" lon="146.04665451874348"><ele>423.0</ele><time>2026-05-06T01:40:35.999Z</time></trkpt><trkpt lat="-37.938485269243245" lon="146.04653596711626"><ele>423.0</ele><time>2026-05-06T01:40:36.999Z</time></trkpt><trkpt lat="-37.93845661783608" lon="146.0464137886552"><ele>423.0</ele><time>2026-05-06T01:40:37.999Z</time></trkpt><trkpt lat="-37.93842940736409" lon="146.04633998750356"><ele>423.0</ele><time>2026-05-06T01:40:38.999Z</time></trkpt><trkpt lat="-37.93837486559961" lon="146.0462477341468"><ele>423.0</ele><time>2026-05-06T01:40:39.999Z</time></trkpt><trkpt lat="-37.9383092172587" lon="146.04617952508437"><ele>423.1666666666667</ele><time>2026-05-06T01:40:40.999Z</time></trkpt><trkpt lat="-37.93825214918908" lon="146.0461216260712"><ele>423.33333333333337</ele><time>2026-05-06T01:40:41.999Z</time></trkpt><trkpt lat="-37.93820869172914" lon="146.04604870506222"><ele>423.5</ele><time>2026-05-06T01:40:42.999Z</time></trkpt><trkpt lat="-37.93814891253947" lon="146.04597655365842"><ele>423.6666666666667</ele><time>2026-05-06T01:40:43.999Z</time></trkpt><trkpt lat="-37.938086818999025" lon="146.04592018094112"><ele>423.83333333333337</ele><time>2026-05-06T01:40:44.999Z</time></trkpt><trkpt lat="-37.93800387399997" lon="146.04585564828557"><ele>424.0</ele><time>2026-05-06T01:40:45.999Z</time></trkpt><trkpt lat="-37.93793565320126" lon="146.0458181235547"><ele>422.33333333333337</ele><time>2026-05-06T01:40:46.999Z</time></trkpt><trkpt lat="-37.937881125243344" lon="146.0457773610471"><ele>420.6666666666667</ele><time>2026-05-06T01:40:47.999Z</time></trkpt><trkpt lat="-37.93782203218729" lon="146.04569816512438"><ele>419.0</ele><time>2026-05-06T01:40:48.999Z</time></trkpt><trkpt lat="-37.937751318524185" lon="146.04562933558012"><ele>417.33333333333337</ele><time>2026-05-06T01:40:49.999Z</time></trkpt><trkpt lat="-37.93767463340448" lon="146.04557312347947"><ele>415.6666666666667</ele><time>2026-05-06T01:40:50.999Z</time></trkpt><trkpt lat="-37.9375852188157" lon="146.04553679054618"><ele>414.0</ele><time>2026-05-06T01:40:51.999Z</time></trkpt><trkpt lat="-37.93748640065033" lon="146.04550221868342"><ele>414.0</ele><time>2026-05-06T01:40:52.999Z</time></trkpt><trkpt lat="-37.93736844899961" lon="146.0454724999193"><ele>414.0</ele><time>2026-05-06T01:40:53.999Z</time></trkpt><trkpt lat="-37.937271306542854" lon="146.04546030486392"><ele>414.0</ele><time>2026-05-06T01:40:54.999Z</time></trkpt><trkpt lat="-37.93718920045369" lon="146.0454335652343"><ele>414.0</ele><time>2026-05-06T01:40:55.999Z</time></trkpt><trkpt lat="-37.93712070104248" lon="146.0454033023889"><ele>414.0</ele><time>2026-05-06T01:40:56.999Z</time></trkpt><trkpt lat="-37.937018314634756" lon="146.04533424792524"><ele>414.0</ele><time>2026-05-06T01:40:57.999Z</time></trkpt><trkpt lat="-37.936931541251624" lon="146.04529164161303"><ele>414.0</ele><time>2026-05-06T01:40:58.999Z</time></trkpt><trkpt lat="-37.93684098067681" lon="146.04527409040662"><ele>414.0</ele><time>2026-05-06T01:40:59.999Z</time></trkpt><trkpt lat="-37.93673988246482" lon="146.045270559053"><ele>414.0</ele><time>2026-05-06T01:41:00.999Z</time></trkpt><trkpt lat="-37.9366259728851" lon="146.04529976617752"><ele>414.0</ele><time>2026-05-06T01:41:01.999Z</time></trkpt><trkpt lat="-37.93651334368058" lon="146.04533049324104"><ele>415.0</ele><time>2026-05-06T01:41:02.999Z</time></trkpt><trkpt lat="-37.93640820139838" lon="146.04537310861176"><ele>416.0</ele><time>2026-05-06T01:41:03.999Z</time></trkpt><trkpt lat="-37.93630115974193" lon="146.0454143820492"><ele>417.0</ele><time>2026-05-06T01:41:04.999Z</time></trkpt><trkpt lat="-37.936203992989554" lon="146.04540776566157"><ele>418.0</ele><time>2026-05-06T01:41:05.999Z</time></trkpt><trkpt lat="-37.93613834748817" lon="146.0454276276658"><ele>419.0</ele><time>2026-05-06T01:41:06.999Z</time></trkpt><trkpt lat="-37.936013698293905" lon="146.04542445936252"><ele>419.0</ele><time>2026-05-06T01:41:08.999Z</time></trkpt><trkpt lat="-37.93594695820826" lon="146.04529845217826"><ele>419.0</ele><time>2026-05-06T01:41:10.999Z</time></trkpt><trkpt lat="-37.93593111457332" lon="146.04516114451607"><ele>419.0</ele><time>2026-05-06T01:41:12.999Z</time></trkpt><trkpt lat="-37.935913186924836" lon="146.0450694240401"><ele>419.0</ele><time>2026-05-06T01:41:16.999Z</time></trkpt><trkpt lat="-37.93590783796944" lon="146.04498952215218"><ele>419.0</ele><time>2026-05-06T01:41:17.999Z</time></trkpt><trkpt lat="-37.935908064764405" lon="146.04487634906576"><ele>419.8333333333333</ele><time>2026-05-06T01:41:18.999Z</time></trkpt><trkpt lat="-37.93589734069032" lon="146.0447605233989"><ele>420.66666666666663</ele><time>2026-05-06T01:41:20.999Z</time></trkpt><trkpt lat="-37.93587188679782" lon="146.04467331472887"><ele>421.5</ele><time>2026-05-06T01:46:30.999Z</time></trkpt><trkpt lat="-37.93586852523745" lon="146.04458030904092"><ele>422.33333333333337</ele><time>2026-05-06T01:46:32.999Z</time></trkpt><trkpt lat="-37.93585525248182" lon="146.04442380960054"><ele>423.1666666666667</ele><time>2026-05-06T01:46:34.999Z</time></trkpt><trkpt lat="-37.93582537113063" lon="146.0443404915419"><ele>424.0</ele><time>2026-05-06T01:46:35.999Z</time></trkpt><trkpt lat="-37.93577933198255" lon="146.04424922011893"><ele>424.0</ele><time>2026-05-06T01:46:36.999Z</time></trkpt><trkpt lat="-37.935713986753306" lon="146.0441443310118"><ele>424.0</ele><time>2026-05-06T01:46:37.999Z</time></trkpt><trkpt lat="-37.935682224255245" lon="146.04403951775922"><ele>424.0</ele><time>2026-05-06T01:46:38.999Z</time></trkpt><trkpt lat="-37.93561302460989" lon="146.0439187937012"><ele>424.0</ele><time>2026-05-06T01:46:39.999Z</time></trkpt><trkpt lat="-37.935530971235465" lon="146.04379716003479"><ele>424.0</ele><time>2026-05-06T01:46:40.999Z</time></trkpt><trkpt lat="-37.935447689375266" lon="146.0436693657952"><ele>423.0</ele><time>2026-05-06T01:46:41.999Z</time></trkpt><trkpt lat="-37.93540877885065" lon="146.04356061258505"><ele>422.0</ele><time>2026-05-06T01:46:42.999Z</time></trkpt><trkpt lat="-37.93535678405785" lon="146.04343835169624"><ele>421.0</ele><time>2026-05-06T01:46:43.999Z</time></trkpt><trkpt lat="-37.93531826945385" lon="146.04331483627752"><ele>420.0</ele><time>2026-05-06T01:46:44.999Z</time></trkpt><trkpt lat="-37.93523258119893" lon="146.04323431218788"><ele>419.0</ele><time>2026-05-06T01:46:45.999Z</time></trkpt><trkpt lat="-37.935148880876206" lon="146.04317034384053"><ele>421.6</ele><time>2026-05-06T01:46:46.999Z</time></trkpt><trkpt lat="-37.93505399691809" lon="146.04312375865766"><ele>424.2</ele><time>2026-05-06T01:46:47.999Z</time></trkpt><trkpt lat="-37.934950433598694" lon="146.0430816624052"><ele>426.80000000000007</ele><time>2026-05-06T01:46:48.999Z</time></trkpt><trkpt lat="-37.934857629427654" lon="146.0430419665652"><ele>429.40000000000003</ele><time>2026-05-06T01:46:49.999Z</time></trkpt><trkpt lat="-37.93475291505721" lon="146.0430318752586"><ele>432.0</ele><time>2026-05-06T01:46:50.999Z</time></trkpt><trkpt lat="-37.93465827106377" lon="146.04301161057478"><ele>432.0</ele><time>2026-05-06T01:46:51.999Z</time></trkpt><trkpt lat="-37.93455960114521" lon="146.04299209318728"><ele>432.00000000000006</ele><time>2026-05-06T01:46:52.999Z</time></trkpt><trkpt lat="-37.93446917128347" lon="146.0429630309454"><ele>432.00000000000006</ele><time>2026-05-06T01:46:53.999Z</time></trkpt><trkpt lat="-37.934399348631125" lon="146.04297459548326"><ele>432.0</ele><time>2026-05-06T01:46:54.999Z</time></trkpt><trkpt lat="-37.934280026610445" lon="146.0430929316021"><ele>432.0</ele><time>2026-05-06T01:46:56.999Z</time></trkpt><trkpt lat="-37.934230051127194" lon="146.04319286861246"><ele>432.20000000000005</ele><time>2026-05-06T01:46:57.999Z</time></trkpt><trkpt lat="-37.934204888827324" lon="146.0432743578143"><ele>432.40000000000003</ele><time>2026-05-06T01:46:58.999Z</time></trkpt><trkpt lat="-37.934153532251344" lon="146.04338726520749"><ele>432.59999999999997</ele><time>2026-05-06T01:46:59.999Z</time></trkpt><trkpt lat="-37.934082452513564" lon="146.04347480698738"><ele>432.79999999999995</ele><time>2026-05-06T01:47:00.999Z</time></trkpt><trkpt lat="-37.93400860463928" lon="146.0435639621657"><ele>433.0</ele><time>2026-05-06T01:47:01.999Z</time></trkpt><trkpt lat="-37.933933195362776" lon="146.04362637296106"><ele>433.59999999999997</ele><time>2026-05-06T01:47:02.999Z</time></trkpt><trkpt lat="-37.93387801883319" lon="146.04372829807687"><ele>434.19999999999993</ele><time>2026-05-06T01:47:03.999Z</time></trkpt><trkpt lat="-37.933835750238295" lon="146.04382161769928"><ele>434.8</ele><time>2026-05-06T01:47:04.999Z</time></trkpt><trkpt lat="-37.93377583540837" lon="146.04397320232331"><ele>435.4</ele><time>2026-05-06T01:47:05.999Z</time></trkpt><trkpt lat="-37.93370377037218" lon="146.04404619214094"><ele>436.0</ele><time>2026-05-06T01:47:06.999Z</time></trkpt><trkpt lat="-37.93362359880376" lon="146.04410043773404"><ele>436.0</ele><time>2026-05-06T01:47:07.999Z</time></trkpt><trkpt lat="-37.93352252037589" lon="146.04412199891186"><ele>436.0</ele><time>2026-05-06T01:47:08.999Z</time></trkpt><trkpt lat="-37.933412626978495" lon="146.04413571621518"><ele>436.0</ele><time>2026-05-06T01:47:09.999Z</time></trkpt><trkpt lat="-37.93329735263316" lon="146.04415444768193"><ele>436.0</ele><time>2026-05-06T01:47:10.999Z</time></trkpt><trkpt lat="-37.93318018304897" lon="146.04417699830336"><ele>436.0</ele><time>2026-05-06T01:47:11.999Z</time></trkpt><trkpt lat="-37.93308292202697" lon="146.0441940712266"><ele>435.6</ele><time>2026-05-06T01:47:12.999Z</time></trkpt><trkpt lat="-37.93298851830999" lon="146.04420316646454"><ele>435.20000000000005</ele><time>2026-05-06T01:47:13.999Z</time></trkpt><trkpt lat="-37.93287519777342" lon="146.0441906009386"><ele>434.79999999999995</ele><time>2026-05-06T01:47:14.999Z</time></trkpt><trkpt lat="-37.93275622398682" lon="146.04419501513127"><ele>434.4</ele><time>2026-05-06T01:47:15.999Z</time></trkpt><trkpt lat="-37.93264256308305" lon="146.04419778183222"><ele>434.0</ele><time>2026-05-06T01:47:16.999Z</time></trkpt><trkpt lat="-37.93254291374692" lon="146.04420939236752"><ele>434.66666666666663</ele><time>2026-05-06T01:47:17.999Z</time></trkpt><trkpt lat="-37.93245161124438" lon="146.04421407832018"><ele>435.3333333333333</ele><time>2026-05-06T01:47:18.999Z</time></trkpt><trkpt lat="-37.93237344806004" lon="146.0442194547763"><ele>436.0</ele><time>2026-05-06T01:47:19.999Z</time></trkpt><trkpt lat="-37.93231262703776" lon="146.04427295790512"><ele>436.66666666666663</ele><time>2026-05-06T01:47:20.999Z</time></trkpt><trkpt lat="-37.93224612718347" lon="146.0443270876332"><ele>437.3333333333333</ele><time>2026-05-06T01:47:21.999Z</time></trkpt><trkpt lat="-37.932167573262554" lon="146.04439007777077"><ele>438.0</ele><time>2026-05-06T01:47:22.999Z</time></trkpt><trkpt lat="-37.932090126574465" lon="146.0444446146788"><ele>438.0</ele><time>2026-05-06T01:47:23.999Z</time></trkpt><trkpt lat="-37.93202186314266" lon="146.0444825447366"><ele>437.99999999999994</ele><time>2026-05-06T01:47:24.999Z</time></trkpt><trkpt lat="-37.93193338679849" lon="146.04453449055072"><ele>437.99999999999994</ele><time>2026-05-06T01:47:25.999Z</time></trkpt><trkpt lat="-37.93184664635855" lon="146.0446011557429"><ele>438.0</ele><time>2026-05-06T01:47:26.999Z</time></trkpt><trkpt lat="-37.93177952409949" lon="146.0446689061212"><ele>438.0</ele><time>2026-05-06T01:47:27.999Z</time></trkpt><trkpt lat="-37.93169707576327" lon="146.04477713403287"><ele>440.4</ele><time>2026-05-06T01:47:28.999Z</time></trkpt><trkpt lat="-37.93164074255141" lon="146.04483764681422"><ele>442.79999999999995</ele><time>2026-05-06T01:47:29.999Z</time></trkpt><trkpt lat="-37.93155284940941" lon="146.0449155662269"><ele>445.2</ele><time>2026-05-06T01:47:30.999Z</time></trkpt><trkpt lat="-37.93147954887379" lon="146.04495861595586"><ele>447.6</ele><time>2026-05-06T01:47:31.999Z</time></trkpt><trkpt lat="-37.93141883358054" lon="146.04498402487883"><ele>450.0</ele><time>2026-05-06T01:47:32.999Z</time></trkpt><trkpt lat="-37.93129490691734" lon="146.04492619681787"><ele>450.0</ele><time>2026-05-06T01:47:34.999Z</time></trkpt><trkpt lat="-37.931223301806945" lon="146.04486146509493"><ele>450.0</ele><time>2026-05-06T01:47:35.999Z</time></trkpt><trkpt lat="-37.931145755274414" lon="146.0447727593589"><ele>450.0</ele><time>2026-05-06T01:47:36.999Z</time></trkpt><trkpt lat="-37.93107097291525" lon="146.04468252298508"><ele>450.0</ele><time>2026-05-06T01:47:37.999Z</time></trkpt><trkpt lat="-37.93099746679908" lon="146.04460037419898"><ele>450.0</ele><time>2026-05-06T01:47:38.999Z</time></trkpt><trkpt lat="-37.9309242885518" lon="146.04452217030405"><ele>451.4</ele><time>2026-05-06T01:47:39.999Z</time></trkpt><trkpt lat="-37.93082665736051" lon="146.0444784342145"><ele>452.8</ele><time>2026-05-06T01:47:40.999Z</time></trkpt><trkpt lat="-37.93073079481502" lon="146.0444558916329"><ele>454.20000000000005</ele><time>2026-05-06T01:47:41.999Z</time></trkpt><trkpt lat="-37.93064907829744" lon="146.0444024556443"><ele>455.6</ele><time>2026-05-06T01:47:42.999Z</time></trkpt><trkpt lat="-37.930555499632945" lon="146.0443578532737"><ele>457.0</ele><time>2026-05-06T01:47:43.998Z</time></trkpt><trkpt lat="-37.93047645552795" lon="146.0443541181551"><ele>457.0</ele><time>2026-05-06T01:47:44.998Z</time></trkpt><trkpt lat="-37.93038850559184" lon="146.04435826205787"><ele>457.00000000000006</ele><time>2026-05-06T01:47:45.998Z</time></trkpt><trkpt lat="-37.93029034547898" lon="146.04437743146096"><ele>457.00000000000006</ele><time>2026-05-06T01:47:46.998Z</time></trkpt><trkpt lat="-37.930188598438114" lon="146.0444072231269"><ele>457.0</ele><time>2026-05-06T01:47:47.998Z</time></trkpt><trkpt lat="-37.93008272289131" lon="146.04444052697554"><ele>457.0</ele><time>2026-05-06T01:47:48.998Z</time></trkpt><trkpt lat="-37.929989500856394" lon="146.0444712259662"><ele>456.0</ele><time>2026-05-06T01:47:49.998Z</time></trkpt><trkpt lat="-37.929899293467344" lon="146.04451114021097"><ele>455.00000000000006</ele><time>2026-05-06T01:47:50.998Z</time></trkpt><trkpt lat="-37.92982816517673" lon="146.04456640763192"><ele>454.00000000000006</ele><time>2026-05-06T01:47:51.998Z</time></trkpt><trkpt lat="-37.92974805304712" lon="146.044650803613"><ele>453.0</ele><time>2026-05-06T01:47:52.998Z</time></trkpt><trkpt lat="-37.9296613282087" lon="146.04472504349567"><ele>452.0</ele><time>2026-05-06T01:47:53.998Z</time></trkpt><trkpt lat="-37.92957760367534" lon="146.04477836339322"><ele>451.99999999999994</ele><time>2026-05-06T01:47:54.998Z</time></trkpt><trkpt lat="-37.92950131029596" lon="146.04481229753515"><ele>452.0</ele><time>2026-05-06T01:47:55.998Z</time></trkpt><trkpt lat="-37.92943291104606" lon="146.044859845135"><ele>452.0</ele><time>2026-05-06T01:47:56.998Z</time></trkpt><trkpt lat="-37.92935618390129" lon="146.04493657493313"><ele>452.0</ele><time>2026-05-06T01:47:57.998Z</time></trkpt><trkpt lat="-37.92926894645094" lon="146.04501282677703"><ele>451.99999999999994</ele><time>2026-05-06T01:47:58.998Z</time></trkpt><trkpt lat="-37.92919300311842" lon="146.04506181869493"><ele>452.0</ele><time>2026-05-06T01:47:59.998Z</time></trkpt><trkpt lat="-37.929109371888416" lon="146.0450905080556"><ele>452.99999999999994</ele><time>2026-05-06T01:48:00.998Z</time></trkpt><trkpt lat="-37.929031538400736" lon="146.0451003258683"><ele>454.0</ele><time>2026-05-06T01:48:01.998Z</time></trkpt><trkpt lat="-37.928927597744895" lon="146.04509953466834"><ele>455.0</ele><time>2026-05-06T01:48:02.998Z</time></trkpt><trkpt lat="-37.92884527799059" lon="146.04511729514925"><ele>456.0</ele><time>2026-05-06T01:48:03.998Z</time></trkpt><trkpt lat="-37.92877421344357" lon="146.04513528251354"><ele>456.99999999999994</ele><time>2026-05-06T01:48:04.998Z</time></trkpt><trkpt lat="-37.92869886097935" lon="146.04511745430588"><ele>458.0</ele><time>2026-05-06T01:48:06.998Z</time></trkpt><trkpt lat="-37.92867180753382" lon="146.04494043991068"><ele>457.99999999999994</ele><time>2026-05-06T01:48:08.998Z</time></trkpt><trkpt lat="-37.92864644052151" lon="146.044811745352"><ele>458.0</ele><time>2026-05-06T01:48:09.998Z</time></trkpt><trkpt lat="-37.92864286004286" lon="146.0447023378866"><ele>458.0</ele><time>2026-05-06T01:48:10.998Z</time></trkpt><trkpt lat="-37.928622742715646" lon="146.04459396642386"><ele>458.0</ele><time>2026-05-06T01:48:11.998Z</time></trkpt><trkpt lat="-37.928587966325225" lon="146.04448425311557"><ele>457.99999999999994</ele><time>2026-05-06T01:48:13Z</time></trkpt><trkpt lat="-37.928542644932676" lon="146.04440639935373"><ele>458.0</ele><time>2026-05-06T01:48:14Z</time></trkpt><trkpt lat="-37.928492809460934" lon="146.0443172517188"><ele>458.0</ele><time>2026-05-06T01:48:15Z</time></trkpt><trkpt lat="-37.92845812225482" lon="146.04423555921534"><ele>457.99999999999994</ele><time>2026-05-06T01:48:16Z</time></trkpt><trkpt lat="-37.9284286259568" lon="146.04416078800952"><ele>457.99999999999994</ele><time>2026-05-06T01:48:17Z</time></trkpt><trkpt lat="-37.9284553142874" lon="146.0439971388165"><ele>458.0</ele><time>2026-05-06T01:48:19Z</time></trkpt><trkpt lat="-37.92848417481747" lon="146.04390200884944"><ele>458.0</ele><time>2026-05-06T01:48:20Z</time></trkpt><trkpt lat="-37.92846568173489" lon="146.0437452863827"><ele>457.49999999999994</ele><time>2026-05-06T01:48:22Z</time></trkpt><trkpt lat="-37.92844738660274" lon="146.04363974793168"><ele>457.0</ele><time>2026-05-06T01:48:23Z</time></trkpt><trkpt lat="-37.92843510167671" lon="146.0435363369193"><ele>456.5</ele><time>2026-05-06T01:48:24Z</time></trkpt><trkpt lat="-37.928406238153585" lon="146.04341905446807"><ele>456.0</ele><time>2026-05-06T01:48:25Z</time></trkpt><trkpt lat="-37.92837809437782" lon="146.04331942553878"><ele>455.49999999999994</ele><time>2026-05-06T01:48:26Z</time></trkpt><trkpt lat="-37.92834257349002" lon="146.04321728305334"><ele>455.0</ele><time>2026-05-06T01:48:27Z</time></trkpt><trkpt lat="-37.92831486964925" lon="146.04311189061116"><ele>453.3333333333333</ele><time>2026-05-06T01:48:28Z</time></trkpt><trkpt lat="-37.92829132050357" lon="146.04300648755216"><ele>451.66666666666663</ele><time>2026-05-06T01:48:29Z</time></trkpt><trkpt lat="-37.928266843129734" lon="146.04290806236546"><ele>450.0</ele><time>2026-05-06T01:48:30Z</time></trkpt><trkpt lat="-37.928260214371086" lon="146.04279348808024"><ele>448.33333333333337</ele><time>2026-05-06T01:48:31Z</time></trkpt><trkpt lat="-37.92826884377782" lon="146.0426901411564"><ele>446.6666666666667</ele><time>2026-05-06T01:48:32Z</time></trkpt><trkpt lat="-37.92829398278021" lon="146.04260543000242"><ele>445.0</ele><time>2026-05-06T01:48:33Z</time></trkpt><trkpt lat="-37.92832330430208" lon="146.04252728083694"><ele>443.2</ele><time>2026-05-06T01:48:34Z</time></trkpt><trkpt lat="-37.928370655820785" lon="146.0423829770853"><ele>441.4</ele><time>2026-05-06T01:48:35.999Z</time></trkpt><trkpt lat="-37.92838373592853" lon="146.04228798951237"><ele>439.6</ele><time>2026-05-06T01:48:36.999Z</time></trkpt><trkpt lat="-37.928387879102196" lon="146.04219486731"><ele>437.8</ele><time>2026-05-06T01:48:37.999Z</time></trkpt><trkpt lat="-37.92839089539043" lon="146.04203717000362"><ele>436.0</ele><time>2026-05-06T01:48:39.999Z</time></trkpt><trkpt lat="-37.92838252688113" lon="146.04195346997196"><ele>436.00000000000006</ele><time>2026-05-06T01:48:40.999Z</time></trkpt><trkpt lat="-37.92837505061249" lon="146.04186642668083"><ele>436.0</ele><time>2026-05-06T01:48:41.999Z</time></trkpt><trkpt lat="-37.92834865545274" lon="146.04178202259874"><ele>436.0</ele><time>2026-05-06T01:48:42.999Z</time></trkpt><trkpt lat="-37.928313365" lon="146.0416284847745"><ele>436.0</ele><time>2026-05-06T01:48:44.999Z</time></trkpt><trkpt lat="-37.92832541029444" lon="146.0415252450492"><ele>436.00000000000006</ele><time>2026-05-06T01:48:45.999Z</time></trkpt><trkpt lat="-37.928346381207916" lon="146.04143061058366"><ele>436.0</ele><time>2026-05-06T01:48:46.999Z</time></trkpt><trkpt lat="-37.92837110100696" lon="146.04132531065142"><ele>433.50000000000006</ele><time>2026-05-06T01:48:47.999Z</time></trkpt><trkpt lat="-37.92839920467231" lon="146.04123671737082"><ele>431.0</ele><time>2026-05-06T01:48:48.999Z</time></trkpt><trkpt lat="-37.9284152612787" lon="146.04108344449324"><ele>428.5</ele><time>2026-05-06T01:48:50.999Z</time></trkpt><trkpt lat="-37.92838983868558" lon="146.04098897061328"><ele>426.0</ele><time>2026-05-06T01:48:51.999Z</time></trkpt><trkpt lat="-37.92836580154152" lon="146.04088918605444"><ele>423.50000000000006</ele><time>2026-05-06T01:48:52.999Z</time></trkpt><trkpt lat="-37.92836975608293" lon="146.04080497496744"><ele>421.0</ele><time>2026-05-06T01:48:53.999Z</time></trkpt><trkpt lat="-37.92839855866407" lon="146.04072345820936"><ele>416.00000000000006</ele><time>2026-05-06T01:48:54.999Z</time></trkpt><trkpt lat="-37.928430693267025" lon="146.04063098624343"><ele>411.0</ele><time>2026-05-06T01:48:55.999Z</time></trkpt><trkpt lat="-37.92847255888208" lon="146.0405457433014"><ele>406.0</ele><time>2026-05-06T01:48:56.999Z</time></trkpt><trkpt lat="-37.928469069098604" lon="146.0404651082405"><ele>401.0</ele><time>2026-05-06T01:48:57.999Z</time></trkpt><trkpt lat="-37.92846404174877" lon="146.04034596241212"><ele>396.00000000000006</ele><time>2026-05-06T01:48:59.999Z</time></trkpt><trkpt lat="-37.928479173895376" lon="146.04026096252676"><ele>391.0</ele><time>2026-05-06T01:49:00.999Z</time></trkpt><trkpt lat="-37.92851243675841" lon="146.04018603808163"><ele>391.0</ele><time>2026-05-06T01:49:01.999Z</time></trkpt><trkpt lat="-37.9285816049559" lon="146.04011799098214"><ele>391.0</ele><time>2026-05-06T01:49:03.999Z</time></trkpt><trkpt lat="-37.92866918647021" lon="146.04005374483913"><ele>391.0</ele><time>2026-05-06T01:49:05.999Z</time></trkpt><trkpt lat="-37.92873178307671" lon="146.03998791112755"><ele>391.0</ele><time>2026-05-06T01:49:07.999Z</time></trkpt><trkpt lat="-37.92882105617953" lon="146.03995926941408"><ele>391.0</ele><time>2026-05-06T01:49:09.999Z</time></trkpt><trkpt lat="-37.92890266514621" lon="146.0399072387922"><ele>388.6666666666667</ele><time>2026-05-06T01:49:11.999Z</time></trkpt><trkpt lat="-37.928962173578675" lon="146.0398277850273"><ele>386.33333333333337</ele><time>2026-05-06T01:49:13.999Z</time></trkpt><trkpt lat="-37.928992417300094" lon="146.03973171809668"><ele>384.0</ele><time>2026-05-06T01:49:15.999Z</time></trkpt><trkpt lat="-37.92901951525918" lon="146.03962366705446"><ele>381.6666666666667</ele><time>2026-05-06T01:49:17.999Z</time></trkpt><trkpt lat="-37.929056150316804" lon="146.03951811110304"><ele>379.33333333333337</ele><time>2026-05-06T01:49:19.999Z</time></trkpt><trkpt lat="-37.92912153370012" lon="146.0394586731633"><ele>377.0</ele><time>2026-05-06T01:49:21.999Z</time></trkpt><trkpt lat="-37.92920269292934" lon="146.03941374569658"><ele>374.0</ele><time>2026-05-06T01:49:23.999Z</time></trkpt><trkpt lat="-37.92928370758238" lon="146.0393727705273"><ele>371.0</ele><time>2026-05-06T01:49:25.999Z</time></trkpt><trkpt lat="-37.92936899749713" lon="146.03932914930692"><ele>368.0</ele><time>2026-05-06T01:49:27.999Z</time></trkpt><trkpt lat="-37.92945688780817" lon="146.0392180607341"><ele>365.0</ele><time>2026-05-06T01:49:29.999Z</time></trkpt><trkpt lat="-37.92952847285568" lon="146.03914045588448"><ele>362.0</ele><time>2026-05-06T01:49:31.999Z</time></trkpt><trkpt lat="-37.92962734372412" lon="146.0390635756942"><ele>360.20000000000005</ele><time>2026-05-06T01:49:33.999Z</time></trkpt><trkpt lat="-37.9296842597226" lon="146.03901446646586"><ele>358.4</ele><time>2026-05-06T01:49:34.999Z</time></trkpt><trkpt lat="-37.92980376732961" lon="146.0389324109891"><ele>356.6</ele><time>2026-05-06T01:49:36.999Z</time></trkpt><trkpt lat="-37.92987930977283" lon="146.03887914060684"><ele>354.79999999999995</ele><time>2026-05-06T01:49:37.999Z</time></trkpt><trkpt lat="-37.9299675145422" lon="146.03881382895364"><ele>353.0</ele><time>2026-05-06T01:49:38.999Z</time></trkpt><trkpt lat="-37.93007616291556" lon="146.0387506457808"><ele>353.0</ele><time>2026-05-06T01:49:39.999Z</time></trkpt><trkpt lat="-37.93017761332589" lon="146.03869192564963"><ele>353.0</ele><time>2026-05-06T01:49:40.999Z</time></trkpt><trkpt lat="-37.93027753117854" lon="146.03862347173458"><ele>353.0</ele><time>2026-05-06T01:49:41.999Z</time></trkpt><trkpt lat="-37.93037035578075" lon="146.03855553398483"><ele>353.0</ele><time>2026-05-06T01:49:42.999Z</time></trkpt><trkpt lat="-37.930459907655724" lon="146.03847220571305"><ele>353.0</ele><time>2026-05-06T01:49:43.999Z</time></trkpt><trkpt lat="-37.93054646206548" lon="146.03838642868175"><ele>350.0</ele><time>2026-05-06T01:49:44.999Z</time></trkpt><trkpt lat="-37.93062203607777" lon="146.03828925799144"><ele>347.0</ele><time>2026-05-06T01:49:45.999Z</time></trkpt><trkpt lat="-37.930711866146275" lon="146.0382035260483"><ele>344.0</ele><time>2026-05-06T01:49:46.999Z</time></trkpt><trkpt lat="-37.93081222237993" lon="146.03814114813022"><ele>341.0</ele><time>2026-05-06T01:49:47.998Z</time></trkpt><trkpt lat="-37.93091337418429" lon="146.03807901694145"><ele>338.0</ele><time>2026-05-06T01:49:48.998Z</time></trkpt><trkpt lat="-37.93101057369551" lon="146.03801077239285"><ele>338.0</ele><time>2026-05-06T01:49:49.998Z</time></trkpt><trkpt lat="-37.93109553082713" lon="146.03794396167206"><ele>338.0</ele><time>2026-05-06T01:49:50.998Z</time></trkpt><trkpt lat="-37.93116170921781" lon="146.03787615787752"><ele>338.0</ele><time>2026-05-06T01:49:51.998Z</time></trkpt><trkpt lat="-37.931228567991454" lon="146.0378120040985"><ele>338.0</ele><time>2026-05-06T01:49:52.998Z</time></trkpt><trkpt lat="-37.931293244660985" lon="146.0377684029522"><ele>338.0</ele><time>2026-05-06T01:49:53.998Z</time></trkpt><trkpt lat="-37.931356618302615" lon="146.03771017737634"><ele>338.0</ele><time>2026-05-06T01:49:54.998Z</time></trkpt><trkpt lat="-37.93141841333414" lon="146.03765867283377"><ele>338.0</ele><time>2026-05-06T01:49:55.998Z</time></trkpt><trkpt lat="-37.931478891797845" lon="146.03762382569295"><ele>338.0</ele><time>2026-05-06T01:49:56.998Z</time></trkpt><trkpt lat="-37.93156514400704" lon="146.03754350087019"><ele>338.0</ele><time>2026-05-06T01:49:58.998Z</time></trkpt><trkpt lat="-37.931626368887834" lon="146.03739649245279"><ele>338.0</ele><time>2026-05-06T01:50:00.998Z</time></trkpt><trkpt lat="-37.93172893995119" lon="146.03731410597894"><ele>338.0</ele><time>2026-05-06T01:50:02.998Z</time></trkpt><trkpt lat="-37.93182208232223" lon="146.03721949749956"><ele>334.59999999999997</ele><time>2026-05-06T01:50:04.998Z</time></trkpt><trkpt lat="-37.93190973224087" lon="146.03712374229403"><ele>331.2</ele><time>2026-05-06T01:50:06.998Z</time></trkpt><trkpt lat="-37.931968500151655" lon="146.03708938873947"><ele>327.8</ele><time>2026-05-06T01:50:07.998Z</time></trkpt><trkpt lat="-37.93206164071476" lon="146.03696585662203"><ele>324.4</ele><time>2026-05-06T01:50:09.998Z</time></trkpt><trkpt lat="-37.932112235465844" lon="146.03688553480194"><ele>321.0</ele><time>2026-05-06T01:50:10.998Z</time></trkpt><trkpt lat="-37.93216614588587" lon="146.03682223912872"><ele>321.0</ele><time>2026-05-06T01:50:11.998Z</time></trkpt><trkpt lat="-37.93221486121234" lon="146.03673127204215"><ele>321.0</ele><time>2026-05-06T01:50:12.998Z</time></trkpt><trkpt lat="-37.932274263259146" lon="146.03662939910032"><ele>321.0</ele><time>2026-05-06T01:50:13.998Z</time></trkpt><trkpt lat="-37.93231920609772" lon="146.0365379034274"><ele>321.0</ele><time>2026-05-06T01:50:14.998Z</time></trkpt><trkpt lat="-37.932382327032975" lon="146.03643216905718"><ele>321.0</ele><time>2026-05-06T01:50:15.998Z</time></trkpt><trkpt lat="-37.93244536055978" lon="146.03634569971436"><ele>319.8</ele><time>2026-05-06T01:50:16.998Z</time></trkpt><trkpt lat="-37.93251196811634" lon="146.03625171219863"><ele>318.6</ele><time>2026-05-06T01:50:18Z</time></trkpt><trkpt lat="-37.932592983734715" lon="146.0361507083204"><ele>317.4</ele><time>2026-05-06T01:50:19Z</time></trkpt><trkpt lat="-37.9326662530037" lon="146.03604477073065"><ele>316.2</ele><time>2026-05-06T01:50:20Z</time></trkpt><trkpt lat="-37.932746250340635" lon="146.03595555098153"><ele>315.0</ele><time>2026-05-06T01:50:21Z</time></trkpt><trkpt lat="-37.93282079151681" lon="146.0358592983672"><ele>314.0</ele><time>2026-05-06T01:50:22Z</time></trkpt><trkpt lat="-37.93290500553148" lon="146.0357871243254"><ele>313.0</ele><time>2026-05-06T01:50:23Z</time></trkpt><trkpt lat="-37.932981191786425" lon="146.03570461410095"><ele>312.0</ele><time>2026-05-06T01:50:24Z</time></trkpt><trkpt lat="-37.93306536284249" lon="146.03563199716453"><ele>311.0</ele><time>2026-05-06T01:50:25Z</time></trkpt><trkpt lat="-37.93316004458818" lon="146.03557372865765"><ele>310.0</ele><time>2026-05-06T01:50:26Z</time></trkpt><trkpt lat="-37.93324913479327" lon="146.0355156039211"><ele>310.0</ele><time>2026-05-06T01:50:27Z</time></trkpt><trkpt lat="-37.93331701077573" lon="146.03545945842512"><ele>310.0</ele><time>2026-05-06T01:50:28Z</time></trkpt><trkpt lat="-37.93338351936899" lon="146.0354119120609"><ele>310.0</ele><time>2026-05-06T01:50:29Z</time></trkpt><trkpt lat="-37.933499664668346" lon="146.0353348050745"><ele>310.0</ele><time>2026-05-06T01:50:31Z</time></trkpt><trkpt lat="-37.93358521452444" lon="146.03531119293407"><ele>310.0</ele><time>2026-05-06T01:50:32Z</time></trkpt><trkpt lat="-37.93369210570993" lon="146.03529929673013"><ele>311.0</ele><time>2026-05-06T01:50:33Z</time></trkpt><trkpt lat="-37.93379156623443" lon="146.03528671098567"><ele>312.0</ele><time>2026-05-06T01:50:34Z</time></trkpt><trkpt lat="-37.93389315696296" lon="146.03527977228848"><ele>313.0</ele><time>2026-05-06T01:50:35Z</time></trkpt><trkpt lat="-37.93399758834074" lon="146.03526120017818"><ele>314.0</ele><time>2026-05-06T01:50:36Z</time></trkpt><trkpt lat="-37.93409961933018" lon="146.03520766753675"><ele>315.0</ele><time>2026-05-06T01:50:37Z</time></trkpt><trkpt lat="-37.93420679588715" lon="146.03513571051027"><ele>316.0</ele><time>2026-05-06T01:50:38Z</time></trkpt><trkpt lat="-37.93427728078628" lon="146.03514789537294"><ele>317.0</ele><time>2026-05-06T01:50:39Z</time></trkpt><trkpt lat="-37.934369092262656" lon="146.03512408658366"><ele>318.0</ele><time>2026-05-06T01:50:40Z</time></trkpt><trkpt lat="-37.93445395102224" lon="146.035080771108"><ele>319.0</ele><time>2026-05-06T01:50:41Z</time></trkpt><trkpt lat="-37.934544540075514" lon="146.03501089303313"><ele>320.0</ele><time>2026-05-06T01:50:42Z</time></trkpt><trkpt lat="-37.934634521048444" lon="146.03494941032798"><ele>320.0</ele><time>2026-05-06T01:50:42.999Z</time></trkpt><trkpt lat="-37.93471802140368" lon="146.03488980741872"><ele>320.0</ele><time>2026-05-06T01:50:43.999Z</time></trkpt><trkpt lat="-37.93479285477596" lon="146.03482401449602"><ele>320.0</ele><time>2026-05-06T01:50:44.999Z</time></trkpt><trkpt lat="-37.934887734036025" lon="146.03475341343741"><ele>320.0</ele><time>2026-05-06T01:50:45.999Z</time></trkpt><trkpt lat="-37.93496142281399" lon="146.0346761767368"><ele>320.0</ele><time>2026-05-06T01:50:46.999Z</time></trkpt><trkpt lat="-37.93501251864611" lon="146.03459858940104"><ele>320.0</ele><time>2026-05-06T01:50:47.999Z</time></trkpt><trkpt lat="-37.935061972251056" lon="146.03451298333707"><ele>320.0</ele><time>2026-05-06T01:50:48.999Z</time></trkpt><trkpt lat="-37.935122360728705" lon="146.0344105385326"><ele>320.0</ele><time>2026-05-06T01:50:49.999Z</time></trkpt><trkpt lat="-37.93516982687235" lon="146.03431606577018"><ele>320.0</ele><time>2026-05-06T01:50:50.999Z</time></trkpt><trkpt lat="-37.93521712285729" lon="146.0342071036014"><ele>320.0</ele><time>2026-05-06T01:50:51.999Z</time></trkpt><trkpt lat="-37.935258013820274" lon="146.03410604880045"><ele>317.8</ele><time>2026-05-06T01:50:52.999Z</time></trkpt><trkpt lat="-37.935288170951914" lon="146.0340096676939"><ele>315.6</ele><time>2026-05-06T01:50:53.999Z</time></trkpt><trkpt lat="-37.93531590513702" lon="146.03391775041203"><ele>313.4</ele><time>2026-05-06T01:50:54.999Z</time></trkpt><trkpt lat="-37.935344988592036" lon="146.03383225524212"><ele>311.2</ele><time>2026-05-06T01:50:55.999Z</time></trkpt><trkpt lat="-37.93537248943602" lon="146.0336499758027"><ele>309.0</ele><time>2026-05-06T01:50:57.999Z</time></trkpt><trkpt lat="-37.935398970968244" lon="146.03348979712268"><ele>309.0</ele><time>2026-05-06T01:50:59.999Z</time></trkpt><trkpt lat="-37.9354094236932" lon="146.03335745330332"><ele>309.0</ele><time>2026-05-06T01:51:01.999Z</time></trkpt><trkpt lat="-37.93539561710017" lon="146.03325968250243"><ele>309.0</ele><time>2026-05-06T01:51:02.999Z</time></trkpt><trkpt lat="-37.93537736359929" lon="146.03317531350868"><ele>309.0</ele><time>2026-05-06T01:51:03.999Z</time></trkpt><trkpt lat="-37.93533886028772" lon="146.03308875368407"><ele>309.0</ele><time>2026-05-06T01:51:04.999Z</time></trkpt><trkpt lat="-37.93529732171621" lon="146.03299682093956"><ele>309.0</ele><time>2026-05-06T01:51:05.999Z</time></trkpt><trkpt lat="-37.93526114390769" lon="146.03292441731074"><ele>305.59999999999997</ele><time>2026-05-06T01:51:06.999Z</time></trkpt><trkpt lat="-37.93523474614556" lon="146.0328501160986"><ele>302.2</ele><time>2026-05-06T01:51:07.999Z</time></trkpt><trkpt lat="-37.9351896608193" lon="146.03271585722092"><ele>298.79999999999995</ele><time>2026-05-06T01:51:09.999Z</time></trkpt><trkpt lat="-37.93512577511278" lon="146.03258334124553"><ele>295.4</ele><time>2026-05-06T01:51:11.999Z</time></trkpt><trkpt lat="-37.93508684701521" lon="146.03246471438217"><ele>292.0</ele><time>2026-05-06T01:51:13.999Z</time></trkpt><trkpt lat="-37.93505555926787" lon="146.03239098203218"><ele>289.8333333333333</ele><time>2026-05-06T01:51:14.999Z</time></trkpt><trkpt lat="-37.93502201687099" lon="146.03232170872872"><ele>287.66666666666663</ele><time>2026-05-06T01:51:15.999Z</time></trkpt><trkpt lat="-37.93498460882121" lon="146.0322557492814"><ele>285.5</ele><time>2026-05-06T01:51:16.999Z</time></trkpt><trkpt lat="-37.934900141643006" lon="146.0321334128484"><ele>283.3333333333333</ele><time>2026-05-06T01:51:18.999Z</time></trkpt><trkpt lat="-37.934847215731374" lon="146.03208699265232"><ele>281.1666666666667</ele><time>2026-05-06T01:51:19.999Z</time></trkpt><trkpt lat="-37.934777682623086" lon="146.0320487149235"><ele>279.0</ele><time>2026-05-06T01:51:20.999Z</time></trkpt><trkpt lat="-37.93470824726795" lon="146.0320102463901"><ele>279.0</ele><time>2026-05-06T01:51:21.999Z</time></trkpt><trkpt lat="-37.93463367860733" lon="146.03196228258537"><ele>279.0</ele><time>2026-05-06T01:51:22.999Z</time></trkpt><trkpt lat="-37.934560676323876" lon="146.0319209377788"><ele>279.0</ele><time>2026-05-06T01:51:23.999Z</time></trkpt><trkpt lat="-37.93448660749667" lon="146.03188237593548"><ele>279.0</ele><time>2026-05-06T01:51:24.999Z</time></trkpt><trkpt lat="-37.93441527727834" lon="146.0318417744536"><ele>279.0</ele><time>2026-05-06T01:51:25.999Z</time></trkpt><trkpt lat="-37.93430015627943" lon="146.0317700082512"><ele>276.6666666666667</ele><time>2026-05-06T01:51:27.999Z</time></trkpt><trkpt lat="-37.93419086443845" lon="146.03172520901882"><ele>274.3333333333333</ele><time>2026-05-06T01:51:29.999Z</time></trkpt><trkpt lat="-37.934124438241376" lon="146.0317286278552"><ele>272.0</ele><time>2026-05-06T01:51:30.999Z</time></trkpt><trkpt lat="-37.9340592050684" lon="146.0317253933376"><ele>269.66666666666663</ele><time>2026-05-06T01:51:31.999Z</time></trkpt><trkpt lat="-37.93398899472725" lon="146.03171998645712"><ele>267.3333333333333</ele><time>2026-05-06T01:51:32.999Z</time></trkpt><trkpt lat="-37.933859670153375" lon="146.03170314339755"><ele>265.0</ele><time>2026-05-06T01:51:34.999Z</time></trkpt><trkpt lat="-37.93373623429888" lon="146.03171195679914"><ele>265.0</ele><time>2026-05-06T01:51:36.999Z</time></trkpt><trkpt lat="-37.933615567878896" lon="146.03172939935214"><ele>265.0</ele><time>2026-05-06T01:51:38.999Z</time></trkpt><trkpt lat="-37.93354778618863" lon="146.0317502274999"><ele>265.0</ele><time>2026-05-06T01:51:39.999Z</time></trkpt><trkpt lat="-37.93347154131663" lon="146.03176905530538"><ele>265.0</ele><time>2026-05-06T01:51:40.999Z</time></trkpt><trkpt lat="-37.93339854036274" lon="146.03178616829956"><ele>265.0</ele><time>2026-05-06T01:51:41.999Z</time></trkpt><trkpt lat="-37.93327569292707" lon="146.03181282928605"><ele>259.5</ele><time>2026-05-06T01:51:42.999Z</time></trkpt><trkpt lat="-37.93316197858329" lon="146.03183203414468"><ele>254.0</ele><time>2026-05-06T01:51:43.999Z</time></trkpt><trkpt lat="-37.933031153659805" lon="146.03185259009481"><ele>248.5</ele><time>2026-05-06T01:51:44.999Z</time></trkpt><trkpt lat="-37.93292110873995" lon="146.03185750928475"><ele>243.0</ele><time>2026-05-06T01:51:45.999Z</time></trkpt><trkpt lat="-37.93281273265661" lon="146.0318593394897"><ele>243.0</ele><time>2026-05-06T01:51:46.999Z</time></trkpt><trkpt lat="-37.93270813361203" lon="146.0318724766982"><ele>243.0</ele><time>2026-05-06T01:51:47.999Z</time></trkpt><trkpt lat="-37.9326011291786" lon="146.03186768595657"><ele>243.0</ele><time>2026-05-06T01:51:48.999Z</time></trkpt><trkpt lat="-37.93249899894548" lon="146.0318380964204"><ele>243.0</ele><time>2026-05-06T01:51:49.999Z</time></trkpt><trkpt lat="-37.932399392807675" lon="146.0317834352177"><ele>243.0</ele><time>2026-05-06T01:51:50.999Z</time></trkpt><trkpt lat="-37.932309982572754" lon="146.03174757898634"><ele>241.16666666666666</ele><time>2026-05-06T01:51:51.999Z</time></trkpt><trkpt lat="-37.9322161637731" lon="146.0317537287769"><ele>239.33333333333331</ele><time>2026-05-06T01:51:52.999Z</time></trkpt><trkpt lat="-37.93213119479469" lon="146.0317935842595"><ele>237.5</ele><time>2026-05-06T01:51:53.999Z</time></trkpt><trkpt lat="-37.93204885406515" lon="146.03184822665332"><ele>235.66666666666666</ele><time>2026-05-06T01:51:54.999Z</time></trkpt><trkpt lat="-37.93199305414315" lon="146.0319197395834"><ele>233.83333333333331</ele><time>2026-05-06T01:51:55.999Z</time></trkpt><trkpt lat="-37.93194786509016" lon="146.03200687308998"><ele>232.0</ele><time>2026-05-06T01:51:56.999Z</time></trkpt><trkpt lat="-37.931901537645615" lon="146.03212024822486"><ele>232.0</ele><time>2026-05-06T01:51:57.998Z</time></trkpt><trkpt lat="-37.93185862425899" lon="146.03224631158488"><ele>232.0</ele><time>2026-05-06T01:51:58.998Z</time></trkpt><trkpt lat="-37.931825381431175" lon="146.03236815249196"><ele>232.0</ele><time>2026-05-06T01:51:59.998Z</time></trkpt><trkpt lat="-37.93178441271302" lon="146.0324603259298"><ele>232.0</ele><time>2026-05-06T01:52:00.998Z</time></trkpt><trkpt lat="-37.93172949482765" lon="146.0325498645274"><ele>232.0</ele><time>2026-05-06T01:52:01.998Z</time></trkpt><trkpt lat="-37.931659000938716" lon="146.03263786708325"><ele>233.14285714285717</ele><time>2026-05-06T01:52:02.998Z</time></trkpt><trkpt lat="-37.93159668000919" lon="146.03269262001353"><ele>234.28571428571428</ele><time>2026-05-06T01:52:03.998Z</time></trkpt><trkpt lat="-37.93152040216102" lon="146.03272983261905"><ele>235.42857142857144</ele><time>2026-05-06T01:52:05.998Z</time></trkpt><trkpt lat="-37.93145485618247" lon="146.03270663721136"><ele>236.57142857142858</ele><time>2026-05-06T01:52:09.998Z</time></trkpt><trkpt lat="-37.93138326526622" lon="146.0327171919017"><ele>237.71428571428572</ele><time>2026-05-06T01:52:12.998Z</time></trkpt><trkpt lat="-37.9313229242872" lon="146.03275002394494"><ele>238.85714285714286</ele><time>2026-05-06T01:52:13.998Z</time></trkpt><trkpt lat="-37.93126058477151" lon="146.03276312385174"><ele>240.0</ele><time>2026-05-06T01:52:14.998Z</time></trkpt><trkpt lat="-37.931196389770506" lon="146.0327272772669"><ele>240.0</ele><time>2026-05-06T01:52:15.998Z</time></trkpt><trkpt lat="-37.931140189270685" lon="146.03268308558228"><ele>240.0</ele><time>2026-05-06T01:52:16.998Z</time></trkpt><trkpt lat="-37.931064031622256" lon="146.03266350574233"><ele>240.0</ele><time>2026-05-06T01:52:17.998Z</time></trkpt><trkpt lat="-37.930982789129715" lon="146.0326464833634"><ele>240.0</ele><time>2026-05-06T01:52:18.998Z</time></trkpt><trkpt lat="-37.930919070821524" lon="146.03264601178319"><ele>240.0</ele><time>2026-05-06T01:52:19.998Z</time></trkpt><trkpt lat="-37.93084643513074" lon="146.03265842233088"><ele>240.0</ele><time>2026-05-06T01:52:20.998Z</time></trkpt><trkpt lat="-37.93077609827433" lon="146.0326644023497"><ele>240.0</ele><time>2026-05-06T01:52:21.998Z</time></trkpt><trkpt lat="-37.93071252378799" lon="146.03264157822045"><ele>240.16666666666666</ele><time>2026-05-06T01:52:22.998Z</time></trkpt><trkpt lat="-37.93063416773166" lon="146.03256993040924"><ele>240.33333333333331</ele><time>2026-05-06T01:52:25Z</time></trkpt><trkpt lat="-37.93057947884825" lon="146.03245221732624"><ele>240.5</ele><time>2026-05-06T01:52:27Z</time></trkpt><trkpt lat="-37.93055618234933" lon="146.0323701229756"><ele>240.66666666666666</ele><time>2026-05-06T01:52:28Z</time></trkpt><trkpt lat="-37.930534207393244" lon="146.03227992116803"><ele>240.83333333333331</ele><time>2026-05-06T01:52:29Z</time></trkpt><trkpt lat="-37.930496422973576" lon="146.03218032870038"><ele>241.0</ele><time>2026-05-06T01:52:30Z</time></trkpt><trkpt lat="-37.930476056030635" lon="146.03209458549742"><ele>238.20000000000002</ele><time>2026-05-06T01:52:31Z</time></trkpt><trkpt lat="-37.93042582947267" lon="146.03198017823513"><ele>235.40000000000003</ele><time>2026-05-06T01:52:32Z</time></trkpt><trkpt lat="-37.93038909090557" lon="146.03189690980645"><ele>232.6</ele><time>2026-05-06T01:52:33Z</time></trkpt><trkpt lat="-37.93034116885444" lon="146.0317984626815"><ele>229.8</ele><time>2026-05-06T01:52:34Z</time></trkpt><trkpt lat="-37.93028638028297" lon="146.0316571457498"><ele>227.0</ele><time>2026-05-06T01:52:35Z</time></trkpt><trkpt lat="-37.930247812531064" lon="146.0315271641695"><ele>225.83333333333334</ele><time>2026-05-06T01:52:36Z</time></trkpt><trkpt lat="-37.930235169509466" lon="146.03139391116056"><ele>224.66666666666669</ele><time>2026-05-06T01:52:37Z</time></trkpt><trkpt lat="-37.930192191340446" lon="146.03128766668976"><ele>223.5</ele><time>2026-05-06T01:52:38Z</time></trkpt><trkpt lat="-37.93016712642462" lon="146.03118724993107"><ele>222.33333333333331</ele><time>2026-05-06T01:52:39Z</time></trkpt><trkpt lat="-37.93013782994377" lon="146.03109355019933"><ele>221.16666666666666</ele><time>2026-05-06T01:52:40Z</time></trkpt><trkpt lat="-37.93011465700955" lon="146.03098783614485"><ele>220.0</ele><time>2026-05-06T01:52:41Z</time></trkpt><trkpt lat="-37.93011356550833" lon="146.03088012651202"><ele>219.49999999999997</ele><time>2026-05-06T01:52:42Z</time></trkpt><trkpt lat="-37.93011993479376" lon="146.03076836075527"><ele>219.0</ele><time>2026-05-06T01:52:43Z</time></trkpt><trkpt lat="-37.93011073319386" lon="146.03064285303296"><ele>218.5</ele><time>2026-05-06T01:52:44Z</time></trkpt><trkpt lat="-37.930110640212085" lon="146.03052772372095"><ele>218.0</ele><time>2026-05-06T01:52:45Z</time></trkpt><trkpt lat="-37.93009340555503" lon="146.03042298243494"><ele>217.49999999999997</ele><time>2026-05-06T01:52:46Z</time></trkpt><trkpt lat="-37.9300968324002" lon="146.03033328438622"><ele>217.0</ele><time>2026-05-06T01:52:47Z</time></trkpt><trkpt lat="-37.930070015461645" lon="146.0302447432672"><ele>216.8</ele><time>2026-05-06T01:52:48Z</time></trkpt><trkpt lat="-37.93001846124533" lon="146.03016868362144"><ele>216.6</ele><time>2026-05-06T01:52:48.999Z</time></trkpt><trkpt lat="-37.929888319178474" lon="146.03012859351182"><ele>216.40000000000003</ele><time>2026-05-06T01:52:50.999Z</time></trkpt><trkpt lat="-37.929791661309565" lon="146.0301463443253"><ele>216.20000000000002</ele><time>2026-05-06T01:52:51.999Z</time></trkpt><trkpt lat="-37.92970974747653" lon="146.03018769153522"><ele>216.0</ele><time>2026-05-06T01:52:52.999Z</time></trkpt><trkpt lat="-37.92960211738395" lon="146.0302371386165"><ele>216.0</ele><time>2026-05-06T01:52:53.999Z</time></trkpt><trkpt lat="-37.929513215085755" lon="146.03029727097405"><ele>216.00000000000003</ele><time>2026-05-06T01:52:54.999Z</time></trkpt><trkpt lat="-37.9294108500363" lon="146.03036427122382"><ele>216.00000000000003</ele><time>2026-05-06T01:52:55.999Z</time></trkpt><trkpt lat="-37.92931460145704" lon="146.03044559598925"><ele>216.0</ele><time>2026-05-06T01:52:56.999Z</time></trkpt><trkpt lat="-37.92923439471571" lon="146.03049413194617"><ele>216.0</ele><time>2026-05-06T01:52:57.999Z</time></trkpt><trkpt lat="-37.929175339630646" lon="146.0305613706186"><ele>216.0</ele><time>2026-05-06T01:52:58.999Z</time></trkpt><trkpt lat="-37.92912891090403" lon="146.03065450074408"><ele>216.00000000000003</ele><time>2026-05-06T01:52:59.999Z</time></trkpt><trkpt lat="-37.92905496442421" lon="146.03077949941957"><ele>216.00000000000003</ele><time>2026-05-06T01:53:00.999Z</time></trkpt><trkpt lat="-37.92898156918495" lon="146.03090530855152"><ele>216.0</ele><time>2026-05-06T01:53:01.999Z</time></trkpt><trkpt lat="-37.92891498125485" lon="146.03100131844695"><ele>216.0</ele><time>2026-05-06T01:53:02.999Z</time></trkpt><trkpt lat="-37.9288485411529" lon="146.0310773602562"><ele>217.60000000000002</ele><time>2026-05-06T01:53:03.999Z</time></trkpt><trkpt lat="-37.92877031123302" lon="146.03113517295228"><ele>219.20000000000002</ele><time>2026-05-06T01:53:04.999Z</time></trkpt><trkpt lat="-37.92869477798964" lon="146.03117765167536"><ele>220.79999999999998</ele><time>2026-05-06T01:53:05.999Z</time></trkpt><trkpt lat="-37.92862240194208" lon="146.03120336842113"><ele>222.39999999999998</ele><time>2026-05-06T01:53:06.999Z</time></trkpt><trkpt lat="-37.928530352402255" lon="146.03120633948157"><ele>224.0</ele><time>2026-05-06T01:53:07.999Z</time></trkpt><trkpt lat="-37.92842003554426" lon="146.0311912083515"><ele>224.33333333333334</ele><time>2026-05-06T01:53:08.999Z</time></trkpt><trkpt lat="-37.928322247257526" lon="146.03116756206214"><ele>224.66666666666669</ele><time>2026-05-06T01:53:09.999Z</time></trkpt><trkpt lat="-37.9282292330183" lon="146.0311538802413"><ele>225.0</ele><time>2026-05-06T01:53:10.999Z</time></trkpt><trkpt lat="-37.928165045965045" lon="146.03114589743566"><ele>225.33333333333331</ele><time>2026-05-06T01:53:11.999Z</time></trkpt><trkpt lat="-37.9280789379186" lon="146.03115089859472"><ele>225.66666666666666</ele><time>2026-05-06T01:53:12.999Z</time></trkpt><trkpt lat="-37.92798899885432" lon="146.03113492000173"><ele>226.0</ele><time>2026-05-06T01:53:13.999Z</time></trkpt><trkpt lat="-37.92789310116244" lon="146.03113208877988"><ele>226.0</ele><time>2026-05-06T01:53:14.999Z</time></trkpt><trkpt lat="-37.92778120367389" lon="146.0311217893899"><ele>226.00000000000003</ele><time>2026-05-06T01:53:15.999Z</time></trkpt><trkpt lat="-37.927690109436014" lon="146.03108106954167"><ele>226.00000000000003</ele><time>2026-05-06T01:53:16.999Z</time></trkpt><trkpt lat="-37.927597674677344" lon="146.03103206830548"><ele>226.0</ele><time>2026-05-06T01:53:17.999Z</time></trkpt><trkpt lat="-37.927483011731105" lon="146.0309772333845"><ele>226.0</ele><time>2026-05-06T01:53:18.999Z</time></trkpt><trkpt lat="-37.92737048653719" lon="146.03093744142234"><ele>225.25</ele><time>2026-05-06T01:53:19.999Z</time></trkpt><trkpt lat="-37.92726370510752" lon="146.03090614104372"><ele>224.5</ele><time>2026-05-06T01:53:20.999Z</time></trkpt><trkpt lat="-37.92716936885278" lon="146.03086169648887"><ele>223.75</ele><time>2026-05-06T01:53:21.999Z</time></trkpt><trkpt lat="-37.92705152434603" lon="146.0307813748189"><ele>223.0</ele><time>2026-05-06T01:53:22.999Z</time></trkpt><trkpt lat="-37.92694018251749" lon="146.03068622039052"><ele>223.25</ele><time>2026-05-06T01:53:23.999Z</time></trkpt><trkpt lat="-37.92683899865353" lon="146.03060215910926"><ele>223.5</ele><time>2026-05-06T01:53:24.999Z</time></trkpt><trkpt lat="-37.92674053236808" lon="146.03053012415435"><ele>223.75</ele><time>2026-05-06T01:53:25.999Z</time></trkpt><trkpt lat="-37.92663850983078" lon="146.03046933140328"><ele>224.0</ele><time>2026-05-06T01:53:26.999Z</time></trkpt><trkpt lat="-37.9265417841432" lon="146.03037521556465"><ele>224.00000000000003</ele><time>2026-05-06T01:53:27.999Z</time></trkpt><trkpt lat="-37.92646139227286" lon="146.0303606955149"><ele>224.0</ele><time>2026-05-06T01:53:28.999Z</time></trkpt><trkpt lat="-37.92638262356505" lon="146.0303303545447"><ele>224.0</ele><time>2026-05-06T01:53:29.999Z</time></trkpt><trkpt lat="-37.92631280032394" lon="146.03029018327388"><ele>224.0</ele><time>2026-05-06T01:53:30.999Z</time></trkpt><trkpt lat="-37.926252012448074" lon="146.03025778856028"><ele>224.00000000000003</ele><time>2026-05-06T01:53:31.999Z</time></trkpt><trkpt lat="-37.92618532117137" lon="146.03022295130444"><ele>224.0</ele><time>2026-05-06T01:53:32.999Z</time></trkpt><trkpt lat="-37.9261095562822" lon="146.0301901639109"><ele>224.00000000000003</ele><time>2026-05-06T01:53:33.999Z</time></trkpt><trkpt lat="-37.9260076918839" lon="146.0301714687849"><ele>224.0</ele><time>2026-05-06T01:53:34.999Z</time></trkpt><trkpt lat="-37.92592965968317" lon="146.03015727244383"><ele>224.0</ele><time>2026-05-06T01:53:35.999Z</time></trkpt><trkpt lat="-37.925848042230626" lon="146.0301262059791"><ele>224.0</ele><time>2026-05-06T01:53:36.999Z</time></trkpt><trkpt lat="-37.92576307004293" lon="146.03009996076787"><ele>224.00000000000003</ele><time>2026-05-06T01:53:37.999Z</time></trkpt><trkpt lat="-37.925682435694924" lon="146.03007970803154"><ele>224.0</ele><time>2026-05-06T01:53:38.999Z</time></trkpt><trkpt lat="-37.9255949327005" lon="146.03007097112027"><ele>225.0</ele><time>2026-05-06T01:53:39.999Z</time></trkpt><trkpt lat="-37.92549916975103" lon="146.03007860622918"><ele>225.99999999999997</ele><time>2026-05-06T01:53:40.999Z</time></trkpt><trkpt lat="-37.92538598080232" lon="146.03009837031416"><ele>226.99999999999997</ele><time>2026-05-06T01:53:41.999Z</time></trkpt><trkpt lat="-37.92531003503098" lon="146.03001276981976"><ele>228.0</ele><time>2026-05-06T01:53:42.999Z</time></trkpt><trkpt lat="-37.92521761357721" lon="146.02999325390755"><ele>229.0</ele><time>2026-05-06T01:53:43.999Z</time></trkpt><trkpt lat="-37.92512001694035" lon="146.03000207117555"><ele>227.79999999999998</ele><time>2026-05-06T01:53:44.999Z</time></trkpt><trkpt lat="-37.92502257424469" lon="146.03002432337576"><ele>226.59999999999997</ele><time>2026-05-06T01:53:45.999Z</time></trkpt><trkpt lat="-37.92493171300046" lon="146.03003556127854"><ele>225.4</ele><time>2026-05-06T01:53:46.999Z</time></trkpt><trkpt lat="-37.92483101769968" lon="146.0300122969571"><ele>224.2</ele><time>2026-05-06T01:53:47.999Z</time></trkpt><trkpt lat="-37.92472921234299" lon="146.02998324021584"><ele>223.0</ele><time>2026-05-06T01:53:48.999Z</time></trkpt><trkpt lat="-37.92466209344932" lon="146.03009524143482"><ele>223.0</ele><time>2026-05-06T01:53:49.999Z</time></trkpt><trkpt lat="-37.92459001779426" lon="146.03012846586677"><ele>223.0</ele><time>2026-05-06T01:53:50.999Z</time></trkpt><trkpt lat="-37.924481642375675" lon="146.03016465506244"><ele>223.0</ele><time>2026-05-06T01:53:51.999Z</time></trkpt><trkpt lat="-37.924393679422955" lon="146.03020513776332"><ele>223.0</ele><time>2026-05-06T01:53:52.999Z</time></trkpt><trkpt lat="-37.924285398006354" lon="146.03022316505343"><ele>223.0</ele><time>2026-05-06T01:53:53.999Z</time></trkpt><trkpt lat="-37.924192586318796" lon="146.03025203908973"><ele>222.8</ele><time>2026-05-06T01:53:54.999Z</time></trkpt><trkpt lat="-37.92408924533776" lon="146.03027101035735"><ele>222.60000000000002</ele><time>2026-05-06T01:53:55.999Z</time></trkpt><trkpt lat="-37.92399435721901" lon="146.03029581732812"><ele>222.39999999999998</ele><time>2026-05-06T01:53:56.999Z</time></trkpt><trkpt lat="-37.92389780659693" lon="146.03034400492055"><ele>222.2</ele><time>2026-05-06T01:53:57.999Z</time></trkpt><trkpt lat="-37.923805193629484" lon="146.03037236430134"><ele>222.0</ele><time>2026-05-06T01:53:58.999Z</time></trkpt><trkpt lat="-37.92372561479697" lon="146.03041948805728"><ele>222.0</ele><time>2026-05-06T01:53:59.999Z</time></trkpt><trkpt lat="-37.92362601897121" lon="146.03046782250013"><ele>222.0</ele><time>2026-05-06T01:54:00.999Z</time></trkpt><trkpt lat="-37.92351072238862" lon="146.03047147834621"><ele>222.0</ele><time>2026-05-06T01:54:01.999Z</time></trkpt><trkpt lat="-37.92338739428624" lon="146.03046481391752"><ele>222.0</ele><time>2026-05-06T01:54:02.999Z</time></trkpt><trkpt lat="-37.923247157449104" lon="146.0304759171816"><ele>221.8</ele><time>2026-05-06T01:54:03.999Z</time></trkpt><trkpt lat="-37.92313864088468" lon="146.03047076931725"><ele>221.6</ele><time>2026-05-06T01:54:04.998Z</time></trkpt><trkpt lat="-37.92303821968859" lon="146.03045287861542"><ele>221.40000000000003</ele><time>2026-05-06T01:54:05.998Z</time></trkpt><trkpt lat="-37.92292300232669" lon="146.03044711792583"><ele>221.20000000000002</ele><time>2026-05-06T01:54:06.998Z</time></trkpt><trkpt lat="-37.92281793318805" lon="146.0304719304826"><ele>221.0</ele><time>2026-05-06T01:54:07.998Z</time></trkpt><trkpt lat="-37.922713235348894" lon="146.03047700937276"><ele>221.0</ele><time>2026-05-06T01:54:08.998Z</time></trkpt><trkpt lat="-37.922627774927285" lon="146.03050284513915"><ele>221.00000000000003</ele><time>2026-05-06T01:54:09.998Z</time></trkpt><trkpt lat="-37.92254545811771" lon="146.03046101165572"><ele>221.00000000000003</ele><time>2026-05-06T01:54:10.998Z</time></trkpt><trkpt lat="-37.92246407370745" lon="146.03039879547194"><ele>221.0</ele><time>2026-05-06T01:54:11.998Z</time></trkpt><trkpt lat="-37.922391453423565" lon="146.03031886302526"><ele>221.0</ele><time>2026-05-06T01:54:12.998Z</time></trkpt><trkpt lat="-37.92232496837541" lon="146.03025116043253"><ele>220.83333333333334</ele><time>2026-05-06T01:54:13.998Z</time></trkpt><trkpt lat="-37.922286744368186" lon="146.03017924315546"><ele>220.66666666666669</ele><time>2026-05-06T01:54:14.998Z</time></trkpt><trkpt lat="-37.922246871903646" lon="146.03008177886062"><ele>220.5</ele><time>2026-05-06T01:54:15.998Z</time></trkpt><trkpt lat="-37.922190299148866" lon="146.02999227896643"><ele>220.33333333333331</ele><time>2026-05-06T01:54:17.998Z</time></trkpt><trkpt lat="-37.92214588991168" lon="146.02993368855044"><ele>220.16666666666666</ele><time>2026-05-06T01:54:27.998Z</time></trkpt><trkpt lat="-37.92210312276191" lon="146.03000025208758"><ele>220.0</ele><time>2026-05-06T01:54:30Z</time></trkpt><trkpt lat="-37.92200417794065" lon="146.0300474356557"><ele>219.99999999999997</ele><time>2026-05-06T01:54:32Z</time></trkpt><trkpt lat="-37.92195266983063" lon="146.03013893763145"><ele>220.0</ele><time>2026-05-06T01:54:34Z</time></trkpt><trkpt lat="-37.921927880070186" lon="146.03021649394293"><ele>220.0</ele><time>2026-05-06T01:54:35Z</time></trkpt><trkpt lat="-37.9219174552945" lon="146.03030862361348"><ele>220.0</ele><time>2026-05-06T01:54:36Z</time></trkpt><trkpt lat="-37.92191651328313" lon="146.03043173890393"><ele>219.99999999999997</ele><time>2026-05-06T01:54:37Z</time></trkpt><trkpt lat="-37.92189931749072" lon="146.03055055715762"><ele>220.0</ele><time>2026-05-06T01:54:38Z</time></trkpt><trkpt lat="-37.92190799952942" lon="146.03066479225043"><ele>219.99999999999997</ele><time>2026-05-06T01:54:39Z</time></trkpt><trkpt lat="-37.92190226055872" lon="146.03076350351097"><ele>220.0</ele><time>2026-05-06T01:54:40Z</time></trkpt><trkpt lat="-37.92189569349303" lon="146.03085058773428"><ele>220.0</ele><time>2026-05-06T01:54:41Z</time></trkpt><trkpt lat="-37.921893711147774" lon="146.0309799982475"><ele>220.0</ele><time>2026-05-06T01:54:43Z</time></trkpt><trkpt lat="-37.921882848680035" lon="146.0310657928932"><ele>219.99999999999997</ele><time>2026-05-06T01:54:45Z</time></trkpt><trkpt lat="-37.921870253727306" lon="146.0311788771158"><ele>220.0</ele><time>2026-05-06T01:54:47Z</time></trkpt><trkpt lat="-37.92184068513266" lon="146.03130262038925"><ele>220.49999999999997</ele><time>2026-05-06T01:54:49Z</time></trkpt><trkpt lat="-37.921826269289284" lon="146.0314058411841"><ele>221.0</ele><time>2026-05-06T01:55:01.999Z</time></trkpt><trkpt lat="-37.92181813832823" lon="146.0315090861422"><ele>221.5</ele><time>2026-05-06T01:55:04.999Z</time></trkpt><trkpt lat="-37.9217871914422" lon="146.03160423281915"><ele>222.0</ele><time>2026-05-06T01:55:07.999Z</time></trkpt><trkpt lat="-37.921762491200994" lon="146.03170242140152"><ele>222.49999999999997</ele><time>2026-05-06T01:55:10.999Z</time></trkpt><trkpt lat="-37.92174326043736" lon="146.03178318397238"><ele>223.0</ele><time>2026-05-06T01:55:13.999Z</time></trkpt><trkpt lat="-37.92172795646854" lon="146.03188832059996"><ele>223.0</ele><time>2026-05-06T01:55:17.999Z</time></trkpt><trkpt lat="-37.92169662623196" lon="146.0320041813781"><ele>223.0</ele><time>2026-05-06T01:55:19.999Z</time></trkpt><trkpt lat="-37.92168386850067" lon="146.03209006949413"><ele>223.0</ele><time>2026-05-06T01:55:22.999Z</time></trkpt><trkpt lat="-37.92164372251633" lon="146.03222247014767"><ele>223.0</ele><time>2026-05-06T01:55:24.999Z</time></trkpt><trkpt lat="-37.92161227511627" lon="146.03232874470834"><ele>223.0</ele><time>2026-05-06T01:55:25.999Z</time></trkpt><trkpt lat="-37.921579528607076" lon="146.03245205029765"><ele>224.75</ele><time>2026-05-06T01:55:26.999Z</time></trkpt><trkpt lat="-37.92153212455467" lon="146.03257932020603"><ele>226.5</ele><time>2026-05-06T01:55:27.999Z</time></trkpt><trkpt lat="-37.92150080888302" lon="146.03271992906525"><ele>228.25</ele><time>2026-05-06T01:55:28.999Z</time></trkpt><trkpt lat="-37.92145314994998" lon="146.03285662590994"><ele>230.0</ele><time>2026-05-06T01:55:29.999Z</time></trkpt><trkpt lat="-37.92140045805495" lon="146.03301070695647"><ele>230.0</ele><time>2026-05-06T01:55:30.999Z</time></trkpt><trkpt lat="-37.92136011753275" lon="146.03317331953724"><ele>230.0</ele><time>2026-05-06T01:55:31.999Z</time></trkpt><trkpt lat="-37.92133029320685" lon="146.0333533296821"><ele>230.0</ele><time>2026-05-06T01:55:32.999Z</time></trkpt><trkpt lat="-37.92128791388972" lon="146.0335238456575"><ele>230.0</ele><time>2026-05-06T01:55:33.999Z</time></trkpt><trkpt lat="-37.92123583122751" lon="146.0336600798019"><ele>230.75</ele><time>2026-05-06T01:55:34.999Z</time></trkpt><trkpt lat="-37.921178977907175" lon="146.03379876219174"><ele>231.5</ele><time>2026-05-06T01:55:35.999Z</time></trkpt><trkpt lat="-37.92114988766486" lon="146.0339519580125"><ele>232.25</ele><time>2026-05-06T01:55:36.999Z</time></trkpt><trkpt lat="-37.921144792350596" lon="146.03411211597927"><ele>233.0</ele><time>2026-05-06T01:55:37.999Z</time></trkpt><trkpt lat="-37.92114006684454" lon="146.03427550566974"><ele>233.25</ele><time>2026-05-06T01:55:38.999Z</time></trkpt><trkpt lat="-37.921129428506035" lon="146.0344379676223"><ele>233.5</ele><time>2026-05-06T01:55:39.999Z</time></trkpt><trkpt lat="-37.92110372297095" lon="146.03459299142025"><ele>233.75</ele><time>2026-05-06T01:55:40.999Z</time></trkpt><trkpt lat="-37.921082267842806" lon="146.03475524276126"><ele>234.0</ele><time>2026-05-06T01:55:41.999Z</time></trkpt><trkpt lat="-37.921072139258705" lon="146.03489794589171"><ele>234.66666666666666</ele><time>2026-05-06T01:55:42.999Z</time></trkpt><trkpt lat="-37.92104668890873" lon="146.03501873296614"><ele>235.33333333333331</ele><time>2026-05-06T01:55:43.999Z</time></trkpt><trkpt lat="-37.921041362862816" lon="146.03514056423379"><ele>236.0</ele><time>2026-05-06T01:55:44.999Z</time></trkpt><trkpt lat="-37.9210157440485" lon="146.0352436517329"><ele>236.66666666666666</ele><time>2026-05-06T01:55:45.999Z</time></trkpt><trkpt lat="-37.92100267320977" lon="146.03534395329623"><ele>237.33333333333331</ele><time>2026-05-06T01:55:47.999Z</time></trkpt><trkpt lat="-37.92102408863728" lon="146.03542281737006"><ele>238.0</ele><time>2026-05-06T01:55:48.999Z</time></trkpt><trkpt lat="-37.92104697279918" lon="146.0355390071699"><ele>238.0</ele><time>2026-05-06T01:55:49.999Z</time></trkpt><trkpt lat="-37.92106196561316" lon="146.035681707446"><ele>238.0</ele><time>2026-05-06T01:55:50.999Z</time></trkpt><trkpt lat="-37.92107865834553" lon="146.03586500130535"><ele>238.0</ele><time>2026-05-06T01:55:51.999Z</time></trkpt><trkpt lat="-37.92106176315853" lon="146.03598373207635"><ele>238.0</ele><time>2026-05-06T01:55:53.999Z</time></trkpt><trkpt lat="-37.92106415457303" lon="146.03610509465284"><ele>238.2</ele><time>2026-05-06T01:55:55.999Z</time></trkpt><trkpt lat="-37.92106108316967" lon="146.0362500155836"><ele>238.4</ele><time>2026-05-06T01:55:57.999Z</time></trkpt><trkpt lat="-37.921053700837774" lon="146.03634922685566"><ele>238.59999999999997</ele><time>2026-05-06T01:55:59.999Z</time></trkpt><trkpt lat="-37.9210409232729" lon="146.03643358455219"><ele>238.79999999999998</ele><time>2026-05-06T01:56:00.999Z</time></trkpt><trkpt lat="-37.92103023145653" lon="146.03652483294587"><ele>239.0</ele><time>2026-05-06T01:56:01.999Z</time></trkpt><trkpt lat="-37.921001619222146" lon="146.0366737742247"><ele>239.00000000000003</ele><time>2026-05-06T01:56:03.999Z</time></trkpt><trkpt lat="-37.92097475534698" lon="146.0367836543071"><ele>239.0</ele><time>2026-05-06T01:56:07.998Z</time></trkpt><trkpt lat="-37.92091465354192" lon="146.03685793792533"><ele>239.0</ele><time>2026-05-06T01:56:09.998Z</time></trkpt><trkpt lat="-37.920886478309086" lon="146.03694539584026"><ele>239.0</ele><time>2026-05-06T01:56:11.998Z</time></trkpt><trkpt lat="-37.92082470207066" lon="146.03699896223608"><ele>239.00000000000003</ele><time>2026-05-06T01:56:14.998Z</time></trkpt><trkpt lat="-37.92071347418953" lon="146.03696945056257"><ele>239.0</ele><time>2026-05-06T01:56:16.998Z</time></trkpt><trkpt lat="-37.9206049379462" lon="146.0369472140571"><ele>237.33333333333334</ele><time>2026-05-06T01:56:18.998Z</time></trkpt><trkpt lat="-37.92053636739864" lon="146.03695833244726"><ele>235.66666666666669</ele><time>2026-05-06T01:56:19.998Z</time></trkpt><trkpt lat="-37.920457598334565" lon="146.0369759684749"><ele>234.0</ele><time>2026-05-06T01:56:20.998Z</time></trkpt><trkpt lat="-37.920365839099226" lon="146.03701299475108"><ele>232.33333333333331</ele><time>2026-05-06T01:56:21.998Z</time></trkpt><trkpt lat="-37.92028209948848" lon="146.03706252789613"><ele>230.66666666666666</ele><time>2026-05-06T01:56:22.998Z</time></trkpt><trkpt lat="-37.92020312307583" lon="146.03711073898415"><ele>229.0</ele><time>2026-05-06T01:56:23.998Z</time></trkpt><trkpt lat="-37.920152554400545" lon="146.03717038869408"><ele>229.0</ele><time>2026-05-06T01:56:24.998Z</time></trkpt><trkpt lat="-37.920082022743024" lon="146.03725322191283"><ele>228.99999999999997</ele><time>2026-05-06T01:56:25.998Z</time></trkpt><trkpt lat="-37.92002575678856" lon="146.03733800468964"><ele>228.99999999999997</ele><time>2026-05-06T01:56:26.998Z</time></trkpt><trkpt lat="-37.91991429066336" lon="146.0374485459181"><ele>229.0</ele><time>2026-05-06T01:56:28.998Z</time></trkpt><trkpt lat="-37.91986038937728" lon="146.03751697596462"><ele>229.0</ele><time>2026-05-06T01:56:29.998Z</time></trkpt><trkpt lat="-37.91982320119621" lon="146.03758826692032"><ele>229.16666666666666</ele><time>2026-05-06T01:56:30.998Z</time></trkpt><trkpt lat="-37.91980931756364" lon="146.03766945218203"><ele>229.33333333333331</ele><time>2026-05-06T01:56:31.998Z</time></trkpt><trkpt lat="-37.91980182876194" lon="146.03779539095981"><ele>229.5</ele><time>2026-05-06T01:56:32.998Z</time></trkpt><trkpt lat="-37.91977103477592" lon="146.0378680969666"><ele>229.66666666666669</ele><time>2026-05-06T01:56:33.998Z</time></trkpt><trkpt lat="-37.919685078790984" lon="146.03791220359068"><ele>229.83333333333334</ele><time>2026-05-06T01:56:36Z</time></trkpt><trkpt lat="-37.91961357631265" lon="146.03793429610687"><ele>230.0</ele><time>2026-05-06T01:56:38Z</time></trkpt><trkpt lat="-37.919522353097875" lon="146.03801194211832"><ele>230.00000000000003</ele><time>2026-05-06T01:56:40Z</time></trkpt><trkpt lat="-37.91948838550327" lon="146.03809137139925"><ele>230.0</ele><time>2026-05-06T01:56:41Z</time></trkpt><trkpt lat="-37.91946215444492" lon="146.03820825022134"><ele>230.0</ele><time>2026-05-06T01:56:42Z</time></trkpt><trkpt lat="-37.91942558707666" lon="146.0383043784001"><ele>230.0</ele><time>2026-05-06T01:56:43Z</time></trkpt><trkpt lat="-37.9193570227854" lon="146.03842022565198"><ele>230.00000000000003</ele><time>2026-05-06T01:56:45Z</time></trkpt><trkpt lat="-37.91930558405175" lon="146.03849055741162"><ele>230.0</ele><time>2026-05-06T01:56:46Z</time></trkpt><trkpt lat="-37.91924618309273" lon="146.03857524076525"><ele>229.00000000000003</ele><time>2026-05-06T01:56:47Z</time></trkpt><trkpt lat="-37.91919146829507" lon="146.03864757039764"><ele>228.0</ele><time>2026-05-06T01:56:48Z</time></trkpt><trkpt lat="-37.91913134941827" lon="146.0387386249426"><ele>227.0</ele><time>2026-05-06T01:56:49Z</time></trkpt><trkpt lat="-37.919074438456896" lon="146.03883622056443"><ele>226.0</ele><time>2026-05-06T01:56:50Z</time></trkpt><trkpt lat="-37.919039670445905" lon="146.0389326806541"><ele>225.00000000000003</ele><time>2026-05-06T01:56:51Z</time></trkpt><trkpt lat="-37.9190011142517" lon="146.03904368472044"><ele>224.0</ele><time>2026-05-06T01:56:52Z</time></trkpt><trkpt lat="-37.918963052978626" lon="146.03913278868202"><ele>225.33333333333334</ele><time>2026-05-06T01:56:53Z</time></trkpt><trkpt lat="-37.918929291520215" lon="146.03924002207913"><ele>226.66666666666669</ele><time>2026-05-06T01:56:54Z</time></trkpt><trkpt lat="-37.91891132654571" lon="146.03931663215027"><ele>228.0</ele><time>2026-05-06T01:56:55Z</time></trkpt><trkpt lat="-37.918866799926384" lon="146.0394347087314"><ele>229.33333333333331</ele><time>2026-05-06T01:56:56Z</time></trkpt><trkpt lat="-37.918849454242796" lon="146.03951889328826"><ele>230.66666666666666</ele><time>2026-05-06T01:56:57Z</time></trkpt><trkpt lat="-37.918834918794396" lon="146.03960099375166"><ele>232.0</ele><time>2026-05-06T01:56:58Z</time></trkpt><trkpt lat="-37.9188287911414" lon="146.03969312131431"><ele>232.0</ele><time>2026-05-06T01:56:59Z</time></trkpt><trkpt lat="-37.91883950392502" lon="146.03984810006475"><ele>232.0</ele><time>2026-05-06T01:57:00.999Z</time></trkpt><trkpt lat="-37.918866803836565" lon="146.03994980446404"><ele>232.0</ele><time>2026-05-06T01:57:01.999Z</time></trkpt><trkpt lat="-37.918885990351775" lon="146.0400501439914"><ele>232.0</ele><time>2026-05-06T01:57:02.999Z</time></trkpt><trkpt lat="-37.91889253862105" lon="146.04021155695335"><ele>232.0</ele><time>2026-05-06T01:57:04.999Z</time></trkpt><trkpt lat="-37.918898413691934" lon="146.04035875866532"><ele>233.6</ele><time>2026-05-06T01:57:06.999Z</time></trkpt><trkpt lat="-37.918904501319396" lon="146.04050872533676"><ele>235.2</ele><time>2026-05-06T01:57:08.999Z</time></trkpt><trkpt lat="-37.91887245608048" lon="146.0406549806951"><ele>236.8</ele><time>2026-05-06T01:57:10.999Z</time></trkpt><trkpt lat="-37.91883994870232" lon="146.04076722375692"><ele>238.4</ele><time>2026-05-06T01:57:12.999Z</time></trkpt><trkpt lat="-37.918797185931155" lon="146.04083931877088"><ele>240.0</ele><time>2026-05-06T01:57:14.999Z</time></trkpt><trkpt lat="-37.91873905220892" lon="146.04089190370323"><ele>241.0</ele><time>2026-05-06T01:57:17.999Z</time></trkpt><trkpt lat="-37.918676570508566" lon="146.040901915348"><ele>242.0</ele><time>2026-05-06T01:57:19.999Z</time></trkpt><trkpt lat="-37.91858938090724" lon="146.0409124796681"><ele>243.0</ele><time>2026-05-06T01:57:21.999Z</time></trkpt><trkpt lat="-37.91850791386461" lon="146.04086576585414"><ele>244.0</ele><time>2026-05-06T01:57:23.999Z</time></trkpt><trkpt lat="-37.91844148826219" lon="146.04084065400917"><ele>245.0</ele><time>2026-05-06T01:57:25.999Z</time></trkpt><trkpt lat="-37.91836174204131" lon="146.0408218958331"><ele>246.0</ele><time>2026-05-06T01:57:27.999Z</time></trkpt><trkpt lat="-37.91827655382059" lon="146.04082616145033"><ele>243.0</ele><time>2026-05-06T01:57:30.999Z</time></trkpt><trkpt lat="-37.91819321858617" lon="146.04083177229913"><ele>240.0</ele><time>2026-05-06T01:57:33.999Z</time></trkpt><trkpt lat="-37.918104165548534" lon="146.04084857434034"><ele>237.0</ele><time>2026-05-06T01:57:37.999Z</time></trkpt><trkpt lat="-37.91800722653995" lon="146.04085863524892"><ele>234.0</ele><time>2026-05-06T01:57:39.999Z</time></trkpt><trkpt lat="-37.91792671286313" lon="146.0408761085554"><ele>231.0</ele><time>2026-05-06T01:57:42.999Z</time></trkpt><trkpt lat="-37.91784510806502" lon="146.04087762611715"><ele>228.0</ele><time>2026-05-06T01:57:44.999Z</time></trkpt><trkpt lat="-37.91778494855512" lon="146.0408462172962"><ele>228.0</ele><time>2026-05-06T01:57:48.999Z</time></trkpt><trkpt lat="-37.9176953774347" lon="146.04080057274362"><ele>228.0</ele><time>2026-05-06T01:57:50.999Z</time></trkpt><trkpt lat="-37.917620818325005" lon="146.04076416117482"><ele>228.0</ele><time>2026-05-06T01:57:52.999Z</time></trkpt><trkpt lat="-37.91754999836069" lon="146.04075955435653"><ele>228.0</ele><time>2026-05-06T01:58:01.999Z</time></trkpt><trkpt lat="-37.91746397147263" lon="146.04072369412964"><ele>228.0</ele><time>2026-05-06T01:58:05.999Z</time></trkpt><trkpt lat="-37.91739690985371" lon="146.04070137222905"><ele>228.0</ele><time>2026-05-06T01:58:07.999Z</time></trkpt><trkpt lat="-37.91732889854406" lon="146.04068409864482"><ele>225.57142857142856</ele><time>2026-05-06T01:58:09.999Z</time></trkpt><trkpt lat="-37.917247168452306" lon="146.04067387321282"><ele>223.1428571428571</ele><time>2026-05-06T01:58:11.999Z</time></trkpt><trkpt lat="-37.91717006936327" lon="146.04066603696643"><ele>220.71428571428572</ele><time>2026-05-06T01:58:14.998Z</time></trkpt><trkpt lat="-37.91710813505008" lon="146.04064938031777"><ele>218.28571428571428</ele><time>2026-05-06T01:58:16.998Z</time></trkpt><trkpt lat="-37.91703615064687" lon="146.04063368672013"><ele>215.85714285714286</ele><time>2026-05-06T01:58:18.998Z</time></trkpt><trkpt lat="-37.916971545894505" lon="146.04062430952814"><ele>213.42857142857144</ele><time>2026-05-06T01:58:20.998Z</time></trkpt><trkpt lat="-37.91688662618272" lon="146.0406210873607"><ele>211.0</ele><time>2026-05-06T01:58:23.998Z</time></trkpt><trkpt lat="-37.91679550611496" lon="146.04060356849013"><ele>212.33333333333331</ele><time>2026-05-06T01:58:25.998Z</time></trkpt><trkpt lat="-37.91671149136166" lon="146.04058680249702"><ele>213.66666666666666</ele><time>2026-05-06T01:58:27.998Z</time></trkpt><trkpt lat="-37.916637222155266" lon="146.04056051473958"><ele>215.0</ele><time>2026-05-06T01:58:29.998Z</time></trkpt><trkpt lat="-37.91657425454193" lon="146.04053468823383"><ele>216.33333333333331</ele><time>2026-05-06T01:58:31.998Z</time></trkpt><trkpt lat="-37.91649052662236" lon="146.04050857451907"><ele>217.66666666666666</ele><time>2026-05-06T01:58:33.998Z</time></trkpt><trkpt lat="-37.91642476463816" lon="146.04049318086652"><ele>219.0</ele><time>2026-05-06T01:58:35.998Z</time></trkpt><trkpt lat="-37.91635657158943" lon="146.04047707982133"><ele>219.0</ele><time>2026-05-06T01:58:38.998Z</time></trkpt><trkpt lat="-37.91627995417699" lon="146.0404438364026"><ele>218.99999999999997</ele><time>2026-05-06T01:58:40.998Z</time></trkpt><trkpt lat="-37.916175224596316" lon="146.04042029088728"><ele>218.99999999999997</ele><time>2026-05-06T01:58:43Z</time></trkpt><trkpt lat="-37.91609977506314" lon="146.04040171523178"><ele>219.0</ele><time>2026-05-06T01:58:45Z</time></trkpt><trkpt lat="-37.9160068120341" lon="146.04040987043143"><ele>219.0</ele><time>2026-05-06T01:58:47Z</time></trkpt><trkpt lat="-37.91589336290526" lon="146.04039803412132"><ele>219.33333333333334</ele><time>2026-05-06T01:58:49Z</time></trkpt><trkpt lat="-37.91580654144267" lon="146.04038722573011"><ele>219.66666666666669</ele><time>2026-05-06T01:58:51Z</time></trkpt><trkpt lat="-37.91572350294087" lon="146.04037293317015"><ele>220.0</ele><time>2026-05-06T01:58:53Z</time></trkpt><trkpt lat="-37.915629750839024" lon="146.0403613546576"><ele>220.33333333333334</ele><time>2026-05-06T01:58:55Z</time></trkpt><trkpt lat="-37.91554474056745" lon="146.0403337328876"><ele>220.66666666666669</ele><time>2026-05-06T01:58:57Z</time></trkpt><trkpt lat="-37.91547919158888" lon="146.04032295062393"><ele>221.0</ele><time>2026-05-06T01:58:59Z</time></trkpt><trkpt lat="-37.91541084671956" lon="146.04031228210985"><ele>221.00000000000003</ele><time>2026-05-06T01:59:01Z</time></trkpt><trkpt lat="-37.91533332675284" lon="146.04032347221315"><ele>221.0</ele><time>2026-05-06T01:59:02Z</time></trkpt><trkpt lat="-37.91524115417987" lon="146.0403500659767"><ele>221.0</ele><time>2026-05-06T01:59:04Z</time></trkpt><trkpt lat="-37.91515990488896" lon="146.04037072795737"><ele>221.0</ele><time>2026-05-06T01:59:06Z</time></trkpt><trkpt lat="-37.91508706953658" lon="146.04040292630287"><ele>221.00000000000003</ele><time>2026-05-06T01:59:07.999Z</time></trkpt><trkpt lat="-37.91502517931522" lon="146.04043209153897"><ele>221.0</ele><time>2026-05-06T01:59:09.999Z</time></trkpt><trkpt lat="-37.914948746836295" lon="146.0404628501957"><ele>221.00000000000003</ele><time>2026-05-06T01:59:12.999Z</time></trkpt><trkpt lat="-37.91491273885943" lon="146.04037997883825"><ele>221.0</ele><time>2026-05-06T01:59:17.999Z</time></trkpt><trkpt lat="-37.91494579153288" lon="146.04045715006737"><ele>221.0</ele><time>2026-05-06T02:10:45.999Z</time></trkpt><trkpt lat="-37.915010145315996" lon="146.04045653851293"><ele>221.0</ele><time>2026-05-06T02:10:47.999Z</time></trkpt><trkpt lat="-37.91509941031119" lon="146.04038850741708"><ele>221.00000000000003</ele><time>2026-05-06T02:10:49.998Z</time></trkpt><trkpt lat="-37.91521830182923" lon="146.04036576525826"><ele>221.0</ele><time>2026-05-06T02:10:51.998Z</time></trkpt><trkpt lat="-37.915334082350135" lon="146.04034232560673"><ele>221.0</ele><time>2026-05-06T02:10:53.998Z</time></trkpt><trkpt lat="-37.91545702250795" lon="146.04033251176344"><ele>221.00000000000003</ele><time>2026-05-06T02:10:55.998Z</time></trkpt><trkpt lat="-37.91552851985857" lon="146.04035715286628"><ele>221.00000000000003</ele><time>2026-05-06T02:10:57.998Z</time></trkpt><trkpt lat="-37.91563103034709" lon="146.0403863801474"><ele>221.0</ele><time>2026-05-06T02:10:59.998Z</time></trkpt><trkpt lat="-37.91571505743328" lon="146.04040219408694"><ele>221.0</ele><time>2026-05-06T02:11:01.998Z</time></trkpt><trkpt lat="-37.91583438019915" lon="146.04041937535163"><ele>220.66666666666669</ele><time>2026-05-06T02:11:03.998Z</time></trkpt><trkpt lat="-37.91593432485486" lon="146.04042258881654"><ele>220.33333333333334</ele><time>2026-05-06T02:11:05.998Z</time></trkpt><trkpt lat="-37.91603116468782" lon="146.04042779183206"><ele>220.0</ele><time>2026-05-06T02:11:07.998Z</time></trkpt><trkpt lat="-37.91612805375604" lon="146.04042629475185"><ele>219.66666666666669</ele><time>2026-05-06T02:11:09.998Z</time></trkpt><trkpt lat="-37.916211817034544" lon="146.04045427889068"><ele>219.33333333333334</ele><time>2026-05-06T02:11:11.998Z</time></trkpt><trkpt lat="-37.9162780879407" lon="146.04046227940842"><ele>219.0</ele><time>2026-05-06T02:11:13.998Z</time></trkpt><trkpt lat="-37.916353835247556" lon="146.04048753122123"><ele>219.0</ele><time>2026-05-06T02:11:15.998Z</time></trkpt><trkpt lat="-37.916432717214064" lon="146.04050572241064"><ele>219.0</ele><time>2026-05-06T02:11:19Z</time></trkpt><trkpt lat="-37.9165142923771" lon="146.04054142638998"><ele>219.0</ele><time>2026-05-06T02:11:21Z</time></trkpt><trkpt lat="-37.91658360467793" lon="146.0405562186336"><ele>219.0</ele><time>2026-05-06T02:11:23Z</time></trkpt><trkpt lat="-37.916667051327316" lon="146.04059310527398"><ele>219.0</ele><time>2026-05-06T02:11:25Z</time></trkpt><trkpt lat="-37.91675895768853" lon="146.04062279833747"><ele>219.0</ele><time>2026-05-06T02:11:28Z</time></trkpt><trkpt lat="-37.916834927402064" lon="146.0406335108645"><ele>217.66666666666666</ele><time>2026-05-06T02:11:30Z</time></trkpt><trkpt lat="-37.91689918349182" lon="146.04064384203642"><ele>216.33333333333331</ele><time>2026-05-06T02:11:32Z</time></trkpt><trkpt lat="-37.91699146106077" lon="146.04064459265234"><ele>215.0</ele><time>2026-05-06T02:11:35Z</time></trkpt><trkpt lat="-37.91709568263283" lon="146.04065522977163"><ele>213.66666666666666</ele><time>2026-05-06T02:11:38Z</time></trkpt><trkpt lat="-37.91718885090895" lon="146.0406786577884"><ele>212.33333333333331</ele><time>2026-05-06T02:11:40Z</time></trkpt><trkpt lat="-37.91726616224843" lon="146.04069634281228"><ele>211.0</ele><time>2026-05-06T02:11:42.999Z</time></trkpt><trkpt lat="-37.917350577822646" lon="146.04070539447142"><ele>210.99999999999997</ele><time>2026-05-06T02:11:44.999Z</time></trkpt><trkpt lat="-37.91743353915851" lon="146.04073568620692"><ele>211.0</ele><time>2026-05-06T02:11:47.999Z</time></trkpt><trkpt lat="-37.91751040887444" lon="146.04076726537602"><ele>211.0</ele><time>2026-05-06T02:11:50.999Z</time></trkpt><trkpt lat="-37.91757633567933" lon="146.04078726882966"><ele>211.0</ele><time>2026-05-06T02:12:20.999Z</time></trkpt><trkpt lat="-37.91764052426738" lon="146.04078003535915"><ele>210.99999999999997</ele><time>2026-05-06T02:12:53.999Z</time></trkpt><trkpt lat="-37.91771561753523" lon="146.040835782178"><ele>211.0</ele><time>2026-05-06T02:13:04.998Z</time></trkpt><trkpt lat="-37.91778471232522" lon="146.0408676379261"><ele>213.83333333333331</ele><time>2026-05-06T02:13:07.998Z</time></trkpt><trkpt lat="-37.91784201682936" lon="146.04090430191494"><ele>216.66666666666666</ele><time>2026-05-06T02:13:10.998Z</time></trkpt><trkpt lat="-37.91792081438811" lon="146.0408885081441"><ele>219.5</ele><time>2026-05-06T02:13:26Z</time></trkpt><trkpt lat="-37.91800082333751" lon="146.04087674896425"><ele>222.33333333333331</ele><time>2026-05-06T02:13:29Z</time></trkpt><trkpt lat="-37.91807256232155" lon="146.0408743020433"><ele>225.16666666666666</ele><time>2026-05-06T02:13:31Z</time></trkpt><trkpt lat="-37.91815449237964" lon="146.04085314331272"><ele>228.0</ele><time>2026-05-06T02:13:34Z</time></trkpt><trkpt lat="-37.91823952564257" lon="146.04083638839944"><ele>228.0</ele><time>2026-05-06T02:13:38Z</time></trkpt><trkpt lat="-37.918315693330506" lon="146.04083748921116"><ele>228.0</ele><time>2026-05-06T02:13:41Z</time></trkpt><trkpt lat="-37.9183887633812" lon="146.04085513936184"><ele>228.0</ele><time>2026-05-06T02:13:44Z</time></trkpt><trkpt lat="-37.91848386740814" lon="146.04088269443292"><ele>228.0</ele><time>2026-05-06T02:13:46Z</time></trkpt><trkpt lat="-37.91856893527193" lon="146.0409184334488"><ele>228.0</ele><time>2026-05-06T02:13:49Z</time></trkpt><trkpt lat="-37.91864912244223" lon="146.04095355430795"><ele>228.0</ele><time>2026-05-06T02:13:51.999Z</time></trkpt><trkpt lat="-37.918715808553124" lon="146.0409212972539"><ele>230.4</ele><time>2026-05-06T02:14:07.999Z</time></trkpt><trkpt lat="-37.91878832701993" lon="146.0408815214652"><ele>232.8</ele><time>2026-05-06T02:14:10.999Z</time></trkpt><trkpt lat="-37.91883698254603" lon="146.04076548866564"><ele>235.2</ele><time>2026-05-06T02:14:12.999Z</time></trkpt><trkpt lat="-37.918871586103" lon="146.04064064252802"><ele>237.6</ele><time>2026-05-06T02:14:14.999Z</time></trkpt><trkpt lat="-37.91889833090414" lon="146.0405193537559"><ele>240.0</ele><time>2026-05-06T02:14:16.999Z</time></trkpt><trkpt lat="-37.9189127592447" lon="146.0404046618722"><ele>240.0</ele><time>2026-05-06T02:14:18.999Z</time></trkpt><trkpt lat="-37.91890114196616" lon="146.0402576742721"><ele>240.0</ele><time>2026-05-06T02:14:20.999Z</time></trkpt><trkpt lat="-37.918898406055106" lon="146.04011087861488"><ele>240.0</ele><time>2026-05-06T02:14:22.999Z</time></trkpt><trkpt lat="-37.918879327543344" lon="146.03996413368822"><ele>240.0</ele><time>2026-05-06T02:14:24.999Z</time></trkpt><trkpt lat="-37.91884623435087" lon="146.0398085729511"><ele>238.4</ele><time>2026-05-06T02:14:26.999Z</time></trkpt><trkpt lat="-37.918843791824315" lon="146.03966724271038"><ele>236.8</ele><time>2026-05-06T02:14:28.999Z</time></trkpt><trkpt lat="-37.91887577346459" lon="146.0394998846549"><ele>235.2</ele><time>2026-05-06T02:14:30.999Z</time></trkpt><trkpt lat="-37.918895826920085" lon="146.03941185521663"><ele>233.6</ele><time>2026-05-06T02:14:31.999Z</time></trkpt><trkpt lat="-37.918940171205186" lon="146.03927318386306"><ele>232.0</ele><time>2026-05-06T02:14:33.999Z</time></trkpt><trkpt lat="-37.91898875848078" lon="146.039154059395"><ele>232.99999999999997</ele><time>2026-05-06T02:14:35.999Z</time></trkpt><trkpt lat="-37.919010614052944" lon="146.03907787055317"><ele>234.0</ele><time>2026-05-06T02:14:36.999Z</time></trkpt><trkpt lat="-37.91906639876643" lon="146.0389453810803"><ele>235.0</ele><time>2026-05-06T02:14:38.999Z</time></trkpt><trkpt lat="-37.919094513198054" lon="146.03886193523863"><ele>236.0</ele><time>2026-05-06T02:14:39.999Z</time></trkpt><trkpt lat="-37.91913875692574" lon="146.03877294096435"><ele>236.99999999999997</ele><time>2026-05-06T02:14:40.999Z</time></trkpt><trkpt lat="-37.919189426067014" lon="146.03868661213238"><ele>238.0</ele><time>2026-05-06T02:14:41.999Z</time></trkpt><trkpt lat="-37.9192356750565" lon="146.038615536902"><ele>237.99999999999997</ele><time>2026-05-06T02:14:42.999Z</time></trkpt><trkpt lat="-37.919294767095415" lon="146.03853650050542"><ele>238.0</ele><time>2026-05-06T02:14:43.999Z</time></trkpt><trkpt lat="-37.91935062295039" lon="146.03846723804764"><ele>238.0</ele><time>2026-05-06T02:14:44.999Z</time></trkpt><trkpt lat="-37.91939417188542" lon="146.03840254102295"><ele>238.0</ele><time>2026-05-06T02:14:45.999Z</time></trkpt><trkpt lat="-37.91944288729313" lon="146.03828836573703"><ele>237.99999999999997</ele><time>2026-05-06T02:14:47.999Z</time></trkpt><trkpt lat="-37.919477034590166" lon="146.03819491292055"><ele>238.0</ele><time>2026-05-06T02:14:49.999Z</time></trkpt><trkpt lat="-37.91952005978206" lon="146.03809587078143"><ele>236.66666666666666</ele><time>2026-05-06T02:14:51.999Z</time></trkpt><trkpt lat="-37.91956338923201" lon="146.03800996906008"><ele>235.33333333333331</ele><time>2026-05-06T02:14:53.999Z</time></trkpt><trkpt lat="-37.919652656765074" lon="146.0379383492909"><ele>234.0</ele><time>2026-05-06T02:14:55.999Z</time></trkpt><trkpt lat="-37.919727399253055" lon="146.03788890838842"><ele>232.66666666666669</ele><time>2026-05-06T02:14:58.999Z</time></trkpt><trkpt lat="-37.91979696464849" lon="146.03780912994165"><ele>231.33333333333334</ele><time>2026-05-06T02:15:00.999Z</time></trkpt><trkpt lat="-37.91981517077682" lon="146.03773011464762"><ele>230.0</ele><time>2026-05-06T02:15:01.999Z</time></trkpt><trkpt lat="-37.91982445521414" lon="146.0376487567657"><ele>230.0</ele><time>2026-05-06T02:15:02.999Z</time></trkpt><trkpt lat="-37.91987424867088" lon="146.0375199872976"><ele>230.0</ele><time>2026-05-06T02:15:04.998Z</time></trkpt><trkpt lat="-37.91996077298225" lon="146.03741649805988"><ele>230.0</ele><time>2026-05-06T02:15:06.998Z</time></trkpt><trkpt lat="-37.92002981163165" lon="146.03734408318127"><ele>230.0</ele><time>2026-05-06T02:15:07.998Z</time></trkpt><trkpt lat="-37.92009472123688" lon="146.03728614040585"><ele>230.0</ele><time>2026-05-06T02:15:08.998Z</time></trkpt><trkpt lat="-37.92014397609702" lon="146.0372280449851"><ele>229.83333333333334</ele><time>2026-05-06T02:15:09.998Z</time></trkpt><trkpt lat="-37.920194057638206" lon="146.037159949218"><ele>229.66666666666669</ele><time>2026-05-06T02:15:10.998Z</time></trkpt><trkpt lat="-37.92024380974202" lon="146.03710576083733"><ele>229.5</ele><time>2026-05-06T02:15:11.998Z</time></trkpt><trkpt lat="-37.920308667677766" lon="146.03706410877757"><ele>229.33333333333331</ele><time>2026-05-06T02:15:12.998Z</time></trkpt><trkpt lat="-37.920374499446844" lon="146.0370247787117"><ele>229.16666666666666</ele><time>2026-05-06T02:15:13.998Z</time></trkpt><trkpt lat="-37.92043528091552" lon="146.03700072462786"><ele>229.0</ele><time>2026-05-06T02:15:14.998Z</time></trkpt><trkpt lat="-37.9205455316239" lon="146.03696851233985"><ele>229.0</ele><time>2026-05-06T02:15:16.998Z</time></trkpt><trkpt lat="-37.92061243259451" lon="146.0370017201436"><ele>229.0</ele><time>2026-05-06T02:15:18.998Z</time></trkpt><trkpt lat="-37.92057757611547" lon="146.0370836535809"><ele>229.0</ele><time>2026-05-06T02:15:43Z</time></trkpt><trkpt lat="-37.92051902030436" lon="146.03715290568869"><ele>229.0</ele><time>2026-05-06T02:15:45Z</time></trkpt><trkpt lat="-37.92046715090561" lon="146.03720387388938"><ele>229.0</ele><time>2026-05-06T02:15:46Z</time></trkpt><trkpt lat="-37.92038469367194" lon="146.0372464285085"><ele>229.0</ele><time>2026-05-06T02:15:47Z</time></trkpt><trkpt lat="-37.92032002303176" lon="146.03727380520243"><ele>229.0</ele><time>2026-05-06T02:15:48Z</time></trkpt><trkpt lat="-37.9202566407902" lon="146.03731509172712"><ele>228.99999999999997</ele><time>2026-05-06T02:15:49Z</time></trkpt><trkpt lat="-37.92023183712374" lon="146.03743632416413"><ele>229.0</ele><time>2026-05-06T02:15:50Z</time></trkpt><trkpt lat="-37.92021378634459" lon="146.0375250943146"><ele>229.0</ele><time>2026-05-06T02:15:51Z</time></trkpt><trkpt lat="-37.9202314205645" lon="146.03765847462412"><ele>229.0</ele><time>2026-05-06T02:15:53Z</time></trkpt><trkpt lat="-37.92026299116527" lon="146.0377512461633"><ele>228.99999999999997</ele><time>2026-05-06T02:15:54Z</time></trkpt><trkpt lat="-37.92030595944984" lon="146.03784889507995"><ele>229.0</ele><time>2026-05-06T02:15:55Z</time></trkpt><trkpt lat="-37.92034070106085" lon="146.03795715263647"><ele>229.83333333333331</ele><time>2026-05-06T02:15:55.999Z</time></trkpt><trkpt lat="-37.92036571625741" lon="146.0380646544898"><ele>230.66666666666666</ele><time>2026-05-06T02:15:56.999Z</time></trkpt><trkpt lat="-37.92038988307784" lon="146.0381596200482"><ele>231.5</ele><time>2026-05-06T02:15:57.999Z</time></trkpt><trkpt lat="-37.920402368904476" lon="146.03826640463114"><ele>232.33333333333331</ele><time>2026-05-06T02:15:58.999Z</time></trkpt><trkpt lat="-37.92040548531185" lon="146.0383738696826"><ele>233.16666666666666</ele><time>2026-05-06T02:16:00.999Z</time></trkpt><trkpt lat="-37.9204131843257" lon="146.0384704168681"><ele>234.0</ele><time>2026-05-06T02:16:01.999Z</time></trkpt><trkpt lat="-37.920447252902335" lon="146.0385571938185"><ele>236.39999999999998</ele><time>2026-05-06T02:16:02.999Z</time></trkpt><trkpt lat="-37.920471156571026" lon="146.03864587336133"><ele>238.79999999999998</ele><time>2026-05-06T02:16:03.999Z</time></trkpt><trkpt lat="-37.920498920057774" lon="146.03877538032765"><ele>241.20000000000002</ele><time>2026-05-06T02:16:05.999Z</time></trkpt><trkpt lat="-37.9205358592931" lon="146.03890623797042"><ele>243.60000000000002</ele><time>2026-05-06T02:16:07.999Z</time></trkpt><trkpt lat="-37.920564250927605" lon="146.03902560382838"><ele>246.0</ele><time>2026-05-06T02:16:09.999Z</time></trkpt><trkpt lat="-37.92059876180135" lon="146.03917166310362"><ele>250.0</ele><time>2026-05-06T02:16:11.999Z</time></trkpt><trkpt lat="-37.92064474493721" lon="146.03930109832248"><ele>254.00000000000003</ele><time>2026-05-06T02:16:13.999Z</time></trkpt><trkpt lat="-37.92070250062044" lon="146.0394153105423"><ele>258.0</ele><time>2026-05-06T02:16:15.999Z</time></trkpt><trkpt lat="-37.92075109187178" lon="146.03954357784156"><ele>262.0</ele><time>2026-05-06T02:16:17.999Z</time></trkpt><trkpt lat="-37.92082177612653" lon="146.03965533506232"><ele>266.0</ele><time>2026-05-06T02:16:19.999Z</time></trkpt><trkpt lat="-37.92088401024143" lon="146.03975895284088"><ele>265.2</ele><time>2026-05-06T02:16:21.999Z</time></trkpt><trkpt lat="-37.92094011595968" lon="146.03985018528726"><ele>264.40000000000003</ele><time>2026-05-06T02:16:23.999Z</time></trkpt><trkpt lat="-37.921004007632206" lon="146.03997526993172"><ele>263.6</ele><time>2026-05-06T02:16:25.999Z</time></trkpt><trkpt lat="-37.9210455019495" lon="146.04008452249357"><ele>262.8</ele><time>2026-05-06T02:16:27.999Z</time></trkpt><trkpt lat="-37.921094129214666" lon="146.0402118715574"><ele>262.0</ele><time>2026-05-06T02:16:29.999Z</time></trkpt><trkpt lat="-37.921125970677444" lon="146.04034381321682"><ele>266.6</ele><time>2026-05-06T02:16:31.999Z</time></trkpt><trkpt lat="-37.92110766679837" lon="146.04048549095998"><ele>271.2</ele><time>2026-05-06T02:16:33.999Z</time></trkpt><trkpt lat="-37.92111132121117" lon="146.0405764453015"><ele>275.8</ele><time>2026-05-06T02:16:34.999Z</time></trkpt><trkpt lat="-37.921110856616146" lon="146.04070297317296"><ele>280.4</ele><time>2026-05-06T02:16:36.999Z</time></trkpt><trkpt lat="-37.921154643906355" lon="146.04084310400472"><ele>285.0</ele><time>2026-05-06T02:16:38.999Z</time></trkpt><trkpt lat="-37.92120605004872" lon="146.04097098198855"><ele>288.6666666666667</ele><time>2026-05-06T02:16:40.999Z</time></trkpt><trkpt lat="-37.921235556852814" lon="146.04105265161348"><ele>292.3333333333333</ele><time>2026-05-06T02:16:41.999Z</time></trkpt><trkpt lat="-37.92125404520464" lon="146.04114021950573"><ele>296.0</ele><time>2026-05-06T02:16:42.999Z</time></trkpt><trkpt lat="-37.921272625055714" lon="146.04123474414698"><ele>299.66666666666663</ele><time>2026-05-06T02:16:43.999Z</time></trkpt><trkpt lat="-37.92129123186002" lon="146.04135042946527"><ele>303.3333333333333</ele><time>2026-05-06T02:16:44.999Z</time></trkpt><trkpt lat="-37.92129793342429" lon="146.0414433621314"><ele>307.0</ele><time>2026-05-06T02:16:45.999Z</time></trkpt><trkpt lat="-37.92133340717109" lon="146.04152871162648"><ele>307.0</ele><time>2026-05-06T02:16:48.999Z</time></trkpt><trkpt lat="-37.92138695881445" lon="146.04162504769957"><ele>307.0</ele><time>2026-05-06T02:16:53.999Z</time></trkpt><trkpt lat="-37.92143022201088" lon="146.04175837771075"><ele>307.0</ele><time>2026-05-06T02:16:55.999Z</time></trkpt><trkpt lat="-37.921442365064" lon="146.0418410459743"><ele>307.0</ele><time>2026-05-06T02:16:56.999Z</time></trkpt><trkpt lat="-37.92146565422069" lon="146.04191576584347"><ele>307.0</ele><time>2026-05-06T02:16:57.999Z</time></trkpt><trkpt lat="-37.921495642889404" lon="146.04199876058775"><ele>307.0</ele><time>2026-05-06T02:16:58.999Z</time></trkpt><trkpt lat="-37.92152741394621" lon="146.04211204642772"><ele>309.5</ele><time>2026-05-06T02:16:59.999Z</time></trkpt><trkpt lat="-37.92156545152619" lon="146.04222355238417"><ele>312.0</ele><time>2026-05-06T02:17:00.999Z</time></trkpt><trkpt lat="-37.921587011381895" lon="146.04232553547493"><ele>314.5</ele><time>2026-05-06T02:17:01.999Z</time></trkpt><trkpt lat="-37.921585470703505" lon="146.0424262837828"><ele>317.0</ele><time>2026-05-06T02:17:02.999Z</time></trkpt><trkpt lat="-37.92158275094105" lon="146.04252193682723"><ele>319.5</ele><time>2026-05-06T02:17:03.999Z</time></trkpt><trkpt lat="-37.92160574911052" lon="146.04261207418932"><ele>322.0</ele><time>2026-05-06T02:17:04.999Z</time></trkpt><trkpt lat="-37.92165191655659" lon="146.04271273320325"><ele>321.40000000000003</ele><time>2026-05-06T02:17:05.999Z</time></trkpt><trkpt lat="-37.92170535402779" lon="146.04281988195126"><ele>320.8</ele><time>2026-05-06T02:17:06.999Z</time></trkpt><trkpt lat="-37.92176402953792" lon="146.04294085705288"><ele>320.2</ele><time>2026-05-06T02:17:07.999Z</time></trkpt><trkpt lat="-37.92180950657718" lon="146.043071353957"><ele>319.6</ele><time>2026-05-06T02:17:08.999Z</time></trkpt><trkpt lat="-37.921858599710056" lon="146.0431870255815"><ele>319.0</ele><time>2026-05-06T02:17:09.998Z</time></trkpt><trkpt lat="-37.92191992713134" lon="146.0433089147997"><ele>323.6</ele><time>2026-05-06T02:17:10.998Z</time></trkpt><trkpt lat="-37.921973917158574" lon="146.04341308645388"><ele>328.2</ele><time>2026-05-06T02:17:11.998Z</time></trkpt><trkpt lat="-37.922023850431515" lon="146.0435115493535"><ele>332.8</ele><time>2026-05-06T02:17:12.998Z</time></trkpt><trkpt lat="-37.922084769227574" lon="146.04359179702465"><ele>337.40000000000003</ele><time>2026-05-06T02:17:13.998Z</time></trkpt><trkpt lat="-37.922150952138075" lon="146.04367841286214"><ele>342.0</ele><time>2026-05-06T02:17:14.998Z</time></trkpt><trkpt lat="-37.9222022331429" lon="146.04377950371853"><ele>342.0</ele><time>2026-05-06T02:17:15.998Z</time></trkpt><trkpt lat="-37.922264657954884" lon="146.0439001461775"><ele>342.0</ele><time>2026-05-06T02:17:16.998Z</time></trkpt><trkpt lat="-37.922354785459255" lon="146.0440081871529"><ele>342.0</ele><time>2026-05-06T02:17:17.998Z</time></trkpt><trkpt lat="-37.922415415164714" lon="146.04411363547945"><ele>342.0</ele><time>2026-05-06T02:17:18.998Z</time></trkpt><trkpt lat="-37.92246052143038" lon="146.04422516566012"><ele>342.0</ele><time>2026-05-06T02:17:19.998Z</time></trkpt><trkpt lat="-37.92251656443565" lon="146.0443096881676"><ele>345.0</ele><time>2026-05-06T02:17:20.998Z</time></trkpt><trkpt lat="-37.92258070446519" lon="146.04436632459203"><ele>348.0</ele><time>2026-05-06T02:17:21.998Z</time></trkpt><trkpt lat="-37.922638654242036" lon="146.04442831863616"><ele>351.0</ele><time>2026-05-06T02:17:22.998Z</time></trkpt><trkpt lat="-37.92271198486561" lon="146.0445164646954"><ele>354.0</ele><time>2026-05-06T02:17:23.998Z</time></trkpt><trkpt lat="-37.92277030248096" lon="146.0446244981853"><ele>357.0</ele><time>2026-05-06T02:17:24.998Z</time></trkpt><trkpt lat="-37.92280074677847" lon="146.04471148965118"><ele>360.0</ele><time>2026-05-06T02:17:25.998Z</time></trkpt><trkpt lat="-37.9228573071664" lon="146.04478612707092"><ele>360.0</ele><time>2026-05-06T02:17:26.998Z</time></trkpt><trkpt lat="-37.922910694741546" lon="146.04488720304425"><ele>360.0</ele><time>2026-05-06T02:17:27.998Z</time></trkpt><trkpt lat="-37.92295366701809" lon="146.04499256600457"><ele>360.0</ele><time>2026-05-06T02:17:28.998Z</time></trkpt><trkpt lat="-37.92299742097545" lon="146.04506062016233"><ele>360.0</ele><time>2026-05-06T02:17:29.998Z</time></trkpt><trkpt lat="-37.923104190864876" lon="146.04516497994976"><ele>360.0</ele><time>2026-05-06T02:17:31.998Z</time></trkpt><trkpt lat="-37.92316421234882" lon="146.04521956924987"><ele>364.1666666666667</ele><time>2026-05-06T02:17:32.998Z</time></trkpt><trkpt lat="-37.92323953909932" lon="146.0452472457922"><ele>368.33333333333337</ele><time>2026-05-06T02:17:33.998Z</time></trkpt><trkpt lat="-37.92330453531948" lon="146.0452774641211"><ele>372.5</ele><time>2026-05-06T02:17:35Z</time></trkpt><trkpt lat="-37.92335903879623" lon="146.045341332612"><ele>376.6666666666667</ele><time>2026-05-06T02:17:36Z</time></trkpt><trkpt lat="-37.92340607570731" lon="146.04541024043024"><ele>380.83333333333337</ele><time>2026-05-06T02:17:37Z</time></trkpt><trkpt lat="-37.92344388514638" lon="146.04550582653087"><ele>385.0</ele><time>2026-05-06T02:17:38Z</time></trkpt><trkpt lat="-37.923453259826815" lon="146.04562476964847"><ele>385.0</ele><time>2026-05-06T02:17:39Z</time></trkpt><trkpt lat="-37.92347148752395" lon="146.0457401394365"><ele>385.0</ele><time>2026-05-06T02:17:40Z</time></trkpt><trkpt lat="-37.923511997839555" lon="146.0458244118649"><ele>385.0</ele><time>2026-05-06T02:17:41Z</time></trkpt><trkpt lat="-37.9235953889108" lon="146.0458859366998"><ele>385.0</ele><time>2026-05-06T02:17:42Z</time></trkpt><trkpt lat="-37.92369340895744" lon="146.04594500439075"><ele>385.0</ele><time>2026-05-06T02:17:43Z</time></trkpt><trkpt lat="-37.92377363734215" lon="146.0459977113599"><ele>389.8</ele><time>2026-05-06T02:17:44Z</time></trkpt><trkpt lat="-37.92381491914651" lon="146.04608196681224"><ele>394.6</ele><time>2026-05-06T02:17:45Z</time></trkpt><trkpt lat="-37.92385485221597" lon="146.04618882509058"><ele>399.4</ele><time>2026-05-06T02:17:46Z</time></trkpt><trkpt lat="-37.92388285764061" lon="146.04632192538196"><ele>404.2</ele><time>2026-05-06T02:17:47Z</time></trkpt><trkpt lat="-37.9239246972816" lon="146.04641606230726"><ele>409.0</ele><time>2026-05-06T02:17:48Z</time></trkpt><trkpt lat="-37.923922363052725" lon="146.04653997026634"><ele>411.2</ele><time>2026-05-06T02:17:49Z</time></trkpt><trkpt lat="-37.92393929357515" lon="146.04667631683876"><ele>413.4</ele><time>2026-05-06T02:17:50Z</time></trkpt><trkpt lat="-37.923959689589665" lon="146.0468196282253"><ele>415.6</ele><time>2026-05-06T02:17:51Z</time></trkpt><trkpt lat="-37.92395709320914" lon="146.04692679439196"><ele>417.8</ele><time>2026-05-06T02:17:52Z</time></trkpt><trkpt lat="-37.92396138438338" lon="146.04702857400397"><ele>420.0</ele><time>2026-05-06T02:17:53Z</time></trkpt><trkpt lat="-37.923951434629736" lon="146.04712261375005"><ele>420.0</ele><time>2026-05-06T02:17:54Z</time></trkpt><trkpt lat="-37.92391317097066" lon="146.0472285560116"><ele>420.0</ele><time>2026-05-06T02:17:56Z</time></trkpt><trkpt lat="-37.923843570102356" lon="146.0472848853119"><ele>420.0</ele><time>2026-05-06T02:17:57Z</time></trkpt><trkpt lat="-37.92377324826904" lon="146.0473600387162"><ele>420.0</ele><time>2026-05-06T02:17:58Z</time></trkpt><trkpt lat="-37.923744609810775" lon="146.04749478277145"><ele>420.0</ele><time>2026-05-06T02:18:00Z</time></trkpt><trkpt lat="-37.92367862643379" lon="146.04762641419498"><ele>420.0</ele><time>2026-05-06T02:18:02Z</time></trkpt><trkpt lat="-37.923583554941054" lon="146.0477163997964"><ele>420.0</ele><time>2026-05-06T02:18:03.999Z</time></trkpt><trkpt lat="-37.92348365650432" lon="146.04778100017265"><ele>420.0</ele><time>2026-05-06T02:18:05.999Z</time></trkpt><trkpt lat="-37.923426471842674" lon="146.04785504795547"><ele>420.0</ele><time>2026-05-06T02:18:06.999Z</time></trkpt><trkpt lat="-37.92337535493049" lon="146.04791650622826"><ele>420.0</ele><time>2026-05-06T02:18:07.999Z</time></trkpt><trkpt lat="-37.923301834994135" lon="146.04801382126456"><ele>416.8</ele><time>2026-05-06T02:18:09.999Z</time></trkpt><trkpt lat="-37.92322737082638" lon="146.04812878920066"><ele>413.6</ele><time>2026-05-06T02:18:11.999Z</time></trkpt><trkpt lat="-37.92312723061459" lon="146.0481957141389"><ele>410.4</ele><time>2026-05-06T02:18:13.999Z</time></trkpt><trkpt lat="-37.923071783304536" lon="146.0482463979321"><ele>407.2</ele><time>2026-05-06T02:18:14.999Z</time></trkpt><trkpt lat="-37.922966133839125" lon="146.04834429453663"><ele>404.0</ele><time>2026-05-06T02:18:16.999Z</time></trkpt><trkpt lat="-37.92291728099699" lon="146.0484038719929"><ele>403.99999999999994</ele><time>2026-05-06T02:18:17.999Z</time></trkpt><trkpt lat="-37.922842063766275" lon="146.04841453725516"><ele>404.0</ele><time>2026-05-06T02:18:18.999Z</time></trkpt><trkpt lat="-37.92277739204342" lon="146.04846693626675"><ele>404.0</ele><time>2026-05-06T02:18:19.999Z</time></trkpt><trkpt lat="-37.92267693981442" lon="146.04857137130696"><ele>404.0</ele><time>2026-05-06T02:18:21.999Z</time></trkpt><trkpt lat="-37.92261305400562" lon="146.04862081868126"><ele>403.99999999999994</ele><time>2026-05-06T02:18:22.999Z</time></trkpt><trkpt lat="-37.92255289448878" lon="146.04867492157285"><ele>404.0</ele><time>2026-05-06T02:18:23.999Z</time></trkpt><trkpt lat="-37.92249119371971" lon="146.04872739535864"><ele>400.6</ele><time>2026-05-06T02:18:24.999Z</time></trkpt><trkpt lat="-37.92243242572639" lon="146.04881750622928"><ele>397.2</ele><time>2026-05-06T02:18:25.999Z</time></trkpt><trkpt lat="-37.92236258241231" lon="146.04892066230047"><ele>393.8</ele><time>2026-05-06T02:18:26.999Z</time></trkpt><trkpt lat="-37.92228657289287" lon="146.04901403793812"><ele>390.40000000000003</ele><time>2026-05-06T02:18:27.999Z</time></trkpt><trkpt lat="-37.922227819469704" lon="146.04908777491957"><ele>387.0</ele><time>2026-05-06T02:18:28.999Z</time></trkpt><trkpt lat="-37.92214873156394" lon="146.04915671949027"><ele>386.6</ele><time>2026-05-06T02:18:29.999Z</time></trkpt><trkpt lat="-37.922032714216876" lon="146.04922651076848"><ele>386.20000000000005</ele><time>2026-05-06T02:18:30.999Z</time></trkpt><trkpt lat="-37.921933721554915" lon="146.04929272500829"><ele>385.8</ele><time>2026-05-06T02:18:31.999Z</time></trkpt><trkpt lat="-37.92185252961045" lon="146.04937812642498"><ele>385.4</ele><time>2026-05-06T02:18:32.999Z</time></trkpt><trkpt lat="-37.921760331943815" lon="146.04940122277006"><ele>385.0</ele><time>2026-05-06T02:18:33.999Z</time></trkpt><trkpt lat="-37.9216668852026" lon="146.04949303650213"><ele>386.4</ele><time>2026-05-06T02:18:34.999Z</time></trkpt><trkpt lat="-37.92158212269623" lon="146.04957661957437"><ele>387.8</ele><time>2026-05-06T02:18:35.999Z</time></trkpt><trkpt lat="-37.92151814348319" lon="146.0496605406958"><ele>389.20000000000005</ele><time>2026-05-06T02:18:36.999Z</time></trkpt><trkpt lat="-37.92147126054052" lon="146.04977283291706"><ele>390.6</ele><time>2026-05-06T02:18:37.999Z</time></trkpt><trkpt lat="-37.92145352709898" lon="146.0498878419228"><ele>392.0</ele><time>2026-05-06T02:18:38.999Z</time></trkpt><trkpt lat="-37.921427547888705" lon="146.04997407683294"><ele>392.20000000000005</ele><time>2026-05-06T02:18:39.999Z</time></trkpt><trkpt lat="-37.921416057442606" lon="146.05011099136118"><ele>392.4</ele><time>2026-05-06T02:18:40.999Z</time></trkpt><trkpt lat="-37.92141478349882" lon="146.0502298472712"><ele>392.6</ele><time>2026-05-06T02:18:41.999Z</time></trkpt><trkpt lat="-37.92137565739256" lon="146.0503702142156"><ele>392.79999999999995</ele><time>2026-05-06T02:18:42.999Z</time></trkpt><trkpt lat="-37.921353647565894" lon="146.05048880791418"><ele>393.0</ele><time>2026-05-06T02:18:43.999Z</time></trkpt><trkpt lat="-37.921348204203206" lon="146.0505979129826"><ele>393.0</ele><time>2026-05-06T02:18:44.999Z</time></trkpt><trkpt lat="-37.92131463102304" lon="146.0507247439949"><ele>393.0</ele><time>2026-05-06T02:18:45.999Z</time></trkpt><trkpt lat="-37.921304397966075" lon="146.05087889747853"><ele>393.0</ele><time>2026-05-06T02:18:46.999Z</time></trkpt><trkpt lat="-37.921280285686336" lon="146.05102378152054"><ele>393.0</ele><time>2026-05-06T02:18:47.999Z</time></trkpt><trkpt lat="-37.92126659470381" lon="146.05118373619834"><ele>392.79999999999995</ele><time>2026-05-06T02:18:48.999Z</time></trkpt><trkpt lat="-37.92126090902182" lon="146.05132144577084"><ele>392.6</ele><time>2026-05-06T02:18:49.999Z</time></trkpt><trkpt lat="-37.92125987727207" lon="146.05144441641394"><ele>392.4</ele><time>2026-05-06T02:18:50.999Z</time></trkpt><trkpt lat="-37.921260985866525" lon="146.0515682381385"><ele>392.20000000000005</ele><time>2026-05-06T02:18:51.999Z</time></trkpt><trkpt lat="-37.92125780567606" lon="146.05169848546996"><ele>392.0</ele><time>2026-05-06T02:18:52.999Z</time></trkpt><trkpt lat="-37.92125222414318" lon="146.0518328420117"><ele>392.0</ele><time>2026-05-06T02:18:53.999Z</time></trkpt><trkpt lat="-37.921245656827864" lon="146.05196525141776"><ele>392.0</ele><time>2026-05-06T02:18:54.999Z</time></trkpt><trkpt lat="-37.921236173830145" lon="146.05208775532512"><ele>392.0</ele><time>2026-05-06T02:18:55.999Z</time></trkpt><trkpt lat="-37.92120379491193" lon="146.0521918594143"><ele>392.0</ele><time>2026-05-06T02:18:56.999Z</time></trkpt><trkpt lat="-37.92118695453525" lon="146.05228682481595"><ele>392.0</ele><time>2026-05-06T02:18:57.999Z</time></trkpt><trkpt lat="-37.92116369398554" lon="146.05242746321986"><ele>391.40000000000003</ele><time>2026-05-06T02:18:59.999Z</time></trkpt><trkpt lat="-37.921148673231215" lon="146.05255509985693"><ele>390.8</ele><time>2026-05-06T02:19:01.999Z</time></trkpt><trkpt lat="-37.921153979908986" lon="146.052702797093"><ele>390.2</ele><time>2026-05-06T02:19:03.999Z</time></trkpt><trkpt lat="-37.92116873319767" lon="146.0528199848245"><ele>389.6</ele><time>2026-05-06T02:19:04.999Z</time></trkpt><trkpt lat="-37.921203861450074" lon="146.05296015707336"><ele>389.0</ele><time>2026-05-06T02:19:05.999Z</time></trkpt><trkpt lat="-37.921237176384814" lon="146.05311847227722"><ele>389.0</ele><time>2026-05-06T02:19:06.999Z</time></trkpt><trkpt lat="-37.921261414959915" lon="146.05325745907075"><ele>389.0</ele><time>2026-05-06T02:19:07.999Z</time></trkpt><trkpt lat="-37.92128318493071" lon="146.05338243324465"><ele>389.0</ele><time>2026-05-06T02:19:08.999Z</time></trkpt><trkpt lat="-37.921302880974274" lon="146.0534951310488"><ele>389.0</ele><time>2026-05-06T02:19:09.999Z</time></trkpt><trkpt lat="-37.92132428671794" lon="146.05363470994783"><ele>389.0</ele><time>2026-05-06T02:19:10.999Z</time></trkpt><trkpt lat="-37.92133688709006" lon="146.0537504392201"><ele>389.66666666666663</ele><time>2026-05-06T02:19:11.999Z</time></trkpt><trkpt lat="-37.92134197078145" lon="146.0538405520714"><ele>390.3333333333333</ele><time>2026-05-06T02:19:12.999Z</time></trkpt><trkpt lat="-37.92133525476302" lon="146.05393553374373"><ele>391.0</ele><time>2026-05-06T02:19:13.999Z</time></trkpt><trkpt lat="-37.92130194075853" lon="146.0540345766038"><ele>391.66666666666663</ele><time>2026-05-06T02:19:14.999Z</time></trkpt><trkpt lat="-37.921236081985356" lon="146.05412754497078"><ele>392.3333333333333</ele><time>2026-05-06T02:19:15.999Z</time></trkpt><trkpt lat="-37.921166405776276" lon="146.0542399971541"><ele>393.0</ele><time>2026-05-06T02:19:16.999Z</time></trkpt><trkpt lat="-37.92109380540385" lon="146.0543439026684"><ele>393.2</ele><time>2026-05-06T02:19:17.999Z</time></trkpt><trkpt lat="-37.92102972286086" lon="146.05445783304987"><ele>393.4</ele><time>2026-05-06T02:19:18.998Z</time></trkpt><trkpt lat="-37.92096282452172" lon="146.0545615068949"><ele>393.59999999999997</ele><time>2026-05-06T02:19:19.998Z</time></trkpt><trkpt lat="-37.920919357727335" lon="146.05467781080722"><ele>393.79999999999995</ele><time>2026-05-06T02:19:20.998Z</time></trkpt><trkpt lat="-37.920869912656606" lon="146.05478755999204"><ele>394.0</ele><time>2026-05-06T02:19:21.998Z</time></trkpt><trkpt lat="-37.92082351604218" lon="146.05489108327643"><ele>396.75</ele><time>2026-05-06T02:19:22.998Z</time></trkpt><trkpt lat="-37.92077015916413" lon="146.0550118008741"><ele>399.5</ele><time>2026-05-06T02:19:23.998Z</time></trkpt><trkpt lat="-37.92071370671868" lon="146.0551388360758"><ele>402.25</ele><time>2026-05-06T02:19:24.998Z</time></trkpt><trkpt lat="-37.920649493992855" lon="146.05529329493035"><ele>405.0</ele><time>2026-05-06T02:19:25.998Z</time></trkpt><trkpt lat="-37.92059999534056" lon="146.05543036173785"><ele>405.0</ele><time>2026-05-06T02:19:26.998Z</time></trkpt><trkpt lat="-37.92055113659499" lon="146.05554921526345"><ele>405.0</ele><time>2026-05-06T02:19:27.998Z</time></trkpt><trkpt lat="-37.92049308723218" lon="146.05565581177675"><ele>405.0</ele><time>2026-05-06T02:19:28.998Z</time></trkpt><trkpt lat="-37.920439335548224" lon="146.05578461565352"><ele>405.0</ele><time>2026-05-06T02:19:29.998Z</time></trkpt><trkpt lat="-37.9204071884858" lon="146.05592275026837"><ele>405.0</ele><time>2026-05-06T02:19:30.998Z</time></trkpt><trkpt lat="-37.92034689003817" lon="146.05604030169005"><ele>405.6</ele><time>2026-05-06T02:19:31.998Z</time></trkpt><trkpt lat="-37.9202992676586" lon="146.0561673496637"><ele>406.2</ele><time>2026-05-06T02:19:32.998Z</time></trkpt><trkpt lat="-37.9202643721806" lon="146.0562570038841"><ele>406.79999999999995</ele><time>2026-05-06T02:19:33.998Z</time></trkpt><trkpt lat="-37.920230066945855" lon="146.05634920379003"><ele>407.4</ele><time>2026-05-06T02:19:34.998Z</time></trkpt><trkpt lat="-37.9201859482423" lon="146.0564407848157"><ele>408.0</ele><time>2026-05-06T02:19:35.998Z</time></trkpt><trkpt lat="-37.92007841746389" lon="146.0566670937336"><ele>412.79999999999995</ele><time>2026-05-06T02:19:37.998Z</time></trkpt><trkpt lat="-37.920030333817046" lon="146.0567667215244"><ele>417.6</ele><time>2026-05-06T02:19:38.998Z</time></trkpt><trkpt lat="-37.91998568903907" lon="146.05687518856902"><ele>422.40000000000003</ele><time>2026-05-06T02:19:39.998Z</time></trkpt><trkpt lat="-37.91993659731631" lon="146.0569896419609"><ele>427.20000000000005</ele><time>2026-05-06T02:19:41Z</time></trkpt><trkpt lat="-37.91987443012129" lon="146.05708250343022"><ele>432.0</ele><time>2026-05-06T02:19:42Z</time></trkpt><trkpt lat="-37.919823068308446" lon="146.0571843673366"><ele>432.0</ele><time>2026-05-06T02:19:43Z</time></trkpt><trkpt lat="-37.919770620409864" lon="146.0572879375901"><ele>432.00000000000006</ele><time>2026-05-06T02:19:44Z</time></trkpt><trkpt lat="-37.91971279735273" lon="146.05739683620055"><ele>432.00000000000006</ele><time>2026-05-06T02:19:45Z</time></trkpt><trkpt lat="-37.91966633098212" lon="146.05751690506625"><ele>432.0</ele><time>2026-05-06T02:19:46Z</time></trkpt><trkpt lat="-37.91958673606937" lon="146.05762326932285"><ele>432.0</ele><time>2026-05-06T02:19:47Z</time></trkpt><trkpt lat="-37.91951904675255" lon="146.0577328838191"><ele>433.0</ele><time>2026-05-06T02:19:48Z</time></trkpt><trkpt lat="-37.91944687055324" lon="146.0578373111776"><ele>434.0</ele><time>2026-05-06T02:19:49Z</time></trkpt><trkpt lat="-37.9193648820177" lon="146.0579430972948"><ele>435.0</ele><time>2026-05-06T02:19:50Z</time></trkpt><trkpt lat="-37.919285463223126" lon="146.05804277082166"><ele>436.0</ele><time>2026-05-06T02:19:51Z</time></trkpt><trkpt lat="-37.91921013364831" lon="146.05815320285612"><ele>436.50000000000006</ele><time>2026-05-06T02:19:52Z</time></trkpt><trkpt lat="-37.919132928414726" lon="146.05823513484563"><ele>437.0</ele><time>2026-05-06T02:19:53Z</time></trkpt><trkpt lat="-37.9190765475009" lon="146.0583146255509"><ele>437.5</ele><time>2026-05-06T02:19:54Z</time></trkpt><trkpt lat="-37.919034824489096" lon="146.05838828021268"><ele>438.0</ele><time>2026-05-06T02:19:55Z</time></trkpt><trkpt lat="-37.91899634215842" lon="146.05847077570905"><ele>438.50000000000006</ele><time>2026-05-06T02:19:56Z</time></trkpt><trkpt lat="-37.919013432856104" lon="146.05860764267248"><ele>439.0</ele><time>2026-05-06T02:19:58Z</time></trkpt><trkpt lat="-37.91899717299622" lon="146.05870855201582"><ele>441.6</ele><time>2026-05-06T02:20:00Z</time></trkpt><trkpt lat="-37.918941110041274" lon="146.05880718638105"><ele>444.2</ele><time>2026-05-06T02:20:02Z</time></trkpt><trkpt lat="-37.91884950728112" lon="146.05877345127618"><ele>446.80000000000007</ele><time>2026-05-06T02:20:03Z</time></trkpt><trkpt lat="-37.918735259690884" lon="146.05875077459555"><ele>449.40000000000003</ele><time>2026-05-06T02:20:04Z</time></trkpt><trkpt lat="-37.91862861880962" lon="146.0587030465047"><ele>452.0</ele><time>2026-05-06T02:20:05Z</time></trkpt><trkpt lat="-37.91853711456259" lon="146.05865893770869"><ele>452.0</ele><time>2026-05-06T02:20:06Z</time></trkpt><trkpt lat="-37.91844183678962" lon="146.0586136583739"><ele>452.0</ele><time>2026-05-06T02:20:07Z</time></trkpt><trkpt lat="-37.918336845805094" lon="146.05856588891234"><ele>452.0</ele><time>2026-05-06T02:20:08Z</time></trkpt><trkpt lat="-37.91821592514034" lon="146.05854323311533"><ele>452.0</ele><time>2026-05-06T02:20:09Z</time></trkpt><trkpt lat="-37.918098287242024" lon="146.05847497591537"><ele>453.40000000000003</ele><time>2026-05-06T02:20:10Z</time></trkpt><trkpt lat="-37.91798073160647" lon="146.05842941372168"><ele>454.80000000000007</ele><time>2026-05-06T02:20:11Z</time></trkpt><trkpt lat="-37.9178696179637" lon="146.05839414172632"><ele>456.2</ele><time>2026-05-06T02:20:11.999Z</time></trkpt><trkpt lat="-37.917773422125265" lon="146.0583756970255"><ele>457.6</ele><time>2026-05-06T02:20:12.999Z</time></trkpt><trkpt lat="-37.91767752115579" lon="146.05837074203336"><ele>459.0</ele><time>2026-05-06T02:20:13.999Z</time></trkpt><trkpt lat="-37.91757681316807" lon="146.05839842805406"><ele>462.0</ele><time>2026-05-06T02:20:14.999Z</time></trkpt><trkpt lat="-37.917497199794205" lon="146.05842626776823"><ele>465.0</ele><time>2026-05-06T02:20:15.999Z</time></trkpt><trkpt lat="-37.91743126896771" lon="146.05845816182594"><ele>468.0</ele><time>2026-05-06T02:20:16.999Z</time></trkpt><trkpt lat="-37.91736797475152" lon="146.05848262383037"><ele>471.0</ele><time>2026-05-06T02:20:17.999Z</time></trkpt><trkpt lat="-37.91728595829007" lon="146.05851517682353"><ele>474.0</ele><time>2026-05-06T02:20:18.999Z</time></trkpt><trkpt lat="-37.91720099317786" lon="146.0585409638037"><ele>477.0</ele><time>2026-05-06T02:20:19.999Z</time></trkpt><trkpt lat="-37.91709674389292" lon="146.05854629501346"><ele>477.0</ele><time>2026-05-06T02:20:20.999Z</time></trkpt><trkpt lat="-37.91702127138894" lon="146.05853171886383"><ele>477.0</ele><time>2026-05-06T02:20:21.999Z</time></trkpt><trkpt lat="-37.91693406793388" lon="146.0584416207775"><ele>477.0</ele><time>2026-05-06T02:20:23.999Z</time></trkpt><trkpt lat="-37.91687819809083" lon="146.05835950783845"><ele>477.0</ele><time>2026-05-06T02:20:24.999Z</time></trkpt><trkpt lat="-37.91680684515928" lon="146.05830496547537"><ele>477.0</ele><time>2026-05-06T02:20:25.999Z</time></trkpt><trkpt lat="-37.91675993887633" lon="146.0582236856343"><ele>477.0</ele><time>2026-05-06T02:20:26.999Z</time></trkpt><trkpt lat="-37.916701017669084" lon="146.05817497407855"><ele>475.8333333333333</ele><time>2026-05-06T02:20:27.999Z</time></trkpt><trkpt lat="-37.91664443118461" lon="146.0580993809803"><ele>474.66666666666663</ele><time>2026-05-06T02:20:28.999Z</time></trkpt><trkpt lat="-37.91654719260821" lon="146.0579809238105"><ele>473.5</ele><time>2026-05-06T02:20:30.999Z</time></trkpt><trkpt lat="-37.91649846765631" lon="146.05792176247215"><ele>472.3333333333333</ele><time>2026-05-06T02:20:31.999Z</time></trkpt><trkpt lat="-37.91645312131416" lon="146.0578630661825"><ele>471.16666666666663</ele><time>2026-05-06T02:20:32.999Z</time></trkpt><trkpt lat="-37.91638697531668" lon="146.0577831092733"><ele>470.0</ele><time>2026-05-06T02:20:33.999Z</time></trkpt><trkpt lat="-37.916319654103766" lon="146.057707321264"><ele>470.0</ele><time>2026-05-06T02:20:34.999Z</time></trkpt><trkpt lat="-37.91626014169371" lon="146.0576339622104"><ele>470.0</ele><time>2026-05-06T02:20:35.999Z</time></trkpt><trkpt lat="-37.91619065553024" lon="146.0575611349498"><ele>470.0</ele><time>2026-05-06T02:20:36.999Z</time></trkpt><trkpt lat="-37.916117744234825" lon="146.05748549778133"><ele>470.0</ele><time>2026-05-06T02:20:37.999Z</time></trkpt><trkpt lat="-37.91604384440859" lon="146.057392885454"><ele>470.0</ele><time>2026-05-06T02:20:38.999Z</time></trkpt><trkpt lat="-37.915972797925704" lon="146.0573362824026"><ele>468.3333333333333</ele><time>2026-05-06T02:20:39.999Z</time></trkpt><trkpt lat="-37.91590547012687" lon="146.0572854895585"><ele>466.66666666666663</ele><time>2026-05-06T02:20:40.999Z</time></trkpt><trkpt lat="-37.91585850446615" lon="146.05721828196442"><ele>465.0</ele><time>2026-05-06T02:20:41.999Z</time></trkpt><trkpt lat="-37.91580970668807" lon="146.05709898205276"><ele>463.33333333333337</ele><time>2026-05-06T02:20:42.999Z</time></trkpt><trkpt lat="-37.91580574523427" lon="146.05697238195742"><ele>461.6666666666667</ele><time>2026-05-06T02:20:43.999Z</time></trkpt><trkpt lat="-37.915774858014636" lon="146.05689566629025"><ele>460.0</ele><time>2026-05-06T02:20:44.999Z</time></trkpt><trkpt lat="-37.91571385493973" lon="146.05683984995886"><ele>459.6666666666667</ele><time>2026-05-06T02:20:45.999Z</time></trkpt><trkpt lat="-37.915644115111654" lon="146.05675927737664"><ele>459.33333333333337</ele><time>2026-05-06T02:20:46.999Z</time></trkpt><trkpt lat="-37.91553081185741" lon="146.0567224500501"><ele>459.0</ele><time>2026-05-06T02:20:47.999Z</time></trkpt><trkpt lat="-37.91545986590486" lon="146.05665390212624"><ele>458.66666666666663</ele><time>2026-05-06T02:20:48.999Z</time></trkpt><trkpt lat="-37.91541888851911" lon="146.05657443676586"><ele>458.3333333333333</ele><time>2026-05-06T02:20:49.999Z</time></trkpt><trkpt lat="-37.915421331593215" lon="146.05648957847575"><ele>458.0</ele><time>2026-05-06T02:20:50.999Z</time></trkpt><trkpt lat="-37.91539587612763" lon="146.056393410731"><ele>458.8333333333333</ele><time>2026-05-06T02:20:51.999Z</time></trkpt><trkpt lat="-37.91533637214131" lon="146.0562810968473"><ele>459.66666666666663</ele><time>2026-05-06T02:20:53.999Z</time></trkpt><trkpt lat="-37.91528293384934" lon="146.05623158944866"><ele>460.5</ele><time>2026-05-06T02:20:54.999Z</time></trkpt><trkpt lat="-37.91518764697395" lon="146.05617853245747"><ele>461.33333333333337</ele><time>2026-05-06T02:20:55.999Z</time></trkpt><trkpt lat="-37.91510640404721" lon="146.0561323927169"><ele>462.1666666666667</ele><time>2026-05-06T02:20:56.999Z</time></trkpt><trkpt lat="-37.91504698494839" lon="146.05606926606862"><ele>463.0</ele><time>2026-05-06T02:20:57.999Z</time></trkpt><trkpt lat="-37.91496890804271" lon="146.0560057128407"><ele>463.0</ele><time>2026-05-06T02:20:58.999Z</time></trkpt><trkpt lat="-37.9149257268077" lon="146.05591614681583"><ele>462.99999999999994</ele><time>2026-05-06T02:20:59.999Z</time></trkpt><trkpt lat="-37.9148193046333" lon="146.05593138864324"><ele>462.99999999999994</ele><time>2026-05-06T02:21:01.999Z</time></trkpt><trkpt lat="-37.914756492476954" lon="146.0560140737911"><ele>463.0</ele><time>2026-05-06T02:21:02.999Z</time></trkpt><trkpt lat="-37.91468014978087" lon="146.05612333655318"><ele>463.0</ele><time>2026-05-06T02:21:03.999Z</time></trkpt><trkpt lat="-37.9146284632147" lon="146.0562188083716"><ele>463.00000000000006</ele><time>2026-05-06T02:21:04.999Z</time></trkpt><trkpt lat="-37.91457714796925" lon="146.05633533920937"><ele>463.0</ele><time>2026-05-06T02:21:05.999Z</time></trkpt><trkpt lat="-37.914521103686226" lon="146.05642880995373"><ele>463.0</ele><time>2026-05-06T02:21:06.999Z</time></trkpt><trkpt lat="-37.91447118958153" lon="146.05653041274448"><ele>463.0</ele><time>2026-05-06T02:21:07.999Z</time></trkpt><trkpt lat="-37.914426269827764" lon="146.05660794070982"><ele>463.00000000000006</ele><time>2026-05-06T02:21:08.999Z</time></trkpt><trkpt lat="-37.91438707178511" lon="146.0566875444858"><ele>463.0</ele><time>2026-05-06T02:21:09.999Z</time></trkpt><trkpt lat="-37.9143187359991" lon="146.05672806560887"><ele>463.2</ele><time>2026-05-06T02:21:10.999Z</time></trkpt><trkpt lat="-37.9142261787291" lon="146.05678515629583"><ele>463.4</ele><time>2026-05-06T02:21:11.999Z</time></trkpt><trkpt lat="-37.91414485584301" lon="146.05684466645076"><ele>463.59999999999997</ele><time>2026-05-06T02:21:12.999Z</time></trkpt><trkpt lat="-37.91408434824151" lon="146.0569398760991"><ele>463.79999999999995</ele><time>2026-05-06T02:21:13.999Z</time></trkpt><trkpt lat="-37.91405218234117" lon="146.0570369033168"><ele>464.0</ele><time>2026-05-06T02:21:14.999Z</time></trkpt><trkpt lat="-37.9139959990894" lon="146.05715453336552"><ele>464.0</ele><time>2026-05-06T02:21:15.999Z</time></trkpt><trkpt lat="-37.91394128596363" lon="146.05731366949317"><ele>464.0</ele><time>2026-05-06T02:21:16.999Z</time></trkpt><trkpt lat="-37.913911893666935" lon="146.05743519368883"><ele>464.0</ele><time>2026-05-06T02:21:17.999Z</time></trkpt><trkpt lat="-37.913868645100834" lon="146.05754380592685"><ele>464.0</ele><time>2026-05-06T02:21:18.999Z</time></trkpt><trkpt lat="-37.913820197063" lon="146.05764851586207"><ele>464.0</ele><time>2026-05-06T02:21:19.999Z</time></trkpt><trkpt lat="-37.91376684250671" lon="146.05776712007133"><ele>464.0</ele><time>2026-05-06T02:21:20.999Z</time></trkpt><trkpt lat="-37.913718058722175" lon="146.05788709058714"><ele>464.0</ele><time>2026-05-06T02:21:21.999Z</time></trkpt><trkpt lat="-37.91366357271444" lon="146.0580167114443"><ele>464.0</ele><time>2026-05-06T02:21:22.999Z</time></trkpt><trkpt lat="-37.91361547666978" lon="146.05812817753733"><ele>464.0</ele><time>2026-05-06T02:21:23.999Z</time></trkpt><trkpt lat="-37.91356074015914" lon="146.05824682417372"><ele>464.0</ele><time>2026-05-06T02:21:24.999Z</time></trkpt><trkpt lat="-37.91348372509827" lon="146.05837504506832"><ele>464.16666666666663</ele><time>2026-05-06T02:21:25.998Z</time></trkpt><trkpt lat="-37.91345998097343" lon="146.05849352437374"><ele>464.3333333333333</ele><time>2026-05-06T02:21:26.998Z</time></trkpt><trkpt lat="-37.91342764135091" lon="146.05856943261816"><ele>464.5</ele><time>2026-05-06T02:21:27.998Z</time></trkpt><trkpt lat="-37.9133621884793" lon="146.05864819414228"><ele>464.66666666666663</ele><time>2026-05-06T02:21:28.998Z</time></trkpt><trkpt lat="-37.913320791346784" lon="146.05875364926462"><ele>464.8333333333333</ele><time>2026-05-06T02:21:29.998Z</time></trkpt><trkpt lat="-37.91326153410428" lon="146.0588338628792"><ele>465.0</ele><time>2026-05-06T02:21:30.998Z</time></trkpt><trkpt lat="-37.91320849299703" lon="146.05894011201124"><ele>465.0</ele><time>2026-05-06T02:21:31.998Z</time></trkpt><trkpt lat="-37.91315951313746" lon="146.05899942467377"><ele>465.0</ele><time>2026-05-06T02:21:32.998Z</time></trkpt><trkpt lat="-37.913081718263456" lon="146.05904590227152"><ele>465.0</ele><time>2026-05-06T02:21:34.998Z</time></trkpt><trkpt lat="-37.91292819251285" lon="146.05907980352106"><ele>465.0</ele><time>2026-05-06T02:21:36.998Z</time></trkpt><trkpt lat="-37.91284567472662" lon="146.05906652852946"><ele>465.0</ele><time>2026-05-06T02:21:37.998Z</time></trkpt><trkpt lat="-37.91276661981751" lon="146.05905004809435"><ele>465.0</ele><time>2026-05-06T02:21:38.998Z</time></trkpt><trkpt lat="-37.912670666516" lon="146.05903421041268"><ele>465.0</ele><time>2026-05-06T02:21:39.998Z</time></trkpt><trkpt lat="-37.912563335998236" lon="146.05899765158776"><ele>465.0</ele><time>2026-05-06T02:21:40.998Z</time></trkpt><trkpt lat="-37.91247274582045" lon="146.05895878595166"><ele>465.0</ele><time>2026-05-06T02:21:41.998Z</time></trkpt><trkpt lat="-37.91239537422881" lon="146.05892640982978"><ele>465.0</ele><time>2026-05-06T02:21:42.998Z</time></trkpt><trkpt lat="-37.91231841571366" lon="146.05889009731786"><ele>465.1666666666667</ele><time>2026-05-06T02:21:43.998Z</time></trkpt><trkpt lat="-37.91224188070476" lon="146.05885350655578"><ele>465.33333333333337</ele><time>2026-05-06T02:21:44.998Z</time></trkpt><trkpt lat="-37.91216768570335" lon="146.05879683545803"><ele>465.5</ele><time>2026-05-06T02:21:45.998Z</time></trkpt><trkpt lat="-37.912094134918796" lon="146.0587604401064"><ele>465.6666666666667</ele><time>2026-05-06T02:21:47Z</time></trkpt><trkpt lat="-37.9120087926996" lon="146.05871420436245"><ele>465.83333333333337</ele><time>2026-05-06T02:21:48Z</time></trkpt><trkpt lat="-37.91193001353361" lon="146.05868182512947"><ele>466.0</ele><time>2026-05-06T02:21:49Z</time></trkpt><trkpt lat="-37.911817621796985" lon="146.05861382157073"><ele>465.6</ele><time>2026-05-06T02:21:50Z</time></trkpt><trkpt lat="-37.9116842699323" lon="146.05850498028192"><ele>465.20000000000005</ele><time>2026-05-06T02:21:52Z</time></trkpt><trkpt lat="-37.91160019086451" lon="146.05843837462396"><ele>464.79999999999995</ele><time>2026-05-06T02:21:53Z</time></trkpt><trkpt lat="-37.91153152427502" lon="146.05839090006512"><ele>464.4</ele><time>2026-05-06T02:21:54Z</time></trkpt><trkpt lat="-37.91146681202933" lon="146.05835857514185"><ele>464.0</ele><time>2026-05-06T02:21:55Z</time></trkpt><trkpt lat="-37.911391833837996" lon="146.05831875335224"><ele>464.0</ele><time>2026-05-06T02:21:56Z</time></trkpt><trkpt lat="-37.91132094668702" lon="146.05829263218135"><ele>464.0</ele><time>2026-05-06T02:21:57Z</time></trkpt><trkpt lat="-37.91117506670256" lon="146.05828310887347"><ele>464.0</ele><time>2026-05-06T02:21:59Z</time></trkpt><trkpt lat="-37.91106749661599" lon="146.05831631245212"><ele>464.0</ele><time>2026-05-06T02:22:00Z</time></trkpt><trkpt lat="-37.91095246281929" lon="146.05835113950167"><ele>464.0</ele><time>2026-05-06T02:22:01Z</time></trkpt><trkpt lat="-37.91086255922718" lon="146.05836999169568"><ele>463.66666666666663</ele><time>2026-05-06T02:22:02Z</time></trkpt><trkpt lat="-37.91077285737618" lon="146.05837674279087"><ele>463.3333333333333</ele><time>2026-05-06T02:22:02.999Z</time></trkpt><trkpt lat="-37.91068564345146" lon="146.05837744483745"><ele>463.0</ele><time>2026-05-06T02:22:03.999Z</time></trkpt><trkpt lat="-37.91060252317707" lon="146.0583493507918"><ele>462.66666666666663</ele><time>2026-05-06T02:22:04.999Z</time></trkpt><trkpt lat="-37.91055054700013" lon="146.05829216809417"><ele>462.3333333333333</ele><time>2026-05-06T02:22:05.999Z</time></trkpt><trkpt lat="-37.91046368716679" lon="146.05821666963442"><ele>462.0</ele><time>2026-05-06T02:22:06.999Z</time></trkpt><trkpt lat="-37.91037918113748" lon="146.05814241373628"><ele>462.0</ele><time>2026-05-06T02:22:07.999Z</time></trkpt><trkpt lat="-37.910303946146996" lon="146.0580718337215"><ele>462.00000000000006</ele><time>2026-05-06T02:22:08.999Z</time></trkpt><trkpt lat="-37.91023103285558" lon="146.05802266912718"><ele>462.00000000000006</ele><time>2026-05-06T02:22:09.999Z</time></trkpt><trkpt lat="-37.910153272900445" lon="146.05792565443602"><ele>462.0</ele><time>2026-05-06T02:22:10.999Z</time></trkpt><trkpt lat="-37.91008335377235" lon="146.05782844577416"><ele>462.0</ele><time>2026-05-06T02:22:11.999Z</time></trkpt><trkpt lat="-37.91000140352332" lon="146.05773562941567"><ele>462.25</ele><time>2026-05-06T02:22:12.998Z</time></trkpt><trkpt lat="-37.90991485283925" lon="146.05763652321104"><ele>462.5</ele><time>2026-05-06T02:22:13.998Z</time></trkpt><trkpt lat="-37.90985858154486" lon="146.0575074511534"><ele>462.75</ele><time>2026-05-06T02:22:14.998Z</time></trkpt><trkpt lat="-37.90982336433767" lon="146.05737964376945"><ele>463.0</ele><time>2026-05-06T02:22:15.998Z</time></trkpt><trkpt lat="-37.909772638711104" lon="146.0572245546321"><ele>463.0</ele><time>2026-05-06T02:22:16.998Z</time></trkpt><trkpt lat="-37.90971340398444" lon="146.05710940305573"><ele>462.99999999999994</ele><time>2026-05-06T02:22:17.998Z</time></trkpt><trkpt lat="-37.9096479943716" lon="146.05701174361724"><ele>462.99999999999994</ele><time>2026-05-06T02:22:18.998Z</time></trkpt><trkpt lat="-37.90958032697389" lon="146.05691869898192"><ele>463.0</ele><time>2026-05-06T02:22:19.998Z</time></trkpt><trkpt lat="-37.90950263623696" lon="146.05682545223746"><ele>463.0</ele><time>2026-05-06T02:22:20.998Z</time></trkpt><trkpt lat="-37.90943817024768" lon="146.05674921079176"><ele>463.0</ele><time>2026-05-06T02:22:21.998Z</time></trkpt><trkpt lat="-37.90932333961536" lon="146.05665456103642"><ele>462.99999999999994</ele><time>2026-05-06T02:22:23.998Z</time></trkpt><trkpt lat="-37.90924676700584" lon="146.0566059411464"><ele>462.99999999999994</ele><time>2026-05-06T02:22:24.998Z</time></trkpt><trkpt lat="-37.90916494568705" lon="146.05657101322285"><ele>463.0</ele><time>2026-05-06T02:22:25.998Z</time></trkpt><trkpt lat="-37.90908975254568" lon="146.05654743505053"><ele>463.0</ele><time>2026-05-06T02:22:26.998Z</time></trkpt><trkpt lat="-37.90898370053425" lon="146.05652117665372"><ele>463.4</ele><time>2026-05-06T02:22:27.998Z</time></trkpt><trkpt lat="-37.90889099795831" lon="146.0564946585638"><ele>463.79999999999995</ele><time>2026-05-06T02:22:28.998Z</time></trkpt><trkpt lat="-37.90881420114047" lon="146.05646222473433"><ele>464.2</ele><time>2026-05-06T02:22:29.998Z</time></trkpt><trkpt lat="-37.90872777861557" lon="146.05642434716185"><ele>464.6</ele><time>2026-05-06T02:22:30.998Z</time></trkpt><trkpt lat="-37.90863101322228" lon="146.0563806442338"><ele>465.0</ele><time>2026-05-06T02:22:31.998Z</time></trkpt><trkpt lat="-37.90853644869398" lon="146.05629820139626"><ele>465.0</ele><time>2026-05-06T02:22:32.998Z</time></trkpt><trkpt lat="-37.90843911642975" lon="146.05621354171504"><ele>465.0</ele><time>2026-05-06T02:22:33.997Z</time></trkpt><trkpt lat="-37.90834595529223" lon="146.0561283910364"><ele>465.0</ele><time>2026-05-06T02:22:34.997Z</time></trkpt><trkpt lat="-37.90827030091104" lon="146.0560133480172"><ele>465.0</ele><time>2026-05-06T02:22:35.997Z</time></trkpt><trkpt lat="-37.90820263009642" lon="146.0559518278999"><ele>465.0</ele><time>2026-05-06T02:22:36.997Z</time></trkpt><trkpt lat="-37.90816743118401" lon="146.05587417930792"><ele>463.4</ele><time>2026-05-06T02:22:37.997Z</time></trkpt><trkpt lat="-37.90811782520657" lon="146.0557668328484"><ele>461.8</ele><time>2026-05-06T02:22:38.997Z</time></trkpt><trkpt lat="-37.90804698088855" lon="146.055653434778"><ele>460.20000000000005</ele><time>2026-05-06T02:22:39.997Z</time></trkpt><trkpt lat="-37.907997231254335" lon="146.0555581671889"><ele>458.6</ele><time>2026-05-06T02:22:40.997Z</time></trkpt><trkpt lat="-37.907921117636164" lon="146.0554643688859"><ele>457.0</ele><time>2026-05-06T02:22:41.997Z</time></trkpt><trkpt lat="-37.90784090626193" lon="146.05539880373644"><ele>457.0</ele><time>2026-05-06T02:22:42.997Z</time></trkpt><trkpt lat="-37.90775386918186" lon="146.05530675094496"><ele>457.0</ele><time>2026-05-06T02:22:43.997Z</time></trkpt><trkpt lat="-37.907664808070685" lon="146.05521603514833"><ele>457.0</ele><time>2026-05-06T02:22:44.997Z</time></trkpt><trkpt lat="-37.907589953258324" lon="146.05513406209707"><ele>457.0</ele><time>2026-05-06T02:22:45.997Z</time></trkpt><trkpt lat="-37.90747364259314" lon="146.0550392991721"><ele>458.5</ele><time>2026-05-06T02:22:46.997Z</time></trkpt><trkpt lat="-37.90738209858639" lon="146.05495945690745"><ele>460.0</ele><time>2026-05-06T02:22:47.997Z</time></trkpt><trkpt lat="-37.907275622995655" lon="146.0548753239411"><ele>461.5</ele><time>2026-05-06T02:22:48.997Z</time></trkpt><trkpt lat="-37.90716228717887" lon="146.05478280083432"><ele>463.0</ele><time>2026-05-06T02:22:49.997Z</time></trkpt><trkpt lat="-37.90707379168206" lon="146.05470711229364"><ele>463.0</ele><time>2026-05-06T02:22:50.997Z</time></trkpt><trkpt lat="-37.90699464390106" lon="146.05463244642138"><ele>462.99999999999994</ele><time>2026-05-06T02:22:51.997Z</time></trkpt><trkpt lat="-37.90693929818943" lon="146.05453714084217"><ele>462.99999999999994</ele><time>2026-05-06T02:22:52.997Z</time></trkpt><trkpt lat="-37.90686931544674" lon="146.0544649866157"><ele>463.0</ele><time>2026-05-06T02:22:53.997Z</time></trkpt><trkpt lat="-37.906797278648774" lon="146.0544059549457"><ele>463.0</ele><time>2026-05-06T02:22:54.997Z</time></trkpt><trkpt lat="-37.906758326288724" lon="146.05428548645034"><ele>464.59999999999997</ele><time>2026-05-06T02:22:55.997Z</time></trkpt><trkpt lat="-37.90670676703444" lon="146.0541662375082"><ele>466.19999999999993</ele><time>2026-05-06T02:22:56.997Z</time></trkpt><trkpt lat="-37.90665507581364" lon="146.05404645998868"><ele>467.8</ele><time>2026-05-06T02:22:57.997Z</time></trkpt><trkpt lat="-37.90659101772243" lon="146.05392419201294"><ele>469.4</ele><time>2026-05-06T02:22:58.997Z</time></trkpt><trkpt lat="-37.90652408943288" lon="146.05382382235987"><ele>471.0</ele><time>2026-05-06T02:22:59.997Z</time></trkpt><trkpt lat="-37.90646896871657" lon="146.05373652231745"><ele>471.0</ele><time>2026-05-06T02:23:00.997Z</time></trkpt><trkpt lat="-37.90640001609931" lon="146.05366488363984"><ele>471.0</ele><time>2026-05-06T02:23:01.997Z</time></trkpt><trkpt lat="-37.90631837801724" lon="146.05357470014025"><ele>471.0</ele><time>2026-05-06T02:23:02.997Z</time></trkpt><trkpt lat="-37.90623447430342" lon="146.05349376661474"><ele>471.0</ele><time>2026-05-06T02:23:03.997Z</time></trkpt><trkpt lat="-37.90614337998562" lon="146.05339614902"><ele>471.0</ele><time>2026-05-06T02:23:04.997Z</time></trkpt><trkpt lat="-37.90609944222044" lon="146.05332259177072"><ele>469.6666666666667</ele><time>2026-05-06T02:23:05.997Z</time></trkpt><trkpt lat="-37.906033630434315" lon="146.05324696548482"><ele>468.33333333333337</ele><time>2026-05-06T02:23:06.997Z</time></trkpt><trkpt lat="-37.90594771226551" lon="146.05317353791824"><ele>467.0</ele><time>2026-05-06T02:23:07.997Z</time></trkpt><trkpt lat="-37.90588132723934" lon="146.05308063713173"><ele>465.6666666666667</ele><time>2026-05-06T02:23:08.997Z</time></trkpt><trkpt lat="-37.90582526525725" lon="146.05300447497436"><ele>464.33333333333337</ele><time>2026-05-06T02:23:09.997Z</time></trkpt><trkpt lat="-37.905771403476834" lon="146.05294146373623"><ele>463.0</ele><time>2026-05-06T02:23:10.997Z</time></trkpt><trkpt lat="-37.905709176924056" lon="146.0528706862894"><ele>464.0</ele><time>2026-05-06T02:23:11.997Z</time></trkpt><trkpt lat="-37.90565322636044" lon="146.05280512175966"><ele>464.99999999999994</ele><time>2026-05-06T02:23:12.997Z</time></trkpt><trkpt lat="-37.90558589243597" lon="146.05270545202507"><ele>465.99999999999994</ele><time>2026-05-06T02:23:13.997Z</time></trkpt><trkpt lat="-37.90550393833649" lon="146.0526338191825"><ele>467.0</ele><time>2026-05-06T02:23:14.997Z</time></trkpt><trkpt lat="-37.90542543445084" lon="146.05255729962445"><ele>468.0</ele><time>2026-05-06T02:23:15.997Z</time></trkpt><trkpt lat="-37.90536457686363" lon="146.05244989398122"><ele>468.0</ele><time>2026-05-06T02:23:16.997Z</time></trkpt><trkpt lat="-37.905299223678966" lon="146.0523623524083"><ele>468.0</ele><time>2026-05-06T02:23:17.997Z</time></trkpt><trkpt lat="-37.905235048228214" lon="146.05227657854593"><ele>468.0</ele><time>2026-05-06T02:23:18.997Z</time></trkpt><trkpt lat="-37.90517760337543" lon="146.0522047647534"><ele>468.0</ele><time>2026-05-06T02:23:19.997Z</time></trkpt><trkpt lat="-37.90511576719823" lon="146.05213656448112"><ele>468.0</ele><time>2026-05-06T02:23:20.997Z</time></trkpt><trkpt lat="-37.9050444750509" lon="146.0520693800479"><ele>468.0</ele><time>2026-05-06T02:23:21.997Z</time></trkpt><trkpt lat="-37.90497576438088" lon="146.0520187762008"><ele>470.6666666666667</ele><time>2026-05-06T02:23:22.997Z</time></trkpt><trkpt lat="-37.904903009588836" lon="146.05197257376122"><ele>473.33333333333337</ele><time>2026-05-06T02:23:23.997Z</time></trkpt><trkpt lat="-37.90484343418983" lon="146.05194090618122"><ele>476.0</ele><time>2026-05-06T02:23:24.997Z</time></trkpt><trkpt lat="-37.90477895598818" lon="146.05189067417086"><ele>478.6666666666667</ele><time>2026-05-06T02:23:25.997Z</time></trkpt><trkpt lat="-37.90469258664726" lon="146.05185637044718"><ele>481.33333333333337</ele><time>2026-05-06T02:23:26.997Z</time></trkpt><trkpt lat="-37.904580316679095" lon="146.0518207992433"><ele>484.0</ele><time>2026-05-06T02:23:27.997Z</time></trkpt><trkpt lat="-37.90447585996377" lon="146.05179776567715"><ele>484.0</ele><time>2026-05-06T02:23:28.997Z</time></trkpt><trkpt lat="-37.904369590033994" lon="146.05176931605402"><ele>484.0</ele><time>2026-05-06T02:23:29.997Z</time></trkpt><trkpt lat="-37.904251343642876" lon="146.05177243652938"><ele>484.0</ele><time>2026-05-06T02:23:30.996Z</time></trkpt><trkpt lat="-37.90414254875833" lon="146.05178807458842"><ele>484.0</ele><time>2026-05-06T02:23:31.996Z</time></trkpt><trkpt lat="-37.9040334887325" lon="146.05179186592477"><ele>484.0</ele><time>2026-05-06T02:23:32.996Z</time></trkpt><trkpt lat="-37.903960625677094" lon="146.0517828368352"><ele>484.4</ele><time>2026-05-06T02:23:33.996Z</time></trkpt><trkpt lat="-37.90385721060477" lon="146.05173704884504"><ele>484.79999999999995</ele><time>2026-05-06T02:23:35.996Z</time></trkpt><trkpt lat="-37.903811088283895" lon="146.05156657211265"><ele>485.20000000000005</ele><time>2026-05-06T02:23:37.996Z</time></trkpt><trkpt lat="-37.903763184774114" lon="146.05148863566308"><ele>485.6</ele><time>2026-05-06T02:23:38.996Z</time></trkpt><trkpt lat="-37.903724287240415" lon="146.0514015804226"><ele>486.0</ele><time>2026-05-06T02:23:39.996Z</time></trkpt><trkpt lat="-37.90366211187501" lon="146.05132557044243"><ele>486.0</ele><time>2026-05-06T02:23:40.996Z</time></trkpt><trkpt lat="-37.903591230201904" lon="146.0512600862779"><ele>486.0</ele><time>2026-05-06T02:23:41.996Z</time></trkpt><trkpt lat="-37.90352609470043" lon="146.0512092766874"><ele>486.0</ele><time>2026-05-06T02:23:42.996Z</time></trkpt><trkpt lat="-37.903465687887156" lon="146.05116375798875"><ele>486.0</ele><time>2026-05-06T02:23:43.996Z</time></trkpt><trkpt lat="-37.90339738272356" lon="146.05111037239226"><ele>486.0</ele><time>2026-05-06T02:23:44.996Z</time></trkpt><trkpt lat="-37.90332881709416" lon="146.05104807415177"><ele>486.0</ele><time>2026-05-06T02:23:45.996Z</time></trkpt><trkpt lat="-37.903270100510895" lon="146.05097404430418"><ele>490.6</ele><time>2026-05-06T02:23:46.996Z</time></trkpt><trkpt lat="-37.90319679824068" lon="146.05084590269254"><ele>495.20000000000005</ele><time>2026-05-06T02:23:48.996Z</time></trkpt><trkpt lat="-37.903151908171985" lon="146.05075960998116"><ele>499.79999999999995</ele><time>2026-05-06T02:23:49.996Z</time></trkpt><trkpt lat="-37.90310495144918" lon="146.0506732047148"><ele>504.4</ele><time>2026-05-06T02:23:50.996Z</time></trkpt><trkpt lat="-37.90304850719156" lon="146.05060563744206"><ele>509.0</ele><time>2026-05-06T02:23:51.996Z</time></trkpt><trkpt lat="-37.90296276487147" lon="146.05055546519773"><ele>509.0</ele><time>2026-05-06T02:23:53.998Z</time></trkpt><trkpt lat="-37.902878023908215" lon="146.05063527442866"><ele>509.0</ele><time>2026-05-06T02:23:55.998Z</time></trkpt><trkpt lat="-37.902822393683785" lon="146.05072708442611"><ele>509.0</ele><time>2026-05-06T02:23:56.998Z</time></trkpt><trkpt lat="-37.902748654655234" lon="146.05080210182936"><ele>509.0</ele><time>2026-05-06T02:23:57.998Z</time></trkpt><trkpt lat="-37.90269288001893" lon="146.05089505797315"><ele>509.0</ele><time>2026-05-06T02:23:58.998Z</time></trkpt><trkpt lat="-37.90266628793788" lon="146.05102673349384"><ele>509.2</ele><time>2026-05-06T02:23:59.998Z</time></trkpt><trkpt lat="-37.9026284044265" lon="146.051116064892"><ele>509.4</ele><time>2026-05-06T02:24:00.998Z</time></trkpt><trkpt lat="-37.9025748826618" lon="146.05119342029604"><ele>509.6</ele><time>2026-05-06T02:24:01.998Z</time></trkpt><trkpt lat="-37.90243345957717" lon="146.05120089055333"><ele>509.8</ele><time>2026-05-06T02:24:03.999Z</time></trkpt><trkpt lat="-37.90235692285782" lon="146.05126432345364"><ele>510.0</ele><time>2026-05-06T02:24:04.999Z</time></trkpt><trkpt lat="-37.902282735145384" lon="146.0512915668959"><ele>512.2</ele><time>2026-05-06T02:24:05.999Z</time></trkpt><trkpt lat="-37.90227440105852" lon="146.05137470375482"><ele>514.4</ele><time>2026-05-06T02:24:06.999Z</time></trkpt><trkpt lat="-37.90223455040551" lon="146.05150223032274"><ele>516.6</ele><time>2026-05-06T02:24:08.999Z</time></trkpt><trkpt lat="-37.90219368191698" lon="146.05160790569508"><ele>518.8</ele><time>2026-05-06T02:24:09.999Z</time></trkpt><trkpt lat="-37.9021475969277" lon="146.05169920124357"><ele>521.0</ele><time>2026-05-06T02:24:10.999Z</time></trkpt><trkpt lat="-37.90201950779922" lon="146.05173486479381"><ele>521.0</ele><time>2026-05-06T02:24:12.999Z</time></trkpt><trkpt lat="-37.90195554264979" lon="146.0517582457927"><ele>521.0</ele><time>2026-05-06T02:24:13.999Z</time></trkpt><trkpt lat="-37.90190190227258" lon="146.05183225594953"><ele>521.0</ele><time>2026-05-06T02:24:14.999Z</time></trkpt><trkpt lat="-37.90187268402599" lon="146.05194293196794"><ele>521.0</ele><time>2026-05-06T02:24:15.999Z</time></trkpt><trkpt lat="-37.90183373551439" lon="146.05204176460617"><ele>521.0</ele><time>2026-05-06T02:24:16.999Z</time></trkpt><trkpt lat="-37.901779186512655" lon="146.0520858566935"><ele>521.0</ele><time>2026-05-06T02:24:17.999Z</time></trkpt><trkpt lat="-37.90167405127473" lon="146.0521658670324"><ele>520.4</ele><time>2026-05-06T02:24:19.999Z</time></trkpt><trkpt lat="-37.9015951723371" lon="146.05221465244824"><ele>519.8</ele><time>2026-05-06T02:24:20.999Z</time></trkpt><trkpt lat="-37.9015157314137" lon="146.05226189144648"><ele>519.1999999999999</ele><time>2026-05-06T02:24:21.999Z</time></trkpt><trkpt lat="-37.9014218550832" lon="146.05230951035077"><ele>518.6</ele><time>2026-05-06T02:24:22.999Z</time></trkpt><trkpt lat="-37.901321237239934" lon="146.05235603911927"><ele>518.0</ele><time>2026-05-06T02:24:23.999Z</time></trkpt><trkpt lat="-37.90121223327255" lon="146.05239471773854"><ele>518.0</ele><time>2026-05-06T02:24:24.999Z</time></trkpt><trkpt lat="-37.90113042870121" lon="146.05240452196676"><ele>518.0</ele><time>2026-05-06T02:24:25.999Z</time></trkpt><trkpt lat="-37.901036167668366" lon="146.0523990358502"><ele>518.0</ele><time>2026-05-06T02:24:26.999Z</time></trkpt><trkpt lat="-37.90093261139474" lon="146.05238919404354"><ele>518.0</ele><time>2026-05-06T02:24:27.999Z</time></trkpt><trkpt lat="-37.900842225542284" lon="146.05240808490862"><ele>518.0</ele><time>2026-05-06T02:24:28.999Z</time></trkpt><trkpt lat="-37.900729185443076" lon="146.05241369691385"><ele>517.8</ele><time>2026-05-06T02:24:30.999Z</time></trkpt><trkpt lat="-37.90064190120976" lon="146.05244056670773"><ele>517.5999999999999</ele><time>2026-05-06T02:24:31.999Z</time></trkpt><trkpt lat="-37.9005617902115" lon="146.05247925793185"><ele>517.4000000000001</ele><time>2026-05-06T02:24:32.999Z</time></trkpt><trkpt lat="-37.9004861032398" lon="146.05249830166497"><ele>517.2</ele><time>2026-05-06T02:24:33.999Z</time></trkpt><trkpt lat="-37.90043194082526" lon="146.05255705478936"><ele>517.0</ele><time>2026-05-06T02:24:34.999Z</time></trkpt><trkpt lat="-37.90034208259611" lon="146.05266937979812"><ele>518.6</ele><time>2026-05-06T02:24:36.999Z</time></trkpt><trkpt lat="-37.900295914779846" lon="146.05275451612687"><ele>520.2</ele><time>2026-05-06T02:24:37.999Z</time></trkpt><trkpt lat="-37.90024503378427" lon="146.05286788952793"><ele>521.8</ele><time>2026-05-06T02:24:38.999Z</time></trkpt><trkpt lat="-37.9002378231865" lon="146.05301381446023"><ele>523.4</ele><time>2026-05-06T02:24:39.999Z</time></trkpt><trkpt lat="-37.900224295727085" lon="146.05314102909568"><ele>525.0</ele><time>2026-05-06T02:24:40.999Z</time></trkpt><trkpt lat="-37.90021557189317" lon="146.0532404188205"><ele>524.3333333333334</ele><time>2026-05-06T02:24:41.999Z</time></trkpt><trkpt lat="-37.90021002412384" lon="146.05332466938074"><ele>523.6666666666666</ele><time>2026-05-06T02:24:42.999Z</time></trkpt><trkpt lat="-37.9001933362779" lon="146.0534082150631"><ele>523.0</ele><time>2026-05-06T02:24:43.999Z</time></trkpt><trkpt lat="-37.900163157273816" lon="146.0534839760844"><ele>522.3333333333333</ele><time>2026-05-06T02:24:44.999Z</time></trkpt><trkpt lat="-37.90012265318767" lon="146.05356502682122"><ele>521.6666666666666</ele><time>2026-05-06T02:24:45.999Z</time></trkpt><trkpt lat="-37.90006060722359" lon="146.0536682260456"><ele>521.0</ele><time>2026-05-06T02:24:46.999Z</time></trkpt><trkpt lat="-37.900001146444225" lon="146.05374548184543"><ele>522.8</ele><time>2026-05-06T02:24:47.999Z</time></trkpt><trkpt lat="-37.89993599798076" lon="146.053826023376"><ele>524.6</ele><time>2026-05-06T02:24:48.999Z</time></trkpt><trkpt lat="-37.8998772570658" lon="146.05389482688278"><ele>526.4</ele><time>2026-05-06T02:24:49.999Z</time></trkpt><trkpt lat="-37.89981608790339" lon="146.05397162234704"><ele>528.2</ele><time>2026-05-06T02:24:50.999Z</time></trkpt><trkpt lat="-37.89974399382647" lon="146.05406221019246"><ele>530.0</ele><time>2026-05-06T02:24:51.999Z</time></trkpt><trkpt lat="-37.899688373577376" lon="146.0541636958647"><ele>530.1666666666666</ele><time>2026-05-06T02:24:52.999Z</time></trkpt><trkpt lat="-37.89962587057547" lon="146.0542343748822"><ele>530.3333333333333</ele><time>2026-05-06T02:24:53.999Z</time></trkpt><trkpt lat="-37.89959852052569" lon="146.05432006742572"><ele>530.5</ele><time>2026-05-06T02:24:54.999Z</time></trkpt><trkpt lat="-37.89959039879056" lon="146.05441706743298"><ele>530.6666666666666</ele><time>2026-05-06T02:24:55.999Z</time></trkpt><trkpt lat="-37.89960951758764" lon="146.05452901066437"><ele>530.8333333333334</ele><time>2026-05-06T02:24:56.999Z</time></trkpt><trkpt lat="-37.89963276723045" lon="146.05462450700642"><ele>531.0</ele><time>2026-05-06T02:24:57.999Z</time></trkpt><trkpt lat="-37.899631635910694" lon="146.05473046641836"><ele>531.0</ele><time>2026-05-06T02:24:58.999Z</time></trkpt><trkpt lat="-37.89960918507618" lon="146.0548569939764"><ele>531.0</ele><time>2026-05-06T02:24:59.999Z</time></trkpt><trkpt lat="-37.89956568158284" lon="146.0549726086992"><ele>531.0</ele><time>2026-05-06T02:25:00.999Z</time></trkpt><trkpt lat="-37.89952621780816" lon="146.05509006644064"><ele>531.0</ele><time>2026-05-06T02:25:01.999Z</time></trkpt><trkpt lat="-37.899481030582216" lon="146.05518914747972"><ele>531.0</ele><time>2026-05-06T02:25:02.999Z</time></trkpt><trkpt lat="-37.89945866826983" lon="146.0553072833262"><ele>530.8333333333334</ele><time>2026-05-06T02:25:03.999Z</time></trkpt><trkpt lat="-37.899424636962706" lon="146.05539457375096"><ele>530.6666666666666</ele><time>2026-05-06T02:25:04.999Z</time></trkpt><trkpt lat="-37.899396799289306" lon="146.05551039099802"><ele>530.5</ele><time>2026-05-06T02:25:05.999Z</time></trkpt><trkpt lat="-37.89938145306712" lon="146.0555928135715"><ele>530.3333333333333</ele><time>2026-05-06T02:25:06.999Z</time></trkpt><trkpt lat="-37.89934146469487" lon="146.05567682467375"><ele>530.1666666666666</ele><time>2026-05-06T02:25:07.999Z</time></trkpt><trkpt lat="-37.89932675195141" lon="146.05578013633186"><ele>530.0</ele><time>2026-05-06T02:25:08.999Z</time></trkpt><trkpt lat="-37.899300107669376" lon="146.05588276857674"><ele>532.2</ele><time>2026-05-06T02:25:09.999Z</time></trkpt><trkpt lat="-37.89927301599093" lon="146.05598729709254"><ele>534.4</ele><time>2026-05-06T02:25:10.999Z</time></trkpt><trkpt lat="-37.899240913816435" lon="146.05607770573354"><ele>536.6</ele><time>2026-05-06T02:25:11.999Z</time></trkpt><trkpt lat="-37.899215170249995" lon="146.0561733657832"><ele>538.8</ele><time>2026-05-06T02:25:12.999Z</time></trkpt><trkpt lat="-37.899203252108684" lon="146.05630507130337"><ele>541.0</ele><time>2026-05-06T02:25:14.999Z</time></trkpt><trkpt lat="-37.89921380386345" lon="146.05644422365557"><ele>543.6</ele><time>2026-05-06T02:25:16.999Z</time></trkpt><trkpt lat="-37.899209681428765" lon="146.05656261302033"><ele>546.2</ele><time>2026-05-06T02:25:18.999Z</time></trkpt><trkpt lat="-37.89922689466695" lon="146.0566454303969"><ele>548.8</ele><time>2026-05-06T02:25:19.999Z</time></trkpt><trkpt lat="-37.89925574556696" lon="146.05672485190343"><ele>551.4</ele><time>2026-05-06T02:25:20.999Z</time></trkpt><trkpt lat="-37.899320102860024" lon="146.05686582005933"><ele>554.0</ele><time>2026-05-06T02:25:22.999Z</time></trkpt><trkpt lat="-37.89939371870145" lon="146.05695205891087"><ele>554.0</ele><time>2026-05-06T02:25:23.999Z</time></trkpt><trkpt lat="-37.89941611034456" lon="146.05705635704388"><ele>554.0</ele><time>2026-05-06T02:25:24.999Z</time></trkpt><trkpt lat="-37.89944173420464" lon="146.05715142784354"><ele>554.0</ele><time>2026-05-06T02:25:25.999Z</time></trkpt><trkpt lat="-37.89945656861631" lon="146.05723650473146"><ele>554.0</ele><time>2026-05-06T02:25:26.999Z</time></trkpt><trkpt lat="-37.89944613398451" lon="146.05740388820385"><ele>554.0</ele><time>2026-05-06T02:25:28.999Z</time></trkpt><trkpt lat="-37.8994254555838" lon="146.05748599563034"><ele>554.0</ele><time>2026-05-06T02:25:29.999Z</time></trkpt><trkpt lat="-37.899418474019946" lon="146.0575729313779"><ele>555.6666666666666</ele><time>2026-05-06T02:25:30.999Z</time></trkpt><trkpt lat="-37.899414529010315" lon="146.05766389476128"><ele>557.3333333333333</ele><time>2026-05-06T02:25:31.999Z</time></trkpt><trkpt lat="-37.899415433995024" lon="146.05774565228015"><ele>559.0</ele><time>2026-05-06T02:25:32.999Z</time></trkpt><trkpt lat="-37.89943269700368" lon="146.05782938074177"><ele>560.6666666666666</ele><time>2026-05-06T02:25:33.999Z</time></trkpt><trkpt lat="-37.89945927957514" lon="146.0579299736521"><ele>562.3333333333334</ele><time>2026-05-06T02:25:34.999Z</time></trkpt><trkpt lat="-37.8994912060621" lon="146.05804112918142"><ele>564.0</ele><time>2026-05-06T02:25:35.999Z</time></trkpt><trkpt lat="-37.89953627514821" lon="146.0581417091677"><ele>564.0</ele><time>2026-05-06T02:25:36.999Z</time></trkpt><trkpt lat="-37.8995708784348" lon="146.0582447714667"><ele>564.0</ele><time>2026-05-06T02:25:37.999Z</time></trkpt><trkpt lat="-37.89961012607614" lon="146.0583450433134"><ele>564.0</ele><time>2026-05-06T02:25:38.999Z</time></trkpt><trkpt lat="-37.89965132943803" lon="146.05844296980823"><ele>564.0</ele><time>2026-05-06T02:25:39.999Z</time></trkpt><trkpt lat="-37.899697230088094" lon="146.05853923536083"><ele>564.0</ele><time>2026-05-06T02:25:40.999Z</time></trkpt><trkpt lat="-37.89972270171799" lon="146.05862972068036"><ele>564.0</ele><time>2026-05-06T02:25:41.998Z</time></trkpt><trkpt lat="-37.89975689237257" lon="146.05874431666894"><ele>566.8333333333334</ele><time>2026-05-06T02:25:42.998Z</time></trkpt><trkpt lat="-37.89979232763919" lon="146.05886614845033"><ele>569.6666666666666</ele><time>2026-05-06T02:25:43.998Z</time></trkpt><trkpt lat="-37.89981789418263" lon="146.05897459299374"><ele>572.5</ele><time>2026-05-06T02:25:44.998Z</time></trkpt><trkpt lat="-37.899845806513866" lon="146.05907598943477"><ele>575.3333333333333</ele><time>2026-05-06T02:25:45.998Z</time></trkpt><trkpt lat="-37.89985920509814" lon="146.0591738021645"><ele>578.1666666666666</ele><time>2026-05-06T02:25:46.998Z</time></trkpt><trkpt lat="-37.899880163191526" lon="146.05925462740896"><ele>581.0</ele><time>2026-05-06T02:25:47.998Z</time></trkpt><trkpt lat="-37.899889986720666" lon="146.0593606960557"><ele>582.8333333333333</ele><time>2026-05-06T02:25:49.998Z</time></trkpt><trkpt lat="-37.89990504857118" lon="146.0595222224777"><ele>584.6666666666666</ele><time>2026-05-06T02:25:51.998Z</time></trkpt><trkpt lat="-37.89991635461462" lon="146.0596179812738"><ele>586.5</ele><time>2026-05-06T02:25:52.998Z</time></trkpt><trkpt lat="-37.89994694740823" lon="146.0597242233506"><ele>588.3333333333334</ele><time>2026-05-06T02:25:53.998Z</time></trkpt><trkpt lat="-37.899959561680426" lon="146.0598248217976"><ele>590.1666666666667</ele><time>2026-05-06T02:25:54.998Z</time></trkpt><trkpt lat="-37.899990038037565" lon="146.05990443092665"><ele>592.0</ele><time>2026-05-06T02:25:55.998Z</time></trkpt><trkpt lat="-37.900046031688916" lon="146.05998245813157"><ele>593.8333333333334</ele><time>2026-05-06T02:25:56.998Z</time></trkpt><trkpt lat="-37.90011631963143" lon="146.06005148042883"><ele>595.6666666666667</ele><time>2026-05-06T02:25:58Z</time></trkpt><trkpt lat="-37.900178517855636" lon="146.06012999381892"><ele>597.5</ele><time>2026-05-06T02:25:59Z</time></trkpt><trkpt lat="-37.900224951799935" lon="146.06020014488965"><ele>599.3333333333334</ele><time>2026-05-06T02:26:00Z</time></trkpt><trkpt lat="-37.900257753256184" lon="146.0602742826327"><ele>601.1666666666666</ele><time>2026-05-06T02:26:01Z</time></trkpt><trkpt lat="-37.90024179076196" lon="146.06036167347023"><ele>603.0</ele><time>2026-05-06T02:26:02Z</time></trkpt><trkpt lat="-37.90023143711392" lon="146.0604500312182"><ele>603.0</ele><time>2026-05-06T02:26:03Z</time></trkpt><trkpt lat="-37.90019332714217" lon="146.06054064779408"><ele>603.0</ele><time>2026-05-06T02:26:04Z</time></trkpt><trkpt lat="-37.900135666017896" lon="146.06061373759385"><ele>603.0</ele><time>2026-05-06T02:26:05Z</time></trkpt><trkpt lat="-37.90008478605049" lon="146.0606930900231"><ele>603.0</ele><time>2026-05-06T02:26:06Z</time></trkpt><trkpt lat="-37.90000158135495" lon="146.06079693679928"><ele>603.0</ele><time>2026-05-06T02:26:08Z</time></trkpt><trkpt lat="-37.89994326833476" lon="146.0608550358602"><ele>603.0</ele><time>2026-05-06T02:26:09Z</time></trkpt><trkpt lat="-37.89988304515595" lon="146.06091867040638"><ele>601.5</ele><time>2026-05-06T02:26:10Z</time></trkpt><trkpt lat="-37.8998295391833" lon="146.06099208361994"><ele>600.0</ele><time>2026-05-06T02:26:11Z</time></trkpt><trkpt lat="-37.899774828071145" lon="146.06109149670536"><ele>598.5</ele><time>2026-05-06T02:26:12Z</time></trkpt><trkpt lat="-37.89973103905307" lon="146.06117842121287"><ele>597.0</ele><time>2026-05-06T02:26:13Z</time></trkpt><trkpt lat="-37.89967865867746" lon="146.06127889599898"><ele>595.5</ele><time>2026-05-06T02:26:14Z</time></trkpt><trkpt lat="-37.89962483754429" lon="146.06136989554258"><ele>594.0</ele><time>2026-05-06T02:26:15Z</time></trkpt><trkpt lat="-37.89957071857577" lon="146.06143849912704"><ele>594.0</ele><time>2026-05-06T02:26:16Z</time></trkpt><trkpt lat="-37.89950941539824" lon="146.0614994087787"><ele>594.0</ele><time>2026-05-06T02:26:17Z</time></trkpt><trkpt lat="-37.89942752861278" lon="146.06157828122383"><ele>594.0</ele><time>2026-05-06T02:26:18Z</time></trkpt><trkpt lat="-37.899348068488784" lon="146.06165822174046"><ele>594.0</ele><time>2026-05-06T02:26:19Z</time></trkpt><trkpt lat="-37.89925760532946" lon="146.06173780003215"><ele>594.0</ele><time>2026-05-06T02:26:20Z</time></trkpt><trkpt lat="-37.899169335557126" lon="146.06182299485926"><ele>591.5</ele><time>2026-05-06T02:26:21Z</time></trkpt><trkpt lat="-37.8990651072889" lon="146.061927745147"><ele>589.0</ele><time>2026-05-06T02:26:22Z</time></trkpt><trkpt lat="-37.89894276911662" lon="146.06200790316618"><ele>586.5</ele><time>2026-05-06T02:26:23Z</time></trkpt><trkpt lat="-37.89883968362922" lon="146.06209749495918"><ele>584.0</ele><time>2026-05-06T02:26:24Z</time></trkpt><trkpt lat="-37.898753714691274" lon="146.0621690214191"><ele>584.0</ele><time>2026-05-06T02:26:25Z</time></trkpt><trkpt lat="-37.898672828265994" lon="146.06222789219893"><ele>584.0</ele><time>2026-05-06T02:26:26Z</time></trkpt><trkpt lat="-37.89859482642587" lon="146.06225822759856"><ele>584.0</ele><time>2026-05-06T02:26:26.999Z</time></trkpt><trkpt lat="-37.89853349255207" lon="146.0622793645938"><ele>584.0</ele><time>2026-05-06T02:26:27.999Z</time></trkpt><trkpt lat="-37.898402022235366" lon="146.0622875456593"><ele>584.0</ele><time>2026-05-06T02:26:29.999Z</time></trkpt><trkpt lat="-37.89832274018174" lon="146.062267523093"><ele>583.5</ele><time>2026-05-06T02:26:30.999Z</time></trkpt><trkpt lat="-37.89823669885022" lon="146.0622004062112"><ele>583.0</ele><time>2026-05-06T02:26:31.999Z</time></trkpt><trkpt lat="-37.89815458874562" lon="146.0621398684218"><ele>582.5</ele><time>2026-05-06T02:26:32.999Z</time></trkpt><trkpt lat="-37.8980980917801" lon="146.06208772820614"><ele>582.0</ele><time>2026-05-06T02:26:33.999Z</time></trkpt><trkpt lat="-37.89803492351493" lon="146.06202543806634"><ele>581.5</ele><time>2026-05-06T02:26:34.999Z</time></trkpt><trkpt lat="-37.89796154110203" lon="146.0619397924268"><ele>581.0</ele><time>2026-05-06T02:26:35.999Z</time></trkpt><trkpt lat="-37.89790233056488" lon="146.0618258450303"><ele>581.0</ele><time>2026-05-06T02:26:36.999Z</time></trkpt><trkpt lat="-37.89783637634048" lon="146.06173173059273"><ele>581.0</ele><time>2026-05-06T02:26:37.999Z</time></trkpt><trkpt lat="-37.897757021215384" lon="146.0616762266953"><ele>581.0</ele><time>2026-05-06T02:26:38.999Z</time></trkpt><trkpt lat="-37.897697616028765" lon="146.06161800455084"><ele>581.0</ele><time>2026-05-06T02:26:39.999Z</time></trkpt><trkpt lat="-37.89762800500533" lon="146.0616134396739"><ele>581.0</ele><time>2026-05-06T02:26:40.999Z</time></trkpt><trkpt lat="-37.897491158273525" lon="146.0616136991339"><ele>580.6</ele><time>2026-05-06T02:26:42.999Z</time></trkpt><trkpt lat="-37.89742180265979" lon="146.0616490130701"><ele>580.2</ele><time>2026-05-06T02:26:43.999Z</time></trkpt><trkpt lat="-37.89734585183657" lon="146.0616960155927"><ele>579.8</ele><time>2026-05-06T02:26:44.999Z</time></trkpt><trkpt lat="-37.897238767503964" lon="146.06180172382653"><ele>579.4</ele><time>2026-05-06T02:26:46.999Z</time></trkpt><trkpt lat="-37.89717107748882" lon="146.06187898153277"><ele>579.0</ele><time>2026-05-06T02:26:47.999Z</time></trkpt><trkpt lat="-37.897118344469675" lon="146.06194759576675"><ele>579.0</ele><time>2026-05-06T02:26:48.999Z</time></trkpt><trkpt lat="-37.897084188858145" lon="146.06202782916276"><ele>579.0</ele><time>2026-05-06T02:26:49.999Z</time></trkpt><trkpt lat="-37.89706095238443" lon="146.0621108901568"><ele>579.0</ele><time>2026-05-06T02:26:50.999Z</time></trkpt><trkpt lat="-37.897012117645176" lon="146.06221293714123"><ele>579.0</ele><time>2026-05-06T02:26:51.999Z</time></trkpt><trkpt lat="-37.89698484979591" lon="146.06228681581027"><ele>579.0</ele><time>2026-05-06T02:26:52.999Z</time></trkpt><trkpt lat="-37.896910507556605" lon="146.06240358562258"><ele>579.0</ele><time>2026-05-06T02:26:54.999Z</time></trkpt><trkpt lat="-37.89683854859712" lon="146.06246544740685"><ele>577.6666666666666</ele><time>2026-05-06T02:26:55.999Z</time></trkpt><trkpt lat="-37.89678722186418" lon="146.06253771490194"><ele>576.3333333333334</ele><time>2026-05-06T02:26:56.999Z</time></trkpt><trkpt lat="-37.89673209851565" lon="146.06259822980738"><ele>575.0</ele><time>2026-05-06T02:26:57.999Z</time></trkpt><trkpt lat="-37.89669433921762" lon="146.06268068118254"><ele>573.6666666666667</ele><time>2026-05-06T02:26:58.999Z</time></trkpt><trkpt lat="-37.89667048483229" lon="146.06277229523096"><ele>572.3333333333334</ele><time>2026-05-06T02:26:59.999Z</time></trkpt><trkpt lat="-37.896653486743126" lon="146.062906478574"><ele>571.0</ele><time>2026-05-06T02:27:00.999Z</time></trkpt><trkpt lat="-37.89662619677874" lon="146.0630446277257"><ele>571.0</ele><time>2026-05-06T02:27:01.999Z</time></trkpt><trkpt lat="-37.896588230447925" lon="146.0631652726109"><ele>571.0</ele><time>2026-05-06T02:27:02.999Z</time></trkpt><trkpt lat="-37.89656554736061" lon="146.0632559664043"><ele>571.0</ele><time>2026-05-06T02:27:03.999Z</time></trkpt><trkpt lat="-37.89650984816685" lon="146.06332194996514"><ele>571.0</ele><time>2026-05-06T02:27:04.999Z</time></trkpt><trkpt lat="-37.896440979561405" lon="146.06340575912213"><ele>571.0</ele><time>2026-05-06T02:27:05.999Z</time></trkpt><trkpt lat="-37.89637985676504" lon="146.0634740088233"><ele>571.0</ele><time>2026-05-06T02:27:06.999Z</time></trkpt><trkpt lat="-37.89632075639444" lon="146.06352835463136"><ele>570.6</ele><time>2026-05-06T02:27:07.999Z</time></trkpt><trkpt lat="-37.89626063670016" lon="146.06357764211083"><ele>570.2</ele><time>2026-05-06T02:27:08.999Z</time></trkpt><trkpt lat="-37.89614693958939" lon="146.06365193799527"><ele>569.8</ele><time>2026-05-06T02:27:10.999Z</time></trkpt><trkpt lat="-37.89607300136545" lon="146.06368289743665"><ele>569.4</ele><time>2026-05-06T02:27:11.999Z</time></trkpt><trkpt lat="-37.895950428056395" lon="146.06365999610134"><ele>569.0</ele><time>2026-05-06T02:27:13.999Z</time></trkpt><trkpt lat="-37.89588386134567" lon="146.06361238203203"><ele>569.0</ele><time>2026-05-06T02:27:14.999Z</time></trkpt><trkpt lat="-37.89579472586385" lon="146.06355429914709"><ele>569.0</ele><time>2026-05-06T02:27:15.999Z</time></trkpt><trkpt lat="-37.895736261772406" lon="146.06352101418744"><ele>569.0</ele><time>2026-05-06T02:27:16.999Z</time></trkpt><trkpt lat="-37.8956334942434" lon="146.06344056301498"><ele>569.0</ele><time>2026-05-06T02:27:18.999Z</time></trkpt><trkpt lat="-37.895574099416486" lon="146.06332296469492"><ele>569.0</ele><time>2026-05-06T02:27:20.999Z</time></trkpt><trkpt lat="-37.89555325227326" lon="146.06321799904288"><ele>569.8</ele><time>2026-05-06T02:27:21.999Z</time></trkpt><trkpt lat="-37.895525698157606" lon="146.0630799296556"><ele>570.5999999999999</ele><time>2026-05-06T02:27:22.999Z</time></trkpt><trkpt lat="-37.89551008189241" lon="146.0629461724437"><ele>571.4</ele><time>2026-05-06T02:27:23.999Z</time></trkpt><trkpt lat="-37.89545483791637" lon="146.0628254646529"><ele>572.1999999999999</ele><time>2026-05-06T02:27:24.999Z</time></trkpt><trkpt lat="-37.89537260856678" lon="146.06271599209524"><ele>573.0</ele><time>2026-05-06T02:27:25.999Z</time></trkpt><trkpt lat="-37.89528487785307" lon="146.0626319673325"><ele>573.0</ele><time>2026-05-06T02:27:26.999Z</time></trkpt><trkpt lat="-37.8951830729013" lon="146.06256240597398"><ele>573.0</ele><time>2026-05-06T02:27:27.999Z</time></trkpt><trkpt lat="-37.89506891435602" lon="146.06252631380508"><ele>573.0</ele><time>2026-05-06T02:27:28.999Z</time></trkpt><trkpt lat="-37.89495005922592" lon="146.06253420058016"><ele>573.0</ele><time>2026-05-06T02:27:29.999Z</time></trkpt><trkpt lat="-37.894825155807965" lon="146.0625478478853"><ele>571.5</ele><time>2026-05-06T02:27:30.999Z</time></trkpt><trkpt lat="-37.8946980859949" lon="146.062579223794"><ele>570.0</ele><time>2026-05-06T02:27:31.999Z</time></trkpt><trkpt lat="-37.89456836866809" lon="146.0626277446323"><ele>568.5</ele><time>2026-05-06T02:27:32.999Z</time></trkpt><trkpt lat="-37.89443156124664" lon="146.0626680869579"><ele>567.0</ele><time>2026-05-06T02:27:33.999Z</time></trkpt><trkpt lat="-37.89430551021355" lon="146.0627319517629"><ele>568.5</ele><time>2026-05-06T02:27:34.999Z</time></trkpt><trkpt lat="-37.89417935216301" lon="146.0627875968492"><ele>570.0</ele><time>2026-05-06T02:27:35.999Z</time></trkpt><trkpt lat="-37.89404556231636" lon="146.06284605937398"><ele>571.5</ele><time>2026-05-06T02:27:36.999Z</time></trkpt><trkpt lat="-37.89392700667592" lon="146.06290413082303"><ele>573.0</ele><time>2026-05-06T02:27:37.999Z</time></trkpt><trkpt lat="-37.893827500825324" lon="146.06295246990229"><ele>573.0</ele><time>2026-05-06T02:27:38.998Z</time></trkpt><trkpt lat="-37.8937180841243" lon="146.06299571071688"><ele>573.0</ele><time>2026-05-06T02:27:39.998Z</time></trkpt><trkpt lat="-37.893587471053486" lon="146.06302355388203"><ele>573.0</ele><time>2026-05-06T02:27:40.998Z</time></trkpt><trkpt lat="-37.89345754293366" lon="146.0630887886383"><ele>573.0</ele><time>2026-05-06T02:27:41.998Z</time></trkpt><trkpt lat="-37.89332567255474" lon="146.06311991835855"><ele>572.75</ele><time>2026-05-06T02:27:42.998Z</time></trkpt><trkpt lat="-37.89320368819687" lon="146.063143929887"><ele>572.5</ele><time>2026-05-06T02:27:43.998Z</time></trkpt><trkpt lat="-37.893075440809184" lon="146.06313226892195"><ele>572.25</ele><time>2026-05-06T02:27:44.998Z</time></trkpt><trkpt lat="-37.892941177291554" lon="146.06312501198943"><ele>572.0</ele><time>2026-05-06T02:27:45.998Z</time></trkpt><trkpt lat="-37.89280303270189" lon="146.06310634386003"><ele>572.0</ele><time>2026-05-06T02:27:46.998Z</time></trkpt><trkpt lat="-37.892664515734225" lon="146.06307760179905"><ele>572.0</ele><time>2026-05-06T02:27:47.998Z</time></trkpt><trkpt lat="-37.89253060994309" lon="146.06302039953528"><ele>572.0</ele><time>2026-05-06T02:27:48.998Z</time></trkpt><trkpt lat="-37.89240217683697" lon="146.06293318933402"><ele>572.0</ele><time>2026-05-06T02:27:49.998Z</time></trkpt><trkpt lat="-37.89229108254759" lon="146.06282506252344"><ele>570.3333333333333</ele><time>2026-05-06T02:27:50.998Z</time></trkpt><trkpt lat="-37.89217590492055" lon="146.06270987095235"><ele>568.6666666666666</ele><time>2026-05-06T02:27:51.998Z</time></trkpt><trkpt lat="-37.892056067813634" lon="146.06259193045884"><ele>567.0</ele><time>2026-05-06T02:27:52.998Z</time></trkpt><trkpt lat="-37.89192687335929" lon="146.06248122091483"><ele>566.6666666666666</ele><time>2026-05-06T02:27:53.998Z</time></trkpt><trkpt lat="-37.89178437633166" lon="146.0624091994231"><ele>566.3333333333333</ele><time>2026-05-06T02:27:54.998Z</time></trkpt><trkpt lat="-37.89164480019948" lon="146.06232146406026"><ele>566.0</ele><time>2026-05-06T02:27:55.998Z</time></trkpt><trkpt lat="-37.89150132212317" lon="146.06225598543003"><ele>567.0</ele><time>2026-05-06T02:27:56.998Z</time></trkpt><trkpt lat="-37.89136360366716" lon="146.06219442449583"><ele>568.0</ele><time>2026-05-06T02:27:57.998Z</time></trkpt><trkpt lat="-37.89122253486028" lon="146.06214051010107"><ele>569.0</ele><time>2026-05-06T02:27:58.998Z</time></trkpt><trkpt lat="-37.8910839522887" lon="146.0620609030021"><ele>570.0</ele><time>2026-05-06T02:27:59.998Z</time></trkpt><trkpt lat="-37.890946339403094" lon="146.06198739839343"><ele>570.3333333333334</ele><time>2026-05-06T02:28:00.998Z</time></trkpt><trkpt lat="-37.89080673677212" lon="146.06189968595933"><ele>570.6666666666667</ele><time>2026-05-06T02:28:01.998Z</time></trkpt><trkpt lat="-37.890678000705584" lon="146.06181948898558"><ele>571.0</ele><time>2026-05-06T02:28:02.998Z</time></trkpt><trkpt lat="-37.89052820460685" lon="146.06173754896167"><ele>571.0</ele><time>2026-05-06T02:28:04Z</time></trkpt><trkpt lat="-37.89039802137145" lon="146.0616665579399"><ele>571.0</ele><time>2026-05-06T02:28:05Z</time></trkpt><trkpt lat="-37.89025682038032" lon="146.06159472469338"><ele>571.0</ele><time>2026-05-06T02:28:06Z</time></trkpt><trkpt lat="-37.89011455352876" lon="146.06153873875564"><ele>571.0</ele><time>2026-05-06T02:28:07Z</time></trkpt><trkpt lat="-37.889975763756425" lon="146.06151690359823"><ele>568.3333333333334</ele><time>2026-05-06T02:28:08Z</time></trkpt><trkpt lat="-37.88983730142805" lon="146.06152478287459"><ele>565.6666666666666</ele><time>2026-05-06T02:28:09Z</time></trkpt><trkpt lat="-37.88968506379099" lon="146.06155909290754"><ele>563.0</ele><time>2026-05-06T02:28:10Z</time></trkpt><trkpt lat="-37.88951831733574" lon="146.06161848875337"><ele>563.0</ele><time>2026-05-06T02:28:11Z</time></trkpt><trkpt lat="-37.889339222230404" lon="146.06168101237907"><ele>563.0</ele><time>2026-05-06T02:28:12Z</time></trkpt><trkpt lat="-37.88917612922106" lon="146.06172633994566"><ele>563.0</ele><time>2026-05-06T02:28:13Z</time></trkpt><trkpt lat="-37.88901356710493" lon="146.06177300414603"><ele>559.3333333333333</ele><time>2026-05-06T02:28:14Z</time></trkpt><trkpt lat="-37.88886938680309" lon="146.06181791572118"><ele>555.6666666666666</ele><time>2026-05-06T02:28:15Z</time></trkpt><trkpt lat="-37.88872924538674" lon="146.0618649240074"><ele>552.0</ele><time>2026-05-06T02:28:16Z</time></trkpt><trkpt lat="-37.888574747551104" lon="146.06191422492014"><ele>552.0</ele><time>2026-05-06T02:28:17Z</time></trkpt><trkpt lat="-37.888435868445356" lon="146.06193254650117"><ele>552.0</ele><time>2026-05-06T02:28:18Z</time></trkpt><trkpt lat="-37.88829772411296" lon="146.06196909280445"><ele>552.0</ele><time>2026-05-06T02:28:19Z</time></trkpt><trkpt lat="-37.888154119007226" lon="146.06202781767686"><ele>552.0</ele><time>2026-05-06T02:28:20Z</time></trkpt><trkpt lat="-37.88800735764869" lon="146.0620347809897"><ele>552.25</ele><time>2026-05-06T02:28:21Z</time></trkpt><trkpt lat="-37.88787016303599" lon="146.06198076493155"><ele>552.5</ele><time>2026-05-06T02:28:22Z</time></trkpt><trkpt lat="-37.88774491258349" lon="146.06192403502442"><ele>552.75</ele><time>2026-05-06T02:28:23Z</time></trkpt><trkpt lat="-37.887612682256915" lon="146.0618769932425"><ele>553.0</ele><time>2026-05-06T02:28:24Z</time></trkpt><trkpt lat="-37.88750656353522" lon="146.06180788295515"><ele>553.0</ele><time>2026-05-06T02:28:25Z</time></trkpt><trkpt lat="-37.88741235012778" lon="146.06176257971148"><ele>553.0</ele><time>2026-05-06T02:28:26Z</time></trkpt><trkpt lat="-37.887321831892145" lon="146.06172307359154"><ele>553.0</ele><time>2026-05-06T02:28:27Z</time></trkpt><trkpt lat="-37.88723909484124" lon="146.06167663338428"><ele>553.0</ele><time>2026-05-06T02:28:28Z</time></trkpt><trkpt lat="-37.887168585591866" lon="146.06163213809992"><ele>553.0</ele><time>2026-05-06T02:28:29Z</time></trkpt><trkpt lat="-37.887069406146956" lon="146.06157659674687"><ele>553.8</ele><time>2026-05-06T02:28:31Z</time></trkpt><trkpt lat="-37.886954717521945" lon="146.06150775124124"><ele>554.5999999999999</ele><time>2026-05-06T02:28:32.999Z</time></trkpt><trkpt lat="-37.886872052579456" lon="146.06145842329497"><ele>555.4000000000001</ele><time>2026-05-06T02:28:33.999Z</time></trkpt><trkpt lat="-37.886788246071" lon="146.0614051611307"><ele>556.2</ele><time>2026-05-06T02:28:34.999Z</time></trkpt><trkpt lat="-37.88670116044364" lon="146.06134356127723"><ele>557.0</ele><time>2026-05-06T02:28:35.999Z</time></trkpt><trkpt lat="-37.88661894250713" lon="146.06129144769918"><ele>557.0</ele><time>2026-05-06T02:28:36.999Z</time></trkpt><trkpt lat="-37.88654450341808" lon="146.06124621295413"><ele>557.0</ele><time>2026-05-06T02:28:37.999Z</time></trkpt><trkpt lat="-37.8864685832945" lon="146.061188685109"><ele>557.0</ele><time>2026-05-06T02:28:38.999Z</time></trkpt><trkpt lat="-37.88639916462198" lon="146.0611716322546"><ele>557.0</ele><time>2026-05-06T02:28:39.999Z</time></trkpt><trkpt lat="-37.88630131927885" lon="146.0611352752306"><ele>557.0</ele><time>2026-05-06T02:28:41.999Z</time></trkpt><trkpt lat="-37.8862483330179" lon="146.0609733888973"><ele>557.0</ele><time>2026-05-06T02:28:44.999Z</time></trkpt><trkpt lat="-37.886238265424836" lon="146.0608418009785"><ele>557.0</ele><time>2026-05-06T02:28:45.999Z</time></trkpt><trkpt lat="-37.88623670227549" lon="146.0606805251723"><ele>557.0</ele><time>2026-05-06T02:28:46.999Z</time></trkpt><trkpt lat="-37.88623137092875" lon="146.0605192881717"><ele>557.0</ele><time>2026-05-06T02:28:47.999Z</time></trkpt><trkpt lat="-37.886217212726756" lon="146.0603261895867"><ele>557.0</ele><time>2026-05-06T02:28:48.999Z</time></trkpt><trkpt lat="-37.886196404138076" lon="146.06011892580264"><ele>557.0</ele><time>2026-05-06T02:28:49.999Z</time></trkpt><trkpt lat="-37.886169708707676" lon="146.05989292709336"><ele>557.0</ele><time>2026-05-06T02:28:50.999Z</time></trkpt><trkpt lat="-37.88614251512431" lon="146.05964199093833"><ele>554.3333333333333</ele><time>2026-05-06T02:28:51.999Z</time></trkpt><trkpt lat="-37.88612061907911" lon="146.05941429815886"><ele>551.6666666666666</ele><time>2026-05-06T02:28:52.999Z</time></trkpt><trkpt lat="-37.88609963290134" lon="146.05918454333045"><ele>549.0</ele><time>2026-05-06T02:28:53.999Z</time></trkpt><trkpt lat="-37.886080899295635" lon="146.0589898459215"><ele>546.3333333333334</ele><time>2026-05-06T02:28:54.999Z</time></trkpt><trkpt lat="-37.88605235906653" lon="146.05878640998577"><ele>543.6666666666667</ele><time>2026-05-06T02:28:55.999Z</time></trkpt><trkpt lat="-37.886026705618335" lon="146.05857286890114"><ele>541.0</ele><time>2026-05-06T02:28:56.999Z</time></trkpt><trkpt lat="-37.88600894016467" lon="146.058383321038"><ele>538.6666666666667</ele><time>2026-05-06T02:28:57.999Z</time></trkpt><trkpt lat="-37.885993268949875" lon="146.05818602459868"><ele>536.3333333333334</ele><time>2026-05-06T02:28:58.999Z</time></trkpt><trkpt lat="-37.88596467773237" lon="146.05798525851816"><ele>534.0</ele><time>2026-05-06T02:28:59.999Z</time></trkpt><trkpt lat="-37.88594464943538" lon="146.05779581075362"><ele>536.3333333333334</ele><time>2026-05-06T02:29:00.999Z</time></trkpt><trkpt lat="-37.88592835847831" lon="146.0576041508519"><ele>538.6666666666667</ele><time>2026-05-06T02:29:01.999Z</time></trkpt><trkpt lat="-37.88589889564454" lon="146.05739341367982"><ele>541.0</ele><time>2026-05-06T02:29:02.999Z</time></trkpt><trkpt lat="-37.88587946476045" lon="146.05718967526983"><ele>541.0</ele><time>2026-05-06T02:29:03.999Z</time></trkpt><trkpt lat="-37.885859072875604" lon="146.056991307394"><ele>541.0</ele><time>2026-05-06T02:29:04.999Z</time></trkpt><trkpt lat="-37.885825199268794" lon="146.05678634321487"><ele>541.0</ele><time>2026-05-06T02:29:05.999Z</time></trkpt><trkpt lat="-37.88581092262399" lon="146.05658093201544"><ele>539.0</ele><time>2026-05-06T02:29:06.999Z</time></trkpt><trkpt lat="-37.885788003592346" lon="146.05637698447055"><ele>537.0</ele><time>2026-05-06T02:29:07.999Z</time></trkpt><trkpt lat="-37.88577204126605" lon="146.05618697462262"><ele>535.0</ele><time>2026-05-06T02:29:08.999Z</time></trkpt><trkpt lat="-37.8857496568292" lon="146.056000070523"><ele>535.0</ele><time>2026-05-06T02:29:09.999Z</time></trkpt><trkpt lat="-37.885725920035945" lon="146.05581604408582"><ele>535.0</ele><time>2026-05-06T02:29:10.999Z</time></trkpt><trkpt lat="-37.88570754514484" lon="146.05561948555345"><ele>535.0</ele><time>2026-05-06T02:29:11.999Z</time></trkpt><trkpt lat="-37.88568067770093" lon="146.0554140470292"><ele>534.0</ele><time>2026-05-06T02:29:12.999Z</time></trkpt><trkpt lat="-37.8856650853396" lon="146.05520698573972"><ele>533.0</ele><time>2026-05-06T02:29:13.999Z</time></trkpt><trkpt lat="-37.88565490219635" lon="146.0550123882883"><ele>532.0</ele><time>2026-05-06T02:29:14.999Z</time></trkpt><trkpt lat="-37.885632968315356" lon="146.05482337059362"><ele>530.3333333333334</ele><time>2026-05-06T02:29:15.999Z</time></trkpt><trkpt lat="-37.88561468365852" lon="146.05462816661802"><ele>528.6666666666666</ele><time>2026-05-06T02:29:16.999Z</time></trkpt><trkpt lat="-37.88559350435367" lon="146.05442812433154"><ele>527.0</ele><time>2026-05-06T02:29:17.999Z</time></trkpt><trkpt lat="-37.885580220107364" lon="146.05423052133892"><ele>524.6666666666666</ele><time>2026-05-06T02:29:18.999Z</time></trkpt><trkpt lat="-37.88558553246774" lon="146.05402911950748"><ele>522.3333333333334</ele><time>2026-05-06T02:29:19.999Z</time></trkpt><trkpt lat="-37.88558899085848" lon="146.0538341751401"><ele>520.0</ele><time>2026-05-06T02:29:20.999Z</time></trkpt><trkpt lat="-37.88557526481961" lon="146.05362965655902"><ele>520.0</ele><time>2026-05-06T02:29:21.999Z</time></trkpt><trkpt lat="-37.88556025283781" lon="146.05345719946905"><ele>520.0</ele><time>2026-05-06T02:29:22.999Z</time></trkpt><trkpt lat="-37.885576819038604" lon="146.05324285057708"><ele>520.0</ele><time>2026-05-06T02:29:23.999Z</time></trkpt><trkpt lat="-37.88557880471519" lon="146.0530464364307"><ele>517.6666666666667</ele><time>2026-05-06T02:29:24.999Z</time></trkpt><trkpt lat="-37.885588007628606" lon="146.05284045531454"><ele>515.3333333333334</ele><time>2026-05-06T02:29:25.999Z</time></trkpt><trkpt lat="-37.88558557038726" lon="146.05264489656423"><ele>513.0</ele><time>2026-05-06T02:29:26.999Z</time></trkpt><trkpt lat="-37.88557582292489" lon="146.05245487167173"><ele>510.0</ele><time>2026-05-06T02:29:27.999Z</time></trkpt><trkpt lat="-37.88557858956416" lon="146.05225249744493"><ele>507.0</ele><time>2026-05-06T02:29:28.999Z</time></trkpt><trkpt lat="-37.88557952013338" lon="146.05205108670174"><ele>504.0</ele><time>2026-05-06T02:29:29.999Z</time></trkpt><trkpt lat="-37.885583559944806" lon="146.05185547645087"><ele>504.0</ele><time>2026-05-06T02:29:30.999Z</time></trkpt><trkpt lat="-37.88557298278217" lon="146.05165642628862"><ele>504.0</ele><time>2026-05-06T02:29:31.999Z</time></trkpt><trkpt lat="-37.885582714746384" lon="146.0514703214912"><ele>504.0</ele><time>2026-05-06T02:29:32.999Z</time></trkpt><trkpt lat="-37.885589212733656" lon="146.0512826078324"><ele>501.66666666666663</ele><time>2026-05-06T02:29:33.999Z</time></trkpt><trkpt lat="-37.88561661026059" lon="146.05110400996116"><ele>499.3333333333333</ele><time>2026-05-06T02:29:34.999Z</time></trkpt><trkpt lat="-37.88567387202049" lon="146.05092063909223"><ele>497.0</ele><time>2026-05-06T02:29:35.999Z</time></trkpt><trkpt lat="-37.88572328572488" lon="146.05074054167312"><ele>495.0</ele><time>2026-05-06T02:29:36.999Z</time></trkpt><trkpt lat="-37.8857741925965" lon="146.05056614158906"><ele>493.0</ele><time>2026-05-06T02:29:37.999Z</time></trkpt><trkpt lat="-37.88582657605006" lon="146.05037555873855"><ele>491.0</ele><time>2026-05-06T02:29:38.999Z</time></trkpt><trkpt lat="-37.88587181804538" lon="146.05020237744068"><ele>491.0</ele><time>2026-05-06T02:29:39.999Z</time></trkpt><trkpt lat="-37.88592027172294" lon="146.0500208708282"><ele>491.0</ele><time>2026-05-06T02:29:40.999Z</time></trkpt><trkpt lat="-37.88595846049842" lon="146.04983011665658"><ele>491.0</ele><time>2026-05-06T02:29:41.999Z</time></trkpt><trkpt lat="-37.88598636846487" lon="146.04965508006435"><ele>491.0</ele><time>2026-05-06T02:29:42.999Z</time></trkpt><trkpt lat="-37.8859909574837" lon="146.04947114824932"><ele>486.0</ele><time>2026-05-06T02:29:43.999Z</time></trkpt><trkpt lat="-37.88598803415397" lon="146.04928358250132"><ele>481.0</ele><time>2026-05-06T02:29:44.998Z</time></trkpt><trkpt lat="-37.88596509087184" lon="146.04909096888255"><ele>476.0</ele><time>2026-05-06T02:29:45.998Z</time></trkpt><trkpt lat="-37.88593602669145" lon="146.04890240575284"><ele>476.66666666666663</ele><time>2026-05-06T02:29:46.998Z</time></trkpt><trkpt lat="-37.88589684426947" lon="146.04870010577042"><ele>477.33333333333337</ele><time>2026-05-06T02:29:47.998Z</time></trkpt><trkpt lat="-37.885861394019855" lon="146.04851664034084"><ele>478.0</ele><time>2026-05-06T02:29:48.998Z</time></trkpt><trkpt lat="-37.88582500266452" lon="146.04832102972154"><ele>475.75</ele><time>2026-05-06T02:29:49.998Z</time></trkpt><trkpt lat="-37.88579403040342" lon="146.04812693806468"><ele>473.5</ele><time>2026-05-06T02:29:50.998Z</time></trkpt><trkpt lat="-37.88575685996775" lon="146.047937105843"><ele>471.25</ele><time>2026-05-06T02:29:51.998Z</time></trkpt><trkpt lat="-37.88573901128429" lon="146.04776366039863"><ele>469.0</ele><time>2026-05-06T02:29:52.998Z</time></trkpt><trkpt lat="-37.88572282355081" lon="146.04757779906322"><ele>468.33333333333337</ele><time>2026-05-06T02:29:53.998Z</time></trkpt><trkpt lat="-37.88573587410348" lon="146.0473835936326"><ele>467.66666666666663</ele><time>2026-05-06T02:29:54.998Z</time></trkpt><trkpt lat="-37.88576386662392" lon="146.04717808476522"><ele>467.0</ele><time>2026-05-06T02:29:55.998Z</time></trkpt><trkpt lat="-37.88580148660612" lon="146.0469809656911"><ele>467.0</ele><time>2026-05-06T02:29:56.998Z</time></trkpt><trkpt lat="-37.88585770955409" lon="146.04679691987482"><ele>467.0</ele><time>2026-05-06T02:29:57.998Z</time></trkpt><trkpt lat="-37.885919855535555" lon="146.04662092460802"><ele>467.0</ele><time>2026-05-06T02:29:58.998Z</time></trkpt><trkpt lat="-37.88598069658424" lon="146.04645740823267"><ele>467.25</ele><time>2026-05-06T02:29:59.998Z</time></trkpt><trkpt lat="-37.88603323979976" lon="146.04628524752164"><ele>467.5</ele><time>2026-05-06T02:30:00.998Z</time></trkpt><trkpt lat="-37.88607052482476" lon="146.04610427748452"><ele>467.75</ele><time>2026-05-06T02:30:01.998Z</time></trkpt><trkpt lat="-37.88609547898206" lon="146.04592413544452"><ele>468.0</ele><time>2026-05-06T02:30:02.998Z</time></trkpt><trkpt lat="-37.88610576308725" lon="146.04574783939168"><ele>468.0</ele><time>2026-05-06T02:30:03.998Z</time></trkpt><trkpt lat="-37.886105028549856" lon="146.04557069638494"><ele>468.0</ele><time>2026-05-06T02:30:04.998Z</time></trkpt><trkpt lat="-37.886095529210145" lon="146.04539848761425"><ele>468.0</ele><time>2026-05-06T02:30:05.998Z</time></trkpt><trkpt lat="-37.88608219987727" lon="146.0452234504553"><ele>468.0</ele><time>2026-05-06T02:30:06.998Z</time></trkpt><trkpt lat="-37.88606931843928" lon="146.04504916746143"><ele>461.5</ele><time>2026-05-06T02:30:07.998Z</time></trkpt><trkpt lat="-37.88607157791125" lon="146.0448710861885"><ele>455.0</ele><time>2026-05-06T02:30:08.998Z</time></trkpt><trkpt lat="-37.886094363636595" lon="146.04469764111994"><ele>448.5</ele><time>2026-05-06T02:30:10Z</time></trkpt><trkpt lat="-37.88614132074724" lon="146.04454063183528"><ele>442.0</ele><time>2026-05-06T02:30:11Z</time></trkpt><trkpt lat="-37.88622146178995" lon="146.04440851147268"><ele>442.0</ele><time>2026-05-06T02:30:12Z</time></trkpt><trkpt lat="-37.88634075284729" lon="146.04428178851165"><ele>442.0</ele><time>2026-05-06T02:30:13Z</time></trkpt><trkpt lat="-37.8864772967258" lon="146.04417237094773"><ele>442.0</ele><time>2026-05-06T02:30:14Z</time></trkpt><trkpt lat="-37.88661238987085" lon="146.04408708799428"><ele>444.5</ele><time>2026-05-06T02:30:15Z</time></trkpt><trkpt lat="-37.88674127127939" lon="146.0439988733495"><ele>447.0</ele><time>2026-05-06T02:30:16Z</time></trkpt><trkpt lat="-37.88687000508197" lon="146.04390409717016"><ele>449.5</ele><time>2026-05-06T02:30:17Z</time></trkpt><trkpt lat="-37.88698583781893" lon="146.04379246141593"><ele>452.0</ele><time>2026-05-06T02:30:18Z</time></trkpt><trkpt lat="-37.8870866680049" lon="146.04367750188587"><ele>452.0</ele><time>2026-05-06T02:30:19Z</time></trkpt><trkpt lat="-37.88717411789575" lon="146.0435536047055"><ele>452.0</ele><time>2026-05-06T02:30:20Z</time></trkpt><trkpt lat="-37.88726010928963" lon="146.04341499147822"><ele>452.0</ele><time>2026-05-06T02:30:21Z</time></trkpt><trkpt lat="-37.88733379413706" lon="146.04325811265514"><ele>452.0</ele><time>2026-05-06T02:30:22Z</time></trkpt><trkpt lat="-37.88734365796189" lon="146.04309274599444"><ele>448.66666666666663</ele><time>2026-05-06T02:30:23Z</time></trkpt><trkpt lat="-37.88733755463764" lon="146.04291312380101"><ele>445.33333333333337</ele><time>2026-05-06T02:30:24Z</time></trkpt><trkpt lat="-37.887307863448136" lon="146.04271644934127"><ele>442.0</ele><time>2026-05-06T02:30:25Z</time></trkpt><trkpt lat="-37.88726969784964" lon="146.04251134760864"><ele>444.6666666666667</ele><time>2026-05-06T02:30:26Z</time></trkpt><trkpt lat="-37.88722360787297" lon="146.0423067508462"><ele>447.33333333333337</ele><time>2026-05-06T02:30:27Z</time></trkpt><trkpt lat="-37.88718615865124" lon="146.04210882399062"><ele>450.0</ele><time>2026-05-06T02:30:28Z</time></trkpt><trkpt lat="-37.8871428199598" lon="146.04191531952515"><ele>450.0</ele><time>2026-05-06T02:30:29Z</time></trkpt><trkpt lat="-37.88709874160125" lon="146.04172140162237"><ele>450.0</ele><time>2026-05-06T02:30:30Z</time></trkpt><trkpt lat="-37.887062580523704" lon="146.04153581040435"><ele>450.0</ele><time>2026-05-06T02:30:31Z</time></trkpt><trkpt lat="-37.887023115046254" lon="146.041345036601"><ele>450.25</ele><time>2026-05-06T02:30:32Z</time></trkpt><trkpt lat="-37.88697537970765" lon="146.041157976762"><ele>450.5</ele><time>2026-05-06T02:30:33Z</time></trkpt><trkpt lat="-37.88694331950704" lon="146.04098748546753"><ele>450.75</ele><time>2026-05-06T02:30:34Z</time></trkpt><trkpt lat="-37.886905839767486" lon="146.0408137799277"><ele>451.0</ele><time>2026-05-06T02:30:35Z</time></trkpt><trkpt lat="-37.886872431272515" lon="146.0406345215198"><ele>447.25</ele><time>2026-05-06T02:30:36Z</time></trkpt><trkpt lat="-37.88684740489398" lon="146.04045036526185"><ele>443.5</ele><time>2026-05-06T02:30:37Z</time></trkpt><trkpt lat="-37.886831918680706" lon="146.0402627060317"><ele>439.75</ele><time>2026-05-06T02:30:37.999Z</time></trkpt><trkpt lat="-37.886820466364945" lon="146.0400752181776"><ele>436.0</ele><time>2026-05-06T02:30:38.999Z</time></trkpt><trkpt lat="-37.886821318950055" lon="146.03988196022516"><ele>425.33333333333337</ele><time>2026-05-06T02:30:39.999Z</time></trkpt><trkpt lat="-37.88683406332684" lon="146.0397010547769"><ele>414.66666666666663</ele><time>2026-05-06T02:30:40.999Z</time></trkpt><trkpt lat="-37.88685272429754" lon="146.03949922440685"><ele>404.0</ele><time>2026-05-06T02:30:41.999Z</time></trkpt><trkpt lat="-37.886899246316865" lon="146.0393130760929"><ele>404.0</ele><time>2026-05-06T02:30:42.999Z</time></trkpt><trkpt lat="-37.88696962637196" lon="146.03914936754825"><ele>404.0</ele><time>2026-05-06T02:30:43.999Z</time></trkpt><trkpt lat="-37.88706293421769" lon="146.03899615001663"><ele>404.0</ele><time>2026-05-06T02:30:44.999Z</time></trkpt><trkpt lat="-37.8871735074134" lon="146.03887355068673"><ele>404.0</ele><time>2026-05-06T02:30:45.999Z</time></trkpt><trkpt lat="-37.887300837563814" lon="146.0387682857722"><ele>397.5</ele><time>2026-05-06T02:30:46.999Z</time></trkpt><trkpt lat="-37.887433614552364" lon="146.03870218861195"><ele>391.0</ele><time>2026-05-06T02:30:47.999Z</time></trkpt><trkpt lat="-37.88758139487146" lon="146.03866016133364"><ele>384.5</ele><time>2026-05-06T02:30:48.999Z</time></trkpt><trkpt lat="-37.88773179560537" lon="146.0386512841732"><ele>378.0</ele><time>2026-05-06T02:30:49.999Z</time></trkpt><trkpt lat="-37.88787844135807" lon="146.0386497786313"><ele>378.0</ele><time>2026-05-06T02:30:50.999Z</time></trkpt><trkpt lat="-37.888013380760036" lon="146.03866633494692"><ele>378.0</ele><time>2026-05-06T02:30:51.999Z</time></trkpt><trkpt lat="-37.88813187938313" lon="146.0386828103803"><ele>378.0</ele><time>2026-05-06T02:30:52.999Z</time></trkpt><trkpt lat="-37.88824285961102" lon="146.03867596813038"><ele>378.0</ele><time>2026-05-06T02:30:53.999Z</time></trkpt><trkpt lat="-37.888344132015725" lon="146.0386143033293"><ele>388.25</ele><time>2026-05-06T02:30:54.999Z</time></trkpt><trkpt lat="-37.88842794371178" lon="146.03850035852918"><ele>398.5</ele><time>2026-05-06T02:30:55.999Z</time></trkpt><trkpt lat="-37.888488104996455" lon="146.03836904845883"><ele>408.75</ele><time>2026-05-06T02:30:56.999Z</time></trkpt><trkpt lat="-37.88851446869832" lon="146.03821017749664"><ele>419.0</ele><time>2026-05-06T02:30:57.999Z</time></trkpt><trkpt lat="-37.888506462182264" lon="146.03803655110676"><ele>419.0</ele><time>2026-05-06T02:30:58.999Z</time></trkpt><trkpt lat="-37.888470213135975" lon="146.03787043297916"><ele>419.0</ele><time>2026-05-06T02:30:59.999Z</time></trkpt><trkpt lat="-37.88841909157692" lon="146.03768852718753"><ele>419.0</ele><time>2026-05-06T02:31:00.999Z</time></trkpt><trkpt lat="-37.888380148140634" lon="146.03750667070355"><ele>419.0</ele><time>2026-05-06T02:31:01.999Z</time></trkpt><trkpt lat="-37.888379706565956" lon="146.03732976745422"><ele>414.0</ele><time>2026-05-06T02:31:02.999Z</time></trkpt><trkpt lat="-37.888396519111936" lon="146.0371467188056"><ele>409.0</ele><time>2026-05-06T02:31:03.999Z</time></trkpt><trkpt lat="-37.8884680903905" lon="146.03696761835693"><ele>404.0</ele><time>2026-05-06T02:31:04.999Z</time></trkpt><trkpt lat="-37.88855663266882" lon="146.03675492830268"><ele>396.0</ele><time>2026-05-06T02:31:05.999Z</time></trkpt><trkpt lat="-37.8886321555816" lon="146.0365312528975"><ele>388.0</ele><time>2026-05-06T02:31:06.999Z</time></trkpt><trkpt lat="-37.888716511750886" lon="146.03632626913316"><ele>380.0</ele><time>2026-05-06T02:31:07.999Z</time></trkpt><trkpt lat="-37.88878237519122" lon="146.03614251593146"><ele>380.0</ele><time>2026-05-06T02:31:08.999Z</time></trkpt><trkpt lat="-37.888855574781914" lon="146.03593944230883"><ele>380.0</ele><time>2026-05-06T02:31:09.999Z</time></trkpt><trkpt lat="-37.88893242929164" lon="146.03577025454584"><ele>380.0</ele><time>2026-05-06T02:31:10.999Z</time></trkpt><trkpt lat="-37.88894786401104" lon="146.0355670661175"><ele>373.5</ele><time>2026-05-06T02:31:11.999Z</time></trkpt><trkpt lat="-37.888977596200974" lon="146.03538052611495"><ele>367.0</ele><time>2026-05-06T02:31:12.999Z</time></trkpt><trkpt lat="-37.88899718224313" lon="146.03519951485703"><ele>360.5</ele><time>2026-05-06T02:31:13.999Z</time></trkpt><trkpt lat="-37.88902953443938" lon="146.03502841051312"><ele>354.0</ele><time>2026-05-06T02:31:14.999Z</time></trkpt><trkpt lat="-37.88908295019103" lon="146.03487071323704"><ele>354.25</ele><time>2026-05-06T02:31:15.999Z</time></trkpt><trkpt lat="-37.88918650686914" lon="146.03475810234244"><ele>354.5</ele><time>2026-05-06T02:31:16.999Z</time></trkpt><trkpt lat="-37.88929467091372" lon="146.03466779044803"><ele>354.75</ele><time>2026-05-06T02:31:17.999Z</time></trkpt><trkpt lat="-37.889432808195224" lon="146.0346020421143"><ele>355.0</ele><time>2026-05-06T02:31:18.999Z</time></trkpt><trkpt lat="-37.889577235208165" lon="146.03456125437486"><ele>355.0</ele><time>2026-05-06T02:31:19.999Z</time></trkpt><trkpt lat="-37.889707608977176" lon="146.03451393182343"><ele>355.0</ele><time>2026-05-06T02:31:20.999Z</time></trkpt><trkpt lat="-37.88980797826607" lon="146.03443545641295"><ele>355.0</ele><time>2026-05-06T02:31:21.999Z</time></trkpt><trkpt lat="-37.88988611514721" lon="146.0343498641984"><ele>355.0</ele><time>2026-05-06T02:31:22.999Z</time></trkpt><trkpt lat="-37.88993628416232" lon="146.03422002604933"><ele>348.0</ele><time>2026-05-06T02:31:23.999Z</time></trkpt><trkpt lat="-37.88996288358537" lon="146.03404198080585"><ele>341.0</ele><time>2026-05-06T02:31:24.999Z</time></trkpt><trkpt lat="-37.889967723292045" lon="146.03384501787974"><ele>334.0</ele><time>2026-05-06T02:31:25.999Z</time></trkpt><trkpt lat="-37.88997251376352" lon="146.0336444938687"><ele>334.0</ele><time>2026-05-06T02:31:26.999Z</time></trkpt><trkpt lat="-37.88998508348168" lon="146.0334581409625"><ele>334.0</ele><time>2026-05-06T02:31:27.999Z</time></trkpt><trkpt lat="-37.889998389980406" lon="146.0332810260028"><ele>334.0</ele><time>2026-05-06T02:31:28.999Z</time></trkpt><trkpt lat="-37.89000985975637" lon="146.0331151531674"><ele>334.0</ele><time>2026-05-06T02:31:29.999Z</time></trkpt><trkpt lat="-37.89002632997036" lon="146.03295511282047"><ele>329.25</ele><time>2026-05-06T02:31:30.999Z</time></trkpt><trkpt lat="-37.89008469225142" lon="146.0328156489209"><ele>324.5</ele><time>2026-05-06T02:31:31.999Z</time></trkpt><trkpt lat="-37.89016437542179" lon="146.0326888890062"><ele>319.75</ele><time>2026-05-06T02:31:32.999Z</time></trkpt><trkpt lat="-37.890279436991555" lon="146.03259173044754"><ele>315.0</ele><time>2026-05-06T02:31:33.999Z</time></trkpt><trkpt lat="-37.89041105224025" lon="146.03249265825238"><ele>312.5</ele><time>2026-05-06T02:31:34.999Z</time></trkpt><trkpt lat="-37.890535436978126" lon="146.0324358249629"><ele>310.0</ele><time>2026-05-06T02:31:35.999Z</time></trkpt><trkpt lat="-37.890676961238256" lon="146.0323969439841"><ele>307.5</ele><time>2026-05-06T02:31:36.999Z</time></trkpt><trkpt lat="-37.89081829497941" lon="146.03238164343216"><ele>305.0</ele><time>2026-05-06T02:31:37.999Z</time></trkpt><trkpt lat="-37.89095978991311" lon="146.03238029229314"><ele>305.0</ele><time>2026-05-06T02:31:38.999Z</time></trkpt><trkpt lat="-37.891091500319824" lon="146.03237158091227"><ele>305.0</ele><time>2026-05-06T02:31:39.999Z</time></trkpt><trkpt lat="-37.89122313370547" lon="146.03234123814823"><ele>305.0</ele><time>2026-05-06T02:31:40.999Z</time></trkpt><trkpt lat="-37.891346586432455" lon="146.0322833937716"><ele>305.0</ele><time>2026-05-06T02:31:41.999Z</time></trkpt><trkpt lat="-37.89146638037118" lon="146.03219298478328"><ele>305.0</ele><time>2026-05-06T02:31:42.999Z</time></trkpt><trkpt lat="-37.891562895476866" lon="146.0320728487507"><ele>305.0</ele><time>2026-05-06T02:31:43.999Z</time></trkpt><trkpt lat="-37.891639955572" lon="146.03192394197603"><ele>305.0</ele><time>2026-05-06T02:31:44.999Z</time></trkpt><trkpt lat="-37.89170816000858" lon="146.03175504620916"><ele>305.0</ele><time>2026-05-06T02:31:45.999Z</time></trkpt><trkpt lat="-37.89177945783414" lon="146.0315886311006"><ele>307.75</ele><time>2026-05-06T02:31:46.999Z</time></trkpt><trkpt lat="-37.89185170262735" lon="146.0314410859001"><ele>310.5</ele><time>2026-05-06T02:31:47.999Z</time></trkpt><trkpt lat="-37.89195010520732" lon="146.03129746438987"><ele>313.25</ele><time>2026-05-06T02:31:48.999Z</time></trkpt><trkpt lat="-37.892068349688856" lon="146.03117229587838"><ele>316.0</ele><time>2026-05-06T02:31:49.999Z</time></trkpt><trkpt lat="-37.89219293836473" lon="146.03108409716265"><ele>316.0</ele><time>2026-05-06T02:31:50.999Z</time></trkpt><trkpt lat="-37.89231796278209" lon="146.03100174535712"><ele>316.0</ele><time>2026-05-06T02:31:51.998Z</time></trkpt><trkpt lat="-37.89242925602765" lon="146.03091746263527"><ele>316.0</ele><time>2026-05-06T02:31:52.998Z</time></trkpt><trkpt lat="-37.892517466877955" lon="146.03081758302807"><ele>316.0</ele><time>2026-05-06T02:31:53.998Z</time></trkpt><trkpt lat="-37.89258766926043" lon="146.03069683809312"><ele>312.75</ele><time>2026-05-06T02:31:54.998Z</time></trkpt><trkpt lat="-37.89262431826398" lon="146.0305475089244"><ele>309.5</ele><time>2026-05-06T02:31:55.998Z</time></trkpt><trkpt lat="-37.89263221281423" lon="146.03038670469266"><ele>306.25</ele><time>2026-05-06T02:31:56.998Z</time></trkpt><trkpt lat="-37.892604987700295" lon="146.0302255519299"><ele>303.0</ele><time>2026-05-06T02:31:57.998Z</time></trkpt><trkpt lat="-37.89254069395318" lon="146.0300708614705"><ele>302.75</ele><time>2026-05-06T02:31:58.998Z</time></trkpt><trkpt lat="-37.89245712785509" lon="146.02991329904052"><ele>302.5</ele><time>2026-05-06T02:31:59.998Z</time></trkpt><trkpt lat="-37.892384895143" lon="146.02975334559073"><ele>302.25</ele><time>2026-05-06T02:32:00.998Z</time></trkpt><trkpt lat="-37.89232773907495" lon="146.02958926840913"><ele>302.0</ele><time>2026-05-06T02:32:01.998Z</time></trkpt><trkpt lat="-37.89229469269595" lon="146.02940606168931"><ele>302.0</ele><time>2026-05-06T02:32:02.998Z</time></trkpt><trkpt lat="-37.892278117845" lon="146.0292022776036"><ele>302.0</ele><time>2026-05-06T02:32:03.998Z</time></trkpt><trkpt lat="-37.89228169154972" lon="146.0290154615729"><ele>302.0</ele><time>2026-05-06T02:32:04.998Z</time></trkpt><trkpt lat="-37.89232022313602" lon="146.02883358700328"><ele>297.0</ele><time>2026-05-06T02:32:05.998Z</time></trkpt><trkpt lat="-37.892366964985136" lon="146.02863731303154"><ele>292.0</ele><time>2026-05-06T02:32:06.998Z</time></trkpt><trkpt lat="-37.8924264149242" lon="146.02844079534222"><ele>287.0</ele><time>2026-05-06T02:32:07.998Z</time></trkpt><trkpt lat="-37.89249573987587" lon="146.02826506890116"><ele>282.75</ele><time>2026-05-06T02:32:08.998Z</time></trkpt><trkpt lat="-37.89259275679294" lon="146.02813586583326"><ele>278.5</ele><time>2026-05-06T02:32:09.998Z</time></trkpt><trkpt lat="-37.892702455679014" lon="146.02801679087455"><ele>274.25</ele><time>2026-05-06T02:32:10.998Z</time></trkpt><trkpt lat="-37.89282902693292" lon="146.02792152491875"><ele>270.0</ele><time>2026-05-06T02:32:11.998Z</time></trkpt><trkpt lat="-37.892964047385476" lon="146.0278727946384"><ele>270.0</ele><time>2026-05-06T02:32:12.998Z</time></trkpt><trkpt lat="-37.893098175805164" lon="146.02785923797174"><ele>270.0</ele><time>2026-05-06T02:32:13.998Z</time></trkpt><trkpt lat="-37.89324770462768" lon="146.02786035673495"><ele>270.0</ele><time>2026-05-06T02:32:14.998Z</time></trkpt><trkpt lat="-37.893415482515096" lon="146.02788061283047"><ele>268.3333333333333</ele><time>2026-05-06T02:32:16Z</time></trkpt><trkpt lat="-37.89358583935147" lon="146.02787827001603"><ele>266.66666666666663</ele><time>2026-05-06T02:32:17Z</time></trkpt><trkpt lat="-37.89373317930902" lon="146.02788274828313"><ele>265.0</ele><time>2026-05-06T02:32:18Z</time></trkpt><trkpt lat="-37.893892707235075" lon="146.02788453357036"><ele>265.0</ele><time>2026-05-06T02:32:19Z</time></trkpt><trkpt lat="-37.89404356992142" lon="146.02787771622678"><ele>265.0</ele><time>2026-05-06T02:32:20Z</time></trkpt><trkpt lat="-37.8941975546145" lon="146.02788223684456"><ele>265.0</ele><time>2026-05-06T02:32:21Z</time></trkpt><trkpt lat="-37.8943501941586" lon="146.02788021190054"><ele>264.75</ele><time>2026-05-06T02:32:22Z</time></trkpt><trkpt lat="-37.89449954557186" lon="146.02789270270605"><ele>264.5</ele><time>2026-05-06T02:32:23Z</time></trkpt><trkpt lat="-37.89464019353433" lon="146.02790436579508"><ele>264.25</ele><time>2026-05-06T02:32:24Z</time></trkpt><trkpt lat="-37.894768038842955" lon="146.02792734120675"><ele>264.0</ele><time>2026-05-06T02:32:25Z</time></trkpt><trkpt lat="-37.89489633462527" lon="146.02796428214214"><ele>264.0</ele><time>2026-05-06T02:32:26Z</time></trkpt><trkpt lat="-37.89503515134713" lon="146.02800397416968"><ele>264.0</ele><time>2026-05-06T02:32:27Z</time></trkpt><trkpt lat="-37.89515427448374" lon="146.0280252352187"><ele>264.0</ele><time>2026-05-06T02:32:28Z</time></trkpt><trkpt lat="-37.89528081940677" lon="146.0280161505423"><ele>264.0</ele><time>2026-05-06T02:32:29Z</time></trkpt><trkpt lat="-37.895408437857" lon="146.02796939537438"><ele>265.25</ele><time>2026-05-06T02:32:30Z</time></trkpt><trkpt lat="-37.895528314083755" lon="146.02787709779682"><ele>266.5</ele><time>2026-05-06T02:32:31Z</time></trkpt><trkpt lat="-37.895653689944574" lon="146.02778427099562"><ele>267.75</ele><time>2026-05-06T02:32:32Z</time></trkpt><trkpt lat="-37.89578166076617" lon="146.02768666040657"><ele>269.0</ele><time>2026-05-06T02:32:33Z</time></trkpt><trkpt lat="-37.895902189244566" lon="146.02760450517138"><ele>266.25</ele><time>2026-05-06T02:32:34Z</time></trkpt><trkpt lat="-37.89602408470168" lon="146.02752378727592"><ele>263.5</ele><time>2026-05-06T02:32:35Z</time></trkpt><trkpt lat="-37.896151257109196" lon="146.02742882070737"><ele>260.75</ele><time>2026-05-06T02:32:36Z</time></trkpt><trkpt lat="-37.8962678147361" lon="146.02732547559347"><ele>258.0</ele><time>2026-05-06T02:32:37Z</time></trkpt><trkpt lat="-37.896387361079206" lon="146.0272152780428"><ele>258.0</ele><time>2026-05-06T02:32:38Z</time></trkpt><trkpt lat="-37.896505795866766" lon="146.02710979097466"><ele>258.0</ele><time>2026-05-06T02:32:39Z</time></trkpt><trkpt lat="-37.89662846104329" lon="146.02700367439414"><ele>258.0</ele><time>2026-05-06T02:32:40Z</time></trkpt><trkpt lat="-37.89674668470149" lon="146.02690432633662"><ele>258.0</ele><time>2026-05-06T02:32:41Z</time></trkpt><trkpt lat="-37.89686477992776" lon="146.02679372049067"><ele>256.3333333333333</ele><time>2026-05-06T02:32:42Z</time></trkpt><trkpt lat="-37.89698699243419" lon="146.02668732005122"><ele>254.66666666666666</ele><time>2026-05-06T02:32:43Z</time></trkpt><trkpt lat="-37.89710610331684" lon="146.02657390035304"><ele>253.0</ele><time>2026-05-06T02:32:44Z</time></trkpt><trkpt lat="-37.89723235334385" lon="146.02644925427444"><ele>253.0</ele><time>2026-05-06T02:32:44.999Z</time></trkpt><trkpt lat="-37.89734872264279" lon="146.02634298046314"><ele>253.0</ele><time>2026-05-06T02:32:45.999Z</time></trkpt><trkpt lat="-37.8974671909214" lon="146.02621050388314"><ele>253.0</ele><time>2026-05-06T02:32:46.999Z</time></trkpt><trkpt lat="-37.897581325340454" lon="146.02606719666508"><ele>253.33333333333331</ele><time>2026-05-06T02:32:47.999Z</time></trkpt><trkpt lat="-37.89768214508425" lon="146.0259128426532"><ele>253.66666666666669</ele><time>2026-05-06T02:32:48.999Z</time></trkpt><trkpt lat="-37.89777898233672" lon="146.02576332570172"><ele>254.0</ele><time>2026-05-06T02:32:49.999Z</time></trkpt><trkpt lat="-37.900768705843234" lon="146.01232175114754"><ele>254.0</ele><time>2026-05-06T02:35:41.999Z</time></trkpt><trkpt lat="-37.90070301976003" lon="146.0121500426418"><ele>254.0</ele><time>2026-05-06T02:35:42.999Z</time></trkpt><trkpt lat="-37.90062226243749" lon="146.0119730069187"><ele>254.0</ele><time>2026-05-06T02:35:43.999Z</time></trkpt><trkpt lat="-37.90056954178627" lon="146.01179994601094"><ele>252.66666666666669</ele><time>2026-05-06T02:35:44.999Z</time></trkpt><trkpt lat="-37.90049530902736" lon="146.0114679565262"><ele>251.33333333333331</ele><time>2026-05-06T02:35:46.999Z</time></trkpt><trkpt lat="-37.90048752127156" lon="146.01129758994364"><ele>250.0</ele><time>2026-05-06T02:35:47.999Z</time></trkpt><trkpt lat="-37.900513088305175" lon="146.01111787234967"><ele>250.0</ele><time>2026-05-06T02:35:48.999Z</time></trkpt><trkpt lat="-37.9005088415441" lon="146.01096156755565"><ele>250.0</ele><time>2026-05-06T02:35:49.999Z</time></trkpt><trkpt lat="-37.90060151779688" lon="146.01080000420512"><ele>250.0</ele><time>2026-05-06T02:35:50.999Z</time></trkpt><trkpt lat="-37.90061017255261" lon="146.0106537132458"><ele>250.0</ele><time>2026-05-06T02:35:51.999Z</time></trkpt><trkpt lat="-37.90058838537548" lon="146.01049063087174"><ele>250.75</ele><time>2026-05-06T02:35:52.999Z</time></trkpt><trkpt lat="-37.900531651780994" lon="146.01035029768727"><ele>251.5</ele><time>2026-05-06T02:35:53.999Z</time></trkpt><trkpt lat="-37.90044160891893" lon="146.01021792953833"><ele>252.25</ele><time>2026-05-06T02:35:54.999Z</time></trkpt><trkpt lat="-37.90032557127707" lon="146.01010146598873"><ele>253.0</ele><time>2026-05-06T02:35:55.999Z</time></trkpt><trkpt lat="-37.900191238669606" lon="146.01000956239614"><ele>253.0</ele><time>2026-05-06T02:35:56.999Z</time></trkpt><trkpt lat="-37.90004928201042" lon="146.00995645634393"><ele>253.0</ele><time>2026-05-06T02:35:57.999Z</time></trkpt><trkpt lat="-37.89991112681713" lon="146.00990525581196"><ele>253.0</ele><time>2026-05-06T02:35:58.999Z</time></trkpt><trkpt lat="-37.89977425851782" lon="146.00982602573154"><ele>253.0</ele><time>2026-05-06T02:35:59.999Z</time></trkpt><trkpt lat="-37.89964544749683" lon="146.009719939239"><ele>253.0</ele><time>2026-05-06T02:36:00.999Z</time></trkpt><trkpt lat="-37.899527109181825" lon="146.0096108049791"><ele>253.0</ele><time>2026-05-06T02:36:01.999Z</time></trkpt><trkpt lat="-37.89941178967558" lon="146.0095052327716"><ele>253.0</ele><time>2026-05-06T02:36:02.999Z</time></trkpt><trkpt lat="-37.899283897218574" lon="146.00938470025326"><ele>253.0</ele><time>2026-05-06T02:36:03.999Z</time></trkpt><trkpt lat="-37.89916171670172" lon="146.00927423353554"><ele>253.0</ele><time>2026-05-06T02:36:04.998Z</time></trkpt><trkpt lat="-37.89904096642148" lon="146.00917061983026"><ele>253.0</ele><time>2026-05-06T02:36:05.998Z</time></trkpt><trkpt lat="-37.898793879668" lon="146.00894356452238"><ele>253.0</ele><time>2026-05-06T02:36:07.998Z</time></trkpt><trkpt lat="-37.89866968385184" lon="146.0088370964805"><ele>253.0</ele><time>2026-05-06T02:36:08.998Z</time></trkpt><trkpt lat="-37.89854848701775" lon="146.00872420685786"><ele>253.0</ele><time>2026-05-06T02:36:09.998Z</time></trkpt><trkpt lat="-37.89843000545146" lon="146.00861339673838"><ele>253.0</ele><time>2026-05-06T02:36:10.998Z</time></trkpt><trkpt lat="-37.89830391974502" lon="146.0085145555671"><ele>252.25</ele><time>2026-05-06T02:36:11.998Z</time></trkpt><trkpt lat="-37.898176644300904" lon="146.0084081305831"><ele>251.5</ele><time>2026-05-06T02:36:12.998Z</time></trkpt><trkpt lat="-37.89806303505639" lon="146.00830113801655"><ele>250.75</ele><time>2026-05-06T02:36:13.998Z</time></trkpt><trkpt lat="-37.89794453396906" lon="146.00819875458288"><ele>250.0</ele><time>2026-05-06T02:36:14.998Z</time></trkpt><trkpt lat="-37.897821247185085" lon="146.0081062921721"><ele>250.0</ele><time>2026-05-06T02:36:15.998Z</time></trkpt><trkpt lat="-37.89768310971593" lon="146.0080249034067"><ele>250.0</ele><time>2026-05-06T02:36:16.998Z</time></trkpt><trkpt lat="-37.897548382624294" lon="146.00794670472433"><ele>250.0</ele><time>2026-05-06T02:36:17.998Z</time></trkpt><trkpt lat="-37.89741904276378" lon="146.00786005240502"><ele>250.0</ele><time>2026-05-06T02:36:18.998Z</time></trkpt><trkpt lat="-37.89728478230385" lon="146.00777026560309"><ele>248.33333333333331</ele><time>2026-05-06T02:36:19.998Z</time></trkpt><trkpt lat="-37.897148622357534" lon="146.00768486371618"><ele>246.66666666666669</ele><time>2026-05-06T02:36:20.998Z</time></trkpt><trkpt lat="-37.89701431803362" lon="146.0075978019697"><ele>245.0</ele><time>2026-05-06T02:36:21.998Z</time></trkpt><trkpt lat="-37.896882001835394" lon="146.0074953901753"><ele>245.33333333333334</ele><time>2026-05-06T02:36:22.998Z</time></trkpt><trkpt lat="-37.89675619297459" lon="146.00739440213778"><ele>245.66666666666669</ele><time>2026-05-06T02:36:23.998Z</time></trkpt><trkpt lat="-37.89664072606194" lon="146.00726936121515"><ele>246.0</ele><time>2026-05-06T02:36:24.998Z</time></trkpt><trkpt lat="-37.89653975759455" lon="146.00713086188466"><ele>246.0</ele><time>2026-05-06T02:36:25.998Z</time></trkpt><trkpt lat="-37.896450230709114" lon="146.0069774757416"><ele>246.0</ele><time>2026-05-06T02:36:26.998Z</time></trkpt><trkpt lat="-37.8963128158912" lon="146.00663097238"><ele>247.0</ele><time>2026-05-06T02:36:29Z</time></trkpt><trkpt lat="-37.896272161713625" lon="146.0064459914737"><ele>248.0</ele><time>2026-05-06T02:36:30Z</time></trkpt><trkpt lat="-37.89623191225894" lon="146.00625364805117"><ele>249.0</ele><time>2026-05-06T02:36:31Z</time></trkpt><trkpt lat="-37.896200586703266" lon="146.0060542442151"><ele>249.0</ele><time>2026-05-06T02:36:32Z</time></trkpt><trkpt lat="-37.89618305521658" lon="146.0058484808555"><ele>249.0</ele><time>2026-05-06T02:36:33Z</time></trkpt><trkpt lat="-37.896169270897" lon="146.0056421564096"><ele>249.0</ele><time>2026-05-06T02:36:34Z</time></trkpt><trkpt lat="-37.8961423978704" lon="146.00544823934771"><ele>249.0</ele><time>2026-05-06T02:36:35Z</time></trkpt><trkpt lat="-37.8961156660875" lon="146.0052698289205"><ele>249.0</ele><time>2026-05-06T02:36:36Z</time></trkpt><trkpt lat="-37.89609135068826" lon="146.0050812725754"><ele>249.0</ele><time>2026-05-06T02:36:37Z</time></trkpt><trkpt lat="-37.89607539061529" lon="146.00486993292623"><ele>249.0</ele><time>2026-05-06T02:36:38Z</time></trkpt><trkpt lat="-37.896080471257484" lon="146.00461489376403"><ele>249.0</ele><time>2026-05-06T02:36:39Z</time></trkpt><trkpt lat="-37.896028213106725" lon="146.00445182043393"><ele>249.0</ele><time>2026-05-06T02:36:40Z</time></trkpt><trkpt lat="-37.89600290700353" lon="146.0042790185093"><ele>250.25</ele><time>2026-05-06T02:36:41Z</time></trkpt><trkpt lat="-37.89596613921452" lon="146.0041136997467"><ele>251.5</ele><time>2026-05-06T02:36:42Z</time></trkpt><trkpt lat="-37.89592360406637" lon="146.00394955222114"><ele>252.75</ele><time>2026-05-06T02:36:43Z</time></trkpt><trkpt lat="-37.89586189384303" lon="146.00380265781692"><ele>254.0</ele><time>2026-05-06T02:36:44Z</time></trkpt><trkpt lat="-37.89578529182379" lon="146.00367189261473"><ele>251.75</ele><time>2026-05-06T02:36:45Z</time></trkpt><trkpt lat="-37.8957051073927" lon="146.00354098964556"><ele>249.5</ele><time>2026-05-06T02:36:46Z</time></trkpt><trkpt lat="-37.89561730694434" lon="146.00339647787052"><ele>247.25</ele><time>2026-05-06T02:36:47Z</time></trkpt><trkpt lat="-37.89553461922605" lon="146.00326387128786"><ele>245.0</ele><time>2026-05-06T02:36:48Z</time></trkpt><trkpt lat="-37.895380072636605" lon="146.00301221068605"><ele>245.0</ele><time>2026-05-06T02:36:50Z</time></trkpt><trkpt lat="-37.89531575894358" lon="146.00287259612435"><ele>245.0</ele><time>2026-05-06T02:36:51Z</time></trkpt><trkpt lat="-37.895258963941615" lon="146.00273523967886"><ele>245.0</ele><time>2026-05-06T02:36:52Z</time></trkpt><trkpt lat="-37.89521414475825" lon="146.00260844482597"><ele>245.0</ele><time>2026-05-06T02:36:53Z</time></trkpt><trkpt lat="-37.89517474191942" lon="146.00249093629222"><ele>245.8</ele><time>2026-05-06T02:36:54Z</time></trkpt><trkpt lat="-37.895129317788964" lon="146.0023843322026"><ele>246.6</ele><time>2026-05-06T02:36:55Z</time></trkpt><trkpt lat="-37.895087300676686" lon="146.0022824130023"><ele>247.39999999999998</ele><time>2026-05-06T02:36:56Z</time></trkpt><trkpt lat="-37.89504378817509" lon="146.00218025436607"><ele>248.2</ele><time>2026-05-06T02:36:56.999Z</time></trkpt><trkpt lat="-37.894991942808296" lon="146.00205965743166"><ele>249.0</ele><time>2026-05-06T02:36:57.999Z</time></trkpt><trkpt lat="-37.89495074736177" lon="146.00195574996278"><ele>248.0</ele><time>2026-05-06T02:36:58.999Z</time></trkpt><trkpt lat="-37.8949251385425" lon="146.00187284371418"><ele>246.99999999999997</ele><time>2026-05-06T02:36:59.999Z</time></trkpt><trkpt lat="-37.8948860813355" lon="146.00176136431466"><ele>245.99999999999997</ele><time>2026-05-06T02:37:01.999Z</time></trkpt><trkpt lat="-37.894823326295096" lon="146.00174647054322"><ele>245.0</ele><time>2026-05-06T02:37:03.999Z</time></trkpt><trkpt lat="-37.89477287898275" lon="146.001800220841"><ele>244.0</ele><time>2026-05-06T02:37:06.999Z</time></trkpt><trkpt lat="-37.89428486867074" lon="146.0010983962573"><ele>239.0</ele><time>2026-05-06T02:41:02.288Z</time></trkpt><trkpt lat="-37.894516536111446" lon="146.0017950474606"><ele>239.0</ele><time>2026-05-06T02:41:09.998Z</time></trkpt><trkpt lat="-37.894532427426384" lon="146.0016915948174"><ele>239.0</ele><time>2026-05-06T02:41:14Z</time></trkpt></trkseg><trkseg><trkpt lat="-37.89481723913037" lon="146.00175973101173"><ele>239.0</ele><time>2026-05-06T03:50:22Z</time></trkpt><trkpt lat="-37.894868031459794" lon="146.00183671593624"><ele>238.99999999999997</ele><time>2026-05-06T03:50:23Z</time></trkpt><trkpt lat="-37.89491680672608" lon="146.00194004675697"><ele>238.99999999999997</ele><time>2026-05-06T03:50:24Z</time></trkpt><trkpt lat="-37.89496331967719" lon="146.0020595208225"><ele>239.0</ele><time>2026-05-06T03:50:25Z</time></trkpt><trkpt lat="-37.89501593077765" lon="146.00218685812956"><ele>239.0</ele><time>2026-05-06T03:50:26Z</time></trkpt><trkpt lat="-37.8950764104715" lon="146.00233292565014"><ele>240.2</ele><time>2026-05-06T03:50:27Z</time></trkpt><trkpt lat="-37.895126070298126" lon="146.00245936467252"><ele>241.39999999999998</ele><time>2026-05-06T03:50:28Z</time></trkpt><trkpt lat="-37.89517347545798" lon="146.00256633511222"><ele>242.6</ele><time>2026-05-06T03:50:29Z</time></trkpt><trkpt lat="-37.895225781925454" lon="146.00268554926677"><ele>243.8</ele><time>2026-05-06T03:50:30Z</time></trkpt><trkpt lat="-37.895274455203335" lon="146.00280876182592"><ele>245.0</ele><time>2026-05-06T03:50:31Z</time></trkpt><trkpt lat="-37.89533409909985" lon="146.00295072217673"><ele>245.0</ele><time>2026-05-06T03:50:32Z</time></trkpt><trkpt lat="-37.89538753521996" lon="146.0030877561074"><ele>245.0</ele><time>2026-05-06T03:50:33Z</time></trkpt><trkpt lat="-37.89545409415991" lon="146.00322860090162"><ele>245.0</ele><time>2026-05-06T03:50:34Z</time></trkpt><trkpt lat="-37.89554303836822" lon="146.00336448952632"><ele>245.0</ele><time>2026-05-06T03:50:35Z</time></trkpt><trkpt lat="-37.89562921046218" lon="146.00348905703893"><ele>243.33333333333334</ele><time>2026-05-06T03:50:36Z</time></trkpt><trkpt lat="-37.89572279693162" lon="146.00364650363682"><ele>241.66666666666669</ele><time>2026-05-06T03:50:37Z</time></trkpt><trkpt lat="-37.895814284340204" lon="146.00381473182478"><ele>240.0</ele><time>2026-05-06T03:50:38Z</time></trkpt><trkpt lat="-37.89589105419247" lon="146.0039650135595"><ele>242.25</ele><time>2026-05-06T03:50:39Z</time></trkpt><trkpt lat="-37.89595136181875" lon="146.004118021263"><ele>244.5</ele><time>2026-05-06T03:50:40Z</time></trkpt><trkpt lat="-37.895994291131586" lon="146.00428846678824"><ele>246.75</ele><time>2026-05-06T03:50:41Z</time></trkpt><trkpt lat="-37.89602335613167" lon="146.00448626081186"><ele>249.0</ele><time>2026-05-06T03:50:42Z</time></trkpt><trkpt lat="-37.89604965167151" lon="146.00470001747098"><ele>249.0</ele><time>2026-05-06T03:50:43Z</time></trkpt><trkpt lat="-37.8960659241999" lon="146.00490482156664"><ele>249.0</ele><time>2026-05-06T03:50:44Z</time></trkpt><trkpt lat="-37.896087093826715" lon="146.00510834358263"><ele>249.0</ele><time>2026-05-06T03:50:45Z</time></trkpt><trkpt lat="-37.896105182773326" lon="146.0053101941651"><ele>249.0</ele><time>2026-05-06T03:50:45.999Z</time></trkpt><trkpt lat="-37.89612603494352" lon="146.00550858591433"><ele>249.0</ele><time>2026-05-06T03:50:46.999Z</time></trkpt><trkpt lat="-37.896146948098206" lon="146.00569842808514"><ele>249.0</ele><time>2026-05-06T03:50:47.999Z</time></trkpt><trkpt lat="-37.89616867055835" lon="146.00589216934378"><ele>249.0</ele><time>2026-05-06T03:50:48.999Z</time></trkpt><trkpt lat="-37.89618697744987" lon="146.00608608729695"><ele>249.0</ele><time>2026-05-06T03:50:49.999Z</time></trkpt><trkpt lat="-37.89621087490979" lon="146.00627210719313"><ele>249.0</ele><time>2026-05-06T03:50:50.999Z</time></trkpt><trkpt lat="-37.8962380813792" lon="146.00645110029768"><ele>249.0</ele><time>2026-05-06T03:50:51.999Z</time></trkpt><trkpt lat="-37.896275030096945" lon="146.00662396536833"><ele>248.25</ele><time>2026-05-06T03:50:52.999Z</time></trkpt><trkpt lat="-37.89632647685955" lon="146.0067892519808"><ele>247.5</ele><time>2026-05-06T03:50:53.999Z</time></trkpt><trkpt lat="-37.89639380845027" lon="146.0069456232539"><ele>246.75</ele><time>2026-05-06T03:50:54.999Z</time></trkpt><trkpt lat="-37.89647099343469" lon="146.007088840578"><ele>246.0</ele><time>2026-05-06T03:50:55.999Z</time></trkpt><trkpt lat="-37.896565194442715" lon="146.00723317857972"><ele>246.0</ele><time>2026-05-06T03:50:56.999Z</time></trkpt><trkpt lat="-37.896673620860575" lon="146.0073570216077"><ele>246.0</ele><time>2026-05-06T03:50:57.999Z</time></trkpt><trkpt lat="-37.89677048264369" lon="146.00745940695867"><ele>246.0</ele><time>2026-05-06T03:50:58.999Z</time></trkpt><trkpt lat="-37.89686560728837" lon="146.00754892585311"><ele>246.0</ele><time>2026-05-06T03:50:59.999Z</time></trkpt><trkpt lat="-37.89697824941472" lon="146.00760679400088"><ele>245.75</ele><time>2026-05-06T03:51:00.999Z</time></trkpt><trkpt lat="-37.89709473732102" lon="146.00769894036182"><ele>245.5</ele><time>2026-05-06T03:51:01.999Z</time></trkpt><trkpt lat="-37.897219886206734" lon="146.0077778169517"><ele>245.25</ele><time>2026-05-06T03:51:02.999Z</time></trkpt><trkpt lat="-37.897350373318055" lon="146.00786006232357"><ele>245.0</ele><time>2026-05-06T03:51:03.999Z</time></trkpt><trkpt lat="-37.897458210077914" lon="146.0079263386566"><ele>245.0</ele><time>2026-05-06T03:51:04.999Z</time></trkpt><trkpt lat="-37.89755810279896" lon="146.00800370646132"><ele>245.0</ele><time>2026-05-06T03:51:05.999Z</time></trkpt><trkpt lat="-37.89767455224565" lon="146.00807855546972"><ele>245.0</ele><time>2026-05-06T03:51:06.999Z</time></trkpt><trkpt lat="-37.89780764257445" lon="146.00816239092782"><ele>245.0</ele><time>2026-05-06T03:51:07.999Z</time></trkpt><trkpt lat="-37.89794572123022" lon="146.00825138191257"><ele>242.66666666666669</ele><time>2026-05-06T03:51:08.999Z</time></trkpt><trkpt lat="-37.898078520368486" lon="146.00835833978556"><ele>240.33333333333331</ele><time>2026-05-06T03:51:09.999Z</time></trkpt><trkpt lat="-37.89821833684467" lon="146.00848488454645"><ele>238.0</ele><time>2026-05-06T03:51:10.999Z</time></trkpt><trkpt lat="-37.89837606972007" lon="146.0086290937557"><ele>243.0</ele><time>2026-05-06T03:51:11.999Z</time></trkpt><trkpt lat="-37.89853100700807" lon="146.0087605837953"><ele>248.0</ele><time>2026-05-06T03:51:12.999Z</time></trkpt><trkpt lat="-37.89867736524612" lon="146.00888828297886"><ele>253.0</ele><time>2026-05-06T03:51:13.999Z</time></trkpt><trkpt lat="-37.898829345123744" lon="146.0090174564141"><ele>253.0</ele><time>2026-05-06T03:51:14.999Z</time></trkpt><trkpt lat="-37.89897597393006" lon="146.00914463076558"><ele>253.0</ele><time>2026-05-06T03:51:15.999Z</time></trkpt><trkpt lat="-37.89912001147612" lon="146.00926844255858"><ele>253.0</ele><time>2026-05-06T03:51:16.999Z</time></trkpt><trkpt lat="-37.89926806079621" lon="146.00939886910083"><ele>253.0</ele><time>2026-05-06T03:51:17.999Z</time></trkpt><trkpt lat="-37.89941196388536" lon="146.00952616646026"><ele>253.0</ele><time>2026-05-06T03:51:18.999Z</time></trkpt><trkpt lat="-37.89955377642837" lon="146.00964678126374"><ele>253.0</ele><time>2026-05-06T03:51:19.999Z</time></trkpt><trkpt lat="-37.89969434612697" lon="146.0097818322612"><ele>253.0</ele><time>2026-05-06T03:51:20.999Z</time></trkpt><trkpt lat="-37.89981336592395" lon="146.009884206177"><ele>253.0</ele><time>2026-05-06T03:51:21.999Z</time></trkpt><trkpt lat="-37.899924922889376" lon="146.0099727762516"><ele>253.0</ele><time>2026-05-06T03:51:22.999Z</time></trkpt><trkpt lat="-37.9000526863619" lon="146.01002813905419"><ele>253.0</ele><time>2026-05-06T03:51:23.999Z</time></trkpt><trkpt lat="-37.900179451379074" lon="146.01006288935815"><ele>253.0</ele><time>2026-05-06T03:51:24.999Z</time></trkpt><trkpt lat="-37.90031049236524" lon="146.01013302611634"><ele>253.0</ele><time>2026-05-06T03:51:25.999Z</time></trkpt><trkpt lat="-37.90041784794265" lon="146.01022333446522"><ele>253.0</ele><time>2026-05-06T03:51:26.999Z</time></trkpt><trkpt lat="-37.90049942862992" lon="146.01035644411965"><ele>253.0</ele><time>2026-05-06T03:51:27.999Z</time></trkpt><trkpt lat="-37.90056230747494" lon="146.01051528478718"><ele>253.0</ele><time>2026-05-06T03:51:28.999Z</time></trkpt><trkpt lat="-37.900590386615036" lon="146.0106683504509"><ele>253.0</ele><time>2026-05-06T03:51:29.999Z</time></trkpt><trkpt lat="-37.900580169598705" lon="146.01085673139994"><ele>253.0</ele><time>2026-05-06T03:51:30.999Z</time></trkpt><trkpt lat="-37.90054582059778" lon="146.0110330671585"><ele>253.0</ele><time>2026-05-06T03:51:31.999Z</time></trkpt><trkpt lat="-37.9004904560083" lon="146.01122262683964"><ele>253.25</ele><time>2026-05-06T03:51:32.999Z</time></trkpt><trkpt lat="-37.900449764795425" lon="146.01140554705376"><ele>253.5</ele><time>2026-05-06T03:51:33.999Z</time></trkpt><trkpt lat="-37.900459354039945" lon="146.01157418961265"><ele>253.75</ele><time>2026-05-06T03:51:34.999Z</time></trkpt><trkpt lat="-37.90050553323049" lon="146.01174453397147"><ele>254.0</ele><time>2026-05-06T03:51:35.999Z</time></trkpt><trkpt lat="-37.90057839540965" lon="146.01194094427476"><ele>254.0</ele><time>2026-05-06T03:51:36.999Z</time></trkpt><trkpt lat="-37.90064654370784" lon="146.01213216399444"><ele>254.0</ele><time>2026-05-06T03:51:37.999Z</time></trkpt><trkpt lat="-37.900727865750895" lon="146.01235195624778"><ele>254.0</ele><time>2026-05-06T03:51:38.999Z</time></trkpt><trkpt lat="-37.90080616323931" lon="146.01252097267806"><ele>254.5</ele><time>2026-05-06T03:51:39.999Z</time></trkpt><trkpt lat="-37.900894963944744" lon="146.01267499724014"><ele>255.0</ele><time>2026-05-06T03:51:40.999Z</time></trkpt><trkpt lat="-37.90099911708544" lon="146.01277562693426"><ele>255.5</ele><time>2026-05-06T03:51:41.999Z</time></trkpt><trkpt lat="-37.90112717134141" lon="146.01283829227623"><ele>256.0</ele><time>2026-05-06T03:51:42.999Z</time></trkpt><trkpt lat="-37.9012808546945" lon="146.0128864327269"><ele>256.0</ele><time>2026-05-06T03:51:43.999Z</time></trkpt><trkpt lat="-37.90144250276089" lon="146.01291430529346"><ele>256.0</ele><time>2026-05-06T03:51:44.999Z</time></trkpt><trkpt lat="-37.90161622223952" lon="146.01288899412708"><ele>256.0</ele><time>2026-05-06T03:51:45.999Z</time></trkpt><trkpt lat="-37.901798676529864" lon="146.0128343278605"><ele>258.0</ele><time>2026-05-06T03:51:46.999Z</time></trkpt><trkpt lat="-37.90200593981129" lon="146.01280159344847"><ele>260.0</ele><time>2026-05-06T03:51:47.999Z</time></trkpt><trkpt lat="-37.90220672093365" lon="146.01275209372162"><ele>262.0</ele><time>2026-05-06T03:51:49Z</time></trkpt><trkpt lat="-37.90239689308577" lon="146.01269560267548"><ele>262.0</ele><time>2026-05-06T03:51:50Z</time></trkpt><trkpt lat="-37.902568522390425" lon="146.012648717959"><ele>262.0</ele><time>2026-05-06T03:51:51Z</time></trkpt><trkpt lat="-37.90274825230644" lon="146.01260718803383"><ele>262.0</ele><time>2026-05-06T03:51:52Z</time></trkpt><trkpt lat="-37.902914576481784" lon="146.01259393792913"><ele>261.66666666666663</ele><time>2026-05-06T03:51:53Z</time></trkpt><trkpt lat="-37.9030849786402" lon="146.01262169987572"><ele>261.3333333333333</ele><time>2026-05-06T03:51:54Z</time></trkpt><trkpt lat="-37.903252745770146" lon="146.01265465468205"><ele>261.0</ele><time>2026-05-06T03:51:55Z</time></trkpt><trkpt lat="-37.903404229134914" lon="146.0127001690219"><ele>259.25</ele><time>2026-05-06T03:51:56Z</time></trkpt><trkpt lat="-37.903542114430785" lon="146.01272666755344"><ele>257.5</ele><time>2026-05-06T03:51:57Z</time></trkpt><trkpt lat="-37.903659881688895" lon="146.0127062769619"><ele>255.75</ele><time>2026-05-06T03:51:58Z</time></trkpt><trkpt lat="-37.90376721567432" lon="146.01266165684018"><ele>254.0</ele><time>2026-05-06T03:51:59Z</time></trkpt><trkpt lat="-37.90387239397141" lon="146.0126174268891"><ele>254.0</ele><time>2026-05-06T03:52:00Z</time></trkpt><trkpt lat="-37.90401316070118" lon="146.01256945384102"><ele>254.0</ele><time>2026-05-06T03:52:01Z</time></trkpt><trkpt lat="-37.90415765468272" lon="146.01254222878117"><ele>254.0</ele><time>2026-05-06T03:52:02Z</time></trkpt><trkpt lat="-37.904293910585" lon="146.0125501532721"><ele>254.0</ele><time>2026-05-06T03:52:03Z</time></trkpt><trkpt lat="-37.904433109488295" lon="146.01260245356573"><ele>255.25</ele><time>2026-05-06T03:52:04Z</time></trkpt><trkpt lat="-37.90455774908661" lon="146.01271044684623"><ele>256.5</ele><time>2026-05-06T03:52:05Z</time></trkpt><trkpt lat="-37.90465198174392" lon="146.01285098335376"><ele>257.75</ele><time>2026-05-06T03:52:06Z</time></trkpt><trkpt lat="-37.904725297350545" lon="146.0130182308144"><ele>259.0</ele><time>2026-05-06T03:52:07Z</time></trkpt><trkpt lat="-37.90476021215616" lon="146.01318944668114"><ele>254.66666666666666</ele><time>2026-05-06T03:52:08Z</time></trkpt><trkpt lat="-37.904777545575456" lon="146.01338109051804"><ele>250.33333333333331</ele><time>2026-05-06T03:52:09Z</time></trkpt><trkpt lat="-37.90477786291593" lon="146.0135886351458"><ele>246.0</ele><time>2026-05-06T03:52:10Z</time></trkpt><trkpt lat="-37.90477589355943" lon="146.01381429080294"><ele>246.0</ele><time>2026-05-06T03:52:11Z</time></trkpt><trkpt lat="-37.904777978223834" lon="146.0140284385323"><ele>246.0</ele><time>2026-05-06T03:52:12Z</time></trkpt><trkpt lat="-37.90478164926394" lon="146.01423071206418"><ele>246.0</ele><time>2026-05-06T03:52:13Z</time></trkpt><trkpt lat="-37.904794334164805" lon="146.0144362444665"><ele>243.0</ele><time>2026-05-06T03:52:14Z</time></trkpt><trkpt lat="-37.90481369913152" lon="146.01463930670423"><ele>240.0</ele><time>2026-05-06T03:52:15Z</time></trkpt><trkpt lat="-37.904844925473014" lon="146.01483589026532"><ele>237.0</ele><time>2026-05-06T03:52:16Z</time></trkpt><trkpt lat="-37.904883475194374" lon="146.01504455927767"><ele>234.33333333333331</ele><time>2026-05-06T03:52:17Z</time></trkpt><trkpt lat="-37.904933711005235" lon="146.01522287388457"><ele>231.66666666666666</ele><time>2026-05-06T03:52:18Z</time></trkpt><trkpt lat="-37.90500292271793" lon="146.01541218958488"><ele>229.0</ele><time>2026-05-06T03:52:19Z</time></trkpt><trkpt lat="-37.905069162570186" lon="146.01559860052632"><ele>233.0</ele><time>2026-05-06T03:52:20Z</time></trkpt><trkpt lat="-37.905137152412024" lon="146.01576851838442"><ele>237.0</ele><time>2026-05-06T03:52:21Z</time></trkpt><trkpt lat="-37.905212152027715" lon="146.01594884043536"><ele>241.0</ele><time>2026-05-06T03:52:22Z</time></trkpt><trkpt lat="-37.90531141098616" lon="146.016096896843"><ele>241.0</ele><time>2026-05-06T03:52:23Z</time></trkpt><trkpt lat="-37.90541539433895" lon="146.01623247602782"><ele>241.0</ele><time>2026-05-06T03:52:24Z</time></trkpt><trkpt lat="-37.905537763405285" lon="146.01634645095723"><ele>241.0</ele><time>2026-05-06T03:52:25Z</time></trkpt><trkpt lat="-37.90566558872287" lon="146.0164396965635"><ele>241.0</ele><time>2026-05-06T03:52:26Z</time></trkpt><trkpt lat="-37.90577565496488" lon="146.01652720243132"><ele>239.75</ele><time>2026-05-06T03:52:27Z</time></trkpt><trkpt lat="-37.9058546733178" lon="146.01667753264093"><ele>238.5</ele><time>2026-05-06T03:52:28Z</time></trkpt><trkpt lat="-37.90589874879354" lon="146.01685751213537"><ele>237.25</ele><time>2026-05-06T03:52:29Z</time></trkpt><trkpt lat="-37.90590193313337" lon="146.0170308125866"><ele>236.0</ele><time>2026-05-06T03:52:30Z</time></trkpt><trkpt lat="-37.90590601212892" lon="146.017240008527"><ele>236.0</ele><time>2026-05-06T03:52:31Z</time></trkpt><trkpt lat="-37.905890549672556" lon="146.01748387474393"><ele>236.0</ele><time>2026-05-06T03:52:32Z</time></trkpt><trkpt lat="-37.90594602449506" lon="146.0177193865889"><ele>236.0</ele><time>2026-05-06T03:52:33Z</time></trkpt><trkpt lat="-37.906007379481686" lon="146.01779117416274"><ele>239.33333333333334</ele><time>2026-05-06T03:52:34Z</time></trkpt><trkpt lat="-37.90608061213895" lon="146.0179605575287"><ele>242.66666666666669</ele><time>2026-05-06T03:52:35Z</time></trkpt><trkpt lat="-37.90615255941334" lon="146.01812467463816"><ele>246.0</ele><time>2026-05-06T03:52:36Z</time></trkpt><trkpt lat="-37.90622819581185" lon="146.01828966601653"><ele>244.75</ele><time>2026-05-06T03:52:37Z</time></trkpt><trkpt lat="-37.906306382033996" lon="146.0184373653306"><ele>243.5</ele><time>2026-05-06T03:52:38Z</time></trkpt><trkpt lat="-37.90640556975717" lon="146.0185621629759"><ele>242.25</ele><time>2026-05-06T03:52:39Z</time></trkpt><trkpt lat="-37.90652344317886" lon="146.01867140280476"><ele>241.0</ele><time>2026-05-06T03:52:40Z</time></trkpt><trkpt lat="-37.90664779787689" lon="146.01876376065405"><ele>244.75</ele><time>2026-05-06T03:52:41Z</time></trkpt><trkpt lat="-37.906766986314864" lon="146.01884393587943"><ele>248.5</ele><time>2026-05-06T03:52:42Z</time></trkpt><trkpt lat="-37.90686784194487" lon="146.0189543392793"><ele>252.25</ele><time>2026-05-06T03:52:43Z</time></trkpt><trkpt lat="-37.906973975798294" lon="146.0190714475287"><ele>256.0</ele><time>2026-05-06T03:52:44Z</time></trkpt><trkpt lat="-37.907043600626025" lon="146.0192405258018"><ele>256.0</ele><time>2026-05-06T03:52:45Z</time></trkpt><trkpt lat="-37.90712024735902" lon="146.01940695427487"><ele>256.0</ele><time>2026-05-06T03:52:46Z</time></trkpt><trkpt lat="-37.907217662646254" lon="146.01955059648668"><ele>256.0</ele><time>2026-05-06T03:52:47Z</time></trkpt><trkpt lat="-37.907314536606954" lon="146.0196870673563"><ele>256.0</ele><time>2026-05-06T03:52:48Z</time></trkpt><trkpt lat="-37.90738233942041" lon="146.0198524372359"><ele>253.0</ele><time>2026-05-06T03:52:49Z</time></trkpt><trkpt lat="-37.90746696265182" lon="146.02002347826507"><ele>250.0</ele><time>2026-05-06T03:52:50Z</time></trkpt><trkpt lat="-37.90752665354577" lon="146.0202038677232"><ele>247.0</ele><time>2026-05-06T03:52:51Z</time></trkpt><trkpt lat="-37.90759166725722" lon="146.02038995147242"><ele>248.0</ele><time>2026-05-06T03:52:52Z</time></trkpt><trkpt lat="-37.90765781627642" lon="146.02057145568"><ele>249.0</ele><time>2026-05-06T03:52:52.999Z</time></trkpt><trkpt lat="-37.90772414936401" lon="146.0207587850803"><ele>250.0</ele><time>2026-05-06T03:52:53.999Z</time></trkpt><trkpt lat="-37.907782245103846" lon="146.02094087704438"><ele>250.0</ele><time>2026-05-06T03:52:54.999Z</time></trkpt><trkpt lat="-37.90783233971416" lon="146.0211124281656"><ele>250.0</ele><time>2026-05-06T03:52:55.999Z</time></trkpt><trkpt lat="-37.9078736544279" lon="146.02130808411653"><ele>250.0</ele><time>2026-05-06T03:52:56.999Z</time></trkpt><trkpt lat="-37.90789406946444" lon="146.02151995507768"><ele>251.0</ele><time>2026-05-06T03:52:57.999Z</time></trkpt><trkpt lat="-37.90786011611609" lon="146.02173528149348"><ele>252.0</ele><time>2026-05-06T03:52:58.999Z</time></trkpt><trkpt lat="-37.90781999003964" lon="146.02194665237795"><ele>253.0</ele><time>2026-05-06T03:52:59.999Z</time></trkpt><trkpt lat="-37.90775382717006" lon="146.02214223438864"><ele>253.0</ele><time>2026-05-06T03:53:00.999Z</time></trkpt><trkpt lat="-37.90767114509557" lon="146.02233957050836"><ele>253.0</ele><time>2026-05-06T03:53:01.999Z</time></trkpt><trkpt lat="-37.907539107049026" lon="146.0224947134716"><ele>253.0</ele><time>2026-05-06T03:53:02.999Z</time></trkpt><trkpt lat="-37.90741730323907" lon="146.02265840081142"><ele>248.0</ele><time>2026-05-06T03:53:03.999Z</time></trkpt><trkpt lat="-37.90726487570565" lon="146.02273486107808"><ele>243.0</ele><time>2026-05-06T03:53:04.999Z</time></trkpt><trkpt lat="-37.90711885581658" lon="146.02280000919384"><ele>238.0</ele><time>2026-05-06T03:53:05.999Z</time></trkpt><trkpt lat="-37.9069638971008" lon="146.02284563844603"><ele>238.0</ele><time>2026-05-06T03:53:06.999Z</time></trkpt><trkpt lat="-37.90678919783453" lon="146.02289992359053"><ele>238.0</ele><time>2026-05-06T03:53:07.999Z</time></trkpt><trkpt lat="-37.9066080465742" lon="146.0229223983314"><ele>238.0</ele><time>2026-05-06T03:53:08.999Z</time></trkpt><trkpt lat="-37.90642401776692" lon="146.02295248201892"><ele>234.0</ele><time>2026-05-06T03:53:09.999Z</time></trkpt><trkpt lat="-37.906242973116754" lon="146.0229888619827"><ele>230.0</ele><time>2026-05-06T03:53:10.999Z</time></trkpt><trkpt lat="-37.90606259936204" lon="146.0230241220081"><ele>226.0</ele><time>2026-05-06T03:53:11.999Z</time></trkpt><trkpt lat="-37.905888885146005" lon="146.02305263923643"><ele>225.33333333333331</ele><time>2026-05-06T03:53:12.999Z</time></trkpt><trkpt lat="-37.9057315538525" lon="146.0230668208052"><ele>224.66666666666669</ele><time>2026-05-06T03:53:13.999Z</time></trkpt><trkpt lat="-37.90557058266101" lon="146.02301738398262"><ele>224.0</ele><time>2026-05-06T03:53:14.999Z</time></trkpt><trkpt lat="-37.90540662814727" lon="146.02293909784544"><ele>224.0</ele><time>2026-05-06T03:53:15.999Z</time></trkpt><trkpt lat="-37.90524507260392" lon="146.02284743413063"><ele>224.0</ele><time>2026-05-06T03:53:16.999Z</time></trkpt><trkpt lat="-37.905077910986996" lon="146.02276389365016"><ele>224.0</ele><time>2026-05-06T03:53:17.999Z</time></trkpt><trkpt lat="-37.9049214989035" lon="146.02266229659733"><ele>222.66666666666669</ele><time>2026-05-06T03:53:18.999Z</time></trkpt><trkpt lat="-37.90476821611655" lon="146.02258101423712"><ele>221.33333333333331</ele><time>2026-05-06T03:53:19.999Z</time></trkpt><trkpt lat="-37.90462466823787" lon="146.02251002831665"><ele>220.0</ele><time>2026-05-06T03:53:20.999Z</time></trkpt><trkpt lat="-37.90447173892864" lon="146.02247298161095"><ele>219.0</ele><time>2026-05-06T03:53:21.999Z</time></trkpt><trkpt lat="-37.90430979466822" lon="146.02247415956614"><ele>218.0</ele><time>2026-05-06T03:53:22.999Z</time></trkpt><trkpt lat="-37.90414807024494" lon="146.02250896921015"><ele>217.0</ele><time>2026-05-06T03:53:23.999Z</time></trkpt><trkpt lat="-37.90398494227867" lon="146.02254900009618"><ele>217.0</ele><time>2026-05-06T03:53:24.999Z</time></trkpt><trkpt lat="-37.90381724802054" lon="146.02256761022713"><ele>217.0</ele><time>2026-05-06T03:53:25.999Z</time></trkpt><trkpt lat="-37.90365128413724" lon="146.02258378095388"><ele>217.0</ele><time>2026-05-06T03:53:26.999Z</time></trkpt><trkpt lat="-37.903488750412336" lon="146.02260904814773"><ele>218.0</ele><time>2026-05-06T03:53:27.999Z</time></trkpt><trkpt lat="-37.90332685535909" lon="146.02263720899506"><ele>219.0</ele><time>2026-05-06T03:53:28.999Z</time></trkpt><trkpt lat="-37.90316714039244" lon="146.02266252329264"><ele>220.0</ele><time>2026-05-06T03:53:29.999Z</time></trkpt><trkpt lat="-37.90300774397124" lon="146.02268504295947"><ele>220.0</ele><time>2026-05-06T03:53:30.999Z</time></trkpt><trkpt lat="-37.902849138106326" lon="146.0227217523765"><ele>220.0</ele><time>2026-05-06T03:53:31.999Z</time></trkpt><trkpt lat="-37.90269897768869" lon="146.0227770015144"><ele>220.0</ele><time>2026-05-06T03:53:32.999Z</time></trkpt><trkpt lat="-37.90255544473611" lon="146.02286407188018"><ele>219.66666666666666</ele><time>2026-05-06T03:53:33.999Z</time></trkpt><trkpt lat="-37.902427281859005" lon="146.02298375539792"><ele>219.33333333333331</ele><time>2026-05-06T03:53:34.999Z</time></trkpt><trkpt lat="-37.90230649711442" lon="146.02311895134412"><ele>219.0</ele><time>2026-05-06T03:53:35.999Z</time></trkpt><trkpt lat="-37.90218585376049" lon="146.02325606932575"><ele>219.33333333333331</ele><time>2026-05-06T03:53:36.999Z</time></trkpt><trkpt lat="-37.90205433595673" lon="146.0233778552236"><ele>219.66666666666666</ele><time>2026-05-06T03:53:37.999Z</time></trkpt><trkpt lat="-37.90192449070466" lon="146.0234923741535"><ele>220.0</ele><time>2026-05-06T03:53:38.999Z</time></trkpt><trkpt lat="-37.90179672394541" lon="146.0235946642607"><ele>220.0</ele><time>2026-05-06T03:53:39.999Z</time></trkpt><trkpt lat="-37.901652620009465" lon="146.02363296940803"><ele>220.0</ele><time>2026-05-06T03:53:40.999Z</time></trkpt><trkpt lat="-37.90151346174016" lon="146.02364134190694"><ele>220.0</ele><time>2026-05-06T03:53:41.999Z</time></trkpt><trkpt lat="-37.90137200015289" lon="146.02360682932056"><ele>220.0</ele><time>2026-05-06T03:53:42.999Z</time></trkpt><trkpt lat="-37.90121947918783" lon="146.02356239290677"><ele>220.0</ele><time>2026-05-06T03:53:43.999Z</time></trkpt><trkpt lat="-37.90106396279163" lon="146.023531989722"><ele>220.0</ele><time>2026-05-06T03:53:44.999Z</time></trkpt><trkpt lat="-37.90091448063498" lon="146.02347996427358"><ele>220.0</ele><time>2026-05-06T03:53:45.999Z</time></trkpt><trkpt lat="-37.900772519447955" lon="146.0234458974269"><ele>223.0</ele><time>2026-05-06T03:53:46.999Z</time></trkpt><trkpt lat="-37.90063857162476" lon="146.02343445606033"><ele>226.0</ele><time>2026-05-06T03:53:47.999Z</time></trkpt><trkpt lat="-37.90049808873461" lon="146.02345111580735"><ele>229.0</ele><time>2026-05-06T03:53:48.999Z</time></trkpt><trkpt lat="-37.90036248584794" lon="146.02350201949622"><ele>232.0</ele><time>2026-05-06T03:53:49.999Z</time></trkpt><trkpt lat="-37.900233945621466" lon="146.02358924885854"><ele>232.0</ele><time>2026-05-06T03:53:50.999Z</time></trkpt><trkpt lat="-37.90010546653867" lon="146.023701191131"><ele>232.0</ele><time>2026-05-06T03:53:51.999Z</time></trkpt><trkpt lat="-37.89996335392889" lon="146.0238096417678"><ele>232.0</ele><time>2026-05-06T03:53:52.999Z</time></trkpt><trkpt lat="-37.8998050486473" lon="146.02388089408868"><ele>233.25</ele><time>2026-05-06T03:53:53.999Z</time></trkpt><trkpt lat="-37.899660142561686" lon="146.02388338845248"><ele>234.5</ele><time>2026-05-06T03:53:55Z</time></trkpt><trkpt lat="-37.89951866776429" lon="146.02386747834632"><ele>235.75</ele><time>2026-05-06T03:53:56Z</time></trkpt><trkpt lat="-37.89936138780437" lon="146.0238531665834"><ele>237.0</ele><time>2026-05-06T03:53:57Z</time></trkpt><trkpt lat="-37.89922134023552" lon="146.02386256875292"><ele>238.25</ele><time>2026-05-06T03:53:58Z</time></trkpt><trkpt lat="-37.89909647848869" lon="146.02389827004268"><ele>239.5</ele><time>2026-05-06T03:53:59Z</time></trkpt><trkpt lat="-37.898959555728354" lon="146.02396993816882"><ele>240.75</ele><time>2026-05-06T03:54:00Z</time></trkpt><trkpt lat="-37.898832506367086" lon="146.024115565464"><ele>242.0</ele><time>2026-05-06T03:54:01Z</time></trkpt><trkpt lat="-37.898721209672495" lon="146.02427383590802"><ele>242.0</ele><time>2026-05-06T03:54:02Z</time></trkpt><trkpt lat="-37.89861702877992" lon="146.02444601661318"><ele>242.0</ele><time>2026-05-06T03:54:03Z</time></trkpt><trkpt lat="-37.89849773812044" lon="146.02463073276078"><ele>242.0</ele><time>2026-05-06T03:54:04Z</time></trkpt><trkpt lat="-37.89839508228798" lon="146.0248137211422"><ele>243.66666666666669</ele><time>2026-05-06T03:54:05Z</time></trkpt><trkpt lat="-37.89828203632943" lon="146.0249971620677"><ele>245.33333333333331</ele><time>2026-05-06T03:54:06Z</time></trkpt><trkpt lat="-37.89816293791765" lon="146.02516339937716"><ele>247.0</ele><time>2026-05-06T03:54:07Z</time></trkpt><trkpt lat="-37.89804710154733" lon="146.02532286856396"><ele>247.0</ele><time>2026-05-06T03:54:08Z</time></trkpt><trkpt lat="-37.89794059163476" lon="146.02547885837856"><ele>247.0</ele><time>2026-05-06T03:54:09Z</time></trkpt><trkpt lat="-37.897840211751955" lon="146.02563070212935"><ele>247.0</ele><time>2026-05-06T03:54:10Z</time></trkpt><trkpt lat="-37.89773949395453" lon="146.02576474900906"><ele>248.5</ele><time>2026-05-06T03:54:11Z</time></trkpt><trkpt lat="-37.89764209328112" lon="146.02589384531464"><ele>250.0</ele><time>2026-05-06T03:54:12Z</time></trkpt><trkpt lat="-37.89755921319179" lon="146.02600643750066"><ele>251.5</ele><time>2026-05-06T03:54:13Z</time></trkpt><trkpt lat="-37.897452855539576" lon="146.0261602182242"><ele>253.0</ele><time>2026-05-06T03:54:14Z</time></trkpt><trkpt lat="-37.897342749491834" lon="146.02630227972432"><ele>253.0</ele><time>2026-05-06T03:54:15Z</time></trkpt><trkpt lat="-37.897213767737554" lon="146.02642949108338"><ele>253.0</ele><time>2026-05-06T03:54:16Z</time></trkpt><trkpt lat="-37.89707278212068" lon="146.02654029689458"><ele>253.0</ele><time>2026-05-06T03:54:17Z</time></trkpt><trkpt lat="-37.896935475664904" lon="146.02668089129725"><ele>254.66666666666666</ele><time>2026-05-06T03:54:18Z</time></trkpt><trkpt lat="-37.89679387334799" lon="146.02681264581702"><ele>256.3333333333333</ele><time>2026-05-06T03:54:19Z</time></trkpt><trkpt lat="-37.896655230967795" lon="146.02693678684062"><ele>258.0</ele><time>2026-05-06T03:54:20Z</time></trkpt><trkpt lat="-37.8965121830128" lon="146.02706319555088"><ele>258.0</ele><time>2026-05-06T03:54:21Z</time></trkpt><trkpt lat="-37.8963770368238" lon="146.02718004120607"><ele>258.0</ele><time>2026-05-06T03:54:22Z</time></trkpt><trkpt lat="-37.896239729896024" lon="146.02729811922703"><ele>258.0</ele><time>2026-05-06T03:54:23Z</time></trkpt><trkpt lat="-37.89609271122136" lon="146.0273770385851"><ele>258.0</ele><time>2026-05-06T03:54:24Z</time></trkpt><trkpt lat="-37.895967646488394" lon="146.02746132760396"><ele>258.0</ele><time>2026-05-06T03:54:25Z</time></trkpt><trkpt lat="-37.89584644412494" lon="146.02759492057794"><ele>258.0</ele><time>2026-05-06T03:54:26Z</time></trkpt><trkpt lat="-37.895711797196846" lon="146.0277184084722"><ele>261.6666666666667</ele><time>2026-05-06T03:54:27Z</time></trkpt><trkpt lat="-37.89555988148997" lon="146.02780065815543"><ele>265.33333333333337</ele><time>2026-05-06T03:54:28Z</time></trkpt><trkpt lat="-37.895421102361176" lon="146.0278733362735"><ele>269.0</ele><time>2026-05-06T03:54:29Z</time></trkpt><trkpt lat="-37.895299466659154" lon="146.02795192076834"><ele>269.0</ele><time>2026-05-06T03:54:30Z</time></trkpt><trkpt lat="-37.89516579335393" lon="146.02798833560536"><ele>269.0</ele><time>2026-05-06T03:54:31Z</time></trkpt><trkpt lat="-37.89502080537323" lon="146.02796320885406"><ele>269.0</ele><time>2026-05-06T03:54:32Z</time></trkpt><trkpt lat="-37.894865371656174" lon="146.02790277822896"><ele>269.0</ele><time>2026-05-06T03:54:33Z</time></trkpt><trkpt lat="-37.8947024577355" lon="146.02785095326325"><ele>267.6666666666667</ele><time>2026-05-06T03:54:34Z</time></trkpt><trkpt lat="-37.89453467607967" lon="146.02782308000238"><ele>266.3333333333333</ele><time>2026-05-06T03:54:35Z</time></trkpt><trkpt lat="-37.89435154821386" lon="146.027816422707"><ele>265.0</ele><time>2026-05-06T03:54:36Z</time></trkpt><trkpt lat="-37.89417919635941" lon="146.0278228754632"><ele>265.0</ele><time>2026-05-06T03:54:37Z</time></trkpt><trkpt lat="-37.89401034627279" lon="146.02783107059548"><ele>265.0</ele><time>2026-05-06T03:54:38Z</time></trkpt><trkpt lat="-37.89383797660225" lon="146.02782504558576"><ele>265.0</ele><time>2026-05-06T03:54:39Z</time></trkpt><trkpt lat="-37.893674220812414" lon="146.02782100023657"><ele>265.0</ele><time>2026-05-06T03:54:40Z</time></trkpt><trkpt lat="-37.89351985326789" lon="146.02781570186866"><ele>265.0</ele><time>2026-05-06T03:54:41Z</time></trkpt><trkpt lat="-37.89336159330641" lon="146.02780564234692"><ele>265.0</ele><time>2026-05-06T03:54:42Z</time></trkpt><trkpt lat="-37.893209225350844" lon="146.02779678705033"><ele>266.25</ele><time>2026-05-06T03:54:43Z</time></trkpt><trkpt lat="-37.89305619234646" lon="146.0277993432408"><ele>267.5</ele><time>2026-05-06T03:54:44Z</time></trkpt><trkpt lat="-37.892906519243304" lon="146.02783076875846"><ele>268.75</ele><time>2026-05-06T03:54:45Z</time></trkpt><trkpt lat="-37.89277675041508" lon="146.02788469771968"><ele>270.0</ele><time>2026-05-06T03:54:46Z</time></trkpt><trkpt lat="-37.892660641914446" lon="146.027978220433"><ele>268.3333333333333</ele><time>2026-05-06T03:54:47Z</time></trkpt><trkpt lat="-37.89255526094446" lon="146.02810277081008"><ele>266.66666666666663</ele><time>2026-05-06T03:54:48Z</time></trkpt><trkpt lat="-37.89246236709011" lon="146.02826280511783"><ele>265.0</ele><time>2026-05-06T03:54:49Z</time></trkpt><trkpt lat="-37.89238387728697" lon="146.02842293192722"><ele>272.3333333333333</ele><time>2026-05-06T03:54:50Z</time></trkpt><trkpt lat="-37.89232208782338" lon="146.02862433323253"><ele>279.6666666666667</ele><time>2026-05-06T03:54:51Z</time></trkpt><trkpt lat="-37.89228199077512" lon="146.02882673734686"><ele>287.0</ele><time>2026-05-06T03:54:52Z</time></trkpt><trkpt lat="-37.89226020933757" lon="146.02903700245625"><ele>292.0</ele><time>2026-05-06T03:54:53Z</time></trkpt><trkpt lat="-37.892261735792026" lon="146.02923498029224"><ele>297.0</ele><time>2026-05-06T03:54:54Z</time></trkpt><trkpt lat="-37.89226078905053" lon="146.02942616898477"><ele>302.0</ele><time>2026-05-06T03:54:55Z</time></trkpt><trkpt lat="-37.89230422177737" lon="146.02961897559393"><ele>302.0</ele><time>2026-05-06T03:54:56Z</time></trkpt><trkpt lat="-37.89236821810828" lon="146.029815391959"><ele>302.0</ele><time>2026-05-06T03:54:57Z</time></trkpt><trkpt lat="-37.89246059765822" lon="146.03000467830807"><ele>302.0</ele><time>2026-05-06T03:54:57.999Z</time></trkpt><trkpt lat="-37.89253234040089" lon="146.0301814181129"><ele>302.25</ele><time>2026-05-06T03:54:58.999Z</time></trkpt><trkpt lat="-37.8925843012536" lon="146.03033966266875"><ele>302.5</ele><time>2026-05-06T03:54:59.999Z</time></trkpt><trkpt lat="-37.89259120056334" lon="146.03047578620723"><ele>302.75</ele><time>2026-05-06T03:55:00.999Z</time></trkpt><trkpt lat="-37.892538760909034" lon="146.03061839528314"><ele>303.0</ele><time>2026-05-06T03:55:01.999Z</time></trkpt><trkpt lat="-37.89246864304203" lon="146.03080908243132"><ele>307.3333333333333</ele><time>2026-05-06T03:55:02.999Z</time></trkpt><trkpt lat="-37.892354953783304" lon="146.0309415464039"><ele>311.66666666666663</ele><time>2026-05-06T03:55:03.999Z</time></trkpt><trkpt lat="-37.892225773057184" lon="146.03102009400493"><ele>316.0</ele><time>2026-05-06T03:55:04.999Z</time></trkpt><trkpt lat="-37.89209908104239" lon="146.0311276398255"><ele>316.0</ele><time>2026-05-06T03:55:05.999Z</time></trkpt><trkpt lat="-37.89195851273054" lon="146.0312300195385"><ele>316.0</ele><time>2026-05-06T03:55:06.999Z</time></trkpt><trkpt lat="-37.891837862094306" lon="146.03137830686273"><ele>316.0</ele><time>2026-05-06T03:55:07.999Z</time></trkpt><trkpt lat="-37.891739746670574" lon="146.0315411368489"><ele>312.3333333333333</ele><time>2026-05-06T03:55:08.999Z</time></trkpt><trkpt lat="-37.891661628207494" lon="146.03171842734284"><ele>308.6666666666667</ele><time>2026-05-06T03:55:09.999Z</time></trkpt><trkpt lat="-37.89157018097204" lon="146.0319080875091"><ele>305.0</ele><time>2026-05-06T03:55:10.999Z</time></trkpt><trkpt lat="-37.89147512025409" lon="146.0320908079468"><ele>305.0</ele><time>2026-05-06T03:55:11.999Z</time></trkpt><trkpt lat="-37.891359852330126" lon="146.0322330222969"><ele>305.0</ele><time>2026-05-06T03:55:12.999Z</time></trkpt><trkpt lat="-37.89122746039201" lon="146.03229541485584"><ele>305.0</ele><time>2026-05-06T03:55:13.999Z</time></trkpt><trkpt lat="-37.891078263227186" lon="146.0323341441442"><ele>303.6666666666667</ele><time>2026-05-06T03:55:14.999Z</time></trkpt><trkpt lat="-37.890919408247534" lon="146.03233074717883"><ele>302.3333333333333</ele><time>2026-05-06T03:55:15.999Z</time></trkpt><trkpt lat="-37.890746051259036" lon="146.03234735799634"><ele>301.0</ele><time>2026-05-06T03:55:16.999Z</time></trkpt><trkpt lat="-37.89058243738948" lon="146.03237000039675"><ele>301.0</ele><time>2026-05-06T03:55:17.999Z</time></trkpt><trkpt lat="-37.89043254971377" lon="146.0324182437165"><ele>301.0</ele><time>2026-05-06T03:55:18.999Z</time></trkpt><trkpt lat="-37.89029211966439" lon="146.03245704728033"><ele>301.0</ele><time>2026-05-06T03:55:19.999Z</time></trkpt><trkpt lat="-37.89017303195862" lon="146.0325960684554"><ele>304.5</ele><time>2026-05-06T03:55:20.999Z</time></trkpt><trkpt lat="-37.890065157281214" lon="146.03272716198853"><ele>308.0</ele><time>2026-05-06T03:55:21.999Z</time></trkpt><trkpt lat="-37.88997799457852" lon="146.03287592952236"><ele>311.5</ele><time>2026-05-06T03:55:22.999Z</time></trkpt><trkpt lat="-37.889935474269244" lon="146.03302995994"><ele>315.0</ele><time>2026-05-06T03:55:23.999Z</time></trkpt><trkpt lat="-37.88991908390975" lon="146.03320280543053"><ele>321.3333333333333</ele><time>2026-05-06T03:55:24.999Z</time></trkpt><trkpt lat="-37.88991931084844" lon="146.03338750420232"><ele>327.66666666666663</ele><time>2026-05-06T03:55:25.999Z</time></trkpt><trkpt lat="-37.88991744707788" lon="146.03357931795398"><ele>334.0</ele><time>2026-05-06T03:55:26.999Z</time></trkpt><trkpt lat="-37.88990481126307" lon="146.03378482187478"><ele>334.0</ele><time>2026-05-06T03:55:27.999Z</time></trkpt><trkpt lat="-37.88988488710619" lon="146.03399643882267"><ele>334.0</ele><time>2026-05-06T03:55:28.999Z</time></trkpt><trkpt lat="-37.88985961886187" lon="146.03419449105544"><ele>334.0</ele><time>2026-05-06T03:55:29.999Z</time></trkpt><trkpt lat="-37.889821702424435" lon="146.03435756084733"><ele>339.25</ele><time>2026-05-06T03:55:30.999Z</time></trkpt><trkpt lat="-37.889741786094895" lon="146.03446264541336"><ele>344.5</ele><time>2026-05-06T03:55:31.999Z</time></trkpt><trkpt lat="-37.889643815882394" lon="146.03451997886444"><ele>349.75</ele><time>2026-05-06T03:55:32.999Z</time></trkpt><trkpt lat="-37.88951938795284" lon="146.03453515492944"><ele>355.0</ele><time>2026-05-06T03:55:33.999Z</time></trkpt><trkpt lat="-37.889389808568176" lon="146.03458758876008"><ele>355.0</ele><time>2026-05-06T03:55:34.999Z</time></trkpt><trkpt lat="-37.88927381120556" lon="146.0346128750983"><ele>355.0</ele><time>2026-05-06T03:55:35.999Z</time></trkpt><trkpt lat="-37.88914962229922" lon="146.03471591513127"><ele>355.0</ele><time>2026-05-06T03:55:36.999Z</time></trkpt><trkpt lat="-37.8890480865848" lon="146.03485801242203"><ele>355.0</ele><time>2026-05-06T03:55:37.999Z</time></trkpt><trkpt lat="-37.88896606981195" lon="146.03501982605525"><ele>354.66666666666663</ele><time>2026-05-06T03:55:38.999Z</time></trkpt><trkpt lat="-37.88889563387408" lon="146.0351953264802"><ele>354.3333333333333</ele><time>2026-05-06T03:55:39.999Z</time></trkpt><trkpt lat="-37.888883657469975" lon="146.03540384225678"><ele>354.0</ele><time>2026-05-06T03:55:40.999Z</time></trkpt><trkpt lat="-37.88886179775344" lon="146.03561667436665"><ele>362.6666666666667</ele><time>2026-05-06T03:55:41.999Z</time></trkpt><trkpt lat="-37.88882157076183" lon="146.0358387607402"><ele>371.33333333333337</ele><time>2026-05-06T03:55:42.999Z</time></trkpt><trkpt lat="-37.8887697253359" lon="146.03605733880855"><ele>380.0</ele><time>2026-05-06T03:55:43.999Z</time></trkpt><trkpt lat="-37.88870216756931" lon="146.03627149975568"><ele>380.0</ele><time>2026-05-06T03:55:44.999Z</time></trkpt><trkpt lat="-37.8886299033551" lon="146.03647522004007"><ele>380.0</ele><time>2026-05-06T03:55:45.999Z</time></trkpt><trkpt lat="-37.888555234916026" lon="146.03667061489372"><ele>380.0</ele><time>2026-05-06T03:55:46.999Z</time></trkpt><trkpt lat="-37.88847946293516" lon="146.03685161604417"><ele>377.0</ele><time>2026-05-06T03:55:47.999Z</time></trkpt><trkpt lat="-37.8884057528826" lon="146.03702507620946"><ele>374.0</ele><time>2026-05-06T03:55:48.999Z</time></trkpt><trkpt lat="-37.888350997231285" lon="146.03720108687236"><ele>371.0</ele><time>2026-05-06T03:55:49.999Z</time></trkpt><trkpt lat="-37.88832878080897" lon="146.0373646840869"><ele>368.0</ele><time>2026-05-06T03:55:50.999Z</time></trkpt><trkpt lat="-37.88834757835108" lon="146.0375377844549"><ele>368.0</ele><time>2026-05-06T03:55:51.999Z</time></trkpt><trkpt lat="-37.88838259113477" lon="146.03773255803898"><ele>368.0</ele><time>2026-05-06T03:55:52.999Z</time></trkpt><trkpt lat="-37.88842395619504" lon="146.03792738021596"><ele>368.0</ele><time>2026-05-06T03:55:53.999Z</time></trkpt><trkpt lat="-37.888464398592966" lon="146.038111914515"><ele>370.5</ele><time>2026-05-06T03:55:54.999Z</time></trkpt><trkpt lat="-37.88847185267837" lon="146.03827421099575"><ele>373.0</ele><time>2026-05-06T03:55:55.999Z</time></trkpt><trkpt lat="-37.888421707670496" lon="146.0384165922921"><ele>375.5</ele><time>2026-05-06T03:55:56.999Z</time></trkpt><trkpt lat="-37.88834993179828" lon="146.03852026891585"><ele>378.0</ele><time>2026-05-06T03:55:57.999Z</time></trkpt><trkpt lat="-37.88825609154572" lon="146.03861028017778"><ele>378.0</ele><time>2026-05-06T03:55:58.999Z</time></trkpt><trkpt lat="-37.88813421577714" lon="146.03865597821533"><ele>378.0</ele><time>2026-05-06T03:55:59.999Z</time></trkpt><trkpt lat="-37.888024615032116" lon="146.03862911811882"><ele>378.0</ele><time>2026-05-06T03:56:01Z</time></trkpt><trkpt lat="-37.88790083015243" lon="146.0386143016262"><ele>378.0</ele><time>2026-05-06T03:56:02Z</time></trkpt><trkpt lat="-37.887765335346245" lon="146.03860383426792"><ele>378.0</ele><time>2026-05-06T03:56:03Z</time></trkpt><trkpt lat="-37.88762550399431" lon="146.03859830334576"><ele>378.0</ele><time>2026-05-06T03:56:04Z</time></trkpt><trkpt lat="-37.88748031410982" lon="146.03862787483814"><ele>378.0</ele><time>2026-05-06T03:56:05Z</time></trkpt><trkpt lat="-37.8873356305086" lon="146.0386878582643"><ele>378.0</ele><time>2026-05-06T03:56:06Z</time></trkpt><trkpt lat="-37.887198905466846" lon="146.03876640522603"><ele>376.0</ele><time>2026-05-06T03:56:07Z</time></trkpt><trkpt lat="-37.887076478306994" lon="146.03886875350625"><ele>374.0</ele><time>2026-05-06T03:56:08Z</time></trkpt><trkpt lat="-37.886975633147436" lon="146.0390018635406"><ele>372.0</ele><time>2026-05-06T03:56:09Z</time></trkpt><trkpt lat="-37.88688658089475" lon="146.03916011346402"><ele>370.0</ele><time>2026-05-06T03:56:10Z</time></trkpt><trkpt lat="-37.88681265320153" lon="146.03934828235094"><ele>373.0</ele><time>2026-05-06T03:56:11Z</time></trkpt><trkpt lat="-37.88676414789831" lon="146.03954520093822"><ele>376.0</ele><time>2026-05-06T03:56:12Z</time></trkpt><trkpt lat="-37.88674002426158" lon="146.03975250613652"><ele>379.0</ele><time>2026-05-06T03:56:13Z</time></trkpt><trkpt lat="-37.886737116260186" lon="146.03996463348915"><ele>384.0</ele><time>2026-05-06T03:56:14Z</time></trkpt><trkpt lat="-37.88675032414324" lon="146.04018339962533"><ele>389.0</ele><time>2026-05-06T03:56:15Z</time></trkpt><trkpt lat="-37.88677256520583" lon="146.04039760349974"><ele>394.0</ele><time>2026-05-06T03:56:16Z</time></trkpt><trkpt lat="-37.88680448010629" lon="146.04061191508686"><ele>413.0</ele><time>2026-05-06T03:56:17Z</time></trkpt><trkpt lat="-37.88683995045246" lon="146.04082750789615"><ele>432.0</ele><time>2026-05-06T03:56:18Z</time></trkpt><trkpt lat="-37.88688511700916" lon="146.04104087433643"><ele>451.0</ele><time>2026-05-06T03:56:19Z</time></trkpt><trkpt lat="-37.88693327393265" lon="146.04125141150118"><ele>451.0</ele><time>2026-05-06T03:56:20Z</time></trkpt><trkpt lat="-37.88698421539635" lon="146.0414646324216"><ele>451.0</ele><time>2026-05-06T03:56:21Z</time></trkpt><trkpt lat="-37.88703405360957" lon="146.04167816943553"><ele>451.0</ele><time>2026-05-06T03:56:22Z</time></trkpt><trkpt lat="-37.887083279595466" lon="146.04189157428632"><ele>450.6666666666667</ele><time>2026-05-06T03:56:23Z</time></trkpt><trkpt lat="-37.88712044561287" lon="146.04208478181835"><ele>450.33333333333337</ele><time>2026-05-06T03:56:24Z</time></trkpt><trkpt lat="-37.88716925384205" lon="146.04230436475072"><ele>450.0</ele><time>2026-05-06T03:56:25Z</time></trkpt><trkpt lat="-37.88720817773013" lon="146.04252522139373"><ele>448.0</ele><time>2026-05-06T03:56:26Z</time></trkpt><trkpt lat="-37.88724801460578" lon="146.04271782150505"><ele>446.0</ele><time>2026-05-06T03:56:27Z</time></trkpt><trkpt lat="-37.887278099574374" lon="146.0428929955116"><ele>444.0</ele><time>2026-05-06T03:56:28Z</time></trkpt><trkpt lat="-37.887285863033206" lon="146.04306649333395"><ele>442.0</ele><time>2026-05-06T03:56:29Z</time></trkpt><trkpt lat="-37.88726991004041" lon="146.0432409090865"><ele>444.5</ele><time>2026-05-06T03:56:30Z</time></trkpt><trkpt lat="-37.88722194804473" lon="146.04340146154445"><ele>447.0</ele><time>2026-05-06T03:56:31Z</time></trkpt><trkpt lat="-37.887127547666964" lon="146.0435470350279"><ele>449.5</ele><time>2026-05-06T03:56:32Z</time></trkpt><trkpt lat="-37.886999115513234" lon="146.04366726063165"><ele>452.0</ele><time>2026-05-06T03:56:33Z</time></trkpt><trkpt lat="-37.886863374077" lon="146.04377049293413"><ele>439.0</ele><time>2026-05-06T03:56:34Z</time></trkpt><trkpt lat="-37.886728778976725" lon="146.04388938849624"><ele>426.0</ele><time>2026-05-06T03:56:35Z</time></trkpt><trkpt lat="-37.88658539079427" lon="146.044015393574"><ele>413.0</ele><time>2026-05-06T03:56:36Z</time></trkpt><trkpt lat="-37.88643866437724" lon="146.04411853465163"><ele>420.25</ele><time>2026-05-06T03:56:37Z</time></trkpt><trkpt lat="-37.886290817024644" lon="146.04422026788347"><ele>427.5</ele><time>2026-05-06T03:56:38Z</time></trkpt><trkpt lat="-37.88617115273813" lon="146.04434445678888"><ele>434.75</ele><time>2026-05-06T03:56:39Z</time></trkpt><trkpt lat="-37.88610244159605" lon="146.04447555258025"><ele>442.0</ele><time>2026-05-06T03:56:40Z</time></trkpt><trkpt lat="-37.88604005034488" lon="146.0446428141744"><ele>442.0</ele><time>2026-05-06T03:56:41Z</time></trkpt><trkpt lat="-37.886009998358794" lon="146.0448284359284"><ele>442.0</ele><time>2026-05-06T03:56:42Z</time></trkpt><trkpt lat="-37.88600618027517" lon="146.04503149612978"><ele>442.0</ele><time>2026-05-06T03:56:43Z</time></trkpt><trkpt lat="-37.886026081126744" lon="146.0452460999702"><ele>449.33333333333337</ele><time>2026-05-06T03:56:44Z</time></trkpt><trkpt lat="-37.8860461622578" lon="146.04546396026808"><ele>456.66666666666663</ele><time>2026-05-06T03:56:45Z</time></trkpt><trkpt lat="-37.8860600221325" lon="146.0456997710418"><ele>464.0</ele><time>2026-05-06T03:56:46Z</time></trkpt><trkpt lat="-37.88604949302531" lon="146.04593106851678"><ele>464.0</ele><time>2026-05-06T03:56:47Z</time></trkpt><trkpt lat="-37.88602207471091" lon="146.04614834714627"><ele>464.0</ele><time>2026-05-06T03:56:48Z</time></trkpt><trkpt lat="-37.88597099040721" lon="146.04635315582357"><ele>464.0</ele><time>2026-05-06T03:56:49Z</time></trkpt><trkpt lat="-37.885899208566485" lon="146.04655170909027"><ele>465.0</ele><time>2026-05-06T03:56:50Z</time></trkpt><trkpt lat="-37.88582905527489" lon="146.04675955843706"><ele>466.0</ele><time>2026-05-06T03:56:51Z</time></trkpt><trkpt lat="-37.88576662228406" lon="146.04696032008366"><ele>467.0</ele><time>2026-05-06T03:56:52Z</time></trkpt><trkpt lat="-37.88572847520292" lon="146.04715922121008"><ele>467.0</ele><time>2026-05-06T03:56:53Z</time></trkpt><trkpt lat="-37.88569073827843" lon="146.04735226201373"><ele>467.0</ele><time>2026-05-06T03:56:54Z</time></trkpt><trkpt lat="-37.885686342711544" lon="146.0475656785104"><ele>467.0</ele><time>2026-05-06T03:56:55Z</time></trkpt><trkpt lat="-37.885696255316724" lon="146.04778096381182"><ele>467.66666666666663</ele><time>2026-05-06T03:56:56Z</time></trkpt><trkpt lat="-37.88571358269993" lon="146.0479968624627"><ele>468.33333333333337</ele><time>2026-05-06T03:56:57Z</time></trkpt><trkpt lat="-37.885754262309945" lon="146.04821053181672"><ele>469.0</ele><time>2026-05-06T03:56:58Z</time></trkpt><trkpt lat="-37.88579631406348" lon="146.04842579099568"><ele>472.0</ele><time>2026-05-06T03:56:59Z</time></trkpt><trkpt lat="-37.88583721012141" lon="146.0486583771107"><ele>475.0</ele><time>2026-05-06T03:57:00Z</time></trkpt><trkpt lat="-37.88588012485295" lon="146.04887783402165"><ele>478.0</ele><time>2026-05-06T03:57:01Z</time></trkpt><trkpt lat="-37.88591329270538" lon="146.04909684960057"><ele>477.33333333333337</ele><time>2026-05-06T03:57:02Z</time></trkpt><trkpt lat="-37.88594019506342" lon="146.04931595108604"><ele>476.66666666666663</ele><time>2026-05-06T03:57:02.999Z</time></trkpt><trkpt lat="-37.88594995222151" lon="146.04951152363853"><ele>476.0</ele><time>2026-05-06T03:57:03.999Z</time></trkpt><trkpt lat="-37.885934310619234" lon="146.04972520423254"><ele>479.3333333333333</ele><time>2026-05-06T03:57:04.999Z</time></trkpt><trkpt lat="-37.88589171566624" lon="146.04994683540568"><ele>482.66666666666663</ele><time>2026-05-06T03:57:05.999Z</time></trkpt><trkpt lat="-37.88584176131789" lon="146.0501930216319"><ele>486.0</ele><time>2026-05-06T03:57:06.999Z</time></trkpt><trkpt lat="-37.885777971630894" lon="146.05042935151286"><ele>487.66666666666663</ele><time>2026-05-06T03:57:07.999Z</time></trkpt><trkpt lat="-37.88570986590145" lon="146.05065668155072"><ele>489.3333333333333</ele><time>2026-05-06T03:57:08.999Z</time></trkpt><trkpt lat="-37.885645766341206" lon="146.0508631009376"><ele>491.0</ele><time>2026-05-06T03:57:09.999Z</time></trkpt><trkpt lat="-37.88558976229498" lon="146.05106220933175"><ele>493.0</ele><time>2026-05-06T03:57:10.999Z</time></trkpt><trkpt lat="-37.885544863750106" lon="146.05125808091307"><ele>495.0</ele><time>2026-05-06T03:57:11.999Z</time></trkpt><trkpt lat="-37.885523842384984" lon="146.051466136979"><ele>497.0</ele><time>2026-05-06T03:57:12.999Z</time></trkpt><trkpt lat="-37.88551514546901" lon="146.05167096345266"><ele>499.3333333333333</ele><time>2026-05-06T03:57:13.999Z</time></trkpt><trkpt lat="-37.88551889134197" lon="146.0518855657565"><ele>501.66666666666663</ele><time>2026-05-06T03:57:14.999Z</time></trkpt><trkpt lat="-37.88552366561275" lon="146.052112265482"><ele>504.0</ele><time>2026-05-06T03:57:15.999Z</time></trkpt><trkpt lat="-37.885532546133305" lon="146.0523407608629"><ele>507.0</ele><time>2026-05-06T03:57:16.999Z</time></trkpt><trkpt lat="-37.88552785854039" lon="146.052571518505"><ele>510.0</ele><time>2026-05-06T03:57:17.999Z</time></trkpt><trkpt lat="-37.88552184823769" lon="146.0528096050614"><ele>513.0</ele><time>2026-05-06T03:57:18.999Z</time></trkpt><trkpt lat="-37.88552081646945" lon="146.05303157575463"><ele>513.0</ele><time>2026-05-06T03:57:19.999Z</time></trkpt><trkpt lat="-37.88552632159887" lon="146.05326110864428"><ele>513.0</ele><time>2026-05-06T03:57:20.999Z</time></trkpt><trkpt lat="-37.885524603101445" lon="146.0534893244249"><ele>513.0</ele><time>2026-05-06T03:57:21.999Z</time></trkpt><trkpt lat="-37.88551980471849" lon="146.05370556887178"><ele>515.3333333333334</ele><time>2026-05-06T03:57:22.999Z</time></trkpt><trkpt lat="-37.88551915265897" lon="146.05393915055913"><ele>517.6666666666667</ele><time>2026-05-06T03:57:23.999Z</time></trkpt><trkpt lat="-37.885522834747235" lon="146.05416854320018"><ele>520.0</ele><time>2026-05-06T03:57:24.999Z</time></trkpt><trkpt lat="-37.885531690201304" lon="146.05439774511956"><ele>522.3333333333334</ele><time>2026-05-06T03:57:25.999Z</time></trkpt><trkpt lat="-37.88554477030605" lon="146.05463955140067"><ele>524.6666666666666</ele><time>2026-05-06T03:57:26.999Z</time></trkpt><trkpt lat="-37.885571282207444" lon="146.05487523094973"><ele>527.0</ele><time>2026-05-06T03:57:27.999Z</time></trkpt><trkpt lat="-37.88560393026802" lon="146.0551182587098"><ele>528.6666666666666</ele><time>2026-05-06T03:57:28.999Z</time></trkpt><trkpt lat="-37.88563413558509" lon="146.0553553164758"><ele>530.3333333333334</ele><time>2026-05-06T03:57:29.999Z</time></trkpt><trkpt lat="-37.885664241906994" lon="146.05560620105382"><ele>532.0</ele><time>2026-05-06T03:57:30.999Z</time></trkpt><trkpt lat="-37.885685354016296" lon="146.0558469235167"><ele>533.0</ele><time>2026-05-06T03:57:31.999Z</time></trkpt><trkpt lat="-37.88570887841455" lon="146.05608671905475"><ele>534.0</ele><time>2026-05-06T03:57:32.999Z</time></trkpt><trkpt lat="-37.885733617350716" lon="146.0563250959713"><ele>535.0</ele><time>2026-05-06T03:57:33.999Z</time></trkpt><trkpt lat="-37.88575894692067" lon="146.05656680482412"><ele>537.0</ele><time>2026-05-06T03:57:34.999Z</time></trkpt><trkpt lat="-37.885787708793" lon="146.05681919525847"><ele>539.0</ele><time>2026-05-06T03:57:35.999Z</time></trkpt><trkpt lat="-37.88581304651358" lon="146.057066204971"><ele>541.0</ele><time>2026-05-06T03:57:36.999Z</time></trkpt><trkpt lat="-37.8858393863384" lon="146.05730939758558"><ele>543.0</ele><time>2026-05-06T03:57:37.999Z</time></trkpt><trkpt lat="-37.88586463144886" lon="146.0575523174607"><ele>545.0</ele><time>2026-05-06T03:57:38.999Z</time></trkpt><trkpt lat="-37.88588959764084" lon="146.0577947222658"><ele>547.0</ele><time>2026-05-06T03:57:39.999Z</time></trkpt><trkpt lat="-37.885919269448465" lon="146.05803841783495"><ele>545.0</ele><time>2026-05-06T03:57:40.999Z</time></trkpt><trkpt lat="-37.8859480164418" lon="146.05827814219788"><ele>543.0</ele><time>2026-05-06T03:57:41.999Z</time></trkpt><trkpt lat="-37.88597615681934" lon="146.05852168126287"><ele>541.0</ele><time>2026-05-06T03:57:42.999Z</time></trkpt><trkpt lat="-37.88599918899928" lon="146.0587754275004"><ele>541.0</ele><time>2026-05-06T03:57:43.999Z</time></trkpt><trkpt lat="-37.886024838228664" lon="146.0590272632605"><ele>541.0</ele><time>2026-05-06T03:57:44.999Z</time></trkpt><trkpt lat="-37.88604923805677" lon="146.05928057320742"><ele>541.0</ele><time>2026-05-06T03:57:45.999Z</time></trkpt><trkpt lat="-37.88607392156828" lon="146.0595207324781"><ele>543.6666666666667</ele><time>2026-05-06T03:57:46.999Z</time></trkpt><trkpt lat="-37.88609742796694" lon="146.05974334641624"><ele>546.3333333333334</ele><time>2026-05-06T03:57:47.999Z</time></trkpt><trkpt lat="-37.88613394626166" lon="146.05996906880912"><ele>549.0</ele><time>2026-05-06T03:57:48.999Z</time></trkpt><trkpt lat="-37.886150584584186" lon="146.06017039623137"><ele>551.0</ele><time>2026-05-06T03:57:49.999Z</time></trkpt><trkpt lat="-37.88617183182939" lon="146.0603424312212"><ele>553.0</ele><time>2026-05-06T03:57:50.999Z</time></trkpt><trkpt lat="-37.88618257756895" lon="146.06051007236377"><ele>555.0</ele><time>2026-05-06T03:57:51.999Z</time></trkpt><trkpt lat="-37.88619356463236" lon="146.0606652160653"><ele>557.0</ele><time>2026-05-06T03:57:52.999Z</time></trkpt><trkpt lat="-37.88621131084324" lon="146.06080365470285"><ele>557.0</ele><time>2026-05-06T03:57:53.999Z</time></trkpt><trkpt lat="-37.88621922432428" lon="146.060914493997"><ele>557.0</ele><time>2026-05-06T03:57:54.999Z</time></trkpt><trkpt lat="-37.88622049104217" lon="146.06100757684385"><ele>557.0</ele><time>2026-05-06T03:57:55.999Z</time></trkpt><trkpt lat="-37.88623571799204" lon="146.06108951795423"><ele>557.0</ele><time>2026-05-06T03:57:56.999Z</time></trkpt><trkpt lat="-37.886228795390984" lon="146.06120349025778"><ele>557.0</ele><time>2026-05-06T03:57:58.999Z</time></trkpt><trkpt lat="-37.88642601369587" lon="146.0612366646837"><ele>557.0</ele><time>2026-05-06T03:57:59.999Z</time></trkpt><trkpt lat="-37.886520189021475" lon="146.06128054112796"><ele>557.0</ele><time>2026-05-06T03:58:00.999Z</time></trkpt><trkpt lat="-37.886621259398574" lon="146.06133088202125"><ele>557.0</ele><time>2026-05-06T03:58:01.999Z</time></trkpt><trkpt lat="-37.886722646172025" lon="146.06138081306827"><ele>557.0</ele><time>2026-05-06T03:58:02.999Z</time></trkpt><trkpt lat="-37.88681110415362" lon="146.06142597139385"><ele>557.0</ele><time>2026-05-06T03:58:03.999Z</time></trkpt><trkpt lat="-37.886893485502384" lon="146.06147843199378"><ele>556.3333333333333</ele><time>2026-05-06T03:58:04.999Z</time></trkpt><trkpt lat="-37.88695324016149" lon="146.06152537022186"><ele>555.6666666666666</ele><time>2026-05-06T03:58:05.999Z</time></trkpt><trkpt lat="-37.88702037034869" lon="146.06157156512754"><ele>555.0</ele><time>2026-05-06T03:58:07Z</time></trkpt><trkpt lat="-37.88712091980431" lon="146.06162531109405"><ele>554.3333333333334</ele><time>2026-05-06T03:58:09Z</time></trkpt><trkpt lat="-37.887205212985506" lon="146.0616866170805"><ele>553.6666666666667</ele><time>2026-05-06T03:58:11Z</time></trkpt><trkpt lat="-37.88729403399231" lon="146.06171355002587"><ele>553.0</ele><time>2026-05-06T03:58:13Z</time></trkpt><trkpt lat="-37.88739580429997" lon="146.06177323316362"><ele>553.0</ele><time>2026-05-06T03:58:15Z</time></trkpt><trkpt lat="-37.887494425104066" lon="146.06182139968527"><ele>553.0</ele><time>2026-05-06T03:58:17Z</time></trkpt><trkpt lat="-37.887579705235254" lon="146.06187668678353"><ele>553.0</ele><time>2026-05-06T03:58:19Z</time></trkpt><trkpt lat="-37.887704727455954" lon="146.06194611730652"><ele>553.0</ele><time>2026-05-06T03:58:21Z</time></trkpt><trkpt lat="-37.88778754065981" lon="146.06198992589515"><ele>553.0</ele><time>2026-05-06T03:58:22Z</time></trkpt><trkpt lat="-37.8878913536989" lon="146.06203917313476"><ele>551.75</ele><time>2026-05-06T03:58:23Z</time></trkpt><trkpt lat="-37.88799996747047" lon="146.0620703357069"><ele>550.5</ele><time>2026-05-06T03:58:24Z</time></trkpt><trkpt lat="-37.888132755249565" lon="146.0620796492617"><ele>549.25</ele><time>2026-05-06T03:58:25Z</time></trkpt><trkpt lat="-37.88826943086618" lon="146.06205182851681"><ele>548.0</ele><time>2026-05-06T03:58:26Z</time></trkpt><trkpt lat="-37.888420356943456" lon="146.06200716149846"><ele>549.3333333333333</ele><time>2026-05-06T03:58:27Z</time></trkpt><trkpt lat="-37.888612669149836" lon="146.0619460573185"><ele>550.6666666666666</ele><time>2026-05-06T03:58:28Z</time></trkpt><trkpt lat="-37.88882254372197" lon="146.06187433411912"><ele>552.0</ele><time>2026-05-06T03:58:29Z</time></trkpt><trkpt lat="-37.889014324254745" lon="146.06182291659047"><ele>552.0</ele><time>2026-05-06T03:58:30Z</time></trkpt><trkpt lat="-37.88921366850881" lon="146.06175958817414"><ele>552.0</ele><time>2026-05-06T03:58:31Z</time></trkpt><trkpt lat="-37.88939980964917" lon="146.06169687524357"><ele>552.0</ele><time>2026-05-06T03:58:32Z</time></trkpt><trkpt lat="-37.88956966319752" lon="146.06163774031063"><ele>551.0</ele><time>2026-05-06T03:58:33Z</time></trkpt><trkpt lat="-37.88974694634177" lon="146.0615913840654"><ele>550.0</ele><time>2026-05-06T03:58:34Z</time></trkpt><trkpt lat="-37.88992061600953" lon="146.06155528987145"><ele>549.0</ele><time>2026-05-06T03:58:35Z</time></trkpt><trkpt lat="-37.890077325200885" lon="146.0615618892725"><ele>553.3333333333334</ele><time>2026-05-06T03:58:36Z</time></trkpt><trkpt lat="-37.890243148343316" lon="146.06161258798502"><ele>557.6666666666667</ele><time>2026-05-06T03:58:37Z</time></trkpt><trkpt lat="-37.89041582483524" lon="146.06169569816393"><ele>562.0</ele><time>2026-05-06T03:58:38Z</time></trkpt><trkpt lat="-37.89058038775341" lon="146.0617918112309"><ele>564.0</ele><time>2026-05-06T03:58:39Z</time></trkpt><trkpt lat="-37.89071377712854" lon="146.06187578279977"><ele>566.0</ele><time>2026-05-06T03:58:40Z</time></trkpt><trkpt lat="-37.89083007570435" lon="146.06195869226954"><ele>568.0</ele><time>2026-05-06T03:58:41Z</time></trkpt><trkpt lat="-37.89094969508862" lon="146.06202045921464"><ele>570.0</ele><time>2026-05-06T03:58:42Z</time></trkpt><trkpt lat="-37.891050382416815" lon="146.06207378771867"><ele>570.0</ele><time>2026-05-06T03:58:43Z</time></trkpt><trkpt lat="-37.8911490799329" lon="146.06213529591523"><ele>570.0</ele><time>2026-05-06T03:58:44Z</time></trkpt><trkpt lat="-37.89124524148888" lon="146.06218051778131"><ele>570.0</ele><time>2026-05-06T03:58:45Z</time></trkpt><trkpt lat="-37.89133503134202" lon="146.0622149751988"><ele>570.0</ele><time>2026-05-06T03:58:46Z</time></trkpt><trkpt lat="-37.891419711641575" lon="146.06224793257977"><ele>570.0</ele><time>2026-05-06T03:58:47Z</time></trkpt><trkpt lat="-37.891495314929074" lon="146.06229254176753"><ele>570.0</ele><time>2026-05-06T03:58:48Z</time></trkpt><trkpt lat="-37.89156850013235" lon="146.0623264353851"><ele>570.0</ele><time>2026-05-06T03:58:49Z</time></trkpt><trkpt lat="-37.89164681943111" lon="146.06236176527017"><ele>570.0</ele><time>2026-05-06T03:58:50Z</time></trkpt><trkpt lat="-37.891707698668704" lon="146.0623904704899"><ele>570.0</ele><time>2026-05-06T03:58:51Z</time></trkpt><trkpt lat="-37.89181620881484" lon="146.06246844241204"><ele>570.0</ele><time>2026-05-06T03:58:53Z</time></trkpt><trkpt lat="-37.89192501273312" lon="146.0625640338432"><ele>569.5</ele><time>2026-05-06T03:58:55Z</time></trkpt><trkpt lat="-37.891981181818075" lon="146.0626183203441"><ele>569.0</ele><time>2026-05-06T03:58:56Z</time></trkpt><trkpt lat="-37.89203354292814" lon="146.06267204896258"><ele>568.5</ele><time>2026-05-06T03:58:57Z</time></trkpt><trkpt lat="-37.89209727382077" lon="146.06273606035273"><ele>568.0</ele><time>2026-05-06T03:58:58Z</time></trkpt><trkpt lat="-37.89218025697929" lon="146.0628141222413"><ele>567.5</ele><time>2026-05-06T03:59:00Z</time></trkpt><trkpt lat="-37.89224954688086" lon="146.06286436593285"><ele>567.0</ele><time>2026-05-06T03:59:02Z</time></trkpt><trkpt lat="-37.89231990400694" lon="146.06294303419185"><ele>567.0</ele><time>2026-05-06T03:59:05Z</time></trkpt><trkpt lat="-37.892381014408244" lon="146.06299999866042"><ele>567.0</ele><time>2026-05-06T03:59:06Z</time></trkpt><trkpt lat="-37.89246652663451" lon="146.06306073758594"><ele>567.0</ele><time>2026-05-06T03:59:07Z</time></trkpt><trkpt lat="-37.89257823117391" lon="146.06311144430572"><ele>567.0</ele><time>2026-05-06T03:59:08Z</time></trkpt><trkpt lat="-37.89271144102918" lon="146.0631591926407"><ele>567.0</ele><time>2026-05-06T03:59:09Z</time></trkpt><trkpt lat="-37.89288224893719" lon="146.06319273746143"><ele>568.6666666666666</ele><time>2026-05-06T03:59:10Z</time></trkpt><trkpt lat="-37.893065614027556" lon="146.06320550535054"><ele>570.3333333333333</ele><time>2026-05-06T03:59:11Z</time></trkpt><trkpt lat="-37.893219353722685" lon="146.06318467565785"><ele>572.0</ele><time>2026-05-06T03:59:12Z</time></trkpt><trkpt lat="-37.893377685694254" lon="146.0631544264821"><ele>572.3333333333333</ele><time>2026-05-06T03:59:13Z</time></trkpt><trkpt lat="-37.89354698521283" lon="146.06310329319828"><ele>572.6666666666666</ele><time>2026-05-06T03:59:14Z</time></trkpt><trkpt lat="-37.8937358923631" lon="146.0630355745518"><ele>573.0</ele><time>2026-05-06T03:59:15Z</time></trkpt><trkpt lat="-37.893908442648375" lon="146.06296169204785"><ele>573.0</ele><time>2026-05-06T03:59:15.999Z</time></trkpt><trkpt lat="-37.894067360687686" lon="146.0628829265951"><ele>573.0</ele><time>2026-05-06T03:59:16.999Z</time></trkpt><trkpt lat="-37.894225213015254" lon="146.06280656956258"><ele>573.0</ele><time>2026-05-06T03:59:17.999Z</time></trkpt><trkpt lat="-37.8943610359409" lon="146.06274212014276"><ele>571.0</ele><time>2026-05-06T03:59:18.999Z</time></trkpt><trkpt lat="-37.89449867327326" lon="146.06269300543772"><ele>569.0</ele><time>2026-05-06T03:59:19.999Z</time></trkpt><trkpt lat="-37.89464490640171" lon="146.0626374442086"><ele>567.0</ele><time>2026-05-06T03:59:20.999Z</time></trkpt><trkpt lat="-37.89480838575902" lon="146.06258706167458"><ele>567.0</ele><time>2026-05-06T03:59:21.999Z</time></trkpt><trkpt lat="-37.89494771768582" lon="146.06256207514252"><ele>567.0</ele><time>2026-05-06T03:59:22.999Z</time></trkpt><trkpt lat="-37.89508514738141" lon="146.06257550384132"><ele>567.0</ele><time>2026-05-06T03:59:23.999Z</time></trkpt><trkpt lat="-37.89521362295319" lon="146.0626212694672"><ele>567.0</ele><time>2026-05-06T03:59:24.999Z</time></trkpt><trkpt lat="-37.895318170508126" lon="146.06270955182495"><ele>568.5</ele><time>2026-05-06T03:59:25.999Z</time></trkpt><trkpt lat="-37.895406968892985" lon="146.06284038388694"><ele>570.0</ele><time>2026-05-06T03:59:26.999Z</time></trkpt><trkpt lat="-37.895487185085564" lon="146.06299812433997"><ele>571.5</ele><time>2026-05-06T03:59:27.999Z</time></trkpt><trkpt lat="-37.89551846508956" lon="146.06315300555204"><ele>573.0</ele><time>2026-05-06T03:59:28.999Z</time></trkpt><trkpt lat="-37.89554293475867" lon="146.06327347027303"><ele>572.1999999999999</ele><time>2026-05-06T03:59:29.999Z</time></trkpt><trkpt lat="-37.89556153311742" lon="146.06335763048347"><ele>571.4</ele><time>2026-05-06T03:59:30.999Z</time></trkpt><trkpt lat="-37.89558899538588" lon="146.06348270909228"><ele>570.5999999999999</ele><time>2026-05-06T03:59:32.999Z</time></trkpt><trkpt lat="-37.89572728030369" lon="146.06356402713337"><ele>569.8</ele><time>2026-05-06T03:59:34.999Z</time></trkpt><trkpt lat="-37.895786122879386" lon="146.0635943227685"><ele>569.0</ele><time>2026-05-06T03:59:35.999Z</time></trkpt><trkpt lat="-37.895850966804595" lon="146.06365557304252"><ele>569.0</ele><time>2026-05-06T03:59:36.999Z</time></trkpt><trkpt lat="-37.89593194743547" lon="146.0637076734227"><ele>569.0</ele><time>2026-05-06T03:59:37.999Z</time></trkpt><trkpt lat="-37.89599833877882" lon="146.06372372955477"><ele>569.0</ele><time>2026-05-06T03:59:38.999Z</time></trkpt><trkpt lat="-37.89608798788258" lon="146.06375369951445"><ele>569.0</ele><time>2026-05-06T03:59:39.999Z</time></trkpt><trkpt lat="-37.89615307064808" lon="146.06370340548239"><ele>569.0</ele><time>2026-05-06T03:59:40.999Z</time></trkpt><trkpt lat="-37.89622675258062" lon="146.06365542298076"><ele>569.0</ele><time>2026-05-06T03:59:41.999Z</time></trkpt><trkpt lat="-37.896309900191326" lon="146.06358952373222"><ele>569.0</ele><time>2026-05-06T03:59:42.999Z</time></trkpt><trkpt lat="-37.89638463614324" lon="146.06351895037216"><ele>569.0</ele><time>2026-05-06T03:59:43.999Z</time></trkpt><trkpt lat="-37.896460630570154" lon="146.06344538970535"><ele>569.0</ele><time>2026-05-06T03:59:44.999Z</time></trkpt><trkpt lat="-37.89651344093172" lon="146.06334975139475"><ele>569.0</ele><time>2026-05-06T03:59:45.999Z</time></trkpt><trkpt lat="-37.896570785452944" lon="146.063275051585"><ele>569.0</ele><time>2026-05-06T03:59:46.999Z</time></trkpt><trkpt lat="-37.896614701685266" lon="146.0631976888857"><ele>569.0</ele><time>2026-05-06T03:59:47.999Z</time></trkpt><trkpt lat="-37.89665420142855" lon="146.06307484090416"><ele>569.1666666666666</ele><time>2026-05-06T03:59:48.999Z</time></trkpt><trkpt lat="-37.89668227492849" lon="146.06293517382434"><ele>569.3333333333333</ele><time>2026-05-06T03:59:49.999Z</time></trkpt><trkpt lat="-37.89669929455783" lon="146.06284650201476"><ele>569.5</ele><time>2026-05-06T03:59:50.999Z</time></trkpt><trkpt lat="-37.89672004514666" lon="146.0627519860208"><ele>569.6666666666666</ele><time>2026-05-06T03:59:52.999Z</time></trkpt><trkpt lat="-37.89675650633233" lon="146.0626430810619"><ele>569.8333333333334</ele><time>2026-05-06T04:00:00.999Z</time></trkpt><trkpt lat="-37.89679886067879" lon="146.06257943376585"><ele>570.0</ele><time>2026-05-06T04:00:01.999Z</time></trkpt><trkpt lat="-37.89685981325247" lon="146.06252272066294"><ele>570.0</ele><time>2026-05-06T04:00:02.999Z</time></trkpt><trkpt lat="-37.89692306707173" lon="146.06246132068225"><ele>570.0</ele><time>2026-05-06T04:00:03.999Z</time></trkpt><trkpt lat="-37.89698832006717" lon="146.0623795556027"><ele>570.0</ele><time>2026-05-06T04:00:04.999Z</time></trkpt><trkpt lat="-37.89702761537031" lon="146.06229504577402"><ele>570.0</ele><time>2026-05-06T04:00:05.999Z</time></trkpt><trkpt lat="-37.89705417733788" lon="146.06219597753244"><ele>570.0</ele><time>2026-05-06T04:00:06.999Z</time></trkpt><trkpt lat="-37.89709345560637" lon="146.0620844170113"><ele>570.0</ele><time>2026-05-06T04:00:07.999Z</time></trkpt><trkpt lat="-37.89714486074719" lon="146.06195983874872"><ele>571.5</ele><time>2026-05-06T04:00:08.999Z</time></trkpt><trkpt lat="-37.897182727855096" lon="146.06188808455894"><ele>573.0</ele><time>2026-05-06T04:00:09.999Z</time></trkpt><trkpt lat="-37.89723167545311" lon="146.0618221512514"><ele>574.5</ele><time>2026-05-06T04:00:10.999Z</time></trkpt><trkpt lat="-37.89730464112783" lon="146.06176460960927"><ele>576.0</ele><time>2026-05-06T04:00:11.999Z</time></trkpt><trkpt lat="-37.89738330062435" lon="146.06169386353318"><ele>577.5</ele><time>2026-05-06T04:00:13Z</time></trkpt><trkpt lat="-37.897470400296925" lon="146.0616640467543"><ele>579.0</ele><time>2026-05-06T04:00:14Z</time></trkpt><trkpt lat="-37.89753503368483" lon="146.06163249946763"><ele>579.4</ele><time>2026-05-06T04:00:15Z</time></trkpt><trkpt lat="-37.897606017742156" lon="146.06163814984154"><ele>579.8</ele><time>2026-05-06T04:00:16Z</time></trkpt><trkpt lat="-37.897680732539044" lon="146.0616697526784"><ele>580.2</ele><time>2026-05-06T04:00:17Z</time></trkpt><trkpt lat="-37.897804098035394" lon="146.0617522479424"><ele>580.6</ele><time>2026-05-06T04:00:19Z</time></trkpt><trkpt lat="-37.89787693552929" lon="146.0618531284407"><ele>581.0</ele><time>2026-05-06T04:00:20Z</time></trkpt><trkpt lat="-37.89796436549868" lon="146.0619867366426"><ele>581.0</ele><time>2026-05-06T04:00:21Z</time></trkpt><trkpt lat="-37.89805168697885" lon="146.06208368971107"><ele>581.0</ele><time>2026-05-06T04:00:22Z</time></trkpt><trkpt lat="-37.898137966874046" lon="146.06216663594282"><ele>581.0</ele><time>2026-05-06T04:00:23Z</time></trkpt><trkpt lat="-37.898232888018576" lon="146.06224509858657"><ele>581.0</ele><time>2026-05-06T04:00:24Z</time></trkpt><trkpt lat="-37.89833931304571" lon="146.06230869284684"><ele>581.6</ele><time>2026-05-06T04:00:25Z</time></trkpt><trkpt lat="-37.8984373482555" lon="146.06232662326352"><ele>582.2</ele><time>2026-05-06T04:00:26Z</time></trkpt><trkpt lat="-37.89853485905887" lon="146.06234789372851"><ele>582.8</ele><time>2026-05-06T04:00:27Z</time></trkpt><trkpt lat="-37.89860718038459" lon="146.06229848653828"><ele>583.4</ele><time>2026-05-06T04:00:28Z</time></trkpt><trkpt lat="-37.898694387179646" lon="146.06226214180168"><ele>584.0</ele><time>2026-05-06T04:00:29Z</time></trkpt><trkpt lat="-37.89879939646864" lon="146.0621829648"><ele>584.0</ele><time>2026-05-06T04:00:30Z</time></trkpt><trkpt lat="-37.898900837240504" lon="146.06208035378083"><ele>584.0</ele><time>2026-05-06T04:00:31Z</time></trkpt><trkpt lat="-37.899009441398654" lon="146.06198410178388"><ele>584.0</ele><time>2026-05-06T04:00:32Z</time></trkpt><trkpt lat="-37.89912088163099" lon="146.06189039065572"><ele>584.0</ele><time>2026-05-06T04:00:33Z</time></trkpt><trkpt lat="-37.899238161105345" lon="146.0617839127793"><ele>584.0</ele><time>2026-05-06T04:00:34Z</time></trkpt><trkpt lat="-37.8993553112118" lon="146.06169622754405"><ele>584.0</ele><time>2026-05-06T04:00:35Z</time></trkpt><trkpt lat="-37.89945870009596" lon="146.06160176023928"><ele>584.0</ele><time>2026-05-06T04:00:36Z</time></trkpt><trkpt lat="-37.89952791231841" lon="146.06150784021722"><ele>584.0</ele><time>2026-05-06T04:00:37Z</time></trkpt><trkpt lat="-37.899619195255006" lon="146.06143585316886"><ele>585.6666666666666</ele><time>2026-05-06T04:00:38Z</time></trkpt><trkpt lat="-37.89968101595133" lon="146.0613613830052"><ele>587.3333333333333</ele><time>2026-05-06T04:00:39Z</time></trkpt><trkpt lat="-37.899714810400496" lon="146.06128891647248"><ele>589.0</ele><time>2026-05-06T04:00:40Z</time></trkpt><trkpt lat="-37.899770574896316" lon="146.06117858217874"><ele>590.6666666666666</ele><time>2026-05-06T04:00:41Z</time></trkpt><trkpt lat="-37.89983014729217" lon="146.06107061598985"><ele>592.3333333333334</ele><time>2026-05-06T04:00:42Z</time></trkpt><trkpt lat="-37.899871149476866" lon="146.06098934227865"><ele>594.0</ele><time>2026-05-06T04:00:43Z</time></trkpt><trkpt lat="-37.899935898243285" lon="146.0609125304952"><ele>594.0</ele><time>2026-05-06T04:00:44Z</time></trkpt><trkpt lat="-37.90000240932924" lon="146.06082854062882"><ele>594.0</ele><time>2026-05-06T04:00:45Z</time></trkpt><trkpt lat="-37.90006774994313" lon="146.06077972731083"><ele>594.0</ele><time>2026-05-06T04:00:46Z</time></trkpt><trkpt lat="-37.900117019617454" lon="146.0607090633384"><ele>594.0</ele><time>2026-05-06T04:00:47Z</time></trkpt><trkpt lat="-37.900173703738226" lon="146.06064213686088"><ele>594.0</ele><time>2026-05-06T04:00:48Z</time></trkpt><trkpt lat="-37.900217849233066" lon="146.06053514648076"><ele>594.0</ele><time>2026-05-06T04:00:49Z</time></trkpt><trkpt lat="-37.90026703607762" lon="146.0604338712539"><ele>593.6666666666666</ele><time>2026-05-06T04:00:50Z</time></trkpt><trkpt lat="-37.90027807331484" lon="146.06035305429958"><ele>593.3333333333334</ele><time>2026-05-06T04:00:51Z</time></trkpt><trkpt lat="-37.90028860392619" lon="146.06026388478685"><ele>593.0</ele><time>2026-05-06T04:00:52Z</time></trkpt><trkpt lat="-37.9002509510112" lon="146.0601729833326"><ele>592.6666666666667</ele><time>2026-05-06T04:00:53Z</time></trkpt><trkpt lat="-37.90018996345019" lon="146.0600963931883"><ele>592.3333333333334</ele><time>2026-05-06T04:00:54Z</time></trkpt><trkpt lat="-37.90010722763371" lon="146.06000754070828"><ele>592.0</ele><time>2026-05-06T04:00:55Z</time></trkpt><trkpt lat="-37.90004399600928" lon="146.05993772790535"><ele>592.0</ele><time>2026-05-06T04:00:56Z</time></trkpt><trkpt lat="-37.89998487913622" lon="146.05980257080887"><ele>592.0</ele><time>2026-05-06T04:00:58Z</time></trkpt><trkpt lat="-37.899972166644154" lon="146.0597185748937"><ele>592.0</ele><time>2026-05-06T04:00:59Z</time></trkpt><trkpt lat="-37.899950056618984" lon="146.05961865484392"><ele>592.0</ele><time>2026-05-06T04:01:00Z</time></trkpt><trkpt lat="-37.89995187311011" lon="146.05949604586917"><ele>592.0</ele><time>2026-05-06T04:01:01Z</time></trkpt><trkpt lat="-37.899933054965835" lon="146.0593729571771"><ele>592.0</ele><time>2026-05-06T04:01:02Z</time></trkpt><trkpt lat="-37.89990645145302" lon="146.05926064065585"><ele>592.0</ele><time>2026-05-06T04:01:03Z</time></trkpt><trkpt lat="-37.89989486029886" lon="146.05916055054468"><ele>592.0</ele><time>2026-05-06T04:01:04Z</time></trkpt><trkpt lat="-37.89988648301521" lon="146.05905724156008"><ele>592.0</ele><time>2026-05-06T04:01:05Z</time></trkpt><trkpt lat="-37.89986229938622" lon="146.05895506100785"><ele>592.0</ele><time>2026-05-06T04:01:06Z</time></trkpt><trkpt lat="-37.89980991611641" lon="146.05885831499398"><ele>592.0</ele><time>2026-05-06T04:01:07Z</time></trkpt><trkpt lat="-37.8997710067197" lon="146.05875778578445"><ele>590.1666666666667</ele><time>2026-05-06T04:01:08Z</time></trkpt><trkpt lat="-37.89975068081713" lon="146.05865511243132"><ele>588.3333333333334</ele><time>2026-05-06T04:01:09Z</time></trkpt><trkpt lat="-37.89970859740581" lon="146.05854914231236"><ele>586.5</ele><time>2026-05-06T04:01:10Z</time></trkpt><trkpt lat="-37.899677883729574" lon="146.05845201793866"><ele>584.6666666666666</ele><time>2026-05-06T04:01:11Z</time></trkpt><trkpt lat="-37.89963140082653" lon="146.0583507341281"><ele>582.8333333333333</ele><time>2026-05-06T04:01:12Z</time></trkpt><trkpt lat="-37.899599615196" lon="146.05823853832342"><ele>581.0</ele><time>2026-05-06T04:01:13Z</time></trkpt><trkpt lat="-37.899554006080834" lon="146.05812782515983"><ele>578.1666666666666</ele><time>2026-05-06T04:01:14Z</time></trkpt><trkpt lat="-37.89953516961277" lon="146.05801607313063"><ele>575.3333333333333</ele><time>2026-05-06T04:01:15Z</time></trkpt><trkpt lat="-37.89950701648803" lon="146.0579302542427"><ele>572.5</ele><time>2026-05-06T04:01:16Z</time></trkpt><trkpt lat="-37.899477005127736" lon="146.057826757851"><ele>569.6666666666666</ele><time>2026-05-06T04:01:16.999Z</time></trkpt><trkpt lat="-37.899458692670116" lon="146.05774784632192"><ele>566.8333333333334</ele><time>2026-05-06T04:01:17.999Z</time></trkpt><trkpt lat="-37.899454453712174" lon="146.057624860773"><ele>564.0</ele><time>2026-05-06T04:01:19.999Z</time></trkpt><trkpt lat="-37.89945661042504" lon="146.05752294210157"><ele>562.0</ele><time>2026-05-06T04:01:21.999Z</time></trkpt><trkpt lat="-37.899479791120136" lon="146.05729077585295"><ele>560.0</ele><time>2026-05-06T04:01:23.999Z</time></trkpt><trkpt lat="-37.89946885646987" lon="146.05718943098807"><ele>558.0</ele><time>2026-05-06T04:01:24.999Z</time></trkpt><trkpt lat="-37.89946775948273" lon="146.05709306060558"><ele>556.0</ele><time>2026-05-06T04:01:25.999Z</time></trkpt><trkpt lat="-37.899449675840806" lon="146.05700373550485"><ele>554.0</ele><time>2026-05-06T04:01:26.999Z</time></trkpt><trkpt lat="-37.89940435663787" lon="146.05689342153138"><ele>554.0</ele><time>2026-05-06T04:01:27.999Z</time></trkpt><trkpt lat="-37.89933231424727" lon="146.05679833730508"><ele>554.0</ele><time>2026-05-06T04:01:28.999Z</time></trkpt><trkpt lat="-37.899257040600745" lon="146.05666928235547"><ele>554.0</ele><time>2026-05-06T04:01:29.999Z</time></trkpt><trkpt lat="-37.89923988894145" lon="146.05654215449087"><ele>554.0</ele><time>2026-05-06T04:01:30.999Z</time></trkpt><trkpt lat="-37.89923231370538" lon="146.05643401035897"><ele>554.0</ele><time>2026-05-06T04:01:31.999Z</time></trkpt><trkpt lat="-37.89923176600812" lon="146.0563143713707"><ele>555.0</ele><time>2026-05-06T04:01:32.999Z</time></trkpt><trkpt lat="-37.89923713580246" lon="146.0562254410659"><ele>556.0</ele><time>2026-05-06T04:01:33.999Z</time></trkpt><trkpt lat="-37.899277731267325" lon="146.05609032684336"><ele>557.0</ele><time>2026-05-06T04:01:36.999Z</time></trkpt><trkpt lat="-37.8993044113126" lon="146.05600832981682"><ele>558.0</ele><time>2026-05-06T04:01:37.999Z</time></trkpt><trkpt lat="-37.8993113381422" lon="146.05591913987863"><ele>559.0</ele><time>2026-05-06T04:01:38.999Z</time></trkpt><trkpt lat="-37.89934431641493" lon="146.0558475067689"><ele>560.0</ele><time>2026-05-06T04:01:39.999Z</time></trkpt><trkpt lat="-37.89937700557197" lon="146.0557195483813"><ele>554.0</ele><time>2026-05-06T04:01:41.999Z</time></trkpt><trkpt lat="-37.8994106272419" lon="146.05558228543026"><ele>548.0</ele><time>2026-05-06T04:01:43.999Z</time></trkpt><trkpt lat="-37.899435625424594" lon="146.05540754038435"><ele>542.0</ele><time>2026-05-06T04:01:45.999Z</time></trkpt><trkpt lat="-37.89947712713209" lon="146.05531202117533"><ele>536.0</ele><time>2026-05-06T04:01:46.999Z</time></trkpt><trkpt lat="-37.899499577109175" lon="146.05521361665058"><ele>530.0</ele><time>2026-05-06T04:01:47.999Z</time></trkpt><trkpt lat="-37.89953058842789" lon="146.05512502402036"><ele>530.0</ele><time>2026-05-06T04:01:48.999Z</time></trkpt><trkpt lat="-37.899581908444546" lon="146.05502517928483"><ele>530.0</ele><time>2026-05-06T04:01:49.999Z</time></trkpt><trkpt lat="-37.89962082078463" lon="146.05492900708217"><ele>530.0</ele><time>2026-05-06T04:01:50.999Z</time></trkpt><trkpt lat="-37.899652277100955" lon="146.0548311615009"><ele>530.0</ele><time>2026-05-06T04:01:51.999Z</time></trkpt><trkpt lat="-37.89967361860458" lon="146.05471779537567"><ele>530.0</ele><time>2026-05-06T04:01:52.999Z</time></trkpt><trkpt lat="-37.89965656744239" lon="146.05460032636833"><ele>530.0</ele><time>2026-05-06T04:01:53.999Z</time></trkpt><trkpt lat="-37.89963721267601" lon="146.05442827819758"><ele>530.0</ele><time>2026-05-06T04:01:55.999Z</time></trkpt><trkpt lat="-37.899638166096466" lon="146.05431529135387"><ele>530.0</ele><time>2026-05-06T04:01:56.999Z</time></trkpt><trkpt lat="-37.899653046466156" lon="146.05423138617957"><ele>530.0</ele><time>2026-05-06T04:01:57.999Z</time></trkpt><trkpt lat="-37.89970464243368" lon="146.0541553141623"><ele>530.0</ele><time>2026-05-06T04:01:58.999Z</time></trkpt><trkpt lat="-37.8997850728829" lon="146.05408180851674"><ele>530.0</ele><time>2026-05-06T04:01:59.999Z</time></trkpt><trkpt lat="-37.89985573272092" lon="146.05398118476919"><ele>530.0</ele><time>2026-05-06T04:02:00.999Z</time></trkpt><trkpt lat="-37.89992146785162" lon="146.05387296979"><ele>530.0</ele><time>2026-05-06T04:02:01.999Z</time></trkpt><trkpt lat="-37.9000050503264" lon="146.05378281535155"><ele>530.0</ele><time>2026-05-06T04:02:02.999Z</time></trkpt><trkpt lat="-37.90007678216636" lon="146.0536949196"><ele>530.0</ele><time>2026-05-06T04:02:03.999Z</time></trkpt><trkpt lat="-37.90013675886466" lon="146.05359131703236"><ele>530.0</ele><time>2026-05-06T04:02:04.999Z</time></trkpt><trkpt lat="-37.90018046198608" lon="146.05349452731951"><ele>530.0</ele><time>2026-05-06T04:02:05.999Z</time></trkpt><trkpt lat="-37.900214579283166" lon="146.0534039932134"><ele>529.0</ele><time>2026-05-06T04:02:06.999Z</time></trkpt><trkpt lat="-37.900247999629585" lon="146.05325058879524"><ele>528.0</ele><time>2026-05-06T04:02:08.999Z</time></trkpt><trkpt lat="-37.900257795553024" lon="146.0531415398702"><ele>527.0</ele><time>2026-05-06T04:02:09.999Z</time></trkpt><trkpt lat="-37.90027162350549" lon="146.0530080707313"><ele>526.0</ele><time>2026-05-06T04:02:10.999Z</time></trkpt><trkpt lat="-37.90029417371896" lon="146.05288588670757"><ele>525.0</ele><time>2026-05-06T04:02:11.999Z</time></trkpt><trkpt lat="-37.900327717507714" lon="146.0527703219238"><ele>525.0</ele><time>2026-05-06T04:02:12.999Z</time></trkpt><trkpt lat="-37.90036974852362" lon="146.05268740086592"><ele>525.0</ele><time>2026-05-06T04:02:13.999Z</time></trkpt><trkpt lat="-37.90045068558759" lon="146.0525938917017"><ele>525.0</ele><time>2026-05-06T04:02:15.999Z</time></trkpt><trkpt lat="-37.90051434898343" lon="146.05254190246546"><ele>525.0</ele><time>2026-05-06T04:02:16.999Z</time></trkpt><trkpt lat="-37.900636816615176" lon="146.05248617659893"><ele>525.0</ele><time>2026-05-06T04:02:19Z</time></trkpt><trkpt lat="-37.900713941076944" lon="146.05245541759456"><ele>523.8333333333334</ele><time>2026-05-06T04:02:20Z</time></trkpt><trkpt lat="-37.90078403987395" lon="146.05244736970107"><ele>522.6666666666666</ele><time>2026-05-06T04:02:21Z</time></trkpt><trkpt lat="-37.90085832995917" lon="146.05242412597462"><ele>521.5</ele><time>2026-05-06T04:02:22Z</time></trkpt><trkpt lat="-37.90092719399596" lon="146.052430394019"><ele>520.3333333333333</ele><time>2026-05-06T04:02:23Z</time></trkpt><trkpt lat="-37.90101212958403" lon="146.05243855254932"><ele>519.1666666666666</ele><time>2026-05-06T04:02:24Z</time></trkpt><trkpt lat="-37.90110885682472" lon="146.05244722886076"><ele>518.0</ele><time>2026-05-06T04:02:25Z</time></trkpt><trkpt lat="-37.9011925798566" lon="146.05245564615052"><ele>518.0</ele><time>2026-05-06T04:02:26Z</time></trkpt><trkpt lat="-37.901276169429444" lon="146.05244589476217"><ele>518.0</ele><time>2026-05-06T04:02:27Z</time></trkpt><trkpt lat="-37.90134202275804" lon="146.05239176184557"><ele>518.0</ele><time>2026-05-06T04:02:28Z</time></trkpt><trkpt lat="-37.901436023200894" lon="146.05235695363487"><ele>518.0</ele><time>2026-05-06T04:02:29Z</time></trkpt><trkpt lat="-37.90152311339342" lon="146.05230398396034"><ele>518.0</ele><time>2026-05-06T04:02:30Z</time></trkpt><trkpt lat="-37.9016276842067" lon="146.05223670193303"><ele>518.0</ele><time>2026-05-06T04:02:31Z</time></trkpt><trkpt lat="-37.901724210728304" lon="146.05217699994134"><ele>518.0</ele><time>2026-05-06T04:02:32Z</time></trkpt><trkpt lat="-37.901796058589404" lon="146.0521179398081"><ele>518.0</ele><time>2026-05-06T04:02:33Z</time></trkpt><trkpt lat="-37.90185017237782" lon="146.05202509447633"><ele>518.0</ele><time>2026-05-06T04:02:34Z</time></trkpt><trkpt lat="-37.901908517701514" lon="146.05193408489714"><ele>518.0</ele><time>2026-05-06T04:02:35Z</time></trkpt><trkpt lat="-37.901962230679835" lon="146.0518436364192"><ele>518.5</ele><time>2026-05-06T04:02:36Z</time></trkpt><trkpt lat="-37.9019985662787" lon="146.05176875707855"><ele>519.0</ele><time>2026-05-06T04:02:37Z</time></trkpt><trkpt lat="-37.90208912721058" lon="146.05178436191903"><ele>519.5</ele><time>2026-05-06T04:02:38Z</time></trkpt><trkpt lat="-37.90215717228609" lon="146.05175174767135"><ele>520.0</ele><time>2026-05-06T04:02:39Z</time></trkpt><trkpt lat="-37.90223580300455" lon="146.05165242557518"><ele>520.5</ele><time>2026-05-06T04:02:41Z</time></trkpt><trkpt lat="-37.90225816139375" lon="146.05153724349367"><ele>521.0</ele><time>2026-05-06T04:02:42Z</time></trkpt><trkpt lat="-37.902313122826705" lon="146.0514315825177"><ele>521.6</ele><time>2026-05-06T04:02:43Z</time></trkpt><trkpt lat="-37.90233946522938" lon="146.0513417522867"><ele>522.2</ele><time>2026-05-06T04:02:44Z</time></trkpt><trkpt lat="-37.90240760189607" lon="146.05125449342745"><ele>522.8</ele><time>2026-05-06T04:02:46Z</time></trkpt><trkpt lat="-37.902497175296354" lon="146.05122003272749"><ele>523.4</ele><time>2026-05-06T04:02:47Z</time></trkpt><trkpt lat="-37.90258257422656" lon="146.05119246170014"><ele>524.0</ele><time>2026-05-06T04:02:48Z</time></trkpt><trkpt lat="-37.90267876336308" lon="146.05108848196653"><ele>521.2</ele><time>2026-05-06T04:02:50Z</time></trkpt><trkpt lat="-37.90272293744785" lon="146.05095561229905"><ele>518.4</ele><time>2026-05-06T04:02:51Z</time></trkpt><trkpt lat="-37.90275329894948" lon="146.05086398081497"><ele>515.6</ele><time>2026-05-06T04:02:52Z</time></trkpt><trkpt lat="-37.902837041601806" lon="146.0507478379674"><ele>512.8</ele><time>2026-05-06T04:02:54Z</time></trkpt><trkpt lat="-37.902891480579484" lon="146.0506870353455"><ele>510.0</ele><time>2026-05-06T04:02:55Z</time></trkpt><trkpt lat="-37.90294405975387" lon="146.05064246367564"><ele>510.0</ele><time>2026-05-06T04:02:56Z</time></trkpt><trkpt lat="-37.90301723688362" lon="146.0506198144625"><ele>510.0</ele><time>2026-05-06T04:02:58Z</time></trkpt><trkpt lat="-37.90306885032742" lon="146.05068733459703"><ele>510.0</ele><time>2026-05-06T04:03:00Z</time></trkpt><trkpt lat="-37.90311411890069" lon="146.05076438553974"><ele>510.0</ele><time>2026-05-06T04:03:01Z</time></trkpt><trkpt lat="-37.90315140975371" lon="146.05083421637792"><ele>510.0</ele><time>2026-05-06T04:03:02Z</time></trkpt><trkpt lat="-37.903223445309465" lon="146.0509695489694"><ele>510.0</ele><time>2026-05-06T04:03:04Z</time></trkpt><trkpt lat="-37.90325162313955" lon="146.05104124688094"><ele>510.0</ele><time>2026-05-06T04:03:05Z</time></trkpt><trkpt lat="-37.90335227696112" lon="146.05112880350032"><ele>510.0</ele><time>2026-05-06T04:03:07Z</time></trkpt><trkpt lat="-37.903452465911634" lon="146.05120277442722"><ele>510.0</ele><time>2026-05-06T04:03:09Z</time></trkpt><trkpt lat="-37.903514808523546" lon="146.05124978814598"><ele>510.0</ele><time>2026-05-06T04:03:10Z</time></trkpt><trkpt lat="-37.90357320409747" lon="146.0512940062897"><ele>510.0</ele><time>2026-05-06T04:03:11Z</time></trkpt><trkpt lat="-37.90366698427011" lon="146.0513851146764"><ele>506.6</ele><time>2026-05-06T04:03:13Z</time></trkpt><trkpt lat="-37.90370846312134" lon="146.05146721586237"><ele>503.2</ele><time>2026-05-06T04:03:14Z</time></trkpt><trkpt lat="-37.90378359786492" lon="146.0516007353804"><ele>499.79999999999995</ele><time>2026-05-06T04:03:16Z</time></trkpt><trkpt lat="-37.90385821802349" lon="146.0517323388371"><ele>496.4</ele><time>2026-05-06T04:03:18Z</time></trkpt><trkpt lat="-37.90392137112941" lon="146.05180411921907"><ele>493.0</ele><time>2026-05-06T04:03:19.999Z</time></trkpt><trkpt lat="-37.90402469495153" lon="146.05183163368645"><ele>493.0</ele><time>2026-05-06T04:03:21.999Z</time></trkpt><trkpt lat="-37.904123181628506" lon="146.05183231432798"><ele>492.99999999999994</ele><time>2026-05-06T04:03:22.999Z</time></trkpt><trkpt lat="-37.90422991452507" lon="146.05182275492638"><ele>492.99999999999994</ele><time>2026-05-06T04:03:23.999Z</time></trkpt><trkpt lat="-37.90431097904943" lon="146.05181623055478"><ele>493.0</ele><time>2026-05-06T04:03:24.999Z</time></trkpt><trkpt lat="-37.90439917660406" lon="146.05182197809043"><ele>493.0</ele><time>2026-05-06T04:03:25.999Z</time></trkpt><trkpt lat="-37.90451285990704" lon="146.05184984632473"><ele>491.2</ele><time>2026-05-06T04:03:27.999Z</time></trkpt><trkpt lat="-37.90459816412447" lon="146.05186150618567"><ele>489.4</ele><time>2026-05-06T04:03:28.999Z</time></trkpt><trkpt lat="-37.904677479988976" lon="146.0519083325234"><ele>487.59999999999997</ele><time>2026-05-06T04:03:29.999Z</time></trkpt><trkpt lat="-37.90476492347761" lon="146.0519471730137"><ele>485.79999999999995</ele><time>2026-05-06T04:03:30.999Z</time></trkpt><trkpt lat="-37.90487621724611" lon="146.05200472451656"><ele>484.0</ele><time>2026-05-06T04:03:31.999Z</time></trkpt><trkpt lat="-37.904969399169545" lon="146.0520629999415"><ele>484.0</ele><time>2026-05-06T04:03:32.999Z</time></trkpt><trkpt lat="-37.90505383123733" lon="146.05210707936598"><ele>484.0</ele><time>2026-05-06T04:03:33.999Z</time></trkpt><trkpt lat="-37.90511990241291" lon="146.052196819216"><ele>484.0</ele><time>2026-05-06T04:03:34.999Z</time></trkpt><trkpt lat="-37.905204194220765" lon="146.05229632666789"><ele>484.0</ele><time>2026-05-06T04:03:35.999Z</time></trkpt><trkpt lat="-37.90528792334511" lon="146.0524085886644"><ele>484.0</ele><time>2026-05-06T04:03:36.999Z</time></trkpt><trkpt lat="-37.905364409973" lon="146.05250584357228"><ele>483.0</ele><time>2026-05-06T04:03:37.999Z</time></trkpt><trkpt lat="-37.90544734772411" lon="146.05261864600485"><ele>482.0</ele><time>2026-05-06T04:03:38.999Z</time></trkpt><trkpt lat="-37.90553889507752" lon="146.05270507916669"><ele>481.0</ele><time>2026-05-06T04:03:39.999Z</time></trkpt><trkpt lat="-37.905613569314916" lon="146.05281609080942"><ele>480.0</ele><time>2026-05-06T04:03:40.999Z</time></trkpt><trkpt lat="-37.90567181114332" lon="146.05288430651052"><ele>479.0</ele><time>2026-05-06T04:03:41.999Z</time></trkpt><trkpt lat="-37.90573080779621" lon="146.0529331828394"><ele>479.0</ele><time>2026-05-06T04:03:42.999Z</time></trkpt><trkpt lat="-37.90582063220193" lon="146.05305626041368"><ele>479.0</ele><time>2026-05-06T04:03:44.999Z</time></trkpt><trkpt lat="-37.90587985599884" lon="146.05314252854566"><ele>479.0</ele><time>2026-05-06T04:03:45.999Z</time></trkpt><trkpt lat="-37.90595673408315" lon="146.05321448502218"><ele>479.0</ele><time>2026-05-06T04:03:46.999Z</time></trkpt><trkpt lat="-37.906007182676795" lon="146.05327339527807"><ele>479.0</ele><time>2026-05-06T04:03:47.999Z</time></trkpt><trkpt lat="-37.90606231605348" lon="146.05333697275742"><ele>477.4</ele><time>2026-05-06T04:03:48.999Z</time></trkpt><trkpt lat="-37.906143412901024" lon="146.05342823855742"><ele>475.79999999999995</ele><time>2026-05-06T04:03:49.999Z</time></trkpt><trkpt lat="-37.90623048085916" lon="146.05352587126708"><ele>474.20000000000005</ele><time>2026-05-06T04:03:50.999Z</time></trkpt><trkpt lat="-37.90630941477912" lon="146.05361668327683"><ele>472.6</ele><time>2026-05-06T04:03:51.999Z</time></trkpt><trkpt lat="-37.906381644360664" lon="146.0537025454123"><ele>471.0</ele><time>2026-05-06T04:03:52.999Z</time></trkpt><trkpt lat="-37.90644433014443" lon="146.0537789140777"><ele>471.0</ele><time>2026-05-06T04:03:53.999Z</time></trkpt><trkpt lat="-37.90650402356085" lon="146.05385896255729"><ele>471.0</ele><time>2026-05-06T04:03:54.999Z</time></trkpt><trkpt lat="-37.9065650220179" lon="146.05394766405414"><ele>471.0</ele><time>2026-05-06T04:03:55.999Z</time></trkpt><trkpt lat="-37.90662003179706" lon="146.05405447009835"><ele>471.0</ele><time>2026-05-06T04:03:56.999Z</time></trkpt><trkpt lat="-37.90666800455991" lon="146.05416360058734"><ele>471.0</ele><time>2026-05-06T04:03:57.999Z</time></trkpt><trkpt lat="-37.90670752255622" lon="146.05426699401"><ele>469.6666666666667</ele><time>2026-05-06T04:03:58.999Z</time></trkpt><trkpt lat="-37.90677084751483" lon="146.0543649463651"><ele>468.33333333333337</ele><time>2026-05-06T04:03:59.999Z</time></trkpt><trkpt lat="-37.90682820121959" lon="146.05445084610497"><ele>467.0</ele><time>2026-05-06T04:04:00.999Z</time></trkpt><trkpt lat="-37.90686988927098" lon="146.0545398965811"><ele>465.6666666666667</ele><time>2026-05-06T04:04:01.999Z</time></trkpt><trkpt lat="-37.906936672723646" lon="146.0546170568899"><ele>464.33333333333337</ele><time>2026-05-06T04:04:02.999Z</time></trkpt><trkpt lat="-37.90699680348612" lon="146.05467959419784"><ele>463.0</ele><time>2026-05-06T04:04:03.999Z</time></trkpt><trkpt lat="-37.907073753098615" lon="146.05475122689015"><ele>463.0</ele><time>2026-05-06T04:04:04.999Z</time></trkpt><trkpt lat="-37.90715548118429" lon="146.05481222154836"><ele>462.99999999999994</ele><time>2026-05-06T04:04:05.999Z</time></trkpt><trkpt lat="-37.907242081900996" lon="146.0548945009649"><ele>462.99999999999994</ele><time>2026-05-06T04:04:06.999Z</time></trkpt><trkpt lat="-37.90734229834428" lon="146.05496634450267"><ele>463.0</ele><time>2026-05-06T04:04:07.999Z</time></trkpt><trkpt lat="-37.90741878294068" lon="146.05505060006467"><ele>463.0</ele><time>2026-05-06T04:04:08.999Z</time></trkpt><trkpt lat="-37.90750590128043" lon="146.05512554340282"><ele>461.79999999999995</ele><time>2026-05-06T04:04:09.999Z</time></trkpt><trkpt lat="-37.90760344457323" lon="146.05521144919"><ele>460.59999999999997</ele><time>2026-05-06T04:04:10.999Z</time></trkpt><trkpt lat="-37.90769183063489" lon="146.0552976205173"><ele>459.40000000000003</ele><time>2026-05-06T04:04:11.999Z</time></trkpt><trkpt lat="-37.90777358814669" lon="146.05538089690702"><ele>458.20000000000005</ele><time>2026-05-06T04:04:12.999Z</time></trkpt><trkpt lat="-37.907854615212344" lon="146.05544172138517"><ele>457.0</ele><time>2026-05-06T04:04:13.999Z</time></trkpt><trkpt lat="-37.90792475143504" lon="146.05552284582123"><ele>457.0</ele><time>2026-05-06T04:04:14.999Z</time></trkpt><trkpt lat="-37.90798602318909" lon="146.05563047313615"><ele>457.00000000000006</ele><time>2026-05-06T04:04:15.999Z</time></trkpt><trkpt lat="-37.90805382388437" lon="146.05571150492761"><ele>457.00000000000006</ele><time>2026-05-06T04:04:16.999Z</time></trkpt><trkpt lat="-37.90809761674479" lon="146.05580497320045"><ele>457.0</ele><time>2026-05-06T04:04:17.999Z</time></trkpt><trkpt lat="-37.908136598693005" lon="146.0559028264038"><ele>457.0</ele><time>2026-05-06T04:04:18.999Z</time></trkpt><trkpt lat="-37.90818328348213" lon="146.05600202937097"><ele>457.8</ele><time>2026-05-06T04:04:19.999Z</time></trkpt><trkpt lat="-37.90823656317864" lon="146.0560736123353"><ele>458.6</ele><time>2026-05-06T04:04:20.999Z</time></trkpt><trkpt lat="-37.90833162430075" lon="146.05614753384424"><ele>459.40000000000003</ele><time>2026-05-06T04:04:21.999Z</time></trkpt><trkpt lat="-37.90843975044851" lon="146.05624195784756"><ele>460.20000000000005</ele><time>2026-05-06T04:04:22.999Z</time></trkpt><trkpt lat="-37.908532667518664" lon="146.0563369202626"><ele>461.0</ele><time>2026-05-06T04:04:23.999Z</time></trkpt><trkpt lat="-37.908640017535724" lon="146.05641350687276"><ele>462.0</ele><time>2026-05-06T04:04:25Z</time></trkpt><trkpt lat="-37.90874084225399" lon="146.056485053632"><ele>463.0</ele><time>2026-05-06T04:04:26Z</time></trkpt><trkpt lat="-37.90886788797199" lon="146.05653328894894"><ele>464.0</ele><time>2026-05-06T04:04:27Z</time></trkpt><trkpt lat="-37.90896463923191" lon="146.05654915061544"><ele>465.0</ele><time>2026-05-06T04:04:28Z</time></trkpt><trkpt lat="-37.9090686559212" lon="146.0565877958124"><ele>464.6</ele><time>2026-05-06T04:04:29Z</time></trkpt><trkpt lat="-37.90916663798202" lon="146.05662938597334"><ele>464.2</ele><time>2026-05-06T04:04:30Z</time></trkpt><trkpt lat="-37.90927249217746" lon="146.05666541316072"><ele>463.79999999999995</ele><time>2026-05-06T04:04:31Z</time></trkpt><trkpt lat="-37.909359287832295" lon="146.05673020256748"><ele>463.4</ele><time>2026-05-06T04:04:32Z</time></trkpt><trkpt lat="-37.90943135658258" lon="146.0567953314362"><ele>463.0</ele><time>2026-05-06T04:04:33Z</time></trkpt><trkpt lat="-37.90949800607299" lon="146.056871966493"><ele>463.0</ele><time>2026-05-06T04:04:34Z</time></trkpt><trkpt lat="-37.90960249441653" lon="146.05701270233348"><ele>463.0</ele><time>2026-05-06T04:04:36Z</time></trkpt><trkpt lat="-37.90967066990402" lon="146.05711750037202"><ele>463.0</ele><time>2026-05-06T04:04:37Z</time></trkpt><trkpt lat="-37.90973469796688" lon="146.05722523640978"><ele>463.0</ele><time>2026-05-06T04:04:38Z</time></trkpt><trkpt lat="-37.909772948447944" lon="146.05732898092126"><ele>464.4</ele><time>2026-05-06T04:04:39Z</time></trkpt><trkpt lat="-37.9098102633703" lon="146.05745623790418"><ele>465.79999999999995</ele><time>2026-05-06T04:04:40Z</time></trkpt><trkpt lat="-37.909857228654" lon="146.05757404418716"><ele>467.2</ele><time>2026-05-06T04:04:41Z</time></trkpt><trkpt lat="-37.90991308370622" lon="146.05769353549334"><ele>468.6</ele><time>2026-05-06T04:04:42Z</time></trkpt><trkpt lat="-37.909993725895944" lon="146.05779935441618"><ele>470.0</ele><time>2026-05-06T04:04:43Z</time></trkpt><trkpt lat="-37.910069602841524" lon="146.0578640166728"><ele>468.66666666666663</ele><time>2026-05-06T04:04:44Z</time></trkpt><trkpt lat="-37.91012762451009" lon="146.0579264405761"><ele>467.3333333333333</ele><time>2026-05-06T04:04:45Z</time></trkpt><trkpt lat="-37.910193431998266" lon="146.0579965967539"><ele>466.0</ele><time>2026-05-06T04:04:46Z</time></trkpt><trkpt lat="-37.91024920302302" lon="146.05805986711118"><ele>464.66666666666663</ele><time>2026-05-06T04:04:47Z</time></trkpt><trkpt lat="-37.91031573317692" lon="146.05814091357843"><ele>463.3333333333333</ele><time>2026-05-06T04:04:48Z</time></trkpt><trkpt lat="-37.91038599347485" lon="146.05819975497323"><ele>462.0</ele><time>2026-05-06T04:04:49Z</time></trkpt><trkpt lat="-37.910448431597125" lon="146.05826538899535"><ele>462.0</ele><time>2026-05-06T04:04:50Z</time></trkpt><trkpt lat="-37.9105172196693" lon="146.0583316902804"><ele>462.00000000000006</ele><time>2026-05-06T04:04:51Z</time></trkpt><trkpt lat="-37.91058694014771" lon="146.05837469881004"><ele>462.00000000000006</ele><time>2026-05-06T04:04:52Z</time></trkpt><trkpt lat="-37.9106531181968" lon="146.0584217966989"><ele>462.0</ele><time>2026-05-06T04:04:53Z</time></trkpt><trkpt lat="-37.91079329638407" lon="146.0584288538874"><ele>462.0</ele><time>2026-05-06T04:04:55Z</time></trkpt><trkpt lat="-37.91087549795247" lon="146.05841665288798"><ele>462.40000000000003</ele><time>2026-05-06T04:04:56Z</time></trkpt><trkpt lat="-37.910989519357194" lon="146.05838298845615"><ele>462.80000000000007</ele><time>2026-05-06T04:04:57Z</time></trkpt><trkpt lat="-37.911078917300586" lon="146.05833518421386"><ele>463.2</ele><time>2026-05-06T04:04:58Z</time></trkpt><trkpt lat="-37.91118270084058" lon="146.05831581952756"><ele>463.6</ele><time>2026-05-06T04:04:59Z</time></trkpt><trkpt lat="-37.91127643235694" lon="146.05832836475886"><ele>464.0</ele><time>2026-05-06T04:05:00Z</time></trkpt><trkpt lat="-37.91135910403695" lon="146.058338410287"><ele>464.0</ele><time>2026-05-06T04:05:01Z</time></trkpt><trkpt lat="-37.911426681847715" lon="146.0583687464862"><ele>464.0</ele><time>2026-05-06T04:05:02Z</time></trkpt><trkpt lat="-37.911480877924475" lon="146.05841619751482"><ele>464.0</ele><time>2026-05-06T04:05:03Z</time></trkpt><trkpt lat="-37.91155552568153" lon="146.0584678014132"><ele>464.0</ele><time>2026-05-06T04:05:04Z</time></trkpt><trkpt lat="-37.91165578269306" lon="146.0585411846248"><ele>464.0</ele><time>2026-05-06T04:05:05Z</time></trkpt><trkpt lat="-37.911754481422435" lon="146.0586129850249"><ele>464.4</ele><time>2026-05-06T04:05:06Z</time></trkpt><trkpt lat="-37.911865801100845" lon="146.0586840215012"><ele>464.79999999999995</ele><time>2026-05-06T04:05:07Z</time></trkpt><trkpt lat="-37.91196917905525" lon="146.05873884502438"><ele>465.20000000000005</ele><time>2026-05-06T04:05:08Z</time></trkpt><trkpt lat="-37.912046122385206" lon="146.05877834014217"><ele>465.6</ele><time>2026-05-06T04:05:09Z</time></trkpt><trkpt lat="-37.91213038940251" lon="146.05882356998086"><ele>466.0</ele><time>2026-05-06T04:05:10Z</time></trkpt><trkpt lat="-37.912228494959436" lon="146.05885657755243"><ele>466.0</ele><time>2026-05-06T04:05:11Z</time></trkpt><trkpt lat="-37.91234226019284" lon="146.05892918634976"><ele>466.0</ele><time>2026-05-06T04:05:12Z</time></trkpt><trkpt lat="-37.912449102214325" lon="146.05897918416812"><ele>466.0</ele><time>2026-05-06T04:05:13Z</time></trkpt><trkpt lat="-37.91254522180511" lon="146.05902063022899"><ele>466.0</ele><time>2026-05-06T04:05:14Z</time></trkpt><trkpt lat="-37.912659704810416" lon="146.05906344504777"><ele>465.75</ele><time>2026-05-06T04:05:15Z</time></trkpt><trkpt lat="-37.91278572564373" lon="146.05910118637127"><ele>465.5</ele><time>2026-05-06T04:05:17Z</time></trkpt><trkpt lat="-37.91299632903041" lon="146.05911833539838"><ele>465.25</ele><time>2026-05-06T04:05:18.999Z</time></trkpt><trkpt lat="-37.91308559832577" lon="146.05909183904672"><ele>465.0</ele><time>2026-05-06T04:05:19.999Z</time></trkpt><trkpt lat="-37.913153821624164" lon="146.05904241065224"><ele>465.0</ele><time>2026-05-06T04:05:20.999Z</time></trkpt><trkpt lat="-37.91323085910385" lon="146.05896077010826"><ele>465.0</ele><time>2026-05-06T04:05:22.999Z</time></trkpt><trkpt lat="-37.913279306108656" lon="146.05889127118235"><ele>465.0</ele><time>2026-05-06T04:05:23.999Z</time></trkpt><trkpt lat="-37.913353157291574" lon="146.05877052231156"><ele>465.0</ele><time>2026-05-06T04:05:24.999Z</time></trkpt><trkpt lat="-37.91341699605102" lon="146.05864102596652"><ele>465.0</ele><time>2026-05-06T04:05:25.999Z</time></trkpt><trkpt lat="-37.913459819405226" lon="146.05854897641274"><ele>464.8</ele><time>2026-05-06T04:05:26.999Z</time></trkpt><trkpt lat="-37.913505775872565" lon="146.05842684974886"><ele>464.6</ele><time>2026-05-06T04:05:27.999Z</time></trkpt><trkpt lat="-37.91354781764409" lon="146.05832072021738"><ele>464.4</ele><time>2026-05-06T04:05:28.999Z</time></trkpt><trkpt lat="-37.91361415365722" lon="146.05821542788718"><ele>464.2</ele><time>2026-05-06T04:05:29.999Z</time></trkpt><trkpt lat="-37.913670554876276" lon="146.05808849412333"><ele>464.0</ele><time>2026-05-06T04:05:30.999Z</time></trkpt><trkpt lat="-37.91372792713361" lon="146.0579541750326"><ele>464.0</ele><time>2026-05-06T04:05:31.999Z</time></trkpt><trkpt lat="-37.913769720767576" lon="146.05785217538732"><ele>464.0</ele><time>2026-05-06T04:05:32.999Z</time></trkpt><trkpt lat="-37.91374898811561" lon="146.05768913368104"><ele>464.0</ele><time>2026-05-06T04:05:33.999Z</time></trkpt><trkpt lat="-37.913806308158776" lon="146.05756898005114"><ele>464.0</ele><time>2026-05-06T04:05:34.999Z</time></trkpt><trkpt lat="-37.913900271726504" lon="146.0574770173664"><ele>464.0</ele><time>2026-05-06T04:05:35.999Z</time></trkpt><trkpt lat="-37.91397492968615" lon="146.0573728592096"><ele>464.0</ele><time>2026-05-06T04:05:36.999Z</time></trkpt><trkpt lat="-37.91402293147461" lon="146.05725751237162"><ele>464.0</ele><time>2026-05-06T04:05:37.999Z</time></trkpt><trkpt lat="-37.9140674759896" lon="146.05711902928581"><ele>464.0</ele><time>2026-05-06T04:05:38.999Z</time></trkpt><trkpt lat="-37.91410119595209" lon="146.05695900205797"><ele>464.0</ele><time>2026-05-06T04:05:39.999Z</time></trkpt><trkpt lat="-37.91413369951412" lon="146.0568454693528"><ele>464.0</ele><time>2026-05-06T04:05:40.999Z</time></trkpt><trkpt lat="-37.914204023668425" lon="146.05675939959465"><ele>464.0</ele><time>2026-05-06T04:05:41.999Z</time></trkpt><trkpt lat="-37.914307832242756" lon="146.0566683666191"><ele>464.0</ele><time>2026-05-06T04:05:42.999Z</time></trkpt><trkpt lat="-37.914395023866575" lon="146.05662658423623"><ele>464.0</ele><time>2026-05-06T04:05:43.999Z</time></trkpt><trkpt lat="-37.91446156089642" lon="146.05659205840652"><ele>463.79999999999995</ele><time>2026-05-06T04:05:44.999Z</time></trkpt><trkpt lat="-37.91450418668938" lon="146.05651456592844"><ele>463.59999999999997</ele><time>2026-05-06T04:05:45.999Z</time></trkpt><trkpt lat="-37.914562054635844" lon="146.056388341797"><ele>463.4</ele><time>2026-05-06T04:05:46.999Z</time></trkpt><trkpt lat="-37.9146229556662" lon="146.0562434624968"><ele>463.2</ele><time>2026-05-06T04:05:47.999Z</time></trkpt><trkpt lat="-37.914678398294434" lon="146.05609483275748"><ele>463.0</ele><time>2026-05-06T04:05:48.999Z</time></trkpt><trkpt lat="-37.91474376041541" lon="146.05599072991023"><ele>463.00000000000006</ele><time>2026-05-06T04:05:49.999Z</time></trkpt><trkpt lat="-37.91481312002147" lon="146.05590600727547"><ele>463.0</ele><time>2026-05-06T04:05:50.999Z</time></trkpt><trkpt lat="-37.91488818643763" lon="146.05586918636828"><ele>463.0</ele><time>2026-05-06T04:05:52.999Z</time></trkpt><trkpt lat="-37.91494819216253" lon="146.05590787542909"><ele>463.0</ele><time>2026-05-06T04:05:53.999Z</time></trkpt><trkpt lat="-37.91499051010897" lon="146.0559808295183"><ele>463.00000000000006</ele><time>2026-05-06T04:05:54.999Z</time></trkpt><trkpt lat="-37.915042971447875" lon="146.05608120376962"><ele>463.0</ele><time>2026-05-06T04:05:55.999Z</time></trkpt><trkpt lat="-37.91509274422113" lon="146.0561640154002"><ele>460.59999999999997</ele><time>2026-05-06T04:05:56.999Z</time></trkpt><trkpt lat="-37.91516608702727" lon="146.05622619748576"><ele>458.19999999999993</ele><time>2026-05-06T04:05:57.999Z</time></trkpt><trkpt lat="-37.9152499045352" lon="146.05625030583536"><ele>455.8</ele><time>2026-05-06T04:05:58.999Z</time></trkpt><trkpt lat="-37.91532439724118" lon="146.05629494741902"><ele>453.4</ele><time>2026-05-06T04:05:59.999Z</time></trkpt><trkpt lat="-37.915393959618676" lon="146.05638413031883"><ele>451.0</ele><time>2026-05-06T04:06:01.999Z</time></trkpt><trkpt lat="-37.9153901228455" lon="146.0565691643292"><ele>452.4</ele><time>2026-05-06T04:06:03.999Z</time></trkpt><trkpt lat="-37.91544496655368" lon="146.0566606876859"><ele>453.8</ele><time>2026-05-06T04:06:04.999Z</time></trkpt><trkpt lat="-37.91550989467023" lon="146.05673123499946"><ele>455.19999999999993</ele><time>2026-05-06T04:06:05.999Z</time></trkpt><trkpt lat="-37.91559695204456" lon="146.05680309013184"><ele>456.59999999999997</ele><time>2026-05-06T04:06:06.999Z</time></trkpt><trkpt lat="-37.915714144246486" lon="146.0568666595246"><ele>458.0</ele><time>2026-05-06T04:06:07.999Z</time></trkpt><trkpt lat="-37.91577301797008" lon="146.0569291954132"><ele>458.0</ele><time>2026-05-06T04:06:08.999Z</time></trkpt><trkpt lat="-37.915803124006544" lon="146.0570120154118"><ele>457.99999999999994</ele><time>2026-05-06T04:06:09.999Z</time></trkpt><trkpt lat="-37.91584371089817" lon="146.05713962615883"><ele>457.99999999999994</ele><time>2026-05-06T04:06:10.999Z</time></trkpt><trkpt lat="-37.915894088326034" lon="146.0572737401662"><ele>458.0</ele><time>2026-05-06T04:06:11.999Z</time></trkpt><trkpt lat="-37.9159683734424" lon="146.05737439642007"><ele>458.0</ele><time>2026-05-06T04:06:12.999Z</time></trkpt><trkpt lat="-37.91602927815587" lon="146.05744507723875"><ele>460.4</ele><time>2026-05-06T04:06:13.999Z</time></trkpt><trkpt lat="-37.916124532438864" lon="146.0575082901783"><ele>462.79999999999995</ele><time>2026-05-06T04:06:14.999Z</time></trkpt><trkpt lat="-37.91621948966044" lon="146.0575699276957"><ele>465.2</ele><time>2026-05-06T04:06:15.999Z</time></trkpt><trkpt lat="-37.916299571331606" lon="146.05764666739375"><ele>467.6</ele><time>2026-05-06T04:06:16.999Z</time></trkpt><trkpt lat="-37.9163714977944" lon="146.05773835816257"><ele>470.0</ele><time>2026-05-06T04:06:17.999Z</time></trkpt><trkpt lat="-37.91643303057322" lon="146.05782122576872"><ele>470.0</ele><time>2026-05-06T04:06:18.999Z</time></trkpt><trkpt lat="-37.916503871986144" lon="146.0578874196575"><ele>470.0</ele><time>2026-05-06T04:06:19.999Z</time></trkpt><trkpt lat="-37.916579811166564" lon="146.05795747869695"><ele>470.0</ele><time>2026-05-06T04:06:20.999Z</time></trkpt><trkpt lat="-37.91664834914716" lon="146.05803186218978"><ele>470.0</ele><time>2026-05-06T04:06:21.999Z</time></trkpt><trkpt lat="-37.916707513125" lon="146.05810418555978"><ele>470.0</ele><time>2026-05-06T04:06:22.999Z</time></trkpt><trkpt lat="-37.91676402051847" lon="146.05822511258242"><ele>471.16666666666663</ele><time>2026-05-06T04:06:23.999Z</time></trkpt><trkpt lat="-37.91683076862247" lon="146.0583260116952"><ele>472.3333333333333</ele><time>2026-05-06T04:06:24.999Z</time></trkpt><trkpt lat="-37.91689151682742" lon="146.05842988995178"><ele>473.5</ele><time>2026-05-06T04:06:25.999Z</time></trkpt><trkpt lat="-37.916952760630316" lon="146.058511699917"><ele>474.66666666666663</ele><time>2026-05-06T04:06:26.999Z</time></trkpt><trkpt lat="-37.91701076198495" lon="146.05855562281621"><ele>475.8333333333333</ele><time>2026-05-06T04:06:27.999Z</time></trkpt><trkpt lat="-37.91707896149131" lon="146.0585375328862"><ele>477.0</ele><time>2026-05-06T04:06:28.999Z</time></trkpt><trkpt lat="-37.91718709958617" lon="146.05852694778332"><ele>477.0</ele><time>2026-05-06T04:06:29.999Z</time></trkpt><trkpt lat="-37.917301331739246" lon="146.05850732671976"><ele>477.00000000000006</ele><time>2026-05-06T04:06:31Z</time></trkpt><trkpt lat="-37.91738327078694" lon="146.05849488100642"><ele>477.00000000000006</ele><time>2026-05-06T04:06:32Z</time></trkpt><trkpt lat="-37.917493062719295" lon="146.05843443359083"><ele>477.0</ele><time>2026-05-06T04:06:34Z</time></trkpt><trkpt lat="-37.91760093784394" lon="146.05839928370744"><ele>477.0</ele><time>2026-05-06T04:06:36Z</time></trkpt><trkpt lat="-37.91772188888862" lon="146.05839112307206"><ele>473.40000000000003</ele><time>2026-05-06T04:06:38Z</time></trkpt><trkpt lat="-37.91778460114696" lon="146.05841913192427"><ele>469.80000000000007</ele><time>2026-05-06T04:06:39Z</time></trkpt><trkpt lat="-37.91785963723049" lon="146.05845440424383"><ele>466.2</ele><time>2026-05-06T04:06:40Z</time></trkpt><trkpt lat="-37.91795363457626" lon="146.05846217626365"><ele>462.6</ele><time>2026-05-06T04:06:41Z</time></trkpt><trkpt lat="-37.91807451878653" lon="146.05846728532126"><ele>459.0</ele><time>2026-05-06T04:06:42Z</time></trkpt><trkpt lat="-37.91819243990445" lon="146.05849288038763"><ele>459.0</ele><time>2026-05-06T04:06:43Z</time></trkpt><trkpt lat="-37.918300471460476" lon="146.0585614511928"><ele>459.0</ele><time>2026-05-06T04:06:44Z</time></trkpt><trkpt lat="-37.91840953888856" lon="146.0585807797047"><ele>459.0</ele><time>2026-05-06T04:06:45Z</time></trkpt><trkpt lat="-37.91850881000556" lon="146.05861051487142"><ele>459.0</ele><time>2026-05-06T04:06:46Z</time></trkpt><trkpt lat="-37.91859543831577" lon="146.05863241489516"><ele>459.0</ele><time>2026-05-06T04:06:47Z</time></trkpt><trkpt lat="-37.91868594913202" lon="146.0586565501588"><ele>457.8333333333333</ele><time>2026-05-06T04:06:48Z</time></trkpt><trkpt lat="-37.918775207624066" lon="146.05872773857783"><ele>456.66666666666663</ele><time>2026-05-06T04:06:49Z</time></trkpt><trkpt lat="-37.9188738807588" lon="146.05879952596445"><ele>455.5</ele><time>2026-05-06T04:06:50Z</time></trkpt><trkpt lat="-37.91895513949084" lon="146.05881507132992"><ele>454.3333333333333</ele><time>2026-05-06T04:06:51Z</time></trkpt><trkpt lat="-37.91901565237596" lon="146.05876473459105"><ele>453.16666666666663</ele><time>2026-05-06T04:06:52Z</time></trkpt><trkpt lat="-37.919071283007874" lon="146.05871601080932"><ele>452.0</ele><time>2026-05-06T04:06:53Z</time></trkpt><trkpt lat="-37.91907851458149" lon="146.05861594785208"><ele>451.99999999999994</ele><time>2026-05-06T04:06:55Z</time></trkpt><trkpt lat="-37.919035189580995" lon="146.05853621274525"><ele>452.0</ele><time>2026-05-06T04:06:56Z</time></trkpt><trkpt lat="-37.919008717765095" lon="146.0584553322518"><ele>452.0</ele><time>2026-05-06T04:06:57Z</time></trkpt><trkpt lat="-37.91900974329346" lon="146.05837349487987"><ele>452.0</ele><time>2026-05-06T04:06:58Z</time></trkpt><trkpt lat="-37.919108159569035" lon="146.0582489049204"><ele>451.99999999999994</ele><time>2026-05-06T04:07:00Z</time></trkpt><trkpt lat="-37.91919226556438" lon="146.05817972539208"><ele>452.0</ele><time>2026-05-06T04:07:01Z</time></trkpt><trkpt lat="-37.91925977108996" lon="146.05811511328807"><ele>448.8</ele><time>2026-05-06T04:07:02Z</time></trkpt><trkpt lat="-37.91933940008203" lon="146.05802989984176"><ele>445.6</ele><time>2026-05-06T04:07:03Z</time></trkpt><trkpt lat="-37.91941594921041" lon="146.05794324566415"><ele>442.40000000000003</ele><time>2026-05-06T04:07:04Z</time></trkpt><trkpt lat="-37.919494588069895" lon="146.05784871745448"><ele>439.20000000000005</ele><time>2026-05-06T04:07:05Z</time></trkpt><trkpt lat="-37.91957447074256" lon="146.05774310394108"><ele>436.0</ele><time>2026-05-06T04:07:06Z</time></trkpt><trkpt lat="-37.91963350325929" lon="146.05762093228458"><ele>436.0</ele><time>2026-05-06T04:07:07Z</time></trkpt><trkpt lat="-37.9197002427955" lon="146.05750336183118"><ele>436.0</ele><time>2026-05-06T04:07:08Z</time></trkpt><trkpt lat="-37.91976014597094" lon="146.05739789408537"><ele>436.0</ele><time>2026-05-06T04:07:09Z</time></trkpt><trkpt lat="-37.91982650941849" lon="146.0573024873502"><ele>436.0</ele><time>2026-05-06T04:07:10Z</time></trkpt><trkpt lat="-37.91988474374067" lon="146.05720924101166"><ele>436.0</ele><time>2026-05-06T04:07:11Z</time></trkpt><trkpt lat="-37.91993484084488" lon="146.05711231122686"><ele>435.20000000000005</ele><time>2026-05-06T04:07:12Z</time></trkpt><trkpt lat="-37.919962281569376" lon="146.05700363322597"><ele>434.40000000000003</ele><time>2026-05-06T04:07:13Z</time></trkpt><trkpt lat="-37.91999130303427" lon="146.05688734085476"><ele>433.6</ele><time>2026-05-06T04:07:14Z</time></trkpt><trkpt lat="-37.92003371138348" lon="146.05679075104754"><ele>432.8</ele><time>2026-05-06T04:07:15Z</time></trkpt><trkpt lat="-37.92007452108187" lon="146.05670728765358"><ele>432.0</ele><time>2026-05-06T04:07:16Z</time></trkpt><trkpt lat="-37.920165393446226" lon="146.0565573247619"><ele>428.0</ele><time>2026-05-06T04:07:18Z</time></trkpt><trkpt lat="-37.920206606338766" lon="146.05644965165877"><ele>424.0</ele><time>2026-05-06T04:07:19Z</time></trkpt><trkpt lat="-37.92023780040118" lon="146.05636017732306"><ele>420.0</ele><time>2026-05-06T04:07:20Z</time></trkpt><trkpt lat="-37.92027043976552" lon="146.05628008085841"><ele>416.0</ele><time>2026-05-06T04:07:21Z</time></trkpt><trkpt lat="-37.92031165959126" lon="146.056209930913"><ele>412.0</ele><time>2026-05-06T04:07:22Z</time></trkpt><trkpt lat="-37.92036990488092" lon="146.05610259347074"><ele>408.0</ele><time>2026-05-06T04:07:23Z</time></trkpt><trkpt lat="-37.92039690246844" lon="146.05598848390122"><ele>408.0</ele><time>2026-05-06T04:07:24Z</time></trkpt><trkpt lat="-37.92042455175977" lon="146.05586629377325"><ele>408.0</ele><time>2026-05-06T04:07:25Z</time></trkpt><trkpt lat="-37.92046258050125" lon="146.05576212357659"><ele>408.0</ele><time>2026-05-06T04:07:26Z</time></trkpt><trkpt lat="-37.92050548962748" lon="146.0556509138333"><ele>408.0</ele><time>2026-05-06T04:07:27Z</time></trkpt><trkpt lat="-37.92054836602571" lon="146.05554757170492"><ele>408.0</ele><time>2026-05-06T04:07:28Z</time></trkpt><trkpt lat="-37.92060458225564" lon="146.05543661010555"><ele>407.4</ele><time>2026-05-06T04:07:29Z</time></trkpt><trkpt lat="-37.92065996321578" lon="146.0553163478527"><ele>406.79999999999995</ele><time>2026-05-06T04:07:29.999Z</time></trkpt><trkpt lat="-37.92070479168141" lon="146.05520261283044"><ele>406.2</ele><time>2026-05-06T04:07:30.999Z</time></trkpt><trkpt lat="-37.920747637811964" lon="146.05509407500824"><ele>405.6</ele><time>2026-05-06T04:07:31.999Z</time></trkpt><trkpt lat="-37.92078242106548" lon="146.05497899959968"><ele>405.0</ele><time>2026-05-06T04:07:32.999Z</time></trkpt><trkpt lat="-37.92080551955806" lon="146.05486889470987"><ele>404.4</ele><time>2026-05-06T04:07:33.999Z</time></trkpt><trkpt lat="-37.920832326665476" lon="146.05476699454363"><ele>403.8</ele><time>2026-05-06T04:07:34.999Z</time></trkpt><trkpt lat="-37.92087558235863" lon="146.0546693906819"><ele>403.20000000000005</ele><time>2026-05-06T04:07:35.999Z</time></trkpt><trkpt lat="-37.92094026638501" lon="146.05457784318395"><ele>402.6</ele><time>2026-05-06T04:07:36.999Z</time></trkpt><trkpt lat="-37.92102540940903" lon="146.05449109289708"><ele>402.0</ele><time>2026-05-06T04:07:37.999Z</time></trkpt><trkpt lat="-37.92110291946141" lon="146.05439903305808"><ele>400.40000000000003</ele><time>2026-05-06T04:07:38.999Z</time></trkpt><trkpt lat="-37.92117607387448" lon="146.05429187470432"><ele>398.8</ele><time>2026-05-06T04:07:39.999Z</time></trkpt><trkpt lat="-37.92123627672849" lon="146.05419340049988"><ele>397.2</ele><time>2026-05-06T04:07:40.999Z</time></trkpt><trkpt lat="-37.921307208170184" lon="146.0541137067497"><ele>395.6</ele><time>2026-05-06T04:07:41.999Z</time></trkpt><trkpt lat="-37.92135942584382" lon="146.05399775909717"><ele>394.0</ele><time>2026-05-06T04:07:42.999Z</time></trkpt><trkpt lat="-37.92138395328996" lon="146.0538928576241"><ele>393.79999999999995</ele><time>2026-05-06T04:07:43.999Z</time></trkpt><trkpt lat="-37.92138791445666" lon="146.05378908101872"><ele>393.59999999999997</ele><time>2026-05-06T04:07:44.999Z</time></trkpt><trkpt lat="-37.921375945814944" lon="146.0536746147249"><ele>393.4</ele><time>2026-05-06T04:07:45.999Z</time></trkpt><trkpt lat="-37.92135382297579" lon="146.05352839245762"><ele>393.2</ele><time>2026-05-06T04:07:46.999Z</time></trkpt><trkpt lat="-37.92132649989776" lon="146.05338217934678"><ele>393.0</ele><time>2026-05-06T04:07:47.999Z</time></trkpt><trkpt lat="-37.92130219942743" lon="146.05324963388122"><ele>392.2</ele><time>2026-05-06T04:07:48.999Z</time></trkpt><trkpt lat="-37.92126557876713" lon="146.05311116938614"><ele>391.4</ele><time>2026-05-06T04:07:49.999Z</time></trkpt><trkpt lat="-37.921217871629416" lon="146.05297293872755"><ele>390.59999999999997</ele><time>2026-05-06T04:07:50.999Z</time></trkpt><trkpt lat="-37.92117406535963" lon="146.05283527679842"><ele>389.79999999999995</ele><time>2026-05-06T04:07:51.999Z</time></trkpt><trkpt lat="-37.92116214472097" lon="146.05272688338792"><ele>389.0</ele><time>2026-05-06T04:07:52.999Z</time></trkpt><trkpt lat="-37.921161320747665" lon="146.0526237384817"><ele>389.0</ele><time>2026-05-06T04:07:53.999Z</time></trkpt><trkpt lat="-37.921176069381985" lon="146.05252767879978"><ele>389.0</ele><time>2026-05-06T04:07:54.999Z</time></trkpt><trkpt lat="-37.92120761815648" lon="146.0524101501509"><ele>389.0</ele><time>2026-05-06T04:07:55.999Z</time></trkpt><trkpt lat="-37.921230461866976" lon="146.05227348439865"><ele>389.0</ele><time>2026-05-06T04:07:56.999Z</time></trkpt><trkpt lat="-37.92124211205457" lon="146.05214952475833"><ele>389.0</ele><time>2026-05-06T04:07:57.999Z</time></trkpt><trkpt lat="-37.92123437198387" lon="146.05202598033813"><ele>389.0</ele><time>2026-05-06T04:07:58.999Z</time></trkpt><trkpt lat="-37.92123793533132" lon="146.05191117552923"><ele>389.0</ele><time>2026-05-06T04:07:59.999Z</time></trkpt><trkpt lat="-37.92124809258863" lon="146.05177480494757"><ele>389.0</ele><time>2026-05-06T04:08:00.999Z</time></trkpt><trkpt lat="-37.921261024668816" lon="146.0516348604632"><ele>389.0</ele><time>2026-05-06T04:08:01.999Z</time></trkpt><trkpt lat="-37.92126582256824" lon="146.05150864269268"><ele>389.0</ele><time>2026-05-06T04:08:02.999Z</time></trkpt><trkpt lat="-37.921265232067135" lon="146.0513792885532"><ele>389.0</ele><time>2026-05-06T04:08:03.999Z</time></trkpt><trkpt lat="-37.92125989005008" lon="146.05124777206635"><ele>389.0</ele><time>2026-05-06T04:08:04.999Z</time></trkpt><trkpt lat="-37.92126329420957" lon="146.05110976759775"><ele>389.0</ele><time>2026-05-06T04:08:05.999Z</time></trkpt><trkpt lat="-37.921283715499584" lon="146.05095324823208"><ele>389.0</ele><time>2026-05-06T04:08:06.999Z</time></trkpt><trkpt lat="-37.921299768541964" lon="146.05082058320613"><ele>389.0</ele><time>2026-05-06T04:08:07.999Z</time></trkpt><trkpt lat="-37.921318954679606" lon="146.05068140463374"><ele>389.79999999999995</ele><time>2026-05-06T04:08:08.999Z</time></trkpt><trkpt lat="-37.92135206213715" lon="146.0505298102016"><ele>390.59999999999997</ele><time>2026-05-06T04:08:09.999Z</time></trkpt><trkpt lat="-37.92138195303142" lon="146.0504095338043"><ele>391.4</ele><time>2026-05-06T04:08:10.999Z</time></trkpt><trkpt lat="-37.92139754863304" lon="146.0502951990611"><ele>392.2</ele><time>2026-05-06T04:08:11.999Z</time></trkpt><trkpt lat="-37.9214113905335" lon="146.05017457211846"><ele>393.0</ele><time>2026-05-06T04:08:12.999Z</time></trkpt><trkpt lat="-37.92142368854258" lon="146.05007898913695"><ele>393.0</ele><time>2026-05-06T04:08:13.999Z</time></trkpt><trkpt lat="-37.921438377625286" lon="146.04997672195148"><ele>393.0</ele><time>2026-05-06T04:08:14.999Z</time></trkpt><trkpt lat="-37.92146375582036" lon="146.04988164379563"><ele>393.0</ele><time>2026-05-06T04:08:15.999Z</time></trkpt><trkpt lat="-37.92149126544644" lon="146.049809548738"><ele>393.0</ele><time>2026-05-06T04:08:16.999Z</time></trkpt><trkpt lat="-37.921535008738196" lon="146.04972962589406"><ele>393.0</ele><time>2026-05-06T04:08:17.999Z</time></trkpt><trkpt lat="-37.92157266549292" lon="146.04965387944665"><ele>393.0</ele><time>2026-05-06T04:08:18.999Z</time></trkpt><trkpt lat="-37.921671298737934" lon="146.0495382387089"><ele>392.79999999999995</ele><time>2026-05-06T04:08:20.999Z</time></trkpt><trkpt lat="-37.921730423180406" lon="146.04947933468077"><ele>392.6</ele><time>2026-05-06T04:08:21.999Z</time></trkpt><trkpt lat="-37.92181499720263" lon="146.04942209612238"><ele>392.4</ele><time>2026-05-06T04:08:22.999Z</time></trkpt><trkpt lat="-37.92189273824505" lon="146.0493669885612"><ele>392.20000000000005</ele><time>2026-05-06T04:08:23.999Z</time></trkpt><trkpt lat="-37.92198985997821" lon="146.0493042153882"><ele>392.0</ele><time>2026-05-06T04:08:24.999Z</time></trkpt><trkpt lat="-37.92209554433183" lon="146.0492267263232"><ele>391.0</ele><time>2026-05-06T04:08:25.999Z</time></trkpt><trkpt lat="-37.92217006982355" lon="146.04916684696283"><ele>390.0</ele><time>2026-05-06T04:08:26.999Z</time></trkpt><trkpt lat="-37.92225561636793" lon="146.049085650048"><ele>389.0</ele><time>2026-05-06T04:08:27.999Z</time></trkpt><trkpt lat="-37.92234354109625" lon="146.04900773850113"><ele>388.0</ele><time>2026-05-06T04:08:28.999Z</time></trkpt><trkpt lat="-37.92241332610497" lon="146.048918010756"><ele>387.0</ele><time>2026-05-06T04:08:29.999Z</time></trkpt><trkpt lat="-37.92245489411052" lon="146.0488195020771"><ele>387.0</ele><time>2026-05-06T04:08:30.999Z</time></trkpt><trkpt lat="-37.92251243023658" lon="146.04872458606522"><ele>387.0</ele><time>2026-05-06T04:08:31.999Z</time></trkpt><trkpt lat="-37.922609743607886" lon="146.04863053534845"><ele>387.0</ele><time>2026-05-06T04:08:32.999Z</time></trkpt><trkpt lat="-37.9227050414041" lon="146.04856989558428"><ele>387.0</ele><time>2026-05-06T04:08:33.999Z</time></trkpt><trkpt lat="-37.922818663522094" lon="146.0484829798822"><ele>391.0</ele><time>2026-05-06T04:08:34.999Z</time></trkpt><trkpt lat="-37.922937689669105" lon="146.04839578468906"><ele>395.0</ele><time>2026-05-06T04:08:35.999Z</time></trkpt><trkpt lat="-37.92305971412776" lon="146.0482711104905"><ele>399.0</ele><time>2026-05-06T04:08:37Z</time></trkpt><trkpt lat="-37.92317108343575" lon="146.04817160990973"><ele>403.0</ele><time>2026-05-06T04:08:40Z</time></trkpt><trkpt lat="-37.92325283649101" lon="146.0481115626439"><ele>403.00000000000006</ele><time>2026-05-06T04:08:41Z</time></trkpt><trkpt lat="-37.92331484450429" lon="146.04804086116974"><ele>403.0</ele><time>2026-05-06T04:08:42Z</time></trkpt><trkpt lat="-37.923357054303864" lon="146.04796856388612"><ele>403.0</ele><time>2026-05-06T04:08:43Z</time></trkpt><trkpt lat="-37.923431651756154" lon="146.04786959149143"><ele>403.0</ele><time>2026-05-06T04:08:44Z</time></trkpt><trkpt lat="-37.92350611590396" lon="146.04778705000595"><ele>403.00000000000006</ele><time>2026-05-06T04:08:45Z</time></trkpt><trkpt lat="-37.92355511028624" lon="146.04772968492776"><ele>403.0</ele><time>2026-05-06T04:08:46Z</time></trkpt><trkpt lat="-37.9236253415097" lon="146.04766789337634"><ele>406.4</ele><time>2026-05-06T04:08:47Z</time></trkpt><trkpt lat="-37.92368144127612" lon="146.0476172793467"><ele>409.79999999999995</ele><time>2026-05-06T04:08:48Z</time></trkpt><trkpt lat="-37.92373653496342" lon="146.04756220098136"><ele>413.2</ele><time>2026-05-06T04:08:49Z</time></trkpt><trkpt lat="-37.92379570091937" lon="146.0474467586931"><ele>416.6</ele><time>2026-05-06T04:08:50Z</time></trkpt><trkpt lat="-37.92384749622322" lon="146.0473383956736"><ele>420.0</ele><time>2026-05-06T04:08:51Z</time></trkpt><trkpt lat="-37.923924832396565" lon="146.04723690090557"><ele>420.0</ele><time>2026-05-06T04:08:53Z</time></trkpt><trkpt lat="-37.924012735628025" lon="146.04722444379715"><ele>420.0</ele><time>2026-05-06T04:08:55Z</time></trkpt><trkpt lat="-37.92406050866266" lon="146.0473271081022"><ele>420.0</ele><time>2026-05-06T04:09:01Z</time></trkpt><trkpt lat="-37.92413535595625" lon="146.0473662170952"><ele>420.0</ele><time>2026-05-06T04:09:02Z</time></trkpt><trkpt lat="-37.924216585881304" lon="146.04738967488996"><ele>420.0</ele><time>2026-05-06T04:09:03Z</time></trkpt><trkpt lat="-37.92432101273546" lon="146.04740301385573"><ele>420.0</ele><time>2026-05-06T04:09:04Z</time></trkpt><trkpt lat="-37.924396007962514" lon="146.04739270687273"><ele>420.0</ele><time>2026-05-06T04:09:05Z</time></trkpt><trkpt lat="-37.924471621178505" lon="146.0473775686034"><ele>420.0</ele><time>2026-05-06T04:09:07Z</time></trkpt><trkpt lat="-37.92459812609647" lon="146.04738199583673"><ele>420.0</ele><time>2026-05-06T04:09:22Z</time></trkpt><trkpt lat="-37.92468820722802" lon="146.0474171308057"><ele>420.0</ele><time>2026-05-06T04:09:23Z</time></trkpt><trkpt lat="-37.924772271943056" lon="146.04748116903042"><ele>420.0</ele><time>2026-05-06T04:09:24Z</time></trkpt><trkpt lat="-37.924838856937235" lon="146.0475533279269"><ele>420.0</ele><time>2026-05-06T04:09:25Z</time></trkpt><trkpt lat="-37.92489575228264" lon="146.0476095624678"><ele>420.0</ele><time>2026-05-06T04:09:26Z</time></trkpt><trkpt lat="-37.924956261419005" lon="146.04767475993935"><ele>420.0</ele><time>2026-05-06T04:09:27Z</time></trkpt><trkpt lat="-37.92502707960661" lon="146.04775418413092"><ele>420.0</ele><time>2026-05-06T04:09:28Z</time></trkpt><trkpt lat="-37.92510185962141" lon="146.047854462552"><ele>420.0</ele><time>2026-05-06T04:09:29Z</time></trkpt><trkpt lat="-37.92515259191781" lon="146.04796618062795"><ele>421.5</ele><time>2026-05-06T04:09:30Z</time></trkpt><trkpt lat="-37.925216427352204" lon="146.04810606322872"><ele>423.0</ele><time>2026-05-06T04:09:31Z</time></trkpt><trkpt lat="-37.92529788228" lon="146.0482478173684"><ele>424.5</ele><time>2026-05-06T04:09:32Z</time></trkpt><trkpt lat="-37.925371704945995" lon="146.04836722085514"><ele>426.0</ele><time>2026-05-06T04:09:33Z</time></trkpt><trkpt lat="-37.925454954579" lon="146.04850076630473"><ele>426.75</ele><time>2026-05-06T04:09:34Z</time></trkpt><trkpt lat="-37.925539611439326" lon="146.04863316809653"><ele>427.5</ele><time>2026-05-06T04:09:34.999Z</time></trkpt><trkpt lat="-37.925615455331524" lon="146.04875386797013"><ele>428.25</ele><time>2026-05-06T04:09:35.999Z</time></trkpt><trkpt lat="-37.92569463921244" lon="146.0488669742947"><ele>429.0</ele><time>2026-05-06T04:09:36.999Z</time></trkpt><trkpt lat="-37.925767155356475" lon="146.0489872193744"><ele>428.25</ele><time>2026-05-06T04:09:37.999Z</time></trkpt><trkpt lat="-37.92584670755915" lon="146.04913433421615"><ele>427.5</ele><time>2026-05-06T04:09:38.999Z</time></trkpt><trkpt lat="-37.92592178287869" lon="146.04926676996186"><ele>426.75</ele><time>2026-05-06T04:09:39.999Z</time></trkpt><trkpt lat="-37.92600646438933" lon="146.04939163999805"><ele>426.0</ele><time>2026-05-06T04:09:40.999Z</time></trkpt><trkpt lat="-37.92607825622199" lon="146.04948459351317"><ele>429.8333333333333</ele><time>2026-05-06T04:09:41.999Z</time></trkpt><trkpt lat="-37.92615548722809" lon="146.04955815456026"><ele>433.66666666666663</ele><time>2026-05-06T04:09:42.999Z</time></trkpt><trkpt lat="-37.926227075641435" lon="146.0496388510602"><ele>437.5</ele><time>2026-05-06T04:09:43.999Z</time></trkpt><trkpt lat="-37.92628723261897" lon="146.04971360548214"><ele>441.3333333333333</ele><time>2026-05-06T04:09:44.999Z</time></trkpt><trkpt lat="-37.92635571171061" lon="146.0497853515622"><ele>445.16666666666663</ele><time>2026-05-06T04:09:45.999Z</time></trkpt><trkpt lat="-37.92639776601016" lon="146.04984653772198"><ele>449.0</ele><time>2026-05-06T04:09:46.999Z</time></trkpt><trkpt lat="-37.926455877493744" lon="146.04993387885648"><ele>449.6</ele><time>2026-05-06T04:09:47.999Z</time></trkpt><trkpt lat="-37.926535912835845" lon="146.0500498407791"><ele>450.2</ele><time>2026-05-06T04:09:48.999Z</time></trkpt><trkpt lat="-37.92660612053577" lon="146.05014669340605"><ele>450.80000000000007</ele><time>2026-05-06T04:09:49.999Z</time></trkpt><trkpt lat="-37.92664390847517" lon="146.05022331527502"><ele>451.40000000000003</ele><time>2026-05-06T04:09:50.999Z</time></trkpt><trkpt lat="-37.92669518642438" lon="146.05028257352492"><ele>452.0</ele><time>2026-05-06T04:09:51.999Z</time></trkpt><trkpt lat="-37.92675789197099" lon="146.05038608729066"><ele>451.99999999999994</ele><time>2026-05-06T04:09:52.999Z</time></trkpt><trkpt lat="-37.92681777205598" lon="146.0504842361793"><ele>452.0</ele><time>2026-05-06T04:09:53.999Z</time></trkpt><trkpt lat="-37.92687375341536" lon="146.05056632876753"><ele>452.0</ele><time>2026-05-06T04:09:54.999Z</time></trkpt><trkpt lat="-37.92691122061346" lon="146.0506320537417"><ele>452.0</ele><time>2026-05-06T04:09:55.999Z</time></trkpt><trkpt lat="-37.9269565600615" lon="146.0507160251843"><ele>451.99999999999994</ele><time>2026-05-06T04:09:56.999Z</time></trkpt><trkpt lat="-37.92700527934731" lon="146.0508267122622"><ele>452.0</ele><time>2026-05-06T04:09:57.999Z</time></trkpt><trkpt lat="-37.92704641609877" lon="146.0509313383607"><ele>449.6</ele><time>2026-05-06T04:09:58.999Z</time></trkpt><trkpt lat="-37.92706543568456" lon="146.05103439169358"><ele>447.20000000000005</ele><time>2026-05-06T04:09:59.999Z</time></trkpt><trkpt lat="-37.92707146761957" lon="146.05112088742817"><ele>444.8</ele><time>2026-05-06T04:10:00.999Z</time></trkpt><trkpt lat="-37.9271287171376" lon="146.0511867524212"><ele>442.4</ele><time>2026-05-06T04:10:03.999Z</time></trkpt><trkpt lat="-37.92719283974208" lon="146.0511808446819"><ele>440.0</ele><time>2026-05-06T04:11:14Z</time></trkpt><trkpt lat="-37.92728418008093" lon="146.05100998744163"><ele>440.0</ele><time>2026-05-06T04:11:16Z</time></trkpt><trkpt lat="-37.927340019645925" lon="146.0509062586449"><ele>440.0</ele><time>2026-05-06T04:11:17Z</time></trkpt><trkpt lat="-37.92740803864252" lon="146.05079845481353"><ele>440.0</ele><time>2026-05-06T04:11:18Z</time></trkpt><trkpt lat="-37.927458906122816" lon="146.05069725322758"><ele>440.0</ele><time>2026-05-06T04:11:19Z</time></trkpt><trkpt lat="-37.92748911613636" lon="146.05057665603294"><ele>440.0</ele><time>2026-05-06T04:11:20Z</time></trkpt><trkpt lat="-37.92750711346876" lon="146.05045287001053"><ele>440.3333333333333</ele><time>2026-05-06T04:11:21Z</time></trkpt><trkpt lat="-37.927529091487216" lon="146.0503243166523"><ele>440.66666666666663</ele><time>2026-05-06T04:11:22Z</time></trkpt><trkpt lat="-37.92757138892067" lon="146.050250811724"><ele>441.0</ele><time>2026-05-06T04:11:23Z</time></trkpt><trkpt lat="-37.92761467537896" lon="146.0501754300459"><ele>441.33333333333337</ele><time>2026-05-06T04:11:24Z</time></trkpt><trkpt lat="-37.92765008612154" lon="146.05008514157947"><ele>441.6666666666667</ele><time>2026-05-06T04:11:25Z</time></trkpt><trkpt lat="-37.927698471815205" lon="146.0499954221918"><ele>442.0</ele><time>2026-05-06T04:11:26Z</time></trkpt><trkpt lat="-37.92773301435574" lon="146.04989615757003"><ele>442.0</ele><time>2026-05-06T04:11:27Z</time></trkpt><trkpt lat="-37.92776195246476" lon="146.0498004249157"><ele>442.0</ele><time>2026-05-06T04:11:28Z</time></trkpt><trkpt lat="-37.92771409496956" lon="146.04959544287493"><ele>442.0</ele><time>2026-05-06T04:11:30Z</time></trkpt><trkpt lat="-37.927686248415455" lon="146.04947294150628"><ele>442.0</ele><time>2026-05-06T04:11:31Z</time></trkpt><trkpt lat="-37.927662732349276" lon="146.04934974545205"><ele>442.0</ele><time>2026-05-06T04:11:32Z</time></trkpt><trkpt lat="-37.927653540379524" lon="146.0492198294252"><ele>442.00000000000006</ele><time>2026-05-06T04:11:33Z</time></trkpt><trkpt lat="-37.92764550776782" lon="146.04912149507842"><ele>442.00000000000006</ele><time>2026-05-06T04:11:34Z</time></trkpt><trkpt lat="-37.927624169415814" lon="146.04900847278614"><ele>442.0</ele><time>2026-05-06T04:11:35Z</time></trkpt><trkpt lat="-37.92762626781138" lon="146.04886039195122"><ele>442.0</ele><time>2026-05-06T04:11:36Z</time></trkpt><trkpt lat="-37.927646543761796" lon="146.04872603038373"><ele>443.25</ele><time>2026-05-06T04:11:37Z</time></trkpt><trkpt lat="-37.92768944054583" lon="146.04857875789858"><ele>444.5</ele><time>2026-05-06T04:11:38Z</time></trkpt><trkpt lat="-37.92771721373161" lon="146.04845420218263"><ele>445.75</ele><time>2026-05-06T04:11:39Z</time></trkpt><trkpt lat="-37.92773750965951" lon="146.04834086917654"><ele>447.0</ele><time>2026-05-06T04:11:40Z</time></trkpt><trkpt lat="-37.927736940647144" lon="146.04810407805337"><ele>448.1666666666667</ele><time>2026-05-06T04:11:41Z</time></trkpt><trkpt lat="-37.92776485829773" lon="146.04798044346296"><ele>449.33333333333337</ele><time>2026-05-06T04:11:41.999Z</time></trkpt><trkpt lat="-37.92779063241799" lon="146.04787565811387"><ele>450.5</ele><time>2026-05-06T04:11:42.999Z</time></trkpt><trkpt lat="-37.92782367536029" lon="146.04777045305"><ele>451.6666666666667</ele><time>2026-05-06T04:11:43.999Z</time></trkpt><trkpt lat="-37.92787176070028" lon="146.04768144905788"><ele>452.83333333333337</ele><time>2026-05-06T04:11:44.999Z</time></trkpt><trkpt lat="-37.92791219979622" lon="146.04759432629598"><ele>454.0</ele><time>2026-05-06T04:11:45.999Z</time></trkpt><trkpt lat="-37.9279385035347" lon="146.04749492568502"><ele>454.79999999999995</ele><time>2026-05-06T04:11:46.999Z</time></trkpt><trkpt lat="-37.92797446615035" lon="146.04738779047142"><ele>455.59999999999997</ele><time>2026-05-06T04:11:47.999Z</time></trkpt><trkpt lat="-37.928005275403585" lon="146.0472712455228"><ele>456.4</ele><time>2026-05-06T04:11:48.999Z</time></trkpt><trkpt lat="-37.928053579631396" lon="146.04715963104798"><ele>457.2</ele><time>2026-05-06T04:11:49.999Z</time></trkpt><trkpt lat="-37.92809582906534" lon="146.04706350137792"><ele>458.0</ele><time>2026-05-06T04:11:50.999Z</time></trkpt><trkpt lat="-37.92811587428532" lon="146.0469233622377"><ele>458.0</ele><time>2026-05-06T04:11:51.999Z</time></trkpt><trkpt lat="-37.92812150147102" lon="146.04678636693873"><ele>458.0</ele><time>2026-05-06T04:11:52.999Z</time></trkpt><trkpt lat="-37.928134700704014" lon="146.04664587198948"><ele>458.0</ele><time>2026-05-06T04:11:53.999Z</time></trkpt><trkpt lat="-37.92817523546148" lon="146.04648594562653"><ele>458.0</ele><time>2026-05-06T04:11:54.999Z</time></trkpt><trkpt lat="-37.92822095227773" lon="146.046368297502"><ele>458.49999999999994</ele><time>2026-05-06T04:11:55.999Z</time></trkpt><trkpt lat="-37.92825617874812" lon="146.04627249108003"><ele>459.0</ele><time>2026-05-06T04:11:56.999Z</time></trkpt><trkpt lat="-37.92830615933278" lon="146.04619300175045"><ele>459.5</ele><time>2026-05-06T04:11:57.999Z</time></trkpt><trkpt lat="-37.92834191230009" lon="146.04609282213923"><ele>460.0</ele><time>2026-05-06T04:11:58.999Z</time></trkpt><trkpt lat="-37.92835776414171" lon="146.04598986169185"><ele>460.49999999999994</ele><time>2026-05-06T04:11:59.999Z</time></trkpt><trkpt lat="-37.92837212353068" lon="146.0458825485742"><ele>461.0</ele><time>2026-05-06T04:12:00.999Z</time></trkpt><trkpt lat="-37.92839733130261" lon="146.04576156151356"><ele>461.0</ele><time>2026-05-06T04:12:01.999Z</time></trkpt><trkpt lat="-37.92842682875314" lon="146.04564667728604"><ele>461.0</ele><time>2026-05-06T04:12:02.999Z</time></trkpt><trkpt lat="-37.92849195515816" lon="146.04553485210272"><ele>461.0</ele><time>2026-05-06T04:12:03.999Z</time></trkpt><trkpt lat="-37.92855034797767" lon="146.04542404444146"><ele>461.0</ele><time>2026-05-06T04:12:04.999Z</time></trkpt><trkpt lat="-37.928610918664035" lon="146.0453208684546"><ele>461.0</ele><time>2026-05-06T04:12:05.999Z</time></trkpt><trkpt lat="-37.92867660102118" lon="146.04523896230242"><ele>461.0</ele><time>2026-05-06T04:12:06.999Z</time></trkpt><trkpt lat="-37.928726467278196" lon="146.04517314987822"><ele>461.00000000000006</ele><time>2026-05-06T04:12:07.999Z</time></trkpt><trkpt lat="-37.92879215409492" lon="146.0451197039363"><ele>461.0</ele><time>2026-05-06T04:12:08.999Z</time></trkpt><trkpt lat="-37.928855162042716" lon="146.04510288688365"><ele>461.0</ele><time>2026-05-06T04:12:09.999Z</time></trkpt><trkpt lat="-37.928917677213505" lon="146.04508441519957"><ele>461.00000000000006</ele><time>2026-05-06T04:12:10.999Z</time></trkpt><trkpt lat="-37.92898373245838" lon="146.04508351809173"><ele>461.0</ele><time>2026-05-06T04:12:11.999Z</time></trkpt><trkpt lat="-37.929060543460245" lon="146.0451381283"><ele>461.0</ele><time>2026-05-06T04:12:12.999Z</time></trkpt><trkpt lat="-37.92913884457404" lon="146.04519306661894"><ele>460.99999999999994</ele><time>2026-05-06T04:12:13.999Z</time></trkpt><trkpt lat="-37.92920141949208" lon="146.04509979036752"><ele>461.0</ele><time>2026-05-06T04:12:14.999Z</time></trkpt><trkpt lat="-37.92925986166112" lon="146.04504990554656"><ele>461.0</ele><time>2026-05-06T04:12:15.999Z</time></trkpt><trkpt lat="-37.929334591848274" lon="146.04497522861737"><ele>461.0</ele><time>2026-05-06T04:12:16.999Z</time></trkpt><trkpt lat="-37.92941273019142" lon="146.04487011611332"><ele>460.99999999999994</ele><time>2026-05-06T04:12:17.999Z</time></trkpt><trkpt lat="-37.92946851579872" lon="146.04483228250928"><ele>461.0</ele><time>2026-05-06T04:12:18.999Z</time></trkpt><trkpt lat="-37.92953276146692" lon="146.04477066902982"><ele>459.20000000000005</ele><time>2026-05-06T04:12:19.999Z</time></trkpt><trkpt lat="-37.92961751897922" lon="146.04473328783388"><ele>457.40000000000003</ele><time>2026-05-06T04:12:20.999Z</time></trkpt><trkpt lat="-37.92970494790146" lon="146.04470806038952"><ele>455.6</ele><time>2026-05-06T04:12:21.999Z</time></trkpt><trkpt lat="-37.929788418080214" lon="146.0446327548267"><ele>453.8</ele><time>2026-05-06T04:12:22.999Z</time></trkpt><trkpt lat="-37.92985794695924" lon="146.0445509705817"><ele>452.0</ele><time>2026-05-06T04:12:23.999Z</time></trkpt><trkpt lat="-37.929926866613386" lon="146.0444952064315"><ele>452.0</ele><time>2026-05-06T04:12:24.999Z</time></trkpt><trkpt lat="-37.930021398156455" lon="146.04445183522844"><ele>452.00000000000006</ele><time>2026-05-06T04:12:25.999Z</time></trkpt><trkpt lat="-37.930141017921514" lon="146.04442298812378"><ele>452.00000000000006</ele><time>2026-05-06T04:12:26.999Z</time></trkpt><trkpt lat="-37.930241042757" lon="146.0443935353615"><ele>452.0</ele><time>2026-05-06T04:12:27.999Z</time></trkpt><trkpt lat="-37.930344069122576" lon="146.04436247348465"><ele>452.0</ele><time>2026-05-06T04:12:28.999Z</time></trkpt><trkpt lat="-37.930446023895996" lon="146.04434078885163"><ele>453.0</ele><time>2026-05-06T04:12:29.999Z</time></trkpt><trkpt lat="-37.93054817642932" lon="146.04436082671307"><ele>454.00000000000006</ele><time>2026-05-06T04:12:30.999Z</time></trkpt><trkpt lat="-37.93065083562602" lon="146.0443838692239"><ele>455.00000000000006</ele><time>2026-05-06T04:12:31.999Z</time></trkpt><trkpt lat="-37.93073711779656" lon="146.04441861352672"><ele>456.0</ele><time>2026-05-06T04:12:32.999Z</time></trkpt><trkpt lat="-37.930795775988656" lon="146.0444712884366"><ele>457.0</ele><time>2026-05-06T04:12:33.999Z</time></trkpt><trkpt lat="-37.93088050095572" lon="146.04454511641728"><ele>455.6</ele><time>2026-05-06T04:12:34.999Z</time></trkpt><trkpt lat="-37.930977094778356" lon="146.04462496005488"><ele>454.20000000000005</ele><time>2026-05-06T04:12:35.999Z</time></trkpt><trkpt lat="-37.93106325588207" lon="146.04471032137198"><ele>452.8</ele><time>2026-05-06T04:12:36.999Z</time></trkpt><trkpt lat="-37.93114560147629" lon="146.04478784103435"><ele>451.4</ele><time>2026-05-06T04:12:37.999Z</time></trkpt><trkpt lat="-37.93121224587618" lon="146.04485201926676"><ele>450.0</ele><time>2026-05-06T04:12:38.999Z</time></trkpt><trkpt lat="-37.93127200584035" lon="146.04491067058655"><ele>450.0</ele><time>2026-05-06T04:12:39.999Z</time></trkpt><trkpt lat="-37.93139382980161" lon="146.04498127490862"><ele>450.0</ele><time>2026-05-06T04:12:41.999Z</time></trkpt><trkpt lat="-37.93150781341331" lon="146.04496126524964"><ele>450.0</ele><time>2026-05-06T04:12:43.999Z</time></trkpt><trkpt lat="-37.93158449959456" lon="146.04489565216355"><ele>450.0</ele><time>2026-05-06T04:12:44.999Z</time></trkpt><trkpt lat="-37.93166688858947" lon="146.04481933757492"><ele>450.0</ele><time>2026-05-06T04:12:45.999Z</time></trkpt><trkpt lat="-37.931724372335964" lon="146.0447498889584"><ele>448.28571428571433</ele><time>2026-05-06T04:12:47Z</time></trkpt><trkpt lat="-37.93177848977649" lon="146.04469080893088"><ele>446.57142857142856</ele><time>2026-05-06T04:12:48Z</time></trkpt><trkpt lat="-37.93182939302784" lon="146.04463950948465"><ele>444.8571428571429</ele><time>2026-05-06T04:12:49Z</time></trkpt><trkpt lat="-37.93188686494004" lon="146.0445725940708"><ele>443.14285714285717</ele><time>2026-05-06T04:12:50Z</time></trkpt><trkpt lat="-37.931944347961824" lon="146.04451789159998"><ele>441.42857142857144</ele><time>2026-05-06T04:12:51Z</time></trkpt><trkpt lat="-37.93202957240181" lon="146.04446820975116"><ele>439.7142857142857</ele><time>2026-05-06T04:12:52Z</time></trkpt><trkpt lat="-37.932092503170225" lon="146.04443903755268"><ele>438.0</ele><time>2026-05-06T04:12:53Z</time></trkpt><trkpt lat="-37.9321585971718" lon="146.04440801589192"><ele>438.0</ele><time>2026-05-06T04:12:54Z</time></trkpt><trkpt lat="-37.932222444272256" lon="146.04435790715388"><ele>438.0</ele><time>2026-05-06T04:12:55Z</time></trkpt><trkpt lat="-37.93232516152913" lon="146.0442722249355"><ele>438.0</ele><time>2026-05-06T04:12:57Z</time></trkpt><trkpt lat="-37.93238281969282" lon="146.0442275132374"><ele>438.0</ele><time>2026-05-06T04:12:58Z</time></trkpt><trkpt lat="-37.93244882460958" lon="146.04418790895383"><ele>438.0</ele><time>2026-05-06T04:12:59Z</time></trkpt><trkpt lat="-37.932510219429794" lon="146.04416764814945"><ele>438.0</ele><time>2026-05-06T04:13:00Z</time></trkpt><trkpt lat="-37.9325820803816" lon="146.0441927702042"><ele>437.3333333333333</ele><time>2026-05-06T04:13:01Z</time></trkpt><trkpt lat="-37.932646299971644" lon="146.04420882752135"><ele>436.66666666666663</ele><time>2026-05-06T04:13:02Z</time></trkpt><trkpt lat="-37.93271986436289" lon="146.04420061936761"><ele>436.0</ele><time>2026-05-06T04:13:03Z</time></trkpt><trkpt lat="-37.932809417425695" lon="146.04419492544875"><ele>435.3333333333333</ele><time>2026-05-06T04:13:04Z</time></trkpt><trkpt lat="-37.9329182385449" lon="146.0441863654173"><ele>434.66666666666663</ele><time>2026-05-06T04:13:05Z</time></trkpt><trkpt lat="-37.9330065200476" lon="146.04417374524877"><ele>434.0</ele><time>2026-05-06T04:13:06Z</time></trkpt><trkpt lat="-37.93308984065031" lon="146.04416453742658"><ele>434.0</ele><time>2026-05-06T04:13:07Z</time></trkpt><trkpt lat="-37.93317591888078" lon="146.04418259375197"><ele>434.0</ele><time>2026-05-06T04:13:08Z</time></trkpt><trkpt lat="-37.93327218249196" lon="146.04417074685202"><ele>434.0</ele><time>2026-05-06T04:13:09Z</time></trkpt><trkpt lat="-37.933386751237585" lon="146.0441406079736"><ele>434.0</ele><time>2026-05-06T04:13:10Z</time></trkpt><trkpt lat="-37.93348054036008" lon="146.04410526601643"><ele>434.0</ele><time>2026-05-06T04:13:11Z</time></trkpt><trkpt lat="-37.93358522098152" lon="146.0440856417065"><ele>434.4</ele><time>2026-05-06T04:13:12Z</time></trkpt><trkpt lat="-37.93368289245811" lon="146.04407064729"><ele>434.79999999999995</ele><time>2026-05-06T04:13:13Z</time></trkpt><trkpt lat="-37.9337642429729" lon="146.04401900768707"><ele>435.20000000000005</ele><time>2026-05-06T04:13:14Z</time></trkpt><trkpt lat="-37.93383245626813" lon="146.04393916801502"><ele>435.6</ele><time>2026-05-06T04:13:15Z</time></trkpt><trkpt lat="-37.933868871602805" lon="146.04382026834068"><ele>436.0</ele><time>2026-05-06T04:13:16Z</time></trkpt><trkpt lat="-37.93390342814417" lon="146.04369481558933"><ele>436.0</ele><time>2026-05-06T04:13:17Z</time></trkpt><trkpt lat="-37.93397040106383" lon="146.0436056663935"><ele>436.0</ele><time>2026-05-06T04:13:18Z</time></trkpt><trkpt lat="-37.93404758161602" lon="146.04351454577383"><ele>436.0</ele><time>2026-05-06T04:13:19Z</time></trkpt><trkpt lat="-37.9341369806268" lon="146.0434293765674"><ele>436.0</ele><time>2026-05-06T04:13:20Z</time></trkpt><trkpt lat="-37.93420945432837" lon="146.0433483266602"><ele>436.0</ele><time>2026-05-06T04:13:21Z</time></trkpt><trkpt lat="-37.93425304494619" lon="146.0432578465038"><ele>435.33333333333337</ele><time>2026-05-06T04:13:22Z</time></trkpt><trkpt lat="-37.93428887686655" lon="146.04315601188165"><ele>434.6666666666667</ele><time>2026-05-06T04:13:23Z</time></trkpt><trkpt lat="-37.93433780538241" lon="146.04305914488566"><ele>434.0</ele><time>2026-05-06T04:13:24Z</time></trkpt><trkpt lat="-37.93441049189346" lon="146.04298787914908"><ele>433.33333333333337</ele><time>2026-05-06T04:13:25Z</time></trkpt><trkpt lat="-37.934483753173566" lon="146.04294202005792"><ele>432.6666666666667</ele><time>2026-05-06T04:13:26Z</time></trkpt><trkpt lat="-37.93455729606908" lon="146.04295263322754"><ele>432.0</ele><time>2026-05-06T04:13:27Z</time></trkpt><trkpt lat="-37.93466528574544" lon="146.04300897866244"><ele>432.0</ele><time>2026-05-06T04:13:28Z</time></trkpt><trkpt lat="-37.93476544020748" lon="146.04305617220447"><ele>432.0</ele><time>2026-05-06T04:13:29Z</time></trkpt><trkpt lat="-37.934835879984824" lon="146.04307478423192"><ele>432.0</ele><time>2026-05-06T04:13:30Z</time></trkpt><trkpt lat="-37.93490712650555" lon="146.04309400822225"><ele>432.0</ele><time>2026-05-06T04:13:31Z</time></trkpt><trkpt lat="-37.934970559259526" lon="146.04310860599452"><ele>432.0</ele><time>2026-05-06T04:13:32Z</time></trkpt><trkpt lat="-37.935036486154104" lon="146.04314535278516"><ele>432.0</ele><time>2026-05-06T04:13:33Z</time></trkpt><trkpt lat="-37.935096019470336" lon="146.04317464405312"><ele>430.1428571428571</ele><time>2026-05-06T04:13:34Z</time></trkpt><trkpt lat="-37.93515247839909" lon="146.04321422280563"><ele>428.2857142857143</ele><time>2026-05-06T04:13:35Z</time></trkpt><trkpt lat="-37.93520618479976" lon="146.04326019434396"><ele>426.42857142857144</ele><time>2026-05-06T04:13:36Z</time></trkpt><trkpt lat="-37.93527448513477" lon="146.04331274998685"><ele>424.57142857142856</ele><time>2026-05-06T04:13:37Z</time></trkpt><trkpt lat="-37.935321107443414" lon="146.04336972293135"><ele>422.7142857142857</ele><time>2026-05-06T04:13:38Z</time></trkpt><trkpt lat="-37.93537378028631" lon="146.0434323512257"><ele>420.85714285714283</ele><time>2026-05-06T04:13:39Z</time></trkpt><trkpt lat="-37.93540701658691" lon="146.04350127903726"><ele>419.0</ele><time>2026-05-06T04:13:40Z</time></trkpt><trkpt lat="-37.93543712039755" lon="146.04358561988448"><ele>418.79999999999995</ele><time>2026-05-06T04:13:41Z</time></trkpt><trkpt lat="-37.935470166913404" lon="146.04367953187713"><ele>418.59999999999997</ele><time>2026-05-06T04:13:42Z</time></trkpt><trkpt lat="-37.93552987477848" lon="146.04381007946458"><ele>418.4</ele><time>2026-05-06T04:13:43Z</time></trkpt><trkpt lat="-37.935596102712495" lon="146.04390887274087"><ele>418.2</ele><time>2026-05-06T04:13:44Z</time></trkpt><trkpt lat="-37.935662139781506" lon="146.04402008149583"><ele>418.0</ele><time>2026-05-06T04:13:45Z</time></trkpt><trkpt lat="-37.93571846037831" lon="146.04413270698691"><ele>419.00000000000006</ele><time>2026-05-06T04:13:46Z</time></trkpt><trkpt lat="-37.93577420898846" lon="146.04423770746348"><ele>420.0</ele><time>2026-05-06T04:13:47Z</time></trkpt><trkpt lat="-37.93581399536985" lon="146.04433676906456"><ele>421.0</ele><time>2026-05-06T04:13:47.999Z</time></trkpt><trkpt lat="-37.93585196001019" lon="146.04443057943953"><ele>422.0</ele><time>2026-05-06T04:13:48.999Z</time></trkpt><trkpt lat="-37.935872072724884" lon="146.04454950113336"><ele>423.00000000000006</ele><time>2026-05-06T04:13:49.999Z</time></trkpt><trkpt lat="-37.93588462889901" lon="146.0446504150795"><ele>424.0</ele><time>2026-05-06T04:13:50.999Z</time></trkpt><trkpt lat="-37.935890415099166" lon="146.04477853331014"><ele>423.0</ele><time>2026-05-06T04:13:51.999Z</time></trkpt><trkpt lat="-37.93588934780799" lon="146.04489032156027"><ele>422.0</ele><time>2026-05-06T04:13:52.999Z</time></trkpt><trkpt lat="-37.93589303716287" lon="146.04502442339916"><ele>421.0</ele><time>2026-05-06T04:13:53.999Z</time></trkpt><trkpt lat="-37.935916461868885" lon="146.04517596339974"><ele>420.0</ele><time>2026-05-06T04:13:54.999Z</time></trkpt><trkpt lat="-37.935948190831034" lon="146.04528334226436"><ele>419.0</ele><time>2026-05-06T04:13:55.999Z</time></trkpt><trkpt lat="-37.936013788599126" lon="146.0454211347799"><ele>419.0</ele><time>2026-05-06T04:13:57.999Z</time></trkpt><trkpt lat="-37.93606888297959" lon="146.04546212528496"><ele>419.0</ele><time>2026-05-06T04:13:58.999Z</time></trkpt><trkpt lat="-37.93621600453074" lon="146.04540438538433"><ele>419.0</ele><time>2026-05-06T04:14:00.999Z</time></trkpt><trkpt lat="-37.93630375209088" lon="146.04536706221842"><ele>419.0</ele><time>2026-05-06T04:14:01.999Z</time></trkpt><trkpt lat="-37.9364528994998" lon="146.04534407054425"><ele>418.99999999999994</ele><time>2026-05-06T04:14:03.999Z</time></trkpt><trkpt lat="-37.93653220522466" lon="146.04532656415637"><ele>419.0</ele><time>2026-05-06T04:14:04.999Z</time></trkpt><trkpt lat="-37.936614351716244" lon="146.0452911907551"><ele>419.0</ele><time>2026-05-06T04:14:05.999Z</time></trkpt><trkpt lat="-37.93670155748357" lon="146.04527520101203"><ele>419.0</ele><time>2026-05-06T04:14:06.999Z</time></trkpt><trkpt lat="-37.93678800483307" lon="146.0452693242749"><ele>418.99999999999994</ele><time>2026-05-06T04:14:07.999Z</time></trkpt><trkpt lat="-37.936893508222745" lon="146.04527564247812"><ele>419.0</ele><time>2026-05-06T04:14:08.999Z</time></trkpt><trkpt lat="-37.936978565197734" lon="146.04530984311972"><ele>418.0</ele><time>2026-05-06T04:14:09.999Z</time></trkpt><trkpt lat="-37.937075598343085" lon="146.04536933847334"><ele>417.0</ele><time>2026-05-06T04:14:10.999Z</time></trkpt><trkpt lat="-37.937166987390675" lon="146.0454281696894"><ele>416.0</ele><time>2026-05-06T04:14:11.999Z</time></trkpt><trkpt lat="-37.937258361622284" lon="146.0454731301318"><ele>415.0</ele><time>2026-05-06T04:14:12.999Z</time></trkpt><trkpt lat="-37.93735945811788" lon="146.04549741749267"><ele>414.0</ele><time>2026-05-06T04:14:13.999Z</time></trkpt><trkpt lat="-37.93746201789429" lon="146.0454914074809"><ele>412.0</ele><time>2026-05-06T04:14:14.999Z</time></trkpt><trkpt lat="-37.937570299559304" lon="146.04550034503256"><ele>410.0</ele><time>2026-05-06T04:14:15.999Z</time></trkpt><trkpt lat="-37.937677853087465" lon="146.04555721547254"><ele>408.0</ele><time>2026-05-06T04:14:16.999Z</time></trkpt><trkpt lat="-37.93777677601942" lon="146.0456329571052"><ele>406.0</ele><time>2026-05-06T04:14:17.999Z</time></trkpt><trkpt lat="-37.937854359067174" lon="146.04573701532908"><ele>409.00000000000006</ele><time>2026-05-06T04:14:18.999Z</time></trkpt><trkpt lat="-37.93791038394512" lon="146.04581823467683"><ele>412.0</ele><time>2026-05-06T04:14:19.999Z</time></trkpt><trkpt lat="-37.937979630414056" lon="146.04587411201484"><ele>415.0</ele><time>2026-05-06T04:14:20.999Z</time></trkpt><trkpt lat="-37.93807041881956" lon="146.04590903491484"><ele>418.0</ele><time>2026-05-06T04:14:21.999Z</time></trkpt><trkpt lat="-37.938136865760434" lon="146.04596391529842"><ele>421.00000000000006</ele><time>2026-05-06T04:14:22.999Z</time></trkpt><trkpt lat="-37.9382189438792" lon="146.0460466374091"><ele>424.0</ele><time>2026-05-06T04:14:23.999Z</time></trkpt><trkpt lat="-37.938284336458445" lon="146.04615032926995"><ele>424.00000000000006</ele><time>2026-05-06T04:14:24.999Z</time></trkpt><trkpt lat="-37.9383508386515" lon="146.0462434430653"><ele>424.0</ele><time>2026-05-06T04:14:25.999Z</time></trkpt><trkpt lat="-37.938409721933965" lon="146.04632505391092"><ele>424.0</ele><time>2026-05-06T04:14:26.999Z</time></trkpt><trkpt lat="-37.93844551195905" lon="146.0464127874755"><ele>424.0</ele><time>2026-05-06T04:14:27.999Z</time></trkpt><trkpt lat="-37.938460507184416" lon="146.0465026701661"><ele>424.00000000000006</ele><time>2026-05-06T04:14:28.999Z</time></trkpt><trkpt lat="-37.93848874152821" lon="146.04663241658193"><ele>424.0</ele><time>2026-05-06T04:14:29.999Z</time></trkpt><trkpt lat="-37.93850976113727" lon="146.0467367469336"><ele>423.79999999999995</ele><time>2026-05-06T04:14:30.999Z</time></trkpt><trkpt lat="-37.93854020355043" lon="146.04684792984318"><ele>423.59999999999997</ele><time>2026-05-06T04:14:31.999Z</time></trkpt><trkpt lat="-37.93856240105552" lon="146.04695705328578"><ele>423.4</ele><time>2026-05-06T04:14:32.999Z</time></trkpt><trkpt lat="-37.9385737579677" lon="146.0470824659961"><ele>423.2</ele><time>2026-05-06T04:14:33.999Z</time></trkpt><trkpt lat="-37.93857574013372" lon="146.04720430798986"><ele>423.0</ele><time>2026-05-06T04:14:34.999Z</time></trkpt><trkpt lat="-37.93858739738795" lon="146.04733321720477"><ele>423.0</ele><time>2026-05-06T04:14:35.999Z</time></trkpt><trkpt lat="-37.938605811957544" lon="146.04743236646095"><ele>423.0</ele><time>2026-05-06T04:14:36.999Z</time></trkpt><trkpt lat="-37.938608679582316" lon="146.04753594610966"><ele>423.0</ele><time>2026-05-06T04:14:37.999Z</time></trkpt><trkpt lat="-37.93872527219661" lon="146.04768200247614"><ele>423.0</ele><time>2026-05-06T04:14:38.999Z</time></trkpt><trkpt lat="-37.93875889109075" lon="146.04779280226728"><ele>423.0</ele><time>2026-05-06T04:14:39.999Z</time></trkpt><trkpt lat="-37.93877937205469" lon="146.04793478765822"><ele>424.1666666666667</ele><time>2026-05-06T04:14:40.999Z</time></trkpt><trkpt lat="-37.938789952045376" lon="146.04806029165877"><ele>425.33333333333337</ele><time>2026-05-06T04:14:41.999Z</time></trkpt><trkpt lat="-37.9388025975966" lon="146.04817109600629"><ele>426.5</ele><time>2026-05-06T04:14:42.999Z</time></trkpt><trkpt lat="-37.938815096183184" lon="146.0482775195875"><ele>427.6666666666667</ele><time>2026-05-06T04:14:43.999Z</time></trkpt><trkpt lat="-37.93883614998583" lon="146.04837183437482"><ele>428.83333333333337</ele><time>2026-05-06T04:14:44.999Z</time></trkpt><trkpt lat="-37.93885795835022" lon="146.04846966076136"><ele>430.0</ele><time>2026-05-06T04:14:45.999Z</time></trkpt><trkpt lat="-37.9388908865907" lon="146.0485629175239"><ele>430.83333333333337</ele><time>2026-05-06T04:14:46.999Z</time></trkpt><trkpt lat="-37.93893794767377" lon="146.0486468980336"><ele>431.6666666666667</ele><time>2026-05-06T04:14:47.999Z</time></trkpt><trkpt lat="-37.9389908794576" lon="146.04871331104815"><ele>432.5</ele><time>2026-05-06T04:14:48.999Z</time></trkpt><trkpt lat="-37.939056380617" lon="146.0487749990034"><ele>433.33333333333337</ele><time>2026-05-06T04:14:49.999Z</time></trkpt><trkpt lat="-37.9391232227013" lon="146.04882835044202"><ele>434.1666666666667</ele><time>2026-05-06T04:14:50.999Z</time></trkpt><trkpt lat="-37.93921771292262" lon="146.04885724458725"><ele>435.0</ele><time>2026-05-06T04:14:51.999Z</time></trkpt><trkpt lat="-37.939316097610906" lon="146.04893101783017"><ele>433.8</ele><time>2026-05-06T04:14:53Z</time></trkpt><trkpt lat="-37.939405876719974" lon="146.04902622211387"><ele>432.6</ele><time>2026-05-06T04:14:54Z</time></trkpt><trkpt lat="-37.93949068553721" lon="146.04911056847467"><ele>431.4</ele><time>2026-05-06T04:14:55Z</time></trkpt><trkpt lat="-37.93956719224665" lon="146.04919743964464"><ele>430.2</ele><time>2026-05-06T04:14:56Z</time></trkpt><trkpt lat="-37.93965719216062" lon="146.04927891419032"><ele>429.0</ele><time>2026-05-06T04:14:57Z</time></trkpt><trkpt lat="-37.939750794502736" lon="146.049355897489"><ele>429.0</ele><time>2026-05-06T04:14:58Z</time></trkpt><trkpt lat="-37.93983328091863" lon="146.0494173807431"><ele>429.0</ele><time>2026-05-06T04:14:59Z</time></trkpt><trkpt lat="-37.93991987804252" lon="146.04946736175916"><ele>429.0</ele><time>2026-05-06T04:15:00Z</time></trkpt><trkpt lat="-37.93997910476621" lon="146.0495508975262"><ele>429.0</ele><time>2026-05-06T04:15:01Z</time></trkpt><trkpt lat="-37.94005005879131" lon="146.04967848276058"><ele>429.0</ele><time>2026-05-06T04:15:02Z</time></trkpt><trkpt lat="-37.94011273878301" lon="146.04982352306016"><ele>427.2</ele><time>2026-05-06T04:15:03Z</time></trkpt><trkpt lat="-37.940160404831786" lon="146.0499535494352"><ele>425.4</ele><time>2026-05-06T04:15:04Z</time></trkpt><trkpt lat="-37.94020968968025" lon="146.05005152878454"><ele>423.6</ele><time>2026-05-06T04:15:05Z</time></trkpt><trkpt lat="-37.94026331437843" lon="146.0501559053928"><ele>421.8</ele><time>2026-05-06T04:15:06Z</time></trkpt><trkpt lat="-37.94032964351298" lon="146.05026207113096"><ele>420.0</ele><time>2026-05-06T04:15:07Z</time></trkpt><trkpt lat="-37.940383984957364" lon="146.0503868326639"><ele>420.0</ele><time>2026-05-06T04:15:08Z</time></trkpt><trkpt lat="-37.94042472267805" lon="146.05049068633173"><ele>420.0</ele><time>2026-05-06T04:15:09Z</time></trkpt><trkpt lat="-37.94047628426532" lon="146.05062207839737"><ele>420.0</ele><time>2026-05-06T04:15:10Z</time></trkpt><trkpt lat="-37.940526745264116" lon="146.0507371962949"><ele>420.0</ele><time>2026-05-06T04:15:11Z</time></trkpt><trkpt lat="-37.94055496079651" lon="146.0508247361741"><ele>420.0</ele><time>2026-05-06T04:15:12Z</time></trkpt><trkpt lat="-37.94058132891124" lon="146.05090605578604"><ele>422.8</ele><time>2026-05-06T04:15:13Z</time></trkpt><trkpt lat="-37.940620630680094" lon="146.05100513831562"><ele>425.6</ele><time>2026-05-06T04:15:14Z</time></trkpt><trkpt lat="-37.94065161870371" lon="146.05111894368503"><ele>428.4</ele><time>2026-05-06T04:15:15Z</time></trkpt><trkpt lat="-37.94068090542256" lon="146.05123013650658"><ele>431.2</ele><time>2026-05-06T04:15:16Z</time></trkpt><trkpt lat="-37.940731441904866" lon="146.05132215342726"><ele>434.0</ele><time>2026-05-06T04:15:17Z</time></trkpt><trkpt lat="-37.940775580617164" lon="146.0514294761695"><ele>433.99999999999994</ele><time>2026-05-06T04:15:18Z</time></trkpt><trkpt lat="-37.94082450357064" lon="146.05152381849535"><ele>434.0</ele><time>2026-05-06T04:15:19Z</time></trkpt><trkpt lat="-37.94084459513011" lon="146.05161223926086"><ele>434.0</ele><time>2026-05-06T04:15:20Z</time></trkpt><trkpt lat="-37.94088589546323" lon="146.05171770783937"><ele>434.0</ele><time>2026-05-06T04:15:21Z</time></trkpt><trkpt lat="-37.94090500907731" lon="146.0518416708323"><ele>433.99999999999994</ele><time>2026-05-06T04:15:22Z</time></trkpt><trkpt lat="-37.94092088009914" lon="146.05195105326902"><ele>434.0</ele><time>2026-05-06T04:15:23Z</time></trkpt><trkpt lat="-37.94092618709727" lon="146.05206459960849"><ele>434.16666666666663</ele><time>2026-05-06T04:15:24Z</time></trkpt><trkpt lat="-37.941021087337724" lon="146.05216683679743"><ele>434.3333333333333</ele><time>2026-05-06T04:15:26Z</time></trkpt><trkpt lat="-37.941115389304585" lon="146.05219988529808"><ele>434.5</ele><time>2026-05-06T04:15:27Z</time></trkpt><trkpt lat="-37.94119252281105" lon="146.0522148243122"><ele>434.66666666666663</ele><time>2026-05-06T04:15:28Z</time></trkpt><trkpt lat="-37.94126094807267" lon="146.0522430080676"><ele>434.8333333333333</ele><time>2026-05-06T04:15:29Z</time></trkpt><trkpt lat="-37.941323840976985" lon="146.05227779246192"><ele>435.0</ele><time>2026-05-06T04:15:30Z</time></trkpt><trkpt lat="-37.94138643574953" lon="146.05234041098825"><ele>435.0</ele><time>2026-05-06T04:15:31Z</time></trkpt><trkpt lat="-37.941460622180564" lon="146.05240592441098"><ele>435.0</ele><time>2026-05-06T04:15:32Z</time></trkpt><trkpt lat="-37.94154749524525" lon="146.05241916603677"><ele>435.0</ele><time>2026-05-06T04:15:33Z</time></trkpt><trkpt lat="-37.941624158473985" lon="146.05242246489462"><ele>435.0</ele><time>2026-05-06T04:15:34Z</time></trkpt><trkpt lat="-37.941701134018494" lon="146.05242219774132"><ele>435.0</ele><time>2026-05-06T04:15:35Z</time></trkpt><trkpt lat="-37.94176792144982" lon="146.05243838983407"><ele>435.0</ele><time>2026-05-06T04:15:36Z</time></trkpt><trkpt lat="-37.941914511579" lon="146.05238393000408"><ele>434.0</ele><time>2026-05-06T04:15:38Z</time></trkpt><trkpt lat="-37.9420189395906" lon="146.05231357987742"><ele>433.0</ele><time>2026-05-06T04:15:39Z</time></trkpt><trkpt lat="-37.942099251540014" lon="146.05226950559106"><ele>432.0</ele><time>2026-05-06T04:15:40Z</time></trkpt><trkpt lat="-37.94218066507401" lon="146.05225415863492"><ele>431.0</ele><time>2026-05-06T04:15:41Z</time></trkpt><trkpt lat="-37.94227844620796" lon="146.05226625749197"><ele>430.0</ele><time>2026-05-06T04:15:42Z</time></trkpt><trkpt lat="-37.94239521721855" lon="146.05228110719415"><ele>430.0</ele><time>2026-05-06T04:15:43Z</time></trkpt><trkpt lat="-37.942490726188275" lon="146.0522917868355"><ele>430.0</ele><time>2026-05-06T04:15:44Z</time></trkpt><trkpt lat="-37.94257733458289" lon="146.05228982630064"><ele>430.0</ele><time>2026-05-06T04:15:45Z</time></trkpt><trkpt lat="-37.942710401779124" lon="146.05226147149085"><ele>430.0</ele><time>2026-05-06T04:15:47Z</time></trkpt><trkpt lat="-37.94278631799228" lon="146.05229994901262"><ele>430.0</ele><time>2026-05-06T04:15:48Z</time></trkpt><trkpt lat="-37.94285039785219" lon="146.05235042371436"><ele>430.6</ele><time>2026-05-06T04:15:49Z</time></trkpt><trkpt lat="-37.94294900494027" lon="146.05244313133227"><ele>431.2</ele><time>2026-05-06T04:15:51Z</time></trkpt><trkpt lat="-37.94299061417668" lon="146.0525083265959"><ele>431.79999999999995</ele><time>2026-05-06T04:15:52Z</time></trkpt><trkpt lat="-37.94303901388389" lon="146.0525966768618"><ele>432.4</ele><time>2026-05-06T04:15:53Z</time></trkpt><trkpt lat="-37.943079669644824" lon="146.05271033123668"><ele>433.0</ele><time>2026-05-06T04:15:54Z</time></trkpt><trkpt lat="-37.94314255699977" lon="146.05279381527103"><ele>433.0</ele><time>2026-05-06T04:15:54.999Z</time></trkpt><trkpt lat="-37.94323193094329" lon="146.0528591394762"><ele>432.99999999999994</ele><time>2026-05-06T04:15:55.999Z</time></trkpt><trkpt lat="-37.94332852763268" lon="146.0529357145498"><ele>432.99999999999994</ele><time>2026-05-06T04:15:56.999Z</time></trkpt><trkpt lat="-37.94341502698849" lon="146.05300181730965"><ele>433.0</ele><time>2026-05-06T04:15:57.999Z</time></trkpt><trkpt lat="-37.943492361207504" lon="146.0530766502024"><ele>433.0</ele><time>2026-05-06T04:15:58.999Z</time></trkpt><trkpt lat="-37.94357223536876" lon="146.0531802660001"><ele>433.50000000000006</ele><time>2026-05-06T04:15:59.999Z</time></trkpt><trkpt lat="-37.94364124649911" lon="146.0532750931216"><ele>434.0</ele><time>2026-05-06T04:16:00.999Z</time></trkpt><trkpt lat="-37.94370285368549" lon="146.05335990266929"><ele>434.5</ele><time>2026-05-06T04:16:01.999Z</time></trkpt><trkpt lat="-37.94375186671697" lon="146.0534476768708"><ele>435.0</ele><time>2026-05-06T04:16:02.999Z</time></trkpt><trkpt lat="-37.9437952850811" lon="146.0535215563885"><ele>435.50000000000006</ele><time>2026-05-06T04:16:03.999Z</time></trkpt><trkpt lat="-37.943859060820074" lon="146.0535795951128"><ele>436.0</ele><time>2026-05-06T04:16:04.999Z</time></trkpt><trkpt lat="-37.94398381652405" lon="146.053546273528"><ele>436.0</ele><time>2026-05-06T04:16:06.999Z</time></trkpt><trkpt lat="-37.94404619710147" lon="146.05349117175794"><ele>436.0</ele><time>2026-05-06T04:16:07.999Z</time></trkpt><trkpt lat="-37.94410550616293" lon="146.05341629915105"><ele>436.0</ele><time>2026-05-06T04:16:08.999Z</time></trkpt><trkpt lat="-37.94415238659471" lon="146.05331026064573"><ele>436.0</ele><time>2026-05-06T04:16:09.999Z</time></trkpt><trkpt lat="-37.944189811282655" lon="146.0531881849057"><ele>436.0</ele><time>2026-05-06T04:16:10.999Z</time></trkpt><trkpt lat="-37.944243299689184" lon="146.05308828546202"><ele>433.1666666666667</ele><time>2026-05-06T04:16:11.999Z</time></trkpt><trkpt lat="-37.9443137827369" lon="146.05303335722087"><ele>430.33333333333337</ele><time>2026-05-06T04:16:12.999Z</time></trkpt><trkpt lat="-37.94439648022615" lon="146.052958521292"><ele>427.5</ele><time>2026-05-06T04:16:14.999Z</time></trkpt><trkpt lat="-37.944462310208564" lon="146.05296200179282"><ele>424.66666666666663</ele><time>2026-05-06T04:16:15.999Z</time></trkpt><trkpt lat="-37.944539805736575" lon="146.0529600807096"><ele>421.8333333333333</ele><time>2026-05-06T04:16:16.999Z</time></trkpt><trkpt lat="-37.94461838751712" lon="146.05293616943337"><ele>419.0</ele><time>2026-05-06T04:16:17.999Z</time></trkpt><trkpt lat="-37.944685748486435" lon="146.05288665669025"><ele>418.99999999999994</ele><time>2026-05-06T04:16:18.999Z</time></trkpt><trkpt lat="-37.944750125795366" lon="146.05283551104415"><ele>419.0</ele><time>2026-05-06T04:16:19.999Z</time></trkpt><trkpt lat="-37.944821194806245" lon="146.0528163223113"><ele>419.0</ele><time>2026-05-06T04:16:20.999Z</time></trkpt><trkpt lat="-37.94489433564545" lon="146.05281643777508"><ele>419.0</ele><time>2026-05-06T04:16:21.999Z</time></trkpt><trkpt lat="-37.94496867157733" lon="146.05283692924044"><ele>419.0</ele><time>2026-05-06T04:16:22.999Z</time></trkpt><trkpt lat="-37.945037793062795" lon="146.0528648988651"><ele>418.99999999999994</ele><time>2026-05-06T04:16:23.999Z</time></trkpt><trkpt lat="-37.945106622905556" lon="146.05289627650026"><ele>419.0</ele><time>2026-05-06T04:16:24.999Z</time></trkpt><trkpt lat="-37.945183542381606" lon="146.0529252015837"><ele>415.99999999999994</ele><time>2026-05-06T04:16:25.999Z</time></trkpt><trkpt lat="-37.94524596126663" lon="146.05294723371884"><ele>413.0</ele><time>2026-05-06T04:16:26.999Z</time></trkpt><trkpt lat="-37.94530534453921" lon="146.0529745737209"><ele>410.0</ele><time>2026-05-06T04:16:27.999Z</time></trkpt><trkpt lat="-37.94536927475027" lon="146.05300276987066"><ele>407.0</ele><time>2026-05-06T04:16:28.999Z</time></trkpt><trkpt lat="-37.94548252286873" lon="146.05305389031585"><ele>403.99999999999994</ele><time>2026-05-06T04:16:30.999Z</time></trkpt><trkpt lat="-37.945547350201686" lon="146.05308322935093"><ele>401.0</ele><time>2026-05-06T04:16:31.999Z</time></trkpt><trkpt lat="-37.94561990887094" lon="146.0531061969478"><ele>401.0</ele><time>2026-05-06T04:16:32.999Z</time></trkpt><trkpt lat="-37.945697982162905" lon="146.05311490788858"><ele>401.0</ele><time>2026-05-06T04:16:33.999Z</time></trkpt><trkpt lat="-37.94581136873631" lon="146.05310907773614"><ele>401.0</ele><time>2026-05-06T04:16:34.999Z</time></trkpt><trkpt lat="-37.94589578054482" lon="146.0531221245914"><ele>401.0</ele><time>2026-05-06T04:16:35.999Z</time></trkpt><trkpt lat="-37.94598011024922" lon="146.05315471492207"><ele>401.0</ele><time>2026-05-06T04:16:36.999Z</time></trkpt><trkpt lat="-37.94606165454555" lon="146.05321327475292"><ele>401.0</ele><time>2026-05-06T04:16:37.999Z</time></trkpt><trkpt lat="-37.946141539920696" lon="146.0532955138753"><ele>401.0</ele><time>2026-05-06T04:16:38.999Z</time></trkpt><trkpt lat="-37.94621442367307" lon="146.05338583713834"><ele>401.0</ele><time>2026-05-06T04:16:39.999Z</time></trkpt><trkpt lat="-37.946293873176614" lon="146.0534705427596"><ele>401.0</ele><time>2026-05-06T04:16:40.999Z</time></trkpt><trkpt lat="-37.94638621461774" lon="146.05353286144495"><ele>401.0</ele><time>2026-05-06T04:16:41.999Z</time></trkpt><trkpt lat="-37.946468355564036" lon="146.05359687755532"><ele>401.0</ele><time>2026-05-06T04:16:42.999Z</time></trkpt><trkpt lat="-37.94653700783259" lon="146.0536805779149"><ele>401.0</ele><time>2026-05-06T04:16:43.999Z</time></trkpt><trkpt lat="-37.94660096845965" lon="146.0537392622821"><ele>401.0</ele><time>2026-05-06T04:16:44.999Z</time></trkpt><trkpt lat="-37.946688089846894" lon="146.0538259355109"><ele>401.0</ele><time>2026-05-06T04:16:45.999Z</time></trkpt><trkpt lat="-37.94676698502567" lon="146.05388597459725"><ele>401.0</ele><time>2026-05-06T04:16:46.999Z</time></trkpt><trkpt lat="-37.94686601911899" lon="146.05392764552974"><ele>402.0</ele><time>2026-05-06T04:16:47.999Z</time></trkpt><trkpt lat="-37.946953913429425" lon="146.05396652695833"><ele>403.0</ele><time>2026-05-06T04:16:48.999Z</time></trkpt><trkpt lat="-37.947029430897956" lon="146.05401151378393"><ele>404.0</ele><time>2026-05-06T04:16:49.999Z</time></trkpt><trkpt lat="-37.94710678942559" lon="146.0540166688604"><ele>405.0</ele><time>2026-05-06T04:16:50.999Z</time></trkpt><trkpt lat="-37.94720553682223" lon="146.05401140442999"><ele>406.0</ele><time>2026-05-06T04:16:51.999Z</time></trkpt><trkpt lat="-37.94730760532321" lon="146.05400613082202"><ele>406.00000000000006</ele><time>2026-05-06T04:16:52.999Z</time></trkpt><trkpt lat="-37.94740036287555" lon="146.05400017048495"><ele>406.0</ele><time>2026-05-06T04:16:53.999Z</time></trkpt><trkpt lat="-37.94749711043072" lon="146.0539851550448"><ele>406.0</ele><time>2026-05-06T04:16:54.999Z</time></trkpt><trkpt lat="-37.947594052075345" lon="146.0539407831814"><ele>406.0</ele><time>2026-05-06T04:16:55.999Z</time></trkpt><trkpt lat="-37.94765124445426" lon="146.05390382581896"><ele>406.00000000000006</ele><time>2026-05-06T04:16:56.999Z</time></trkpt><trkpt lat="-37.947711206945414" lon="146.0538712213319"><ele>406.0</ele><time>2026-05-06T04:16:58Z</time></trkpt><trkpt lat="-37.94781260255253" lon="146.05390371661443"><ele>405.1666666666667</ele><time>2026-05-06T04:17:00Z</time></trkpt><trkpt lat="-37.9478742789191" lon="146.0539605297382"><ele>404.33333333333337</ele><time>2026-05-06T04:17:01Z</time></trkpt><trkpt lat="-37.94795932046786" lon="146.05406847061806"><ele>403.5</ele><time>2026-05-06T04:17:03Z</time></trkpt><trkpt lat="-37.94802201236611" lon="146.05412052791056"><ele>402.66666666666663</ele><time>2026-05-06T04:17:04Z</time></trkpt><trkpt lat="-37.948100215177924" lon="146.05414753397935"><ele>401.8333333333333</ele><time>2026-05-06T04:17:05Z</time></trkpt><trkpt lat="-37.94816027346501" lon="146.05417285852022"><ele>401.0</ele><time>2026-05-06T04:17:06Z</time></trkpt><trkpt lat="-37.94822743634872" lon="146.05419154489326"><ele>402.3333333333333</ele><time>2026-05-06T04:17:07Z</time></trkpt><trkpt lat="-37.948318322610056" lon="146.05421365072812"><ele>403.66666666666663</ele><time>2026-05-06T04:17:08Z</time></trkpt><trkpt lat="-37.94840470162011" lon="146.0542010530587"><ele>405.0</ele><time>2026-05-06T04:17:09Z</time></trkpt><trkpt lat="-37.94849156527747" lon="146.05419159836617"><ele>406.33333333333337</ele><time>2026-05-06T04:17:10Z</time></trkpt><trkpt lat="-37.948558078245796" lon="146.05420836758094"><ele>407.6666666666667</ele><time>2026-05-06T04:17:11Z</time></trkpt><trkpt lat="-37.948631428906126" lon="146.05430304658626"><ele>409.0</ele><time>2026-05-06T04:17:12Z</time></trkpt><trkpt lat="-37.94868849078913" lon="146.0543703453793"><ele>409.00000000000006</ele><time>2026-05-06T04:17:13Z</time></trkpt><trkpt lat="-37.94875591967241" lon="146.0543876177148"><ele>409.0</ele><time>2026-05-06T04:17:14Z</time></trkpt><trkpt lat="-37.94890556738946" lon="146.0543512507986"><ele>409.0</ele><time>2026-05-06T04:17:16Z</time></trkpt><trkpt lat="-37.948985347902706" lon="146.05430506202978"><ele>409.0</ele><time>2026-05-06T04:17:17Z</time></trkpt><trkpt lat="-37.949052171800275" lon="146.05428445574194"><ele>409.00000000000006</ele><time>2026-05-06T04:17:18Z</time></trkpt><trkpt lat="-37.949104750246" lon="146.05433252480898"><ele>409.0</ele><time>2026-05-06T04:17:19Z</time></trkpt><trkpt lat="-37.9491554865703" lon="146.05441295011235"><ele>406.33333333333337</ele><time>2026-05-06T04:17:20Z</time></trkpt><trkpt lat="-37.949210715906936" lon="146.05449648282053"><ele>403.6666666666667</ele><time>2026-05-06T04:17:21Z</time></trkpt><trkpt lat="-37.949269593326065" lon="146.05457553622367"><ele>401.0</ele><time>2026-05-06T04:17:22Z</time></trkpt><trkpt lat="-37.94931126075581" lon="146.05469390470958"><ele>398.33333333333337</ele><time>2026-05-06T04:17:23Z</time></trkpt><trkpt lat="-37.94932980095459" lon="146.0548003342633"><ele>395.6666666666667</ele><time>2026-05-06T04:17:24Z</time></trkpt><trkpt lat="-37.949377599545585" lon="146.05486015302822"><ele>393.0</ele><time>2026-05-06T04:17:25Z</time></trkpt><trkpt lat="-37.949447611126935" lon="146.05488877247254"><ele>393.0</ele><time>2026-05-06T04:17:26Z</time></trkpt><trkpt lat="-37.949514067240166" lon="146.05489832921052"><ele>393.0</ele><time>2026-05-06T04:17:27Z</time></trkpt><trkpt lat="-37.949639887643585" lon="146.05501697410233"><ele>393.0</ele><time>2026-05-06T04:17:29Z</time></trkpt><trkpt lat="-37.949685465419584" lon="146.05512837228412"><ele>393.0</ele><time>2026-05-06T04:17:30Z</time></trkpt><trkpt lat="-37.949704576387944" lon="146.05525756396239"><ele>393.0</ele><time>2026-05-06T04:17:31Z</time></trkpt><trkpt lat="-37.94974352911053" lon="146.05537510103602"><ele>395.79999999999995</ele><time>2026-05-06T04:17:32Z</time></trkpt><trkpt lat="-37.94979794739415" lon="146.05546030971655"><ele>398.6</ele><time>2026-05-06T04:17:33Z</time></trkpt><trkpt lat="-37.94986600228851" lon="146.0555238872753"><ele>401.4</ele><time>2026-05-06T04:17:34Z</time></trkpt><trkpt lat="-37.94990493578647" lon="146.05562488644242"><ele>404.20000000000005</ele><time>2026-05-06T04:17:35Z</time></trkpt><trkpt lat="-37.949928554005915" lon="146.05575445954844"><ele>407.0</ele><time>2026-05-06T04:17:36Z</time></trkpt><trkpt lat="-37.949960728274974" lon="146.0559008643415"><ele>407.0</ele><time>2026-05-06T04:17:37Z</time></trkpt><trkpt lat="-37.95000243531215" lon="146.05598078553894"><ele>407.0</ele><time>2026-05-06T04:17:38Z</time></trkpt><trkpt lat="-37.95007924530832" lon="146.0560596930708"><ele>407.0</ele><time>2026-05-06T04:17:39Z</time></trkpt><trkpt lat="-37.950159127010004" lon="146.0561500538358"><ele>407.0</ele><time>2026-05-06T04:17:40Z</time></trkpt><trkpt lat="-37.95022124022808" lon="146.05624525524115"><ele>407.0</ele><time>2026-05-06T04:17:41Z</time></trkpt><trkpt lat="-37.95028668858408" lon="146.0563349443659"><ele>407.0</ele><time>2026-05-06T04:17:42Z</time></trkpt><trkpt lat="-37.95034165176805" lon="146.0564403323761"><ele>407.0</ele><time>2026-05-06T04:17:43Z</time></trkpt><trkpt lat="-37.95038833306244" lon="146.05654845719883"><ele>407.0</ele><time>2026-05-06T04:17:44Z</time></trkpt><trkpt lat="-37.950432218296925" lon="146.05668720526995"><ele>407.0</ele><time>2026-05-06T04:17:46Z</time></trkpt><trkpt lat="-37.95049980232865" lon="146.05681496738663"><ele>407.0</ele><time>2026-05-06T04:17:48Z</time></trkpt><trkpt lat="-37.95056340440813" lon="146.05685222916378"><ele>409.8</ele><time>2026-05-06T04:17:49Z</time></trkpt><trkpt lat="-37.95065745594249" lon="146.05687503624074"><ele>412.6</ele><time>2026-05-06T04:17:50Z</time></trkpt><trkpt lat="-37.950745769701776" lon="146.05688899204472"><ele>415.40000000000003</ele><time>2026-05-06T04:17:51Z</time></trkpt><trkpt lat="-37.950814266144995" lon="146.05691927549847"><ele>418.20000000000005</ele><time>2026-05-06T04:17:52Z</time></trkpt><trkpt lat="-37.95089934158602" lon="146.0569585985166"><ele>421.0</ele><time>2026-05-06T04:17:53Z</time></trkpt><trkpt lat="-37.95100838855644" lon="146.0569811978548"><ele>421.00000000000006</ele><time>2026-05-06T04:17:54Z</time></trkpt><trkpt lat="-37.951113627257186" lon="146.05699909460742"><ele>421.0</ele><time>2026-05-06T04:17:55Z</time></trkpt><trkpt lat="-37.951204919216075" lon="146.05702772443018"><ele>421.0</ele><time>2026-05-06T04:17:56Z</time></trkpt><trkpt lat="-37.951288846492254" lon="146.05705824544972"><ele>421.0</ele><time>2026-05-06T04:17:57Z</time></trkpt><trkpt lat="-37.951361026732286" lon="146.05704170056964"><ele>421.00000000000006</ele><time>2026-05-06T04:17:58Z</time></trkpt><trkpt lat="-37.951428115280194" lon="146.05697368677306"><ele>421.0</ele><time>2026-05-06T04:17:59Z</time></trkpt><trkpt lat="-37.95152732872659" lon="146.05687048704897"><ele>421.0</ele><time>2026-05-06T04:17:59.999Z</time></trkpt><trkpt lat="-37.95159458448138" lon="146.05685152517574"><ele>421.0</ele><time>2026-05-06T04:18:00.999Z</time></trkpt><trkpt lat="-37.95165581266233" lon="146.05696409240875"><ele>421.0</ele><time>2026-05-06T04:18:02.999Z</time></trkpt><trkpt lat="-37.95169826030627" lon="146.05704554152948"><ele>421.0</ele><time>2026-05-06T04:18:09.999Z</time></trkpt><trkpt lat="-37.95177753265836" lon="146.05721494949952"><ele>421.0</ele><time>2026-05-06T04:18:11.999Z</time></trkpt><trkpt lat="-37.95184626376357" lon="146.05737739825096"><ele>417.0</ele><time>2026-05-06T04:18:13.999Z</time></trkpt><trkpt lat="-37.95190914322862" lon="146.05749859600894"><ele>413.0</ele><time>2026-05-06T04:18:14.999Z</time></trkpt><trkpt lat="-37.95196309205206" lon="146.05761814311282"><ele>409.0</ele><time>2026-05-06T04:18:15.999Z</time></trkpt><trkpt lat="-37.95202824152939" lon="146.0577589374375"><ele>405.0</ele><time>2026-05-06T04:18:16.999Z</time></trkpt><trkpt lat="-37.95206284511522" lon="146.05788115722436"><ele>405.0</ele><time>2026-05-06T04:18:17.999Z</time></trkpt><trkpt lat="-37.95212979634346" lon="146.05800379332175"><ele>405.0</ele><time>2026-05-06T04:18:18.999Z</time></trkpt><trkpt lat="-37.95219432165201" lon="146.05812445555298"><ele>405.0</ele><time>2026-05-06T04:18:19.999Z</time></trkpt><trkpt lat="-37.95225077883294" lon="146.05824606203353"><ele>405.0</ele><time>2026-05-06T04:18:20.999Z</time></trkpt><trkpt lat="-37.952300097698945" lon="146.05836701132154"><ele>406.0</ele><time>2026-05-06T04:18:21.999Z</time></trkpt><trkpt lat="-37.952364558651595" lon="146.05849709120452"><ele>407.0</ele><time>2026-05-06T04:18:22.999Z</time></trkpt><trkpt lat="-37.95243753770001" lon="146.05862465814243"><ele>408.0</ele><time>2026-05-06T04:18:23.999Z</time></trkpt><trkpt lat="-37.95250436496354" lon="146.05872411343307"><ele>409.0</ele><time>2026-05-06T04:18:24.999Z</time></trkpt><trkpt lat="-37.95258518555304" lon="146.05883790316616"><ele>406.2</ele><time>2026-05-06T04:18:25.999Z</time></trkpt><trkpt lat="-37.95266844400225" lon="146.0589401443832"><ele>403.4</ele><time>2026-05-06T04:18:26.999Z</time></trkpt><trkpt lat="-37.952744889775616" lon="146.05903640277515"><ele>400.6</ele><time>2026-05-06T04:18:27.999Z</time></trkpt><trkpt lat="-37.95282926838041" lon="146.05911490718537"><ele>397.8</ele><time>2026-05-06T04:18:28.999Z</time></trkpt><trkpt lat="-37.95289313792647" lon="146.05918835482547"><ele>395.0</ele><time>2026-05-06T04:18:29.999Z</time></trkpt><trkpt lat="-37.95294682541838" lon="146.05925912326518"><ele>395.0</ele><time>2026-05-06T04:18:30.999Z</time></trkpt><trkpt lat="-37.95300429438172" lon="146.05931479597297"><ele>395.0</ele><time>2026-05-06T04:18:31.999Z</time></trkpt><trkpt lat="-37.95305806009608" lon="146.0593677280213"><ele>395.0</ele><time>2026-05-06T04:18:32.999Z</time></trkpt><trkpt lat="-37.95317068065136" lon="146.0594310602204"><ele>395.0</ele><time>2026-05-06T04:18:34.999Z</time></trkpt><trkpt lat="-37.953266922238974" lon="146.0594847424629"><ele>395.0</ele><time>2026-05-06T04:18:36.999Z</time></trkpt><trkpt lat="-37.95335358866659" lon="146.05952103878283"><ele>390.16666666666663</ele><time>2026-05-06T04:18:38.999Z</time></trkpt><trkpt lat="-37.95342074701327" lon="146.05956368921014"><ele>385.3333333333333</ele><time>2026-05-06T04:18:39.999Z</time></trkpt><trkpt lat="-37.95349346494598" lon="146.05962192900563"><ele>380.5</ele><time>2026-05-06T04:18:40.999Z</time></trkpt><trkpt lat="-37.95355203550282" lon="146.05967371774852"><ele>375.66666666666663</ele><time>2026-05-06T04:18:41.999Z</time></trkpt><trkpt lat="-37.95361423731621" lon="146.05974362765673"><ele>370.8333333333333</ele><time>2026-05-06T04:18:42.999Z</time></trkpt><trkpt lat="-37.953678312605085" lon="146.05982032174776"><ele>366.0</ele><time>2026-05-06T04:18:43.999Z</time></trkpt><trkpt lat="-37.95374958247145" lon="146.0598935415333"><ele>367.1666666666667</ele><time>2026-05-06T04:18:44.999Z</time></trkpt><trkpt lat="-37.95381124773194" lon="146.05995324924538"><ele>368.3333333333333</ele><time>2026-05-06T04:18:45.999Z</time></trkpt><trkpt lat="-37.95387998021017" lon="146.06002068007194"><ele>369.5</ele><time>2026-05-06T04:18:46.999Z</time></trkpt><trkpt lat="-37.953971694563464" lon="146.06007063934047"><ele>370.66666666666663</ele><time>2026-05-06T04:18:47.999Z</time></trkpt><trkpt lat="-37.95404162595025" lon="146.060116562639"><ele>371.8333333333333</ele><time>2026-05-06T04:18:48.999Z</time></trkpt><trkpt lat="-37.95412705964311" lon="146.06018667577325"><ele>373.0</ele><time>2026-05-06T04:18:49.999Z</time></trkpt><trkpt lat="-37.954198114521255" lon="146.06027240085652"><ele>368.59999999999997</ele><time>2026-05-06T04:18:50.999Z</time></trkpt><trkpt lat="-37.95428300969028" lon="146.06034239679445"><ele>364.2</ele><time>2026-05-06T04:18:51.999Z</time></trkpt><trkpt lat="-37.95438371089974" lon="146.06040977060545"><ele>359.8</ele><time>2026-05-06T04:18:52.999Z</time></trkpt><trkpt lat="-37.95447652377239" lon="146.06048291478265"><ele>355.4</ele><time>2026-05-06T04:18:53.999Z</time></trkpt><trkpt lat="-37.9545459859581" lon="146.0605740300154"><ele>351.0</ele><time>2026-05-06T04:18:54.999Z</time></trkpt><trkpt lat="-37.95460568631199" lon="146.0606613138864"><ele>351.0</ele><time>2026-05-06T04:18:55.999Z</time></trkpt><trkpt lat="-37.95467627721414" lon="146.06075571095872"><ele>351.0</ele><time>2026-05-06T04:18:56.999Z</time></trkpt><trkpt lat="-37.95474712304786" lon="146.06083313256136"><ele>351.0</ele><time>2026-05-06T04:18:57.999Z</time></trkpt><trkpt lat="-37.95478516551259" lon="146.06093698206007"><ele>351.0</ele><time>2026-05-06T04:18:58.999Z</time></trkpt><trkpt lat="-37.95482222861569" lon="146.06106570848596"><ele>351.0</ele><time>2026-05-06T04:18:59.999Z</time></trkpt><trkpt lat="-37.954869784312585" lon="146.06119487929874"><ele>350.20000000000005</ele><time>2026-05-06T04:19:00.999Z</time></trkpt><trkpt lat="-37.95492457740932" lon="146.06131247226875"><ele>349.40000000000003</ele><time>2026-05-06T04:19:01.999Z</time></trkpt><trkpt lat="-37.95498691473909" lon="146.06142437810155"><ele>348.6</ele><time>2026-05-06T04:19:02.999Z</time></trkpt><trkpt lat="-37.95504513590932" lon="146.061530126107"><ele>347.8</ele><time>2026-05-06T04:19:04Z</time></trkpt><trkpt lat="-37.955109675087726" lon="146.06164603479215"><ele>347.0</ele><time>2026-05-06T04:19:05Z</time></trkpt><trkpt lat="-37.95516289650376" lon="146.0617575619611"><ele>347.0</ele><time>2026-05-06T04:19:06Z</time></trkpt><trkpt lat="-37.955222947022094" lon="146.06185621317178"><ele>347.0</ele><time>2026-05-06T04:19:07Z</time></trkpt><trkpt lat="-37.955289211688644" lon="146.06197011952457"><ele>347.0</ele><time>2026-05-06T04:19:08Z</time></trkpt><trkpt lat="-37.95532809759968" lon="146.0620839085129"><ele>347.0</ele><time>2026-05-06T04:19:09Z</time></trkpt><trkpt lat="-37.95536013587489" lon="146.06219700054555"><ele>347.0</ele><time>2026-05-06T04:19:10Z</time></trkpt><trkpt lat="-37.9553739198577" lon="146.06231084956357"><ele>347.0</ele><time>2026-05-06T04:19:11Z</time></trkpt><trkpt lat="-37.955398165971715" lon="146.06242866833642"><ele>347.0</ele><time>2026-05-06T04:19:12Z</time></trkpt><trkpt lat="-37.95543456687848" lon="146.06257466324274"><ele>347.0</ele><time>2026-05-06T04:19:13Z</time></trkpt><trkpt lat="-37.95545802836986" lon="146.06270100480003"><ele>347.0</ele><time>2026-05-06T04:19:14Z</time></trkpt><trkpt lat="-37.955485709696354" lon="146.0628081577999"><ele>347.0</ele><time>2026-05-06T04:19:15Z</time></trkpt><trkpt lat="-37.955521389421904" lon="146.0629360229904"><ele>348.8</ele><time>2026-05-06T04:19:16Z</time></trkpt><trkpt lat="-37.95558379165481" lon="146.0630634681005"><ele>350.6</ele><time>2026-05-06T04:19:17Z</time></trkpt><trkpt lat="-37.9556521214796" lon="146.06320066581128"><ele>352.40000000000003</ele><time>2026-05-06T04:19:18Z</time></trkpt><trkpt lat="-37.95571324650005" lon="146.06329851785904"><ele>354.20000000000005</ele><time>2026-05-06T04:19:19Z</time></trkpt><trkpt lat="-37.95575798525035" lon="146.06337629601518"><ele>356.0</ele><time>2026-05-06T04:19:20Z</time></trkpt><trkpt lat="-37.95580886012699" lon="146.06347861833692"><ele>356.6</ele><time>2026-05-06T04:19:21Z</time></trkpt><trkpt lat="-37.95585195901141" lon="146.06360201785566"><ele>357.20000000000005</ele><time>2026-05-06T04:19:22Z</time></trkpt><trkpt lat="-37.95588984452409" lon="146.06371865184838"><ele>357.79999999999995</ele><time>2026-05-06T04:19:23Z</time></trkpt><trkpt lat="-37.95591965925818" lon="146.06384272354393"><ele>358.4</ele><time>2026-05-06T04:19:24Z</time></trkpt><trkpt lat="-37.95595745550555" lon="146.06395911865374"><ele>359.0</ele><time>2026-05-06T04:19:25Z</time></trkpt><trkpt lat="-37.95600499883272" lon="146.06407534942014"><ele>357.6</ele><time>2026-05-06T04:19:26Z</time></trkpt><trkpt lat="-37.95605397257795" lon="146.064178540537"><ele>356.2</ele><time>2026-05-06T04:19:27Z</time></trkpt><trkpt lat="-37.95610169284116" lon="146.06429470444272"><ele>354.8</ele><time>2026-05-06T04:19:28Z</time></trkpt><trkpt lat="-37.95616919622977" lon="146.06438663269475"><ele>353.40000000000003</ele><time>2026-05-06T04:19:29Z</time></trkpt><trkpt lat="-37.9562576404161" lon="146.0644536007844"><ele>352.0</ele><time>2026-05-06T04:19:30Z</time></trkpt><trkpt lat="-37.956343183610585" lon="146.0645059413528"><ele>352.0</ele><time>2026-05-06T04:19:31Z</time></trkpt><trkpt lat="-37.95641059350827" lon="146.0645604108137"><ele>352.0</ele><time>2026-05-06T04:19:32Z</time></trkpt><trkpt lat="-37.956473532383164" lon="146.06461909068312"><ele>352.0</ele><time>2026-05-06T04:19:33Z</time></trkpt><trkpt lat="-37.9565204051968" lon="146.06468287462332"><ele>352.0</ele><time>2026-05-06T04:19:34Z</time></trkpt><trkpt lat="-37.95657658243561" lon="146.06473589620848"><ele>352.0</ele><time>2026-05-06T04:19:35Z</time></trkpt><trkpt lat="-37.95663458603096" lon="146.06477196280454"><ele>352.0</ele><time>2026-05-06T04:19:36Z</time></trkpt><trkpt lat="-37.95670260658842" lon="146.06480977419145"><ele>352.0</ele><time>2026-05-06T04:19:37Z</time></trkpt><trkpt lat="-37.956787707748454" lon="146.06482992556158"><ele>350.5</ele><time>2026-05-06T04:19:38Z</time></trkpt><trkpt lat="-37.9568774864237" lon="146.06485169556393"><ele>349.0</ele><time>2026-05-06T04:19:39Z</time></trkpt><trkpt lat="-37.95694836189951" lon="146.06487368492256"><ele>347.5</ele><time>2026-05-06T04:19:40Z</time></trkpt><trkpt lat="-37.95704215917333" lon="146.06491092237576"><ele>346.0</ele><time>2026-05-06T04:19:41Z</time></trkpt><trkpt lat="-37.95711176438252" lon="146.06493146991485"><ele>344.5</ele><time>2026-05-06T04:19:42Z</time></trkpt><trkpt lat="-37.957190527428246" lon="146.0649419199938"><ele>343.0</ele><time>2026-05-06T04:19:43Z</time></trkpt><trkpt lat="-37.95729083431161" lon="146.064967765936"><ele>343.0</ele><time>2026-05-06T04:19:44Z</time></trkpt><trkpt lat="-37.95738316128373" lon="146.0649808405887"><ele>343.0</ele><time>2026-05-06T04:19:45Z</time></trkpt><trkpt lat="-37.957491992971015" lon="146.0649965094661"><ele>343.0</ele><time>2026-05-06T04:19:46Z</time></trkpt><trkpt lat="-37.957613428936746" lon="146.06501267709103"><ele>343.0</ele><time>2026-05-06T04:19:47Z</time></trkpt><trkpt lat="-37.95771063949288" lon="146.0650492248106"><ele>343.0</ele><time>2026-05-06T04:19:48Z</time></trkpt><trkpt lat="-37.957831169943596" lon="146.0650941800806"><ele>343.66666666666663</ele><time>2026-05-06T04:19:49Z</time></trkpt><trkpt lat="-37.95793574648662" lon="146.06513234845042"><ele>344.3333333333333</ele><time>2026-05-06T04:19:50Z</time></trkpt><trkpt lat="-37.95802131769694" lon="146.0651460022726"><ele>345.0</ele><time>2026-05-06T04:19:51Z</time></trkpt><trkpt lat="-37.95810019319374" lon="146.06515405098415"><ele>345.6666666666667</ele><time>2026-05-06T04:19:52Z</time></trkpt><trkpt lat="-37.958184753408304" lon="146.06515247919234"><ele>346.33333333333337</ele><time>2026-05-06T04:19:53Z</time></trkpt><trkpt lat="-37.958256071169664" lon="146.0651885974281"><ele>347.0</ele><time>2026-05-06T04:19:54Z</time></trkpt><trkpt lat="-37.95833812680145" lon="146.0652750976359"><ele>346.83333333333337</ele><time>2026-05-06T04:19:55Z</time></trkpt><trkpt lat="-37.95840244471136" lon="146.0653448927013"><ele>346.6666666666667</ele><time>2026-05-06T04:19:56Z</time></trkpt><trkpt lat="-37.9584776586804" lon="146.06536880398215"><ele>346.5</ele><time>2026-05-06T04:19:57Z</time></trkpt><trkpt lat="-37.95857725972998" lon="146.0653994156159"><ele>346.3333333333333</ele><time>2026-05-06T04:19:58Z</time></trkpt><trkpt lat="-37.95867288051704" lon="146.0654111600634"><ele>346.16666666666663</ele><time>2026-05-06T04:19:59Z</time></trkpt><trkpt lat="-37.95874829241113" lon="146.06546185458285"><ele>346.0</ele><time>2026-05-06T04:20:00Z</time></trkpt><trkpt lat="-37.9587844366576" lon="146.06555743082356"><ele>346.0</ele><time>2026-05-06T04:20:01Z</time></trkpt><trkpt lat="-37.95882142844195" lon="146.06571038778867"><ele>346.0</ele><time>2026-05-06T04:20:02Z</time></trkpt><trkpt lat="-37.95885073232194" lon="146.06584286177807"><ele>346.0</ele><time>2026-05-06T04:20:03Z</time></trkpt><trkpt lat="-37.958882203166056" lon="146.0659656385846"><ele>346.0</ele><time>2026-05-06T04:20:04Z</time></trkpt><trkpt lat="-37.95891527592918" lon="146.06608505084313"><ele>346.0</ele><time>2026-05-06T04:20:05Z</time></trkpt><trkpt lat="-37.95894153670201" lon="146.06620766641524"><ele>346.16666666666663</ele><time>2026-05-06T04:20:05.999Z</time></trkpt><trkpt lat="-37.958964240671314" lon="146.06630739512545"><ele>346.3333333333333</ele><time>2026-05-06T04:20:06.999Z</time></trkpt><trkpt lat="-37.958970245648054" lon="146.0664134763177"><ele>346.5</ele><time>2026-05-06T04:20:07.999Z</time></trkpt><trkpt lat="-37.95896633445795" lon="146.0665315777198"><ele>346.6666666666667</ele><time>2026-05-06T04:20:08.999Z</time></trkpt><trkpt lat="-37.95897198564541" lon="146.06663693718303"><ele>346.83333333333337</ele><time>2026-05-06T04:20:09.999Z</time></trkpt><trkpt lat="-37.95898827678559" lon="146.06674611881502"><ele>347.0</ele><time>2026-05-06T04:20:10.999Z</time></trkpt><trkpt lat="-37.959023681607086" lon="146.0668596878784"><ele>347.0</ele><time>2026-05-06T04:20:11.999Z</time></trkpt><trkpt lat="-37.95905942235473" lon="146.06692872178613"><ele>347.0</ele><time>2026-05-06T04:20:12.999Z</time></trkpt><trkpt lat="-37.95910232800291" lon="146.06707194916953"><ele>347.0</ele><time>2026-05-06T04:20:14.999Z</time></trkpt><trkpt lat="-37.95922451798708" lon="146.0671246714506"><ele>347.0</ele><time>2026-05-06T04:20:16.999Z</time></trkpt><trkpt lat="-37.95931734304393" lon="146.0671194681195"><ele>347.0</ele><time>2026-05-06T04:20:17.999Z</time></trkpt><trkpt lat="-37.95940862134015" lon="146.06709509133444"><ele>345.0</ele><time>2026-05-06T04:20:18.999Z</time></trkpt><trkpt lat="-37.9594974479574" lon="146.06704025128712"><ele>343.0</ele><time>2026-05-06T04:20:19.999Z</time></trkpt><trkpt lat="-37.95956718629423" lon="146.06699681078217"><ele>341.0</ele><time>2026-05-06T04:20:20.999Z</time></trkpt><trkpt lat="-37.95965168396299" lon="146.06698509216034"><ele>339.0</ele><time>2026-05-06T04:20:21.999Z</time></trkpt><trkpt lat="-37.95972588467456" lon="146.06697901492817"><ele>337.0</ele><time>2026-05-06T04:20:22.999Z</time></trkpt><trkpt lat="-37.95979315253416" lon="146.06693992220136"><ele>335.0</ele><time>2026-05-06T04:20:23.999Z</time></trkpt><trkpt lat="-37.95986975093816" lon="146.06689597732029"><ele>335.0</ele><time>2026-05-06T04:20:24.999Z</time></trkpt><trkpt lat="-37.959975623513365" lon="146.06685941545166"><ele>335.0</ele><time>2026-05-06T04:20:25.999Z</time></trkpt><trkpt lat="-37.96008532324402" lon="146.06683885453685"><ele>335.0</ele><time>2026-05-06T04:20:26.999Z</time></trkpt><trkpt lat="-37.9601850886722" lon="146.06686126149194"><ele>335.0</ele><time>2026-05-06T04:20:27.999Z</time></trkpt><trkpt lat="-37.96027864655747" lon="146.06688527249486"><ele>335.0</ele><time>2026-05-06T04:20:28.999Z</time></trkpt><trkpt lat="-37.9603751396017" lon="146.06690678699348"><ele>333.4</ele><time>2026-05-06T04:20:29.999Z</time></trkpt><trkpt lat="-37.96048589745378" lon="146.06690180884607"><ele>331.8</ele><time>2026-05-06T04:20:30.999Z</time></trkpt><trkpt lat="-37.96059440638486" lon="146.06690833331803"><ele>330.20000000000005</ele><time>2026-05-06T04:20:31.999Z</time></trkpt><trkpt lat="-37.96067414755589" lon="146.06693464600676"><ele>328.6</ele><time>2026-05-06T04:20:32.999Z</time></trkpt><trkpt lat="-37.96072482142054" lon="146.06700359008755"><ele>327.0</ele><time>2026-05-06T04:20:33.999Z</time></trkpt><trkpt lat="-37.96075415149619" lon="146.06710860040235"><ele>327.0</ele><time>2026-05-06T04:20:34.999Z</time></trkpt><trkpt lat="-37.96077380122547" lon="146.06722077241912"><ele>327.0</ele><time>2026-05-06T04:20:35.999Z</time></trkpt><trkpt lat="-37.96081306918747" lon="146.06731188299509"><ele>327.0</ele><time>2026-05-06T04:20:36.999Z</time></trkpt><trkpt lat="-37.960893002140494" lon="146.06738088054385"><ele>327.0</ele><time>2026-05-06T04:20:37.999Z</time></trkpt><trkpt lat="-37.96100369541052" lon="146.06747726395034"><ele>327.0</ele><time>2026-05-06T04:20:38.999Z</time></trkpt><trkpt lat="-37.96108690308423" lon="146.06759263538657"><ele>325.40000000000003</ele><time>2026-05-06T04:20:39.999Z</time></trkpt><trkpt lat="-37.96114908792323" lon="146.0677175967982"><ele>323.8</ele><time>2026-05-06T04:20:40.999Z</time></trkpt><trkpt lat="-37.96122341098627" lon="146.0678296090888"><ele>322.2</ele><time>2026-05-06T04:20:41.999Z</time></trkpt><trkpt lat="-37.9612924789241" lon="146.06790645404465"><ele>320.6</ele><time>2026-05-06T04:20:42.999Z</time></trkpt><trkpt lat="-37.96134169229906" lon="146.0680020553471"><ele>319.0</ele><time>2026-05-06T04:20:43.999Z</time></trkpt><trkpt lat="-37.961396341533515" lon="146.0681074690397"><ele>319.0</ele><time>2026-05-06T04:20:44.999Z</time></trkpt><trkpt lat="-37.961454377927" lon="146.06823224751042"><ele>319.0</ele><time>2026-05-06T04:20:45.999Z</time></trkpt><trkpt lat="-37.96151000288514" lon="146.06839051851009"><ele>319.0</ele><time>2026-05-06T04:20:46.999Z</time></trkpt><trkpt lat="-37.96155416320048" lon="146.0685211510859"><ele>319.0</ele><time>2026-05-06T04:20:47.999Z</time></trkpt><trkpt lat="-37.96159416194818" lon="146.06864262873228"><ele>319.0</ele><time>2026-05-06T04:20:48.999Z</time></trkpt><trkpt lat="-37.96164696026462" lon="146.068752506928"><ele>319.0</ele><time>2026-05-06T04:20:49.999Z</time></trkpt><trkpt lat="-37.961702397855944" lon="146.06887345963102"><ele>319.0</ele><time>2026-05-06T04:20:50.999Z</time></trkpt><trkpt lat="-37.96174466103092" lon="146.06899476327953"><ele>319.0</ele><time>2026-05-06T04:20:51.999Z</time></trkpt><trkpt lat="-37.961784222414536" lon="146.06912135314596"><ele>319.0</ele><time>2026-05-06T04:20:52.999Z</time></trkpt><trkpt lat="-37.96182066179323" lon="146.06921228717508"><ele>319.0</ele><time>2026-05-06T04:20:53.999Z</time></trkpt><trkpt lat="-37.96187479209821" lon="146.06933338084153"><ele>319.0</ele><time>2026-05-06T04:20:54.999Z</time></trkpt><trkpt lat="-37.96191098490579" lon="146.06944492472388"><ele>319.0</ele><time>2026-05-06T04:20:55.999Z</time></trkpt><trkpt lat="-37.961926760416695" lon="146.06956478685137"><ele>319.0</ele><time>2026-05-06T04:20:56.999Z</time></trkpt><trkpt lat="-37.96194490796026" lon="146.06967542904505"><ele>319.0</ele><time>2026-05-06T04:20:57.999Z</time></trkpt><trkpt lat="-37.96206050007142" lon="146.06976082217707"><ele>319.0</ele><time>2026-05-06T04:20:59.999Z</time></trkpt><trkpt lat="-37.96214815821609" lon="146.0697660187087"><ele>319.0</ele><time>2026-05-06T04:21:00.999Z</time></trkpt><trkpt lat="-37.96223195038589" lon="146.06976826836046"><ele>319.0</ele><time>2026-05-06T04:21:01.999Z</time></trkpt><trkpt lat="-37.96230042702564" lon="146.06976217928974"><ele>319.0</ele><time>2026-05-06T04:21:02.999Z</time></trkpt><trkpt lat="-37.962404413365725" lon="146.06975926478407"><ele>319.0</ele><time>2026-05-06T04:21:04.999Z</time></trkpt><trkpt lat="-37.96246932988351" lon="146.06975510945006"><ele>319.0</ele><time>2026-05-06T04:21:05.999Z</time></trkpt><trkpt lat="-37.96255786905044" lon="146.06974766306732"><ele>316.5</ele><time>2026-05-06T04:21:06.999Z</time></trkpt><trkpt lat="-37.9626304135632" lon="146.06972680095308"><ele>314.0</ele><time>2026-05-06T04:21:07.999Z</time></trkpt><trkpt lat="-37.96270793112185" lon="146.0696980107096"><ele>311.5</ele><time>2026-05-06T04:21:10Z</time></trkpt><trkpt lat="-37.96277753848468" lon="146.06969280107023"><ele>309.0</ele><time>2026-05-06T04:21:11Z</time></trkpt><trkpt lat="-37.96287449358579" lon="146.0697050592419"><ele>306.5</ele><time>2026-05-06T04:21:12Z</time></trkpt><trkpt lat="-37.96295303913746" lon="146.06975536131154"><ele>304.0</ele><time>2026-05-06T04:21:13Z</time></trkpt><trkpt lat="-37.96302431701797" lon="146.0698035797337"><ele>304.0</ele><time>2026-05-06T04:21:14Z</time></trkpt><trkpt lat="-37.96312032518611" lon="146.06984463061153"><ele>304.0</ele><time>2026-05-06T04:21:15Z</time></trkpt><trkpt lat="-37.96320693263332" lon="146.06985669892165"><ele>304.0</ele><time>2026-05-06T04:21:16Z</time></trkpt><trkpt lat="-37.96330723786049" lon="146.06984315147187"><ele>304.0</ele><time>2026-05-06T04:21:17Z</time></trkpt><trkpt lat="-37.96341598786395" lon="146.069822247666"><ele>304.0</ele><time>2026-05-06T04:21:18Z</time></trkpt><trkpt lat="-37.96355567038432" lon="146.06980299550767"><ele>303.25</ele><time>2026-05-06T04:21:19Z</time></trkpt><trkpt lat="-37.96368196214671" lon="146.06981310073073"><ele>302.5</ele><time>2026-05-06T04:21:20Z</time></trkpt><trkpt lat="-37.963810246016806" lon="146.0698211868418"><ele>301.75</ele><time>2026-05-06T04:21:21Z</time></trkpt><trkpt lat="-37.96392537879635" lon="146.06983908063245"><ele>301.0</ele><time>2026-05-06T04:21:22Z</time></trkpt><trkpt lat="-37.964022804740544" lon="146.06985173094515"><ele>301.0</ele><time>2026-05-06T04:21:23Z</time></trkpt><trkpt lat="-37.96411553056364" lon="146.06988358452693"><ele>301.0</ele><time>2026-05-06T04:21:24Z</time></trkpt><trkpt lat="-37.96417790316851" lon="146.06992917946576"><ele>301.0</ele><time>2026-05-06T04:21:25Z</time></trkpt><trkpt lat="-37.96422991903783" lon="146.07001327755597"><ele>301.0</ele><time>2026-05-06T04:21:26Z</time></trkpt><trkpt lat="-37.96427334037118" lon="146.07013493416014"><ele>301.0</ele><time>2026-05-06T04:21:27Z</time></trkpt><trkpt lat="-37.96432166342501" lon="146.07025642989677"><ele>300.6</ele><time>2026-05-06T04:21:28Z</time></trkpt><trkpt lat="-37.96436559644886" lon="146.07035906745588"><ele>300.20000000000005</ele><time>2026-05-06T04:21:29Z</time></trkpt><trkpt lat="-37.96438863482845" lon="146.070454889705"><ele>299.79999999999995</ele><time>2026-05-06T04:21:30Z</time></trkpt><trkpt lat="-37.96439097995839" lon="146.07057849274403"><ele>299.4</ele><time>2026-05-06T04:21:31Z</time></trkpt><trkpt lat="-37.96437127156104" lon="146.07070703912703"><ele>299.0</ele><time>2026-05-06T04:21:32Z</time></trkpt><trkpt lat="-37.96436234623066" lon="146.07085230054597"><ele>300.25</ele><time>2026-05-06T04:21:33Z</time></trkpt><trkpt lat="-37.9643727743452" lon="146.07101720108363"><ele>301.5</ele><time>2026-05-06T04:21:34Z</time></trkpt><trkpt lat="-37.96437984248206" lon="146.0711647260482"><ele>302.75</ele><time>2026-05-06T04:21:35Z</time></trkpt><trkpt lat="-37.96437706542876" lon="146.07131087318834"><ele>304.0</ele><time>2026-05-06T04:21:36Z</time></trkpt><trkpt lat="-37.96436765641158" lon="146.07144873743457"><ele>304.0</ele><time>2026-05-06T04:21:37Z</time></trkpt><trkpt lat="-37.96435796756128" lon="146.07159598519974"><ele>304.0</ele><time>2026-05-06T04:21:38Z</time></trkpt><trkpt lat="-37.964336738909665" lon="146.07172935784888"><ele>304.0</ele><time>2026-05-06T04:21:39Z</time></trkpt><trkpt lat="-37.96432764604134" lon="146.0718443565945"><ele>304.0</ele><time>2026-05-06T04:21:40Z</time></trkpt><trkpt lat="-37.964325255575005" lon="146.07195780936308"><ele>304.0</ele><time>2026-05-06T04:21:41Z</time></trkpt><trkpt lat="-37.96432780676498" lon="146.07208404773107"><ele>304.2</ele><time>2026-05-06T04:21:42Z</time></trkpt><trkpt lat="-37.96434419574061" lon="146.07221835733276"><ele>304.4</ele><time>2026-05-06T04:21:43Z</time></trkpt><trkpt lat="-37.96436341670989" lon="146.0723380611608"><ele>304.6</ele><time>2026-05-06T04:21:44Z</time></trkpt><trkpt lat="-37.96439107758464" lon="146.07243251128693"><ele>304.8</ele><time>2026-05-06T04:21:45Z</time></trkpt><trkpt lat="-37.9644813070325" lon="146.07255937076278"><ele>305.0</ele><time>2026-05-06T04:21:47Z</time></trkpt><trkpt lat="-37.96453115406238" lon="146.07266531836805"><ele>304.0</ele><time>2026-05-06T04:21:49Z</time></trkpt><trkpt lat="-37.96457696700438" lon="146.07278234582418"><ele>303.0</ele><time>2026-05-06T04:21:51Z</time></trkpt><trkpt lat="-37.96469189520883" lon="146.0727998098313"><ele>302.0</ele><time>2026-05-06T04:21:53Z</time></trkpt><trkpt lat="-37.96475627729351" lon="146.07278937509832"><ele>301.0</ele><time>2026-05-06T04:21:54Z</time></trkpt><trkpt lat="-37.964880811177984" lon="146.07275318601393"><ele>300.0</ele><time>2026-05-06T04:21:56Z</time></trkpt><trkpt lat="-37.96495341288619" lon="146.07275696720293"><ele>300.0</ele><time>2026-05-06T04:21:57Z</time></trkpt><trkpt lat="-37.96502128683279" lon="146.07275859061244"><ele>300.0</ele><time>2026-05-06T04:21:58Z</time></trkpt><trkpt lat="-37.96509362278164" lon="146.0727227539184"><ele>300.0</ele><time>2026-05-06T04:21:59Z</time></trkpt><trkpt lat="-37.965177412737525" lon="146.0726870219925"><ele>300.0</ele><time>2026-05-06T04:22:00Z</time></trkpt><trkpt lat="-37.965240722626035" lon="146.07268378255003"><ele>300.0</ele><time>2026-05-06T04:22:01Z</time></trkpt><trkpt lat="-37.96533720034464" lon="146.07267951863358"><ele>300.0</ele><time>2026-05-06T04:22:02Z</time></trkpt><trkpt lat="-37.96542919516512" lon="146.07269345421307"><ele>297.8</ele><time>2026-05-06T04:22:03Z</time></trkpt><trkpt lat="-37.96553442591441" lon="146.07270509908585"><ele>295.6</ele><time>2026-05-06T04:22:04Z</time></trkpt><trkpt lat="-37.96564017118884" lon="146.07273397760483"><ele>293.4</ele><time>2026-05-06T04:22:05Z</time></trkpt><trkpt lat="-37.96574101250568" lon="146.0727784713513"><ele>291.2</ele><time>2026-05-06T04:22:06Z</time></trkpt><trkpt lat="-37.96584575563982" lon="146.0728322616674"><ele>289.0</ele><time>2026-05-06T04:22:07Z</time></trkpt><trkpt lat="-37.965935103927805" lon="146.0728938025409"><ele>288.0</ele><time>2026-05-06T04:22:08Z</time></trkpt><trkpt lat="-37.96601225323588" lon="146.0729526603562"><ele>287.0</ele><time>2026-05-06T04:22:09Z</time></trkpt><trkpt lat="-37.966090262181545" lon="146.07301905067905"><ele>286.0</ele><time>2026-05-06T04:22:10Z</time></trkpt><trkpt lat="-37.96615798912276" lon="146.07311141339383"><ele>285.0</ele><time>2026-05-06T04:22:11Z</time></trkpt><trkpt lat="-37.96621574060697" lon="146.07320784267313"><ele>284.0</ele><time>2026-05-06T04:22:11.999Z</time></trkpt><trkpt lat="-37.966256860608915" lon="146.07331939380398"><ele>287.0</ele><time>2026-05-06T04:22:12.999Z</time></trkpt><trkpt lat="-37.96628082617616" lon="146.0734159334653"><ele>290.0</ele><time>2026-05-06T04:22:13.999Z</time></trkpt><trkpt lat="-37.966318158430724" lon="146.07351192923244"><ele>293.0</ele><time>2026-05-06T04:22:14.999Z</time></trkpt><trkpt lat="-37.96638368017126" lon="146.07359918698236"><ele>296.0</ele><time>2026-05-06T04:22:15.999Z</time></trkpt><trkpt lat="-37.966437986100395" lon="146.0736749692322"><ele>299.0</ele><time>2026-05-06T04:22:16.999Z</time></trkpt><trkpt lat="-37.966522334865296" lon="146.0737277764002"><ele>302.0</ele><time>2026-05-06T04:22:17.999Z</time></trkpt><trkpt lat="-37.966609324319435" lon="146.07375828323558"><ele>302.0</ele><time>2026-05-06T04:22:18.999Z</time></trkpt><trkpt lat="-37.96669712189411" lon="146.07377590584335"><ele>302.0</ele><time>2026-05-06T04:22:19.999Z</time></trkpt><trkpt lat="-37.966777729012826" lon="146.07378992423364"><ele>302.0</ele><time>2026-05-06T04:22:20.999Z</time></trkpt><trkpt lat="-37.9668648978303" lon="146.07377359538083"><ele>302.0</ele><time>2026-05-06T04:22:21.999Z</time></trkpt><trkpt lat="-37.96695804017499" lon="146.0737395074633"><ele>302.0</ele><time>2026-05-06T04:22:22.999Z</time></trkpt><trkpt lat="-37.9670376789012" lon="146.073720886538"><ele>302.0</ele><time>2026-05-06T04:22:23.999Z</time></trkpt><trkpt lat="-37.96710305281712" lon="146.07373233046468"><ele>302.0</ele><time>2026-05-06T04:22:24.999Z</time></trkpt><trkpt lat="-37.96715808873529" lon="146.07378384136754"><ele>302.0</ele><time>2026-05-06T04:22:25.999Z</time></trkpt><trkpt lat="-37.9671993049936" lon="146.07387128889397"><ele>302.0</ele><time>2026-05-06T04:22:26.999Z</time></trkpt><trkpt lat="-37.96723857341172" lon="146.07394778972423"><ele>302.0</ele><time>2026-05-06T04:22:27.999Z</time></trkpt><trkpt lat="-37.96729627028262" lon="146.07402055582082"><ele>302.0</ele><time>2026-05-06T04:22:28.999Z</time></trkpt><trkpt lat="-37.967352600976" lon="146.07409958019093"><ele>302.0</ele><time>2026-05-06T04:22:29.999Z</time></trkpt><trkpt lat="-37.96740541275469" lon="146.07415995953446"><ele>301.4</ele><time>2026-05-06T04:22:30.999Z</time></trkpt><trkpt lat="-37.96751226278351" lon="146.07426526812569"><ele>300.79999999999995</ele><time>2026-05-06T04:22:32.999Z</time></trkpt><trkpt lat="-37.96757009569403" lon="146.074333047567"><ele>300.2</ele><time>2026-05-06T04:22:33.999Z</time></trkpt><trkpt lat="-37.967645986289725" lon="146.07440809124066"><ele>299.59999999999997</ele><time>2026-05-06T04:22:34.999Z</time></trkpt><trkpt lat="-37.96772924565996" lon="146.07448939621406"><ele>299.0</ele><time>2026-05-06T04:22:35.999Z</time></trkpt><trkpt lat="-37.96780434672745" lon="146.07455225775766"><ele>296.83333333333337</ele><time>2026-05-06T04:22:36.999Z</time></trkpt><trkpt lat="-37.96785228919686" lon="146.07461312464667"><ele>294.6666666666667</ele><time>2026-05-06T04:22:37.999Z</time></trkpt><trkpt lat="-37.967887004615676" lon="146.07469950788692"><ele>292.5</ele><time>2026-05-06T04:22:38.999Z</time></trkpt><trkpt lat="-37.967916435398344" lon="146.0748074981601"><ele>290.3333333333333</ele><time>2026-05-06T04:22:39.999Z</time></trkpt><trkpt lat="-37.967928202192866" lon="146.0749109979075"><ele>288.16666666666663</ele><time>2026-05-06T04:22:40.999Z</time></trkpt><trkpt lat="-37.96789994618695" lon="146.0750129332455"><ele>286.0</ele><time>2026-05-06T04:22:41.999Z</time></trkpt><trkpt lat="-37.96786699122714" lon="146.0751150534049"><ele>285.2</ele><time>2026-05-06T04:22:42.999Z</time></trkpt><trkpt lat="-37.967856482250156" lon="146.07524058570087"><ele>284.40000000000003</ele><time>2026-05-06T04:22:43.999Z</time></trkpt><trkpt lat="-37.967870111219284" lon="146.0753534358707"><ele>283.6</ele><time>2026-05-06T04:22:44.999Z</time></trkpt><trkpt lat="-37.967866994790356" lon="146.07545423182552"><ele>282.8</ele><time>2026-05-06T04:22:45.999Z</time></trkpt><trkpt lat="-37.96784789749316" lon="146.07558360375262"><ele>282.0</ele><time>2026-05-06T04:22:46.999Z</time></trkpt><trkpt lat="-37.96780839033791" lon="146.07571984603223"><ele>280.2</ele><time>2026-05-06T04:22:47.999Z</time></trkpt><trkpt lat="-37.96777246330606" lon="146.07582847112135"><ele>278.4</ele><time>2026-05-06T04:22:48.999Z</time></trkpt><trkpt lat="-37.967733731309686" lon="146.07595050712197"><ele>276.6</ele><time>2026-05-06T04:22:49.999Z</time></trkpt><trkpt lat="-37.967703181771654" lon="146.07608574468193"><ele>274.8</ele><time>2026-05-06T04:22:50.999Z</time></trkpt><trkpt lat="-37.96768805500899" lon="146.07623196711805"><ele>273.0</ele><time>2026-05-06T04:22:51.999Z</time></trkpt><trkpt lat="-37.96770015139337" lon="146.07636486165023"><ele>273.0</ele><time>2026-05-06T04:22:52.999Z</time></trkpt><trkpt lat="-37.96769191281285" lon="146.07649344947907"><ele>273.0</ele><time>2026-05-06T04:22:53.999Z</time></trkpt><trkpt lat="-37.967671849823454" lon="146.07662729230228"><ele>273.0</ele><time>2026-05-06T04:22:54.999Z</time></trkpt><trkpt lat="-37.96764248999854" lon="146.07675325507336"><ele>273.0</ele><time>2026-05-06T04:22:55.999Z</time></trkpt><trkpt lat="-37.96759096008199" lon="146.07686617527187"><ele>273.0</ele><time>2026-05-06T04:22:56.999Z</time></trkpt><trkpt lat="-37.96753192073786" lon="146.07698694607586"><ele>273.75</ele><time>2026-05-06T04:22:57.999Z</time></trkpt><trkpt lat="-37.967494428243654" lon="146.07709676594345"><ele>274.5</ele><time>2026-05-06T04:22:58.999Z</time></trkpt><trkpt lat="-37.967488426166085" lon="146.07722506572392"><ele>275.25</ele><time>2026-05-06T04:22:59.999Z</time></trkpt><trkpt lat="-37.967462098268186" lon="146.07737662857696"><ele>276.0</ele><time>2026-05-06T04:23:00.999Z</time></trkpt><trkpt lat="-37.967408027022266" lon="146.07754828977983"><ele>276.0</ele><time>2026-05-06T04:23:01.999Z</time></trkpt><trkpt lat="-37.967356887470245" lon="146.07768590263495"><ele>276.0</ele><time>2026-05-06T04:23:02.999Z</time></trkpt><trkpt lat="-37.96730253704501" lon="146.07784822694433"><ele>276.0</ele><time>2026-05-06T04:23:03.999Z</time></trkpt><trkpt lat="-37.967281010442925" lon="146.0779679217516"><ele>276.0</ele><time>2026-05-06T04:23:04.999Z</time></trkpt><trkpt lat="-37.96725525928183" lon="146.07810145336504"><ele>276.0</ele><time>2026-05-06T04:23:05.999Z</time></trkpt><trkpt lat="-37.96721731196886" lon="146.07822015195808"><ele>276.0</ele><time>2026-05-06T04:23:06.999Z</time></trkpt><trkpt lat="-37.96712830764619" lon="146.0783375597933"><ele>276.0</ele><time>2026-05-06T04:23:07.999Z</time></trkpt><trkpt lat="-37.96700710782648" lon="146.07843373626676"><ele>276.0</ele><time>2026-05-06T04:23:08.999Z</time></trkpt><trkpt lat="-37.96691645374729" lon="146.07854139279274"><ele>275.40000000000003</ele><time>2026-05-06T04:23:09.999Z</time></trkpt><trkpt lat="-37.96684506324789" lon="146.07863637870219"><ele>274.8</ele><time>2026-05-06T04:23:10.999Z</time></trkpt><trkpt lat="-37.96677379179179" lon="146.07873582308002"><ele>274.20000000000005</ele><time>2026-05-06T04:23:11.999Z</time></trkpt><trkpt lat="-37.966703094619305" lon="146.0788426348152"><ele>273.6</ele><time>2026-05-06T04:23:12.999Z</time></trkpt><trkpt lat="-37.96663179218099" lon="146.07894698527127"><ele>273.0</ele><time>2026-05-06T04:23:13.999Z</time></trkpt><trkpt lat="-37.96659822594934" lon="146.0790342576147"><ele>272.8333333333333</ele><time>2026-05-06T04:23:14.999Z</time></trkpt><trkpt lat="-37.96658262770065" lon="146.07911625958536"><ele>272.6666666666667</ele><time>2026-05-06T04:23:16Z</time></trkpt><trkpt lat="-37.9665877917159" lon="146.07920537585815"><ele>272.5</ele><time>2026-05-06T04:23:17Z</time></trkpt><trkpt lat="-37.96661371381474" lon="146.07931609036768"><ele>272.33333333333337</ele><time>2026-05-06T04:23:18Z</time></trkpt><trkpt lat="-37.96664363290654" lon="146.0793980593025"><ele>272.1666666666667</ele><time>2026-05-06T04:23:19Z</time></trkpt><trkpt lat="-37.966680232213136" lon="146.07946540538802"><ele>272.0</ele><time>2026-05-06T04:23:20Z</time></trkpt><trkpt lat="-37.96674642629134" lon="146.07955131643436"><ele>271.33333333333337</ele><time>2026-05-06T04:23:22Z</time></trkpt><trkpt lat="-37.96679842337021" lon="146.07965808003647"><ele>270.6666666666667</ele><time>2026-05-06T04:23:24Z</time></trkpt><trkpt lat="-37.96682401075508" lon="146.07973170715758"><ele>270.0</ele><time>2026-05-06T04:23:25Z</time></trkpt><trkpt lat="-37.96684739722113" lon="146.07980852847666"><ele>269.3333333333333</ele><time>2026-05-06T04:23:26Z</time></trkpt><trkpt lat="-37.96689597961605" lon="146.0799514900457"><ele>268.66666666666663</ele><time>2026-05-06T04:23:28Z</time></trkpt><trkpt lat="-37.966932917153855" lon="146.08003490871545"><ele>268.0</ele><time>2026-05-06T04:23:29Z</time></trkpt><trkpt lat="-37.96696623632098" lon="146.08011127987845"><ele>265.0</ele><time>2026-05-06T04:23:30Z</time></trkpt><trkpt lat="-37.967020746239655" lon="146.08023393722567"><ele>262.0</ele><time>2026-05-06T04:23:32Z</time></trkpt><trkpt lat="-37.967071596273136" lon="146.08034810151554"><ele>259.0</ele><time>2026-05-06T04:23:33Z</time></trkpt><trkpt lat="-37.967114230899384" lon="146.08046054881405"><ele>256.0</ele><time>2026-05-06T04:23:34Z</time></trkpt><trkpt lat="-37.967144453686785" lon="146.08055714507432"><ele>253.0</ele><time>2026-05-06T04:23:35Z</time></trkpt><trkpt lat="-37.967188117557285" lon="146.0806625472271"><ele>250.8</ele><time>2026-05-06T04:23:36Z</time></trkpt><trkpt lat="-37.96723316873074" lon="146.08077855139564"><ele>248.60000000000002</ele><time>2026-05-06T04:23:37Z</time></trkpt><trkpt lat="-37.96727486917497" lon="146.08087278424554"><ele>246.39999999999998</ele><time>2026-05-06T04:23:38Z</time></trkpt><trkpt lat="-37.96732150767862" lon="146.0809663198287"><ele>244.2</ele><time>2026-05-06T04:23:39Z</time></trkpt><trkpt lat="-37.96739676958755" lon="146.0810502741573"><ele>242.0</ele><time>2026-05-06T04:23:40Z</time></trkpt><trkpt lat="-37.96750077904531" lon="146.08113746677475"><ele>240.0</ele><time>2026-05-06T04:23:41Z</time></trkpt><trkpt lat="-37.96758923283301" lon="146.0811864903274"><ele>238.0</ele><time>2026-05-06T04:23:42Z</time></trkpt><trkpt lat="-37.967673794933816" lon="146.0812113774354"><ele>236.0</ele><time>2026-05-06T04:23:43Z</time></trkpt><trkpt lat="-37.96777582446822" lon="146.0812551361902"><ele>234.0</ele><time>2026-05-06T04:23:44Z</time></trkpt><trkpt lat="-37.96786058474824" lon="146.0813121848713"><ele>232.0</ele><time>2026-05-06T04:23:45Z</time></trkpt><trkpt lat="-37.96793727778279" lon="146.0813934410201"><ele>232.0</ele><time>2026-05-06T04:23:46Z</time></trkpt><trkpt lat="-37.96799416919556" lon="146.08148743670662"><ele>232.0</ele><time>2026-05-06T04:23:47Z</time></trkpt><trkpt lat="-37.96803642643105" lon="146.08158386537258"><ele>232.0</ele><time>2026-05-06T04:23:48Z</time></trkpt><trkpt lat="-37.96807031089637" lon="146.08167730018755"><ele>232.0</ele><time>2026-05-06T04:23:49Z</time></trkpt><trkpt lat="-37.96811546053055" lon="146.08173672379738"><ele>232.0</ele><time>2026-05-06T04:23:50Z</time></trkpt><trkpt lat="-37.96822953986916" lon="146.0819091920803"><ele>232.49999999999997</ele><time>2026-05-06T04:23:52Z</time></trkpt><trkpt lat="-37.96825521824873" lon="146.08200138969252"><ele>233.0</ele><time>2026-05-06T04:23:53Z</time></trkpt><trkpt lat="-37.968276684570164" lon="146.08209090289887"><ele>233.5</ele><time>2026-05-06T04:23:54Z</time></trkpt><trkpt lat="-37.96829273251591" lon="146.08217731725526"><ele>234.0</ele><time>2026-05-06T04:23:55Z</time></trkpt><trkpt lat="-37.96834231742384" lon="146.08229379672335"><ele>234.49999999999997</ele><time>2026-05-06T04:23:56Z</time></trkpt><trkpt lat="-37.96838880679472" lon="146.08238738840024"><ele>235.0</ele><time>2026-05-06T04:23:57Z</time></trkpt><trkpt lat="-37.968434394719665" lon="146.08249573253482"><ele>231.4</ele><time>2026-05-06T04:23:58Z</time></trkpt><trkpt lat="-37.96847534414463" lon="146.08259060245493"><ele>227.8</ele><time>2026-05-06T04:23:59Z</time></trkpt><trkpt lat="-37.96851561032712" lon="146.0826864160688"><ele>224.2</ele><time>2026-05-06T04:24:00Z</time></trkpt><trkpt lat="-37.96856190516551" lon="146.082822821642"><ele>220.6</ele><time>2026-05-06T04:24:01Z</time></trkpt><trkpt lat="-37.96861194731803" lon="146.08294754742508"><ele>217.0</ele><time>2026-05-06T04:24:02Z</time></trkpt><trkpt lat="-37.968666479010494" lon="146.08308201593854"><ele>217.0</ele><time>2026-05-06T04:24:03Z</time></trkpt><trkpt lat="-37.96873804654276" lon="146.08322993304867"><ele>217.0</ele><time>2026-05-06T04:24:04Z</time></trkpt><trkpt lat="-37.96880517825542" lon="146.08338018930002"><ele>217.0</ele><time>2026-05-06T04:24:05Z</time></trkpt><trkpt lat="-37.968861506886704" lon="146.0835251187074"><ele>217.0</ele><time>2026-05-06T04:24:06Z</time></trkpt><trkpt lat="-37.96890421284311" lon="146.0836857985889"><ele>217.0</ele><time>2026-05-06T04:24:07Z</time></trkpt><trkpt lat="-37.9689471250602" lon="146.08382480447537"><ele>217.0</ele><time>2026-05-06T04:24:08Z</time></trkpt><trkpt lat="-37.96899237568743" lon="146.08395127438837"><ele>217.0</ele><time>2026-05-06T04:24:09Z</time></trkpt><trkpt lat="-37.96902374892361" lon="146.08409725846965"><ele>217.0</ele><time>2026-05-06T04:24:10Z</time></trkpt><trkpt lat="-37.969036165293645" lon="146.08421120648524"><ele>217.0</ele><time>2026-05-06T04:24:11Z</time></trkpt><trkpt lat="-37.96902115870303" lon="146.08431980610666"><ele>217.39999999999998</ele><time>2026-05-06T04:24:12Z</time></trkpt><trkpt lat="-37.968993307616266" lon="146.08441397173706"><ele>217.79999999999998</ele><time>2026-05-06T04:24:13Z</time></trkpt><trkpt lat="-37.968983735743286" lon="146.0845099196567"><ele>218.2</ele><time>2026-05-06T04:24:14Z</time></trkpt><trkpt lat="-37.96900105916229" lon="146.08464100975445"><ele>218.6</ele><time>2026-05-06T04:24:16Z</time></trkpt><trkpt lat="-37.969040211915605" lon="146.0847895579399"><ele>219.0</ele><time>2026-05-06T04:24:17.999Z</time></trkpt><trkpt lat="-37.9690498369454" lon="146.0849297527798"><ele>219.0</ele><time>2026-05-06T04:24:19.999Z</time></trkpt><trkpt lat="-37.969073452802895" lon="146.0850072001948"><ele>219.0</ele><time>2026-05-06T04:24:20.999Z</time></trkpt><trkpt lat="-37.969126560529354" lon="146.08507260477654"><ele>219.0</ele><time>2026-05-06T04:24:21.999Z</time></trkpt><trkpt lat="-37.96919319532326" lon="146.08518697463805"><ele>219.0</ele><time>2026-05-06T04:24:23.999Z</time></trkpt><trkpt lat="-37.96923651328586" lon="146.08528933577242"><ele>219.0</ele><time>2026-05-06T04:24:24.999Z</time></trkpt><trkpt lat="-37.96928640850778" lon="146.08535642179268"><ele>219.0</ele><time>2026-05-06T04:24:25.999Z</time></trkpt><trkpt lat="-37.96938370819831" lon="146.08547143030947"><ele>214.0</ele><time>2026-05-06T04:24:27.999Z</time></trkpt><trkpt lat="-37.969435462435165" lon="146.08555159932052"><ele>208.99999999999997</ele><time>2026-05-06T04:24:28.999Z</time></trkpt><trkpt lat="-37.96947237336012" lon="146.08563403019843"><ele>204.0</ele><time>2026-05-06T04:24:29.999Z</time></trkpt><trkpt lat="-37.96956328711276" lon="146.08575638844331"><ele>199.0</ele><time>2026-05-06T04:24:31.999Z</time></trkpt><trkpt lat="-37.969642507027224" lon="146.085878510305"><ele>194.0</ele><time>2026-05-06T04:24:33.999Z</time></trkpt><trkpt lat="-37.9697241614667" lon="146.08600662150846"><ele>193.16666666666669</ele><time>2026-05-06T04:24:35.999Z</time></trkpt><trkpt lat="-37.96976949572965" lon="146.08608635493752"><ele>192.33333333333334</ele><time>2026-05-06T04:24:36.999Z</time></trkpt><trkpt lat="-37.96981733388548" lon="146.0861523420975"><ele>191.5</ele><time>2026-05-06T04:24:37.999Z</time></trkpt><trkpt lat="-37.96989775163673" lon="146.08628727598168"><ele>190.66666666666669</ele><time>2026-05-06T04:24:39.999Z</time></trkpt><trkpt lat="-37.969942109751294" lon="146.08638677414908"><ele>189.83333333333334</ele><time>2026-05-06T04:24:40.999Z</time></trkpt><trkpt lat="-37.96997448606291" lon="146.08646222448948"><ele>189.0</ele><time>2026-05-06T04:24:41.999Z</time></trkpt><trkpt lat="-37.970019413522735" lon="146.08652922295832"><ele>187.42857142857142</ele><time>2026-05-06T04:24:42.999Z</time></trkpt><trkpt lat="-37.97007298411883" lon="146.08659899965005"><ele>185.85714285714286</ele><time>2026-05-06T04:24:43.999Z</time></trkpt><trkpt lat="-37.97010745647377" lon="146.08667160654133"><ele>184.28571428571428</ele><time>2026-05-06T04:24:44.999Z</time></trkpt><trkpt lat="-37.970144657670936" lon="146.0867517177836"><ele>182.71428571428572</ele><time>2026-05-06T04:24:45.999Z</time></trkpt><trkpt lat="-37.97018592668718" lon="146.08682168321835"><ele>181.14285714285714</ele><time>2026-05-06T04:24:46.999Z</time></trkpt><trkpt lat="-37.97023169435657" lon="146.08688665942267"><ele>179.57142857142856</ele><time>2026-05-06T04:24:47.999Z</time></trkpt><trkpt lat="-37.970282476707574" lon="146.08694535397257"><ele>178.0</ele><time>2026-05-06T04:24:48.999Z</time></trkpt><trkpt lat="-37.97034459369742" lon="146.086999517157"><ele>178.0</ele><time>2026-05-06T04:24:49.999Z</time></trkpt><trkpt lat="-37.97040951034519" lon="146.0870507002379"><ele>178.0</ele><time>2026-05-06T04:24:50.999Z</time></trkpt><trkpt lat="-37.97048034424307" lon="146.0871095538833"><ele>178.0</ele><time>2026-05-06T04:24:51.999Z</time></trkpt><trkpt lat="-37.970584197483014" lon="146.08718500344784"><ele>178.0</ele><time>2026-05-06T04:24:53.999Z</time></trkpt><trkpt lat="-37.97072287322346" lon="146.08714866973557"><ele>178.0</ele><time>2026-05-06T04:24:55.999Z</time></trkpt><trkpt lat="-37.97078243350232" lon="146.08709243488758"><ele>177.8</ele><time>2026-05-06T04:24:56.999Z</time></trkpt><trkpt lat="-37.97087133777273" lon="146.08705527285315"><ele>177.60000000000002</ele><time>2026-05-06T04:24:58.999Z</time></trkpt><trkpt lat="-37.97094891946385" lon="146.086980215806"><ele>177.39999999999998</ele><time>2026-05-06T04:25:00.999Z</time></trkpt><trkpt lat="-37.97100053941773" lon="146.0868455824053"><ele>177.2</ele><time>2026-05-06T04:25:02.999Z</time></trkpt><trkpt lat="-37.97102761684514" lon="146.0867566914305"><ele>177.0</ele><time>2026-05-06T04:25:03.999Z</time></trkpt><trkpt lat="-37.971035654261605" lon="146.08659286577327"><ele>177.0</ele><time>2026-05-06T04:25:05.999Z</time></trkpt><trkpt lat="-37.971048954430756" lon="146.0865073490025"><ele>177.0</ele><time>2026-05-06T04:25:06.999Z</time></trkpt><trkpt lat="-37.97107093198114" lon="146.08642132387192"><ele>177.0</ele><time>2026-05-06T04:25:07.999Z</time></trkpt><trkpt lat="-37.97111484487507" lon="146.0863248872426"><ele>177.0</ele><time>2026-05-06T04:25:09.999Z</time></trkpt><trkpt lat="-37.97114769733276" lon="146.08620080700905"><ele>177.0</ele><time>2026-05-06T04:25:11.999Z</time></trkpt><trkpt lat="-37.971170889118234" lon="146.08611459800323"><ele>177.0</ele><time>2026-05-06T04:25:12.999Z</time></trkpt><trkpt lat="-37.97118559942172" lon="146.08602617074303"><ele>177.0</ele><time>2026-05-06T04:25:13.999Z</time></trkpt><trkpt lat="-37.97118650436653" lon="146.08593868903245"><ele>177.0</ele><time>2026-05-06T04:25:14.999Z</time></trkpt><trkpt lat="-37.97116547939653" lon="146.0857978218307"><ele>177.0</ele><time>2026-05-06T04:25:16.999Z</time></trkpt><trkpt lat="-37.971126354343326" lon="146.08565550999032"><ele>177.0</ele><time>2026-05-06T04:25:18.999Z</time></trkpt><trkpt lat="-37.97111626452616" lon="146.08557600383978"><ele>177.0</ele><time>2026-05-06T04:25:19.999Z</time></trkpt><trkpt lat="-37.971106921712305" lon="146.08549408911276"><ele>177.0</ele><time>2026-05-06T04:25:21Z</time></trkpt><trkpt lat="-37.971100155994655" lon="146.08540815060596"><ele>177.8</ele><time>2026-05-06T04:25:22Z</time></trkpt><trkpt lat="-37.97109835882242" lon="146.08523969679453"><ele>178.6</ele><time>2026-05-06T04:25:24Z</time></trkpt><trkpt lat="-37.9710862746954" lon="146.0851430413856"><ele>179.4</ele><time>2026-05-06T04:25:25Z</time></trkpt><trkpt lat="-37.97107519130477" lon="146.08503770129545"><ele>180.20000000000002</ele><time>2026-05-06T04:25:26Z</time></trkpt><trkpt lat="-37.97107611765047" lon="146.08492364889293"><ele>181.0</ele><time>2026-05-06T04:25:27Z</time></trkpt><trkpt lat="-37.9710798459685" lon="146.084793354747"><ele>182.0</ele><time>2026-05-06T04:25:28Z</time></trkpt><trkpt lat="-37.97108423812463" lon="146.0846700528891"><ele>183.0</ele><time>2026-05-06T04:25:29Z</time></trkpt><trkpt lat="-37.97109633390356" lon="146.08453689890777"><ele>184.0</ele><time>2026-05-06T04:25:30Z</time></trkpt><trkpt lat="-37.971130031365476" lon="146.08437334013615"><ele>185.0</ele><time>2026-05-06T04:25:31Z</time></trkpt><trkpt lat="-37.971191639778645" lon="146.08420031686646"><ele>184.5</ele><time>2026-05-06T04:25:32Z</time></trkpt><trkpt lat="-37.97124095838402" lon="146.08405367973205"><ele>184.0</ele><time>2026-05-06T04:25:33Z</time></trkpt><trkpt lat="-37.97130061719434" lon="146.08389849818315"><ele>183.5</ele><time>2026-05-06T04:25:34Z</time></trkpt><trkpt lat="-37.97137061795996" lon="146.08372493985866"><ele>183.0</ele><time>2026-05-06T04:25:35Z</time></trkpt><trkpt lat="-37.97143907396763" lon="146.08356021525321"><ele>183.0</ele><time>2026-05-06T04:25:36Z</time></trkpt><trkpt lat="-37.9714984541306" lon="146.08342512295945"><ele>183.0</ele><time>2026-05-06T04:25:37Z</time></trkpt><trkpt lat="-37.97155342845104" lon="146.0832503699391"><ele>183.0</ele><time>2026-05-06T04:25:38Z</time></trkpt><trkpt lat="-37.97161427285246" lon="146.08307173883247"><ele>183.0</ele><time>2026-05-06T04:25:39Z</time></trkpt><trkpt lat="-37.97168021988752" lon="146.08287797418342"><ele>185.66666666666666</ele><time>2026-05-06T04:25:40Z</time></trkpt><trkpt lat="-37.97174940993899" lon="146.08270460143603"><ele>188.33333333333331</ele><time>2026-05-06T04:25:41Z</time></trkpt><trkpt lat="-37.971844560819925" lon="146.08253632834533"><ele>191.0</ele><time>2026-05-06T04:25:42Z</time></trkpt><trkpt lat="-37.971969834812924" lon="146.0823640667848"><ele>191.0</ele><time>2026-05-06T04:25:43Z</time></trkpt><trkpt lat="-37.97204103394894" lon="146.0821687221054"><ele>191.0</ele><time>2026-05-06T04:25:44Z</time></trkpt><trkpt lat="-37.97210962668974" lon="146.082000239146"><ele>191.0</ele><time>2026-05-06T04:25:45Z</time></trkpt><trkpt lat="-37.972183775502074" lon="146.08183835713143"><ele>191.0</ele><time>2026-05-06T04:25:46Z</time></trkpt><trkpt lat="-37.97224085360553" lon="146.08169433281216"><ele>191.0</ele><time>2026-05-06T04:25:47Z</time></trkpt><trkpt lat="-37.972301241893156" lon="146.08156659431816"><ele>191.0</ele><time>2026-05-06T04:25:48Z</time></trkpt><trkpt lat="-37.972407579565065" lon="146.08143428042618"><ele>191.0</ele><time>2026-05-06T04:25:49Z</time></trkpt><trkpt lat="-37.97252113121498" lon="146.08131955246637"><ele>192.66666666666666</ele><time>2026-05-06T04:25:50Z</time></trkpt><trkpt lat="-37.9726394267047" lon="146.0812092279457"><ele>194.33333333333331</ele><time>2026-05-06T04:25:51Z</time></trkpt><trkpt lat="-37.97278670562601" lon="146.08111328858777"><ele>196.0</ele><time>2026-05-06T04:25:52Z</time></trkpt><trkpt lat="-37.972961642059055" lon="146.08101246768115"><ele>196.0</ele><time>2026-05-06T04:25:53Z</time></trkpt><trkpt lat="-37.9731371114874" lon="146.08091798562333"><ele>196.0</ele><time>2026-05-06T04:25:54Z</time></trkpt><trkpt lat="-37.97329062103284" lon="146.0808514580003"><ele>196.0</ele><time>2026-05-06T04:25:55Z</time></trkpt><trkpt lat="-37.97345837136666" lon="146.08080490369073"><ele>197.66666666666666</ele><time>2026-05-06T04:25:56Z</time></trkpt><trkpt lat="-37.97363323172884" lon="146.08074261087043"><ele>199.33333333333331</ele><time>2026-05-06T04:25:57Z</time></trkpt><trkpt lat="-37.97376991263344" lon="146.0806726735683"><ele>201.0</ele><time>2026-05-06T04:25:58Z</time></trkpt><trkpt lat="-37.973912674004936" lon="146.08060883133723"><ele>201.0</ele><time>2026-05-06T04:25:59Z</time></trkpt><trkpt lat="-37.97405854147606" lon="146.08052980497672"><ele>201.0</ele><time>2026-05-06T04:26:00Z</time></trkpt><trkpt lat="-37.974202630028685" lon="146.08046147095178"><ele>201.0</ele><time>2026-05-06T04:26:01Z</time></trkpt><trkpt lat="-37.974309387180035" lon="146.08038943739678"><ele>201.0</ele><time>2026-05-06T04:26:02Z</time></trkpt><trkpt lat="-37.9744100598599" lon="146.08028673721913"><ele>206.25</ele><time>2026-05-06T04:26:03Z</time></trkpt><trkpt lat="-37.97450489913295" lon="146.08014190264947"><ele>211.5</ele><time>2026-05-06T04:26:04Z</time></trkpt><trkpt lat="-37.97461040888001" lon="146.0800094644202"><ele>216.75</ele><time>2026-05-06T04:26:05Z</time></trkpt><trkpt lat="-37.97469849954523" lon="146.07990192172562"><ele>222.0</ele><time>2026-05-06T04:26:06Z</time></trkpt><trkpt lat="-37.97476784723786" lon="146.0798127546732"><ele>222.8</ele><time>2026-05-06T04:26:07Z</time></trkpt><trkpt lat="-37.97480699660069" lon="146.07970681644758"><ele>223.6</ele><time>2026-05-06T04:26:08Z</time></trkpt><trkpt lat="-37.974806036799926" lon="146.07960429657845"><ele>224.40000000000003</ele><time>2026-05-06T04:26:09Z</time></trkpt><trkpt lat="-37.97476618298393" lon="146.07950724188174"><ele>225.20000000000002</ele><time>2026-05-06T04:26:10Z</time></trkpt><trkpt lat="-37.97469582227643" lon="146.0794320080203"><ele>226.0</ele><time>2026-05-06T04:26:11Z</time></trkpt><trkpt lat="-37.974600117303034" lon="146.07939719484818"><ele>226.0</ele><time>2026-05-06T04:26:12Z</time></trkpt><trkpt lat="-37.97449157337174" lon="146.07937117223082"><ele>226.0</ele><time>2026-05-06T04:26:13Z</time></trkpt><trkpt lat="-37.97436782628726" lon="146.07933662623267"><ele>226.0</ele><time>2026-05-06T04:26:14Z</time></trkpt><trkpt lat="-37.97426626675034" lon="146.07927778566156"><ele>226.0</ele><time>2026-05-06T04:26:15Z</time></trkpt><trkpt lat="-37.97418631112224" lon="146.07919276828272"><ele>223.8</ele><time>2026-05-06T04:26:16Z</time></trkpt><trkpt lat="-37.97412681213602" lon="146.07908781307557"><ele>221.60000000000002</ele><time>2026-05-06T04:26:17Z</time></trkpt><trkpt lat="-37.974120850735545" lon="146.0789518845483"><ele>219.4</ele><time>2026-05-06T04:26:18Z</time></trkpt><trkpt lat="-37.97412324083685" lon="146.07882372033416"><ele>217.2</ele><time>2026-05-06T04:26:19Z</time></trkpt><trkpt lat="-37.97414229719198" lon="146.0787075561591"><ele>215.0</ele><time>2026-05-06T04:26:20Z</time></trkpt><trkpt lat="-37.97417993044186" lon="146.07858837991202"><ele>215.0</ele><time>2026-05-06T04:26:21Z</time></trkpt><trkpt lat="-37.97423198904254" lon="146.07845699992947"><ele>215.0</ele><time>2026-05-06T04:26:22Z</time></trkpt><trkpt lat="-37.974292942509635" lon="146.07832655450267"><ele>215.0</ele><time>2026-05-06T04:26:22.999Z</time></trkpt><trkpt lat="-37.974367043944255" lon="146.07819860019794"><ele>215.0</ele><time>2026-05-06T04:26:23.999Z</time></trkpt><trkpt lat="-37.97446315600154" lon="146.07807073242128"><ele>215.0</ele><time>2026-05-06T04:26:24.999Z</time></trkpt><trkpt lat="-37.9745720983719" lon="146.07796838867122"><ele>215.0</ele><time>2026-05-06T04:26:25.999Z</time></trkpt><trkpt lat="-37.97469733015828" lon="146.07788721129944"><ele>215.0</ele><time>2026-05-06T04:26:26.999Z</time></trkpt><trkpt lat="-37.974838807679674" lon="146.07781419059043"><ele>215.0</ele><time>2026-05-06T04:26:27.999Z</time></trkpt><trkpt lat="-37.97499289206585" lon="146.0777527327572"><ele>216.0</ele><time>2026-05-06T04:26:28.999Z</time></trkpt><trkpt lat="-37.97512804144225" lon="146.07771379198147"><ele>217.0</ele><time>2026-05-06T04:26:29.999Z</time></trkpt><trkpt lat="-37.97526554943455" lon="146.07769164196162"><ele>218.0</ele><time>2026-05-06T04:26:30.999Z</time></trkpt><trkpt lat="-37.97541181270829" lon="146.0776868547417"><ele>219.0</ele><time>2026-05-06T04:26:31.999Z</time></trkpt><trkpt lat="-37.975567187455574" lon="146.07770503722605"><ele>219.0</ele><time>2026-05-06T04:26:32.999Z</time></trkpt><trkpt lat="-37.97568057157963" lon="146.0777407865748"><ele>219.0</ele><time>2026-05-06T04:26:33.999Z</time></trkpt><trkpt lat="-37.975781679907" lon="146.07781404208617"><ele>219.0</ele><time>2026-05-06T04:26:34.999Z</time></trkpt><trkpt lat="-37.97585512715092" lon="146.07790022540277"><ele>219.0</ele><time>2026-05-06T04:26:35.999Z</time></trkpt><trkpt lat="-37.97595051114281" lon="146.07799603895538"><ele>217.75</ele><time>2026-05-06T04:26:36.999Z</time></trkpt><trkpt lat="-37.976022210305516" lon="146.0781178685742"><ele>216.5</ele><time>2026-05-06T04:26:37.999Z</time></trkpt><trkpt lat="-37.976078287959965" lon="146.0782684713527"><ele>215.25</ele><time>2026-05-06T04:26:38.999Z</time></trkpt><trkpt lat="-37.976145022285834" lon="146.0784192196357"><ele>214.0</ele><time>2026-05-06T04:26:39.999Z</time></trkpt><trkpt lat="-37.97623483254621" lon="146.07851945467468"><ele>217.25</ele><time>2026-05-06T04:26:40.999Z</time></trkpt><trkpt lat="-37.97635955427636" lon="146.07857362831248"><ele>220.5</ele><time>2026-05-06T04:26:41.999Z</time></trkpt><trkpt lat="-37.97648799153222" lon="146.07859949321298"><ele>223.75</ele><time>2026-05-06T04:26:42.999Z</time></trkpt><trkpt lat="-37.976624601554846" lon="146.07861408511343"><ele>227.0</ele><time>2026-05-06T04:26:43.999Z</time></trkpt><trkpt lat="-37.976763480470666" lon="146.07863166990072"><ele>229.5</ele><time>2026-05-06T04:26:44.999Z</time></trkpt><trkpt lat="-37.97690463339445" lon="146.07864355749285"><ele>232.0</ele><time>2026-05-06T04:26:45.999Z</time></trkpt><trkpt lat="-37.977048506418804" lon="146.07862028959732"><ele>234.5</ele><time>2026-05-06T04:26:46.999Z</time></trkpt><trkpt lat="-37.97718357054802" lon="146.07855941608707"><ele>237.0</ele><time>2026-05-06T04:26:47.999Z</time></trkpt><trkpt lat="-37.9773200268298" lon="146.0784484955115"><ele>237.0</ele><time>2026-05-06T04:26:48.999Z</time></trkpt><trkpt lat="-37.97744382491379" lon="146.07832620048134"><ele>237.0</ele><time>2026-05-06T04:26:49.999Z</time></trkpt><trkpt lat="-37.97756428805501" lon="146.07816562718608"><ele>237.0</ele><time>2026-05-06T04:26:50.999Z</time></trkpt><trkpt lat="-37.97768030615343" lon="146.07802654633915"><ele>239.75</ele><time>2026-05-06T04:26:51.999Z</time></trkpt><trkpt lat="-37.97779394788207" lon="146.07789774805372"><ele>242.5</ele><time>2026-05-06T04:26:52.999Z</time></trkpt><trkpt lat="-37.97789908383469" lon="146.07776931652498"><ele>245.25</ele><time>2026-05-06T04:26:53.999Z</time></trkpt><trkpt lat="-37.97801594743395" lon="146.0776547361253"><ele>248.0</ele><time>2026-05-06T04:26:54.999Z</time></trkpt><trkpt lat="-37.97812404471862" lon="146.0775252888911"><ele>247.5</ele><time>2026-05-06T04:26:55.999Z</time></trkpt><trkpt lat="-37.97823014749113" lon="146.07739267278822"><ele>247.0</ele><time>2026-05-06T04:26:56.999Z</time></trkpt><trkpt lat="-37.97833311881316" lon="146.07726397057647"><ele>246.5</ele><time>2026-05-06T04:26:57.999Z</time></trkpt><trkpt lat="-37.97842278850674" lon="146.07715782118237"><ele>246.0</ele><time>2026-05-06T04:26:58.999Z</time></trkpt><trkpt lat="-37.978494585756444" lon="146.0770495597883"><ele>250.4</ele><time>2026-05-06T04:26:59.999Z</time></trkpt><trkpt lat="-37.97857582572557" lon="146.07695876375797"><ele>254.8</ele><time>2026-05-06T04:27:00.999Z</time></trkpt><trkpt lat="-37.978638992126335" lon="146.07685712903995"><ele>259.20000000000005</ele><time>2026-05-06T04:27:01.999Z</time></trkpt><trkpt lat="-37.9786736027297" lon="146.07673894101657"><ele>263.6</ele><time>2026-05-06T04:27:02.999Z</time></trkpt><trkpt lat="-37.97867778918578" lon="146.076611999977"><ele>268.0</ele><time>2026-05-06T04:27:03.999Z</time></trkpt><trkpt lat="-37.97867723138172" lon="146.07647856107076"><ele>268.0</ele><time>2026-05-06T04:27:04.999Z</time></trkpt><trkpt lat="-37.97864934464624" lon="146.07634334088152"><ele>268.0</ele><time>2026-05-06T04:27:05.999Z</time></trkpt><trkpt lat="-37.97859187341261" lon="146.07623365955376"><ele>268.0</ele><time>2026-05-06T04:27:06.999Z</time></trkpt><trkpt lat="-37.978530856716894" lon="146.076111297643"><ele>268.0</ele><time>2026-05-06T04:27:07.999Z</time></trkpt><trkpt lat="-37.97842789058843" lon="146.0759877937131"><ele>265.75</ele><time>2026-05-06T04:27:08.999Z</time></trkpt><trkpt lat="-37.978349843240096" lon="146.0758899516663"><ele>263.5</ele><time>2026-05-06T04:27:09.999Z</time></trkpt><trkpt lat="-37.978292358007" lon="146.07580223743008"><ele>261.25</ele><time>2026-05-06T04:27:10.999Z</time></trkpt><trkpt lat="-37.97832753170662" lon="146.07568538876112"><ele>259.0</ele><time>2026-05-06T04:27:12.999Z</time></trkpt><trkpt lat="-37.978441975681754" lon="146.07553787287128"><ele>259.0</ele><time>2026-05-06T04:27:14.999Z</time></trkpt><trkpt lat="-37.97852923048914" lon="146.07542151885679"><ele>259.0</ele><time>2026-05-06T04:27:15.999Z</time></trkpt><trkpt lat="-37.9786268285947" lon="146.07530586861174"><ele>259.0</ele><time>2026-05-06T04:27:16.999Z</time></trkpt><trkpt lat="-37.97874701353326" lon="146.07520132616744"><ele>259.0</ele><time>2026-05-06T04:27:17.999Z</time></trkpt><trkpt lat="-37.978855708412745" lon="146.07507055275937"><ele>259.0</ele><time>2026-05-06T04:27:18.999Z</time></trkpt><trkpt lat="-37.97898011587696" lon="146.0749596389195"><ele>259.0</ele><time>2026-05-06T04:27:19.999Z</time></trkpt><trkpt lat="-37.979101688131585" lon="146.07482299293224"><ele>259.0</ele><time>2026-05-06T04:27:20.999Z</time></trkpt><trkpt lat="-37.979200875746834" lon="146.07470261184903"><ele>262.75</ele><time>2026-05-06T04:27:21.999Z</time></trkpt><trkpt lat="-37.9793218785828" lon="146.07457698693696"><ele>266.5</ele><time>2026-05-06T04:27:22.999Z</time></trkpt><trkpt lat="-37.97942540293904" lon="146.07445088704006"><ele>270.25</ele><time>2026-05-06T04:27:23.999Z</time></trkpt><trkpt lat="-37.979514792512106" lon="146.074310308556"><ele>274.0</ele><time>2026-05-06T04:27:24.999Z</time></trkpt><trkpt lat="-37.979588779743395" lon="146.07414616199213"><ele>272.75</ele><time>2026-05-06T04:27:26Z</time></trkpt><trkpt lat="-37.97967671230867" lon="146.0739940749805"><ele>271.5</ele><time>2026-05-06T04:27:27Z</time></trkpt><trkpt lat="-37.979727293917854" lon="146.07384470367342"><ele>270.25</ele><time>2026-05-06T04:27:28Z</time></trkpt><trkpt lat="-37.97975945568362" lon="146.07370860759224"><ele>269.0</ele><time>2026-05-06T04:27:29Z</time></trkpt><trkpt lat="-37.979773485115395" lon="146.0735520991028"><ele>269.0</ele><time>2026-05-06T04:27:30Z</time></trkpt><trkpt lat="-37.979792054414254" lon="146.073374384224"><ele>269.0</ele><time>2026-05-06T04:27:31Z</time></trkpt><trkpt lat="-37.979775133664056" lon="146.07317721891908"><ele>269.0</ele><time>2026-05-06T04:27:32Z</time></trkpt><trkpt lat="-37.9797278455849" lon="146.07301311323474"><ele>269.0</ele><time>2026-05-06T04:27:33Z</time></trkpt><trkpt lat="-37.979688028465446" lon="146.0728429248056"><ele>269.33333333333337</ele><time>2026-05-06T04:27:34Z</time></trkpt><trkpt lat="-37.979660606512866" lon="146.07266093263698"><ele>269.6666666666667</ele><time>2026-05-06T04:27:35Z</time></trkpt><trkpt lat="-37.97959862092888" lon="146.07246184346914"><ele>270.0</ele><time>2026-05-06T04:27:36Z</time></trkpt><trkpt lat="-37.979536540150306" lon="146.0722816827911"><ele>270.25</ele><time>2026-05-06T04:27:37Z</time></trkpt><trkpt lat="-37.97949762763162" lon="146.07213806832854"><ele>270.5</ele><time>2026-05-06T04:27:38Z</time></trkpt><trkpt lat="-37.97947768852677" lon="146.0720106515631"><ele>270.75</ele><time>2026-05-06T04:27:39Z</time></trkpt><trkpt lat="-37.97947276657879" lon="146.0718837041696"><ele>271.0</ele><time>2026-05-06T04:27:40Z</time></trkpt><trkpt lat="-37.9794789297706" lon="146.07171385427364"><ele>271.3333333333333</ele><time>2026-05-06T04:27:41Z</time></trkpt><trkpt lat="-37.97948208946896" lon="146.07153253257553"><ele>271.6666666666667</ele><time>2026-05-06T04:27:42Z</time></trkpt><trkpt lat="-37.979523435589286" lon="146.0713336856571"><ele>272.0</ele><time>2026-05-06T04:27:43Z</time></trkpt><trkpt lat="-37.979554740162556" lon="146.0711526987302"><ele>272.0</ele><time>2026-05-06T04:27:44Z</time></trkpt><trkpt lat="-37.979591807725335" lon="146.07097198452126"><ele>272.0</ele><time>2026-05-06T04:27:45Z</time></trkpt><trkpt lat="-37.97963851632612" lon="146.0707819228941"><ele>272.0</ele><time>2026-05-06T04:27:46Z</time></trkpt><trkpt lat="-37.97969046293379" lon="146.07061245212716"><ele>272.0</ele><time>2026-05-06T04:27:47Z</time></trkpt><trkpt lat="-37.97974495268083" lon="146.07046291204898"><ele>272.6</ele><time>2026-05-06T04:27:48Z</time></trkpt><trkpt lat="-37.979792066728216" lon="146.07031734306702"><ele>273.2</ele><time>2026-05-06T04:27:49Z</time></trkpt><trkpt lat="-37.97985188059755" lon="146.07017862500632"><ele>273.8</ele><time>2026-05-06T04:27:50Z</time></trkpt><trkpt lat="-37.979930044083325" lon="146.0701198544184"><ele>274.4</ele><time>2026-05-06T04:27:51Z</time></trkpt><trkpt lat="-37.98000495026367" lon="146.07005919723568"><ele>275.0</ele><time>2026-05-06T04:27:52Z</time></trkpt><trkpt lat="-37.98009186313991" lon="146.07001271664132"><ele>276.5</ele><time>2026-05-06T04:27:53Z</time></trkpt><trkpt lat="-37.980204319923445" lon="146.06992125523294"><ele>278.0</ele><time>2026-05-06T04:27:54Z</time></trkpt><trkpt lat="-37.98033134088377" lon="146.06982607868252"><ele>279.5</ele><time>2026-05-06T04:27:55Z</time></trkpt><trkpt lat="-37.98043979641158" lon="146.06972790623462"><ele>281.0</ele><time>2026-05-06T04:27:56Z</time></trkpt><trkpt lat="-37.98054260410455" lon="146.06961677265636"><ele>281.0</ele><time>2026-05-06T04:27:57Z</time></trkpt><trkpt lat="-37.98063950151862" lon="146.06952365006498"><ele>281.0</ele><time>2026-05-06T04:27:58Z</time></trkpt><trkpt lat="-37.9807424313957" lon="146.06946236211218"><ele>281.0</ele><time>2026-05-06T04:27:59Z</time></trkpt><trkpt lat="-37.980852292094454" lon="146.06942682956662"><ele>281.0</ele><time>2026-05-06T04:28:00Z</time></trkpt><trkpt lat="-37.98097999107701" lon="146.06942961665405"><ele>277.8</ele><time>2026-05-06T04:28:01Z</time></trkpt><trkpt lat="-37.98110718689952" lon="146.06942312012848"><ele>274.6</ele><time>2026-05-06T04:28:02Z</time></trkpt><trkpt lat="-37.981210843239786" lon="146.06940205266142"><ele>271.4</ele><time>2026-05-06T04:28:03Z</time></trkpt><trkpt lat="-37.98131451181702" lon="146.06936060595467"><ele>268.2</ele><time>2026-05-06T04:28:04Z</time></trkpt><trkpt lat="-37.98140460801816" lon="146.06930942606067"><ele>265.0</ele><time>2026-05-06T04:28:05Z</time></trkpt><trkpt lat="-37.98148020623306" lon="146.06923966204886"><ele>265.0</ele><time>2026-05-06T04:28:06Z</time></trkpt><trkpt lat="-37.98157936798218" lon="146.06914078421752"><ele>265.0</ele><time>2026-05-06T04:28:07Z</time></trkpt><trkpt lat="-37.98169124718257" lon="146.06901759499635"><ele>265.0</ele><time>2026-05-06T04:28:08Z</time></trkpt><trkpt lat="-37.98178585711379" lon="146.0688901945931"><ele>265.0</ele><time>2026-05-06T04:28:09Z</time></trkpt><trkpt lat="-37.98186126083837" lon="146.06876298212"><ele>265.0</ele><time>2026-05-06T04:28:10Z</time></trkpt><trkpt lat="-37.98194722185622" lon="146.0686579430651"><ele>265.0</ele><time>2026-05-06T04:28:11Z</time></trkpt><trkpt lat="-37.982019691038715" lon="146.06854768625834"><ele>265.0</ele><time>2026-05-06T04:28:12Z</time></trkpt><trkpt lat="-37.98207460425602" lon="146.06842896883597"><ele>265.0</ele><time>2026-05-06T04:28:13Z</time></trkpt><trkpt lat="-37.98212592536104" lon="146.06831714311798"><ele>265.0</ele><time>2026-05-06T04:28:14Z</time></trkpt><trkpt lat="-37.98214947819461" lon="146.06816433707928"><ele>265.0</ele><time>2026-05-06T04:28:15Z</time></trkpt><trkpt lat="-37.98213600436847" lon="146.06800734922766"><ele>265.0</ele><time>2026-05-06T04:28:16Z</time></trkpt><trkpt lat="-37.98212033801137" lon="146.06786571611428"><ele>265.0</ele><time>2026-05-06T04:28:17Z</time></trkpt><trkpt lat="-37.98211686660613" lon="146.06773314522184"><ele>265.0</ele><time>2026-05-06T04:28:18Z</time></trkpt><trkpt lat="-37.98213797671411" lon="146.06765672449046"><ele>265.0</ele><time>2026-05-06T04:28:19Z</time></trkpt><trkpt lat="-37.98218231490237" lon="146.0675621233831"><ele>265.0</ele><time>2026-05-06T04:28:20Z</time></trkpt><trkpt lat="-37.982293044240706" lon="146.06746323235038"><ele>265.0</ele><time>2026-05-06T04:28:22Z</time></trkpt><trkpt lat="-37.98236766713904" lon="146.0674755367489"><ele>265.0</ele><time>2026-05-06T04:28:23Z</time></trkpt><trkpt lat="-37.982469701379095" lon="146.0675115765995"><ele>265.0</ele><time>2026-05-06T04:28:24Z</time></trkpt><trkpt lat="-37.98258587747362" lon="146.06757658203742"><ele>265.0</ele><time>2026-05-06T04:28:24.999Z</time></trkpt><trkpt lat="-37.98270447898891" lon="146.06765505743377"><ele>263.0</ele><time>2026-05-06T04:28:25.999Z</time></trkpt><trkpt lat="-37.98280419655569" lon="146.06772687780344"><ele>261.0</ele><time>2026-05-06T04:28:26.999Z</time></trkpt><trkpt lat="-37.98290032493243" lon="146.06779016433765"><ele>259.0</ele><time>2026-05-06T04:28:27.999Z</time></trkpt><trkpt lat="-37.98300382399926" lon="146.06784698415433"><ele>257.0</ele><time>2026-05-06T04:28:28.999Z</time></trkpt><trkpt lat="-37.98311086413393" lon="146.0679195152087"><ele>257.0</ele><time>2026-05-06T04:28:29.999Z</time></trkpt><trkpt lat="-37.98320682834043" lon="146.0679548023923"><ele>257.0</ele><time>2026-05-06T04:28:30.999Z</time></trkpt><trkpt lat="-37.983302796421" lon="146.06797482933536"><ele>257.0</ele><time>2026-05-06T04:28:31.999Z</time></trkpt><trkpt lat="-37.98339841466158" lon="146.06798065360493"><ele>257.0</ele><time>2026-05-06T04:28:32.999Z</time></trkpt><trkpt lat="-37.983469440389094" lon="146.06794273634222"><ele>257.0</ele><time>2026-05-06T04:28:33.999Z</time></trkpt><trkpt lat="-37.983537989856345" lon="146.06785254071735"><ele>254.0</ele><time>2026-05-06T04:28:34.999Z</time></trkpt><trkpt lat="-37.98359571062025" lon="146.06772923958903"><ele>251.0</ele><time>2026-05-06T04:28:35.999Z</time></trkpt><trkpt lat="-37.98364909486313" lon="146.06759807765087"><ele>248.0</ele><time>2026-05-06T04:28:36.999Z</time></trkpt><trkpt lat="-37.98369427237197" lon="146.067452954042"><ele>245.0</ele><time>2026-05-06T04:28:37.999Z</time></trkpt><trkpt lat="-37.98373033041375" lon="146.06730914850039"><ele>245.0</ele><time>2026-05-06T04:28:38.999Z</time></trkpt><trkpt lat="-37.98374607389466" lon="146.06718183314814"><ele>245.0</ele><time>2026-05-06T04:28:39.999Z</time></trkpt><trkpt lat="-37.98376874113057" lon="146.06703712897988"><ele>245.0</ele><time>2026-05-06T04:28:40.999Z</time></trkpt><trkpt lat="-37.983757725900794" lon="146.06688234109194"><ele>245.0</ele><time>2026-05-06T04:28:41.999Z</time></trkpt><trkpt lat="-37.98371101037468" lon="146.06672309623158"><ele>245.75</ele><time>2026-05-06T04:28:42.999Z</time></trkpt><trkpt lat="-37.983675539503395" lon="146.06654672693045"><ele>246.5</ele><time>2026-05-06T04:28:43.999Z</time></trkpt><trkpt lat="-37.983666093839645" lon="146.06634858761205"><ele>247.25</ele><time>2026-05-06T04:28:44.999Z</time></trkpt><trkpt lat="-37.98366345322447" lon="146.06616306198725"><ele>248.0</ele><time>2026-05-06T04:28:45.999Z</time></trkpt><trkpt lat="-37.983657778280936" lon="146.0659903519572"><ele>248.0</ele><time>2026-05-06T04:28:46.999Z</time></trkpt><trkpt lat="-37.98363693800999" lon="146.06583464536914"><ele>248.0</ele><time>2026-05-06T04:28:47.999Z</time></trkpt><trkpt lat="-37.98359212793983" lon="146.0657005863688"><ele>248.0</ele><time>2026-05-06T04:28:48.999Z</time></trkpt><trkpt lat="-37.983508805289475" lon="146.06555049691246"><ele>248.0</ele><time>2026-05-06T04:28:49.999Z</time></trkpt><trkpt lat="-37.983449920074214" lon="146.06538002276955"><ele>248.75</ele><time>2026-05-06T04:28:50.999Z</time></trkpt><trkpt lat="-37.9833847442694" lon="146.06520712030215"><ele>249.5</ele><time>2026-05-06T04:28:51.999Z</time></trkpt><trkpt lat="-37.98332143522341" lon="146.06503434091442"><ele>250.25</ele><time>2026-05-06T04:28:52.999Z</time></trkpt><trkpt lat="-37.9832932060609" lon="146.06487781550948"><ele>251.0</ele><time>2026-05-06T04:28:53.999Z</time></trkpt><trkpt lat="-37.983310418215886" lon="146.0647189474352"><ele>253.0</ele><time>2026-05-06T04:28:54.999Z</time></trkpt><trkpt lat="-37.983353381897274" lon="146.06458145670652"><ele>255.0</ele><time>2026-05-06T04:28:55.999Z</time></trkpt><trkpt lat="-37.9834077469417" lon="146.06441537294387"><ele>257.0</ele><time>2026-05-06T04:28:56.999Z</time></trkpt><trkpt lat="-37.983461592711585" lon="146.06424582142407"><ele>259.0</ele><time>2026-05-06T04:28:57.999Z</time></trkpt><trkpt lat="-37.983489826389075" lon="146.06406675093268"><ele>261.0</ele><time>2026-05-06T04:28:58.999Z</time></trkpt><trkpt lat="-37.98353701429474" lon="146.06392534356186"><ele>263.0</ele><time>2026-05-06T04:28:59.999Z</time></trkpt><trkpt lat="-37.98354922142687" lon="146.06378696235504"><ele>265.0</ele><time>2026-05-06T04:29:00.999Z</time></trkpt><trkpt lat="-37.98354755794121" lon="146.06362489011624"><ele>267.0</ele><time>2026-05-06T04:29:01.999Z</time></trkpt><trkpt lat="-37.98354518553208" lon="146.06344314706342"><ele>269.6666666666667</ele><time>2026-05-06T04:29:02.999Z</time></trkpt><trkpt lat="-37.983535512474944" lon="146.0632541997216"><ele>272.33333333333337</ele><time>2026-05-06T04:29:03.999Z</time></trkpt><trkpt lat="-37.983510140438135" lon="146.0630428572192"><ele>275.0</ele><time>2026-05-06T04:29:04.999Z</time></trkpt><trkpt lat="-37.98348087119198" lon="146.0628452218534"><ele>275.0</ele><time>2026-05-06T04:29:05.999Z</time></trkpt><trkpt lat="-37.98345070568888" lon="146.0626412762647"><ele>275.0</ele><time>2026-05-06T04:29:06.999Z</time></trkpt><trkpt lat="-37.98342960546181" lon="146.0624385013417"><ele>275.0</ele><time>2026-05-06T04:29:07.999Z</time></trkpt><trkpt lat="-37.98342456661105" lon="146.062232574128"><ele>276.0</ele><time>2026-05-06T04:29:08.999Z</time></trkpt><trkpt lat="-37.98343232095778" lon="146.06201883186802"><ele>277.0</ele><time>2026-05-06T04:29:09.999Z</time></trkpt><trkpt lat="-37.98344657978545" lon="146.06182671764637"><ele>278.0</ele><time>2026-05-06T04:29:10.999Z</time></trkpt><trkpt lat="-37.983459011004925" lon="146.06164815543391"><ele>279.0</ele><time>2026-05-06T04:29:11.999Z</time></trkpt><trkpt lat="-37.983467538905856" lon="146.06147315171953"><ele>280.0</ele><time>2026-05-06T04:29:12.999Z</time></trkpt><trkpt lat="-37.98346635577259" lon="146.0612805059536"><ele>281.0</ele><time>2026-05-06T04:29:13.999Z</time></trkpt><trkpt lat="-37.983482372753706" lon="146.06109825868816"><ele>282.0</ele><time>2026-05-06T04:29:14.999Z</time></trkpt><trkpt lat="-37.98347026887662" lon="146.06089507675097"><ele>284.0</ele><time>2026-05-06T04:29:15.999Z</time></trkpt><trkpt lat="-37.98347504358972" lon="146.06069507696265"><ele>286.0</ele><time>2026-05-06T04:29:16.999Z</time></trkpt><trkpt lat="-37.98347250432175" lon="146.06049235985432"><ele>288.0</ele><time>2026-05-06T04:29:17.999Z</time></trkpt><trkpt lat="-37.98346781947819" lon="146.06029434777525"><ele>288.0</ele><time>2026-05-06T04:29:18.999Z</time></trkpt><trkpt lat="-37.98345897201379" lon="146.06009993776775"><ele>288.0</ele><time>2026-05-06T04:29:19.999Z</time></trkpt><trkpt lat="-37.98344776215259" lon="146.05990791390775"><ele>288.0</ele><time>2026-05-06T04:29:20.999Z</time></trkpt><trkpt lat="-37.98344292357239" lon="146.05973078055925"><ele>288.0</ele><time>2026-05-06T04:29:21.999Z</time></trkpt><trkpt lat="-37.983389777494125" lon="146.0595268978695"><ele>289.0</ele><time>2026-05-06T04:29:22.999Z</time></trkpt><trkpt lat="-37.98338790239868" lon="146.05934765551817"><ele>290.0</ele><time>2026-05-06T04:29:23.999Z</time></trkpt><trkpt lat="-37.98338730257415" lon="146.059162423237"><ele>291.0</ele><time>2026-05-06T04:29:24.999Z</time></trkpt><trkpt lat="-37.98339204434332" lon="146.05897830717873"><ele>292.0</ele><time>2026-05-06T04:29:25.999Z</time></trkpt><trkpt lat="-37.9834089611311" lon="146.05877750596292"><ele>294.66666666666663</ele><time>2026-05-06T04:29:26.999Z</time></trkpt><trkpt lat="-37.98340583776938" lon="146.0586011320583"><ele>297.3333333333333</ele><time>2026-05-06T04:29:27.999Z</time></trkpt><trkpt lat="-37.98334278093423" lon="146.05831608404245"><ele>300.0</ele><time>2026-05-06T04:29:28.999Z</time></trkpt><trkpt lat="-37.983298001073216" lon="146.05811460762175"><ele>294.0</ele><time>2026-05-06T04:29:29.999Z</time></trkpt><trkpt lat="-37.98325462144882" lon="146.057921640662"><ele>288.0</ele><time>2026-05-06T04:29:30.999Z</time></trkpt><trkpt lat="-37.983209400056815" lon="146.057726918102"><ele>282.0</ele><time>2026-05-06T04:29:32Z</time></trkpt><trkpt lat="-37.983161529962594" lon="146.05751483652793"><ele>283.6666666666667</ele><time>2026-05-06T04:29:33Z</time></trkpt><trkpt lat="-37.98313957473766" lon="146.0573099654891"><ele>285.33333333333337</ele><time>2026-05-06T04:29:34Z</time></trkpt><trkpt lat="-37.98310294244965" lon="146.0571191246967"><ele>287.0</ele><time>2026-05-06T04:29:35Z</time></trkpt><trkpt lat="-37.98307041130357" lon="146.0569344232304"><ele>287.0</ele><time>2026-05-06T04:29:36Z</time></trkpt><trkpt lat="-37.98304662681068" lon="146.0567483769815"><ele>287.0</ele><time>2026-05-06T04:29:37Z</time></trkpt><trkpt lat="-37.983032830234684" lon="146.05655953133768"><ele>287.0</ele><time>2026-05-06T04:29:38Z</time></trkpt><trkpt lat="-37.98303328684713" lon="146.05637454211228"><ele>287.0</ele><time>2026-05-06T04:29:39Z</time></trkpt><trkpt lat="-37.98304564775511" lon="146.0561739060404"><ele>289.0</ele><time>2026-05-06T04:29:40Z</time></trkpt><trkpt lat="-37.98306394610148" lon="146.05597514471754"><ele>291.0</ele><time>2026-05-06T04:29:41Z</time></trkpt><trkpt lat="-37.98308602944928" lon="146.0557785039176"><ele>293.0</ele><time>2026-05-06T04:29:42Z</time></trkpt><trkpt lat="-37.983109987189174" lon="146.0555799692588"><ele>293.6666666666667</ele><time>2026-05-06T04:29:43Z</time></trkpt><trkpt lat="-37.98313379887793" lon="146.05537907607078"><ele>294.3333333333333</ele><time>2026-05-06T04:29:44Z</time></trkpt><trkpt lat="-37.983143138819365" lon="146.05517399048802"><ele>295.0</ele><time>2026-05-06T04:29:45Z</time></trkpt><trkpt lat="-37.98317137119774" lon="146.05497302427938"><ele>297.0</ele><time>2026-05-06T04:29:46Z</time></trkpt><trkpt lat="-37.983194664052284" lon="146.05478507911803"><ele>299.0</ele><time>2026-05-06T04:29:47Z</time></trkpt><trkpt lat="-37.9832157831572" lon="146.05461567395253"><ele>301.0</ele><time>2026-05-06T04:29:48Z</time></trkpt><trkpt lat="-37.983230487964626" lon="146.05448126726674"><ele>303.0</ele><time>2026-05-06T04:29:49Z</time></trkpt><trkpt lat="-37.983209311736346" lon="146.0543644053622"><ele>303.0</ele><time>2026-05-06T04:29:50Z</time></trkpt><trkpt lat="-37.98315853736451" lon="146.0542628706881"><ele>303.0</ele><time>2026-05-06T04:29:51Z</time></trkpt><trkpt lat="-37.98307833078317" lon="146.05419809437942"><ele>303.0</ele><time>2026-05-06T04:29:52Z</time></trkpt><trkpt lat="-37.98298340678416" lon="146.05417635770777"><ele>303.0</ele><time>2026-05-06T04:29:53Z</time></trkpt><trkpt lat="-37.982876133951414" lon="146.05414399819864"><ele>303.0</ele><time>2026-05-06T04:29:54Z</time></trkpt><trkpt lat="-37.98280148312406" lon="146.05404041488535"><ele>304.8</ele><time>2026-05-06T04:29:55Z</time></trkpt><trkpt lat="-37.98274638741033" lon="146.05391466009718"><ele>306.6</ele><time>2026-05-06T04:29:56Z</time></trkpt><trkpt lat="-37.98271719767265" lon="146.05378588950063"><ele>308.4</ele><time>2026-05-06T04:29:57Z</time></trkpt><trkpt lat="-37.982708217910385" lon="146.05365116451955"><ele>310.2</ele><time>2026-05-06T04:29:58Z</time></trkpt><trkpt lat="-37.98272240019032" lon="146.0534963943031"><ele>312.0</ele><time>2026-05-06T04:29:59Z</time></trkpt><trkpt lat="-37.98275422030422" lon="146.05333698852667"><ele>313.3333333333333</ele><time>2026-05-06T04:30:00Z</time></trkpt><trkpt lat="-37.98279548265923" lon="146.0531411322207"><ele>314.66666666666663</ele><time>2026-05-06T04:30:01Z</time></trkpt><trkpt lat="-37.98285856435458" lon="146.0529249002359"><ele>316.0</ele><time>2026-05-06T04:30:02Z</time></trkpt><trkpt lat="-37.982919611851415" lon="146.05275587834083"><ele>316.0</ele><time>2026-05-06T04:30:03Z</time></trkpt><trkpt lat="-37.98296566836291" lon="146.05260292807193"><ele>316.0</ele><time>2026-05-06T04:30:04Z</time></trkpt><trkpt lat="-37.982976593042494" lon="146.05245712431358"><ele>316.0</ele><time>2026-05-06T04:30:05Z</time></trkpt><trkpt lat="-37.98298038245199" lon="146.0523132365219"><ele>316.0</ele><time>2026-05-06T04:30:06Z</time></trkpt><trkpt lat="-37.98295446767105" lon="146.05217895588805"><ele>316.66666666666663</ele><time>2026-05-06T04:30:07Z</time></trkpt><trkpt lat="-37.98291244262704" lon="146.05201576228384"><ele>317.3333333333333</ele><time>2026-05-06T04:30:08Z</time></trkpt><trkpt lat="-37.982855946610954" lon="146.05182972223838"><ele>318.0</ele><time>2026-05-06T04:30:09Z</time></trkpt><trkpt lat="-37.98280382542571" lon="146.05163555083152"><ele>318.25</ele><time>2026-05-06T04:30:10Z</time></trkpt><trkpt lat="-37.98278678815617" lon="146.0514644436862"><ele>318.5</ele><time>2026-05-06T04:30:11Z</time></trkpt><trkpt lat="-37.982774681663365" lon="146.05130868159767"><ele>318.75</ele><time>2026-05-06T04:30:12Z</time></trkpt><trkpt lat="-37.982749255237444" lon="146.0511819548651"><ele>319.0</ele><time>2026-05-06T04:30:13Z</time></trkpt><trkpt lat="-37.982671242741965" lon="146.05110235332515"><ele>319.0</ele><time>2026-05-06T04:30:14Z</time></trkpt><trkpt lat="-37.982613016388484" lon="146.05105642494453"><ele>319.0</ele><time>2026-05-06T04:30:15Z</time></trkpt><trkpt lat="-37.9825275831167" lon="146.0510494480159"><ele>319.0</ele><time>2026-05-06T04:30:16Z</time></trkpt><trkpt lat="-37.98240699771706" lon="146.0510425050174"><ele>319.0</ele><time>2026-05-06T04:30:17Z</time></trkpt><trkpt lat="-37.98229388891996" lon="146.05109062142472"><ele>319.0</ele><time>2026-05-06T04:30:18Z</time></trkpt><trkpt lat="-37.98215501529813" lon="146.05112394431157"><ele>315.59999999999997</ele><time>2026-05-06T04:30:19Z</time></trkpt><trkpt lat="-37.98203517348959" lon="146.05117211251198"><ele>312.2</ele><time>2026-05-06T04:30:20Z</time></trkpt><trkpt lat="-37.9819403147766" lon="146.05119569393284"><ele>308.79999999999995</ele><time>2026-05-06T04:30:21Z</time></trkpt><trkpt lat="-37.98184474321334" lon="146.05119116705865"><ele>305.4</ele><time>2026-05-06T04:30:22Z</time></trkpt><trkpt lat="-37.98178482703532" lon="146.05113697629386"><ele>302.0</ele><time>2026-05-06T04:30:23Z</time></trkpt><trkpt lat="-37.981751021449156" lon="146.05105433284675"><ele>302.0</ele><time>2026-05-06T04:30:24Z</time></trkpt><trkpt lat="-37.98173499528595" lon="146.0509532102451"><ele>302.0</ele><time>2026-05-06T04:30:25Z</time></trkpt><trkpt lat="-37.98172867015616" lon="146.05083070752835"><ele>302.0</ele><time>2026-05-06T04:30:26Z</time></trkpt><trkpt lat="-37.98175038017562" lon="146.05070442908814"><ele>302.0</ele><time>2026-05-06T04:30:27Z</time></trkpt><trkpt lat="-37.98178656961273" lon="146.0505767420461"><ele>302.0</ele><time>2026-05-06T04:30:28Z</time></trkpt><trkpt lat="-37.98185938468584" lon="146.0504625963952"><ele>300.75</ele><time>2026-05-06T04:30:28.999Z</time></trkpt><trkpt lat="-37.98196749807442" lon="146.05042656051174"><ele>299.5</ele><time>2026-05-06T04:30:29.999Z</time></trkpt><trkpt lat="-37.982071456323816" lon="146.05037314244578"><ele>298.25</ele><time>2026-05-06T04:30:30.999Z</time></trkpt><trkpt lat="-37.98218787883459" lon="146.0502877352383"><ele>297.0</ele><time>2026-05-06T04:30:31.999Z</time></trkpt><trkpt lat="-37.982317511157085" lon="146.0502228442803"><ele>297.0</ele><time>2026-05-06T04:30:32.999Z</time></trkpt><trkpt lat="-37.98244516139968" lon="146.05015143316518"><ele>297.0</ele><time>2026-05-06T04:30:33.999Z</time></trkpt><trkpt lat="-37.98256165088468" lon="146.05006593336233"><ele>297.0</ele><time>2026-05-06T04:30:34.999Z</time></trkpt><trkpt lat="-37.9826679775886" lon="146.04997066666957"><ele>297.0</ele><time>2026-05-06T04:30:35.999Z</time></trkpt><trkpt lat="-37.98278715927775" lon="146.04988972058223"><ele>298.25</ele><time>2026-05-06T04:30:36.999Z</time></trkpt><trkpt lat="-37.982904592738514" lon="146.04977045095873"><ele>299.5</ele><time>2026-05-06T04:30:37.999Z</time></trkpt><trkpt lat="-37.983015074079916" lon="146.0496469723703"><ele>300.75</ele><time>2026-05-06T04:30:38.999Z</time></trkpt><trkpt lat="-37.98312330730082" lon="146.0495136466599"><ele>302.0</ele><time>2026-05-06T04:30:39.999Z</time></trkpt><trkpt lat="-37.9832195283467" lon="146.0493821689346"><ele>302.0</ele><time>2026-05-06T04:30:40.999Z</time></trkpt><trkpt lat="-37.98329506099168" lon="146.04922719775146"><ele>302.0</ele><time>2026-05-06T04:30:41.999Z</time></trkpt><trkpt lat="-37.983364451319915" lon="146.04908541429302"><ele>302.0</ele><time>2026-05-06T04:30:42.999Z</time></trkpt><trkpt lat="-37.983410957832405" lon="146.0489550755749"><ele>302.0</ele><time>2026-05-06T04:30:43.999Z</time></trkpt><trkpt lat="-37.983433244825086" lon="146.04880282195933"><ele>302.0</ele><time>2026-05-06T04:30:44.999Z</time></trkpt><trkpt lat="-37.9834578228103" lon="146.04863405491562"><ele>302.0</ele><time>2026-05-06T04:30:45.999Z</time></trkpt><trkpt lat="-37.98345662693878" lon="146.04845104980046"><ele>302.0</ele><time>2026-05-06T04:30:46.999Z</time></trkpt><trkpt lat="-37.983449010817054" lon="146.0482666611569"><ele>302.0</ele><time>2026-05-06T04:30:47.999Z</time></trkpt><trkpt lat="-37.98344207123066" lon="146.04808303519872"><ele>302.0</ele><time>2026-05-06T04:30:48.999Z</time></trkpt><trkpt lat="-37.98345052582619" lon="146.04790981904807"><ele>302.0</ele><time>2026-05-06T04:30:49.999Z</time></trkpt><trkpt lat="-37.983478381602225" lon="146.04774688500996"><ele>302.0</ele><time>2026-05-06T04:30:50.999Z</time></trkpt><trkpt lat="-37.98352819729686" lon="146.04760500782731"><ele>302.0</ele><time>2026-05-06T04:30:51.999Z</time></trkpt><trkpt lat="-37.98359027786734" lon="146.04750080161577"><ele>300.0</ele><time>2026-05-06T04:30:52.999Z</time></trkpt><trkpt lat="-37.98367509885008" lon="146.04742267577953"><ele>298.0</ele><time>2026-05-06T04:30:53.999Z</time></trkpt><trkpt lat="-37.983789275228894" lon="146.0473456699113"><ele>296.0</ele><time>2026-05-06T04:30:54.999Z</time></trkpt><trkpt lat="-37.98390816638063" lon="146.04729602427474"><ele>294.0</ele><time>2026-05-06T04:30:55.999Z</time></trkpt><trkpt lat="-37.98402611252311" lon="146.04728079587372"><ele>294.0</ele><time>2026-05-06T04:30:56.999Z</time></trkpt><trkpt lat="-37.98412619465572" lon="146.0473206764017"><ele>294.0</ele><time>2026-05-06T04:30:57.999Z</time></trkpt><trkpt lat="-37.984193762296755" lon="146.04741816673766"><ele>294.0</ele><time>2026-05-06T04:30:58.999Z</time></trkpt><trkpt lat="-37.98429764107934" lon="146.04753300050066"><ele>294.0</ele><time>2026-05-06T04:30:59.999Z</time></trkpt><trkpt lat="-37.98442040809132" lon="146.04763613120622"><ele>296.0</ele><time>2026-05-06T04:31:00.999Z</time></trkpt><trkpt lat="-37.98457568082501" lon="146.04772274033488"><ele>298.0</ele><time>2026-05-06T04:31:01.999Z</time></trkpt><trkpt lat="-37.98469854433039" lon="146.04777655508562"><ele>300.0</ele><time>2026-05-06T04:31:02.999Z</time></trkpt><trkpt lat="-37.98479304270014" lon="146.04786022480553"><ele>302.0</ele><time>2026-05-06T04:31:03.999Z</time></trkpt><trkpt lat="-37.984854011576914" lon="146.04797869988906"><ele>302.0</ele><time>2026-05-06T04:31:04.999Z</time></trkpt><trkpt lat="-37.984903780674124" lon="146.04813858718077"><ele>302.0</ele><time>2026-05-06T04:31:05.999Z</time></trkpt><trkpt lat="-37.98494020715284" lon="146.04830538508597"><ele>302.0</ele><time>2026-05-06T04:31:06.999Z</time></trkpt><trkpt lat="-37.98498918235121" lon="146.04848942199195"><ele>302.0</ele><time>2026-05-06T04:31:07.999Z</time></trkpt><trkpt lat="-37.98505171037262" lon="146.04868067313615"><ele>302.0</ele><time>2026-05-06T04:31:08.999Z</time></trkpt><trkpt lat="-37.98511034700056" lon="146.04885970446028"><ele>302.0</ele><time>2026-05-06T04:31:09.999Z</time></trkpt><trkpt lat="-37.98517193376213" lon="146.04902030840665"><ele>302.0</ele><time>2026-05-06T04:31:10.999Z</time></trkpt><trkpt lat="-37.98522943976099" lon="146.049183028333"><ele>302.0</ele><time>2026-05-06T04:31:11.999Z</time></trkpt><trkpt lat="-37.985289854090645" lon="146.04934160138538"><ele>303.5</ele><time>2026-05-06T04:31:12.999Z</time></trkpt><trkpt lat="-37.985348452917705" lon="146.04948635219532"><ele>305.0</ele><time>2026-05-06T04:31:13.999Z</time></trkpt><trkpt lat="-37.98541179746668" lon="146.04960465087288"><ele>306.5</ele><time>2026-05-06T04:31:14.999Z</time></trkpt><trkpt lat="-37.98548582577473" lon="146.04970793259014"><ele>308.0</ele><time>2026-05-06T04:31:15.999Z</time></trkpt><trkpt lat="-37.985580469601295" lon="146.04979719022415"><ele>308.0</ele><time>2026-05-06T04:31:16.999Z</time></trkpt><trkpt lat="-37.985679324467675" lon="146.04983542043362"><ele>308.0</ele><time>2026-05-06T04:31:17.999Z</time></trkpt><trkpt lat="-37.98578003568815" lon="146.04985066557379"><ele>308.0</ele><time>2026-05-06T04:31:18.999Z</time></trkpt><trkpt lat="-37.98587662352997" lon="146.04983482306847"><ele>308.0</ele><time>2026-05-06T04:31:19.999Z</time></trkpt><trkpt lat="-37.98597836421737" lon="146.049806563007"><ele>308.0</ele><time>2026-05-06T04:31:20.999Z</time></trkpt><trkpt lat="-37.98608184614653" lon="146.04977971267266"><ele>308.8</ele><time>2026-05-06T04:31:21.999Z</time></trkpt><trkpt lat="-37.98618573680802" lon="146.0497509492147"><ele>309.6</ele><time>2026-05-06T04:31:22.999Z</time></trkpt><trkpt lat="-37.9862911475786" lon="146.04972259007047"><ele>310.4</ele><time>2026-05-06T04:31:23.999Z</time></trkpt><trkpt lat="-37.986401067147206" lon="146.04971235339852"><ele>311.2</ele><time>2026-05-06T04:31:24.999Z</time></trkpt><trkpt lat="-37.98651434979837" lon="146.04972648444885"><ele>312.0</ele><time>2026-05-06T04:31:25.999Z</time></trkpt><trkpt lat="-37.98662729219846" lon="146.04975605342975"><ele>314.0</ele><time>2026-05-06T04:31:26.999Z</time></trkpt><trkpt lat="-37.98674268210262" lon="146.04978885001202"><ele>316.0</ele><time>2026-05-06T04:31:27.999Z</time></trkpt><trkpt lat="-37.98685487799705" lon="146.0498323587866"><ele>318.0</ele><time>2026-05-06T04:31:28.999Z</time></trkpt><trkpt lat="-37.98697129425309" lon="146.04988178564932"><ele>320.0</ele><time>2026-05-06T04:31:29.999Z</time></trkpt><trkpt lat="-37.98708098825048" lon="146.04992109647307"><ele>320.0</ele><time>2026-05-06T04:31:30.999Z</time></trkpt><trkpt lat="-37.9871752409465" lon="146.04993240335529"><ele>320.0</ele><time>2026-05-06T04:31:31.999Z</time></trkpt><trkpt lat="-37.98727084124593" lon="146.04991231429585"><ele>320.0</ele><time>2026-05-06T04:31:32.999Z</time></trkpt><trkpt lat="-37.98735998519022" lon="146.04983971185732"><ele>320.0</ele><time>2026-05-06T04:31:33.999Z</time></trkpt><trkpt lat="-37.987437899549604" lon="146.0497753977095"><ele>320.0</ele><time>2026-05-06T04:31:34.999Z</time></trkpt><trkpt lat="-37.987498030948444" lon="146.04965823749058"><ele>320.4</ele><time>2026-05-06T04:31:35.999Z</time></trkpt><trkpt lat="-37.98756502668104" lon="146.04956533599778"><ele>320.8</ele><time>2026-05-06T04:31:36.999Z</time></trkpt><trkpt lat="-37.98763157284466" lon="146.04947625152167"><ele>321.20000000000005</ele><time>2026-05-06T04:31:38Z</time></trkpt><trkpt lat="-37.987692372256525" lon="146.04940568495968"><ele>321.6</ele><time>2026-05-06T04:31:39Z</time></trkpt><trkpt lat="-37.98775003032021" lon="146.04935782089427"><ele>322.0</ele><time>2026-05-06T04:31:40Z</time></trkpt><trkpt lat="-37.98785257458116" lon="146.04937528501966"><ele>322.0</ele><time>2026-05-06T04:31:41Z</time></trkpt><trkpt lat="-37.98794155971156" lon="146.04941559175353"><ele>322.0</ele><time>2026-05-06T04:31:42Z</time></trkpt><trkpt lat="-37.988060345564584" lon="146.0494862999288"><ele>322.0</ele><time>2026-05-06T04:31:43Z</time></trkpt><trkpt lat="-37.98816431752521" lon="146.0495569105868"><ele>322.0</ele><time>2026-05-06T04:31:44Z</time></trkpt><trkpt lat="-37.988248885158974" lon="146.04961565795935"><ele>322.0</ele><time>2026-05-06T04:31:45Z</time></trkpt><trkpt lat="-37.98831277993504" lon="146.0496634171384"><ele>322.6</ele><time>2026-05-06T04:31:46Z</time></trkpt><trkpt lat="-37.98839984766599" lon="146.04974729626764"><ele>323.20000000000005</ele><time>2026-05-06T04:31:48Z</time></trkpt><trkpt lat="-37.98851952517523" lon="146.049828243987"><ele>323.8</ele><time>2026-05-06T04:31:50Z</time></trkpt><trkpt lat="-37.9886106083501" lon="146.04984847490917"><ele>324.4</ele><time>2026-05-06T04:31:51Z</time></trkpt><trkpt lat="-37.98870991444194" lon="146.0498899516886"><ele>325.0</ele><time>2026-05-06T04:31:52Z</time></trkpt><trkpt lat="-37.98880050401728" lon="146.04989661104435"><ele>325.0</ele><time>2026-05-06T04:31:53Z</time></trkpt><trkpt lat="-37.98890894734023" lon="146.049869655789"><ele>325.0</ele><time>2026-05-06T04:31:54Z</time></trkpt><trkpt lat="-37.98901336746092" lon="146.04980174259128"><ele>325.0</ele><time>2026-05-06T04:31:55Z</time></trkpt><trkpt lat="-37.989119757548416" lon="146.04969923374045"><ele>325.0</ele><time>2026-05-06T04:31:56Z</time></trkpt><trkpt lat="-37.98924145711262" lon="146.0496301387942"><ele>327.75</ele><time>2026-05-06T04:31:57Z</time></trkpt><trkpt lat="-37.989318284013784" lon="146.04949721364176"><ele>330.5</ele><time>2026-05-06T04:31:58Z</time></trkpt><trkpt lat="-37.989377533907124" lon="146.04935895561226"><ele>333.25</ele><time>2026-05-06T04:31:59Z</time></trkpt><trkpt lat="-37.989434344768455" lon="146.04921707352906"><ele>336.0</ele><time>2026-05-06T04:32:00Z</time></trkpt><trkpt lat="-37.98945042081973" lon="146.04904921270588"><ele>336.0</ele><time>2026-05-06T04:32:01Z</time></trkpt><trkpt lat="-37.989486347326924" lon="146.04892117971676"><ele>336.0</ele><time>2026-05-06T04:32:02Z</time></trkpt><trkpt lat="-37.989540540495604" lon="146.0488130076025"><ele>336.0</ele><time>2026-05-06T04:32:03Z</time></trkpt><trkpt lat="-37.98961132231711" lon="146.04870377495985"><ele>336.0</ele><time>2026-05-06T04:32:04Z</time></trkpt><trkpt lat="-37.98969499348029" lon="146.04858667384482"><ele>336.0</ele><time>2026-05-06T04:32:05Z</time></trkpt><trkpt lat="-37.989792217958886" lon="146.0484793262624"><ele>336.0</ele><time>2026-05-06T04:32:06Z</time></trkpt><trkpt lat="-37.98990093273608" lon="146.04839839593348"><ele>336.0</ele><time>2026-05-06T04:32:07Z</time></trkpt><trkpt lat="-37.98999820351353" lon="146.04832194281047"><ele>336.0</ele><time>2026-05-06T04:32:08Z</time></trkpt><trkpt lat="-37.99008168068873" lon="146.04827178370306"><ele>336.0</ele><time>2026-05-06T04:32:09Z</time></trkpt><trkpt lat="-37.99014310364881" lon="146.04819948306476"><ele>336.0</ele><time>2026-05-06T04:32:10Z</time></trkpt><trkpt lat="-37.99019184622913" lon="146.04814870615348"><ele>339.0</ele><time>2026-05-06T04:32:11Z</time></trkpt><trkpt lat="-37.990214053795604" lon="146.04802825692894"><ele>342.0</ele><time>2026-05-06T04:32:12Z</time></trkpt><trkpt lat="-37.99014473557933" lon="146.04790289344186"><ele>345.0</ele><time>2026-05-06T04:32:13Z</time></trkpt><trkpt lat="-37.99012677482482" lon="146.04779088187883"><ele>348.0</ele><time>2026-05-06T04:32:14Z</time></trkpt><trkpt lat="-37.99010345209884" lon="146.04769545948568"><ele>351.0</ele><time>2026-05-06T04:32:15Z</time></trkpt><trkpt lat="-37.990116890022485" lon="146.04758253990795"><ele>351.0</ele><time>2026-05-06T04:32:16Z</time></trkpt><trkpt lat="-37.99020481879601" lon="146.0474886114147"><ele>351.0</ele><time>2026-05-06T04:32:17Z</time></trkpt><trkpt lat="-37.99028950335192" lon="146.04739036385413"><ele>351.0</ele><time>2026-05-06T04:32:18Z</time></trkpt><trkpt lat="-37.99039197095508" lon="146.04729804330927"><ele>351.0</ele><time>2026-05-06T04:32:19Z</time></trkpt><trkpt lat="-37.99046439634151" lon="146.04719159998487"><ele>351.6</ele><time>2026-05-06T04:32:20Z</time></trkpt><trkpt lat="-37.990505550233" lon="146.04710843785472"><ele>352.20000000000005</ele><time>2026-05-06T04:32:21Z</time></trkpt><trkpt lat="-37.99052742669344" lon="146.04700730279401"><ele>352.79999999999995</ele><time>2026-05-06T04:32:22Z</time></trkpt><trkpt lat="-37.990501219062864" lon="146.04688462049646"><ele>353.4</ele><time>2026-05-06T04:32:23Z</time></trkpt><trkpt lat="-37.990431153031224" lon="146.04674763695826"><ele>354.0</ele><time>2026-05-06T04:32:24Z</time></trkpt><trkpt lat="-37.99036470663964" lon="146.04660408378456"><ele>354.25</ele><time>2026-05-06T04:32:25Z</time></trkpt><trkpt lat="-37.990291524754205" lon="146.0464745481824"><ele>354.5</ele><time>2026-05-06T04:32:26Z</time></trkpt><trkpt lat="-37.99023591003126" lon="146.04633205065693"><ele>354.75</ele><time>2026-05-06T04:32:27Z</time></trkpt><trkpt lat="-37.99016715426047" lon="146.04618938537777"><ele>355.0</ele><time>2026-05-06T04:32:28Z</time></trkpt><trkpt lat="-37.99012133450307" lon="146.04605556029838"><ele>355.0</ele><time>2026-05-06T04:32:29Z</time></trkpt><trkpt lat="-37.99009031170355" lon="146.04591168536086"><ele>355.0</ele><time>2026-05-06T04:32:29.999Z</time></trkpt><trkpt lat="-37.99006895142615" lon="146.04575944218695"><ele>355.0</ele><time>2026-05-06T04:32:30.999Z</time></trkpt><trkpt lat="-37.99007701281874" lon="146.0456020928168"><ele>355.0</ele><time>2026-05-06T04:32:31.999Z</time></trkpt><trkpt lat="-37.99011723195547" lon="146.04545402100942"><ele>353.6</ele><time>2026-05-06T04:32:32.999Z</time></trkpt><trkpt lat="-37.99017723080964" lon="146.0453035301106"><ele>352.2</ele><time>2026-05-06T04:32:33.999Z</time></trkpt><trkpt lat="-37.99024916879456" lon="146.04517649190856"><ele>350.79999999999995</ele><time>2026-05-06T04:32:34.999Z</time></trkpt><trkpt lat="-37.99031148674416" lon="146.0450991433345"><ele>349.4</ele><time>2026-05-06T04:32:35.999Z</time></trkpt><trkpt lat="-37.990378444348345" lon="146.04503476835302"><ele>348.0</ele><time>2026-05-06T04:32:36.999Z</time></trkpt><trkpt lat="-37.99047230136278" lon="146.04498083772012"><ele>348.0</ele><time>2026-05-06T04:32:37.999Z</time></trkpt><trkpt lat="-37.99058638986438" lon="146.04497001819493"><ele>348.0</ele><time>2026-05-06T04:32:38.999Z</time></trkpt><trkpt lat="-37.99072049334514" lon="146.04496875307856"><ele>348.0</ele><time>2026-05-06T04:32:39.999Z</time></trkpt><trkpt lat="-37.99085441514491" lon="146.04495345306842"><ele>348.0</ele><time>2026-05-06T04:32:40.999Z</time></trkpt><trkpt lat="-37.9909989039337" lon="146.04492300806248"><ele>350.0</ele><time>2026-05-06T04:32:41.999Z</time></trkpt><trkpt lat="-37.99114168406712" lon="146.04485759686278"><ele>352.0</ele><time>2026-05-06T04:32:42.999Z</time></trkpt><trkpt lat="-37.99127047116365" lon="146.0447734521004"><ele>354.0</ele><time>2026-05-06T04:32:43.999Z</time></trkpt><trkpt lat="-37.99139338722077" lon="146.04465904415568"><ele>356.0</ele><time>2026-05-06T04:32:44.999Z</time></trkpt><trkpt lat="-37.991492394053914" lon="146.04452361243648"><ele>356.0</ele><time>2026-05-06T04:32:45.999Z</time></trkpt><trkpt lat="-37.991583666885816" lon="146.04438156981294"><ele>356.0</ele><time>2026-05-06T04:32:46.999Z</time></trkpt><trkpt lat="-37.99164396875572" lon="146.0441981393531"><ele>356.0</ele><time>2026-05-06T04:32:47.999Z</time></trkpt><trkpt lat="-37.99168745485678" lon="146.04398740005917"><ele>360.0</ele><time>2026-05-06T04:32:48.999Z</time></trkpt><trkpt lat="-37.99172888667822" lon="146.04375404288064"><ele>364.0</ele><time>2026-05-06T04:32:49.999Z</time></trkpt><trkpt lat="-37.991759191292786" lon="146.04353993354587"><ele>368.0</ele><time>2026-05-06T04:32:50.999Z</time></trkpt><trkpt lat="-37.99179101856878" lon="146.04337075388"><ele>367.5</ele><time>2026-05-06T04:32:51.999Z</time></trkpt><trkpt lat="-37.991835116034366" lon="146.04319839970083"><ele>367.0</ele><time>2026-05-06T04:32:52.999Z</time></trkpt><trkpt lat="-37.99188707283404" lon="146.0430337240474"><ele>366.5</ele><time>2026-05-06T04:32:53.999Z</time></trkpt><trkpt lat="-37.991945804902834" lon="146.04286266975896"><ele>366.0</ele><time>2026-05-06T04:32:54.999Z</time></trkpt><trkpt lat="-37.99200372902232" lon="146.0427043895612"><ele>366.0</ele><time>2026-05-06T04:32:55.999Z</time></trkpt><trkpt lat="-37.99206974933495" lon="146.04253625873494"><ele>366.0</ele><time>2026-05-06T04:32:56.999Z</time></trkpt><trkpt lat="-37.99214258920461" lon="146.0423542514817"><ele>366.0</ele><time>2026-05-06T04:32:57.999Z</time></trkpt><trkpt lat="-37.992217227131796" lon="146.0421745169099"><ele>361.6666666666667</ele><time>2026-05-06T04:32:58.999Z</time></trkpt><trkpt lat="-37.99228942459862" lon="146.041984737022"><ele>357.33333333333337</ele><time>2026-05-06T04:32:59.999Z</time></trkpt><trkpt lat="-37.99236139262482" lon="146.04181730200395"><ele>353.0</ele><time>2026-05-06T04:33:00.999Z</time></trkpt><trkpt lat="-37.99244298535834" lon="146.04168215550376"><ele>351.5</ele><time>2026-05-06T04:33:01.999Z</time></trkpt><trkpt lat="-37.99253202397715" lon="146.0415833794685"><ele>350.0</ele><time>2026-05-06T04:33:02.999Z</time></trkpt><trkpt lat="-37.9926345619161" lon="146.0415216715446"><ele>348.5</ele><time>2026-05-06T04:33:03.999Z</time></trkpt><trkpt lat="-37.992759807356954" lon="146.04149972269477"><ele>347.0</ele><time>2026-05-06T04:33:04.999Z</time></trkpt><trkpt lat="-37.99289757403145" lon="146.04148925959686"><ele>347.0</ele><time>2026-05-06T04:33:05.999Z</time></trkpt><trkpt lat="-37.993066022605674" lon="146.04146986292176"><ele>347.0</ele><time>2026-05-06T04:33:06.999Z</time></trkpt><trkpt lat="-37.99322340406853" lon="146.04140599075834"><ele>347.0</ele><time>2026-05-06T04:33:07.999Z</time></trkpt><trkpt lat="-37.993365415833594" lon="146.04134634941593"><ele>349.6666666666667</ele><time>2026-05-06T04:33:08.999Z</time></trkpt><trkpt lat="-37.99349901517246" lon="146.0412373878223"><ele>352.3333333333333</ele><time>2026-05-06T04:33:09.999Z</time></trkpt><trkpt lat="-37.99360710613256" lon="146.04111165576901"><ele>355.0</ele><time>2026-05-06T04:33:10.999Z</time></trkpt><trkpt lat="-37.99373381933967" lon="146.04094216671388"><ele>355.0</ele><time>2026-05-06T04:33:11.999Z</time></trkpt><trkpt lat="-37.99384633904151" lon="146.04081731489947"><ele>355.0</ele><time>2026-05-06T04:33:12.999Z</time></trkpt><trkpt lat="-37.9939606752323" lon="146.04073528776684"><ele>355.0</ele><time>2026-05-06T04:33:13.999Z</time></trkpt><trkpt lat="-37.99407458104109" lon="146.0407222793469"><ele>355.0</ele><time>2026-05-06T04:33:14.999Z</time></trkpt><trkpt lat="-37.99417936589896" lon="146.04070058877022"><ele>356.0</ele><time>2026-05-06T04:33:15.999Z</time></trkpt><trkpt lat="-37.99431799978917" lon="146.04072499535056"><ele>357.0</ele><time>2026-05-06T04:33:16.999Z</time></trkpt><trkpt lat="-37.99444758682168" lon="146.04076839292884"><ele>358.0</ele><time>2026-05-06T04:33:17.999Z</time></trkpt><trkpt lat="-37.994596572860736" lon="146.0408204429695"><ele>359.0</ele><time>2026-05-06T04:33:18.999Z</time></trkpt><trkpt lat="-37.99472526727687" lon="146.0408849325952"><ele>359.0</ele><time>2026-05-06T04:33:19.999Z</time></trkpt><trkpt lat="-37.99484476941199" lon="146.04096997671294"><ele>359.0</ele><time>2026-05-06T04:33:20.999Z</time></trkpt><trkpt lat="-37.99495321024399" lon="146.0410793137819"><ele>359.0</ele><time>2026-05-06T04:33:21.999Z</time></trkpt><trkpt lat="-37.99506475721182" lon="146.0411999804218"><ele>359.0</ele><time>2026-05-06T04:33:22.999Z</time></trkpt><trkpt lat="-37.995185180900776" lon="146.04132642039042"><ele>359.0</ele><time>2026-05-06T04:33:23.999Z</time></trkpt><trkpt lat="-37.99528722135921" lon="146.04145621727022"><ele>359.0</ele><time>2026-05-06T04:33:24.999Z</time></trkpt><trkpt lat="-37.995388950841054" lon="146.04155041567589"><ele>359.0</ele><time>2026-05-06T04:33:25.999Z</time></trkpt><trkpt lat="-37.9954728391172" lon="146.04165963954082"><ele>359.0</ele><time>2026-05-06T04:33:26.999Z</time></trkpt><trkpt lat="-37.99555434705753" lon="146.04173920790907"><ele>359.0</ele><time>2026-05-06T04:33:27.999Z</time></trkpt><trkpt lat="-37.9956252536862" lon="146.04180306183497"><ele>359.0</ele><time>2026-05-06T04:33:28.999Z</time></trkpt><trkpt lat="-37.99572362722062" lon="146.04186378361365"><ele>359.0</ele><time>2026-05-06T04:33:29.999Z</time></trkpt><trkpt lat="-37.995816358688785" lon="146.0418881529904"><ele>359.0</ele><time>2026-05-06T04:33:30.999Z</time></trkpt><trkpt lat="-37.99591571839527" lon="146.04186003104846"><ele>359.0</ele><time>2026-05-06T04:33:31.999Z</time></trkpt><trkpt lat="-37.99600201108513" lon="146.04180007944674"><ele>359.5</ele><time>2026-05-06T04:33:32.999Z</time></trkpt><trkpt lat="-37.99607830177493" lon="146.04171121232994"><ele>360.0</ele><time>2026-05-06T04:33:33.999Z</time></trkpt><trkpt lat="-37.99613549736971" lon="146.04159694540587"><ele>360.5</ele><time>2026-05-06T04:33:34.999Z</time></trkpt><trkpt lat="-37.996184728078404" lon="146.04146955801684"><ele>361.0</ele><time>2026-05-06T04:33:35.999Z</time></trkpt><trkpt lat="-37.996252888607316" lon="146.041311948986"><ele>361.0</ele><time>2026-05-06T04:33:36.999Z</time></trkpt><trkpt lat="-37.99635241552883" lon="146.04117808969076"><ele>361.0</ele><time>2026-05-06T04:33:37.999Z</time></trkpt><trkpt lat="-37.99645916709176" lon="146.04104258491378"><ele>361.0</ele><time>2026-05-06T04:33:38.999Z</time></trkpt><trkpt lat="-37.99656492114246" lon="146.04089941714673"><ele>359.5</ele><time>2026-05-06T04:33:39.999Z</time></trkpt><trkpt lat="-37.99664468110954" lon="146.04076862242067"><ele>358.0</ele><time>2026-05-06T04:33:40.999Z</time></trkpt><trkpt lat="-37.996728880209886" lon="146.0406324423903"><ele>356.5</ele><time>2026-05-06T04:33:41.999Z</time></trkpt><trkpt lat="-37.99680402663026" lon="146.04048591360328"><ele>355.0</ele><time>2026-05-06T04:33:42.998Z</time></trkpt><trkpt lat="-37.99686702690085" lon="146.04033905227095"><ele>355.0</ele><time>2026-05-06T04:33:44Z</time></trkpt><trkpt lat="-37.99693530739192" lon="146.04016977332466"><ele>355.0</ele><time>2026-05-06T04:33:45Z</time></trkpt><trkpt lat="-37.996991075268575" lon="146.0399433754925"><ele>355.0</ele><time>2026-05-06T04:33:46Z</time></trkpt><trkpt lat="-37.99703814398268" lon="146.03975576637114"><ele>353.75</ele><time>2026-05-06T04:33:47Z</time></trkpt><trkpt lat="-37.99705765358844" lon="146.0395697879563"><ele>352.5</ele><time>2026-05-06T04:33:48Z</time></trkpt><trkpt lat="-37.9970702172316" lon="146.03938731794557"><ele>351.25</ele><time>2026-05-06T04:33:49Z</time></trkpt><trkpt lat="-37.99708056719968" lon="146.03922359667234"><ele>350.0</ele><time>2026-05-06T04:33:50Z</time></trkpt><trkpt lat="-37.99709875397964" lon="146.0390770857296"><ele>349.0</ele><time>2026-05-06T04:33:51Z</time></trkpt><trkpt lat="-37.99710305177891" lon="146.03892768576728"><ele>348.0</ele><time>2026-05-06T04:33:52Z</time></trkpt><trkpt lat="-37.99709340606574" lon="146.0387600679341"><ele>347.0</ele><time>2026-05-06T04:33:53Z</time></trkpt><trkpt lat="-37.997070863502614" lon="146.03859167501142"><ele>346.0</ele><time>2026-05-06T04:33:54Z</time></trkpt><trkpt lat="-37.99704043290328" lon="146.03842635595845"><ele>346.8</ele><time>2026-05-06T04:33:55Z</time></trkpt><trkpt lat="-37.99700602739291" lon="146.03826869442372"><ele>347.6</ele><time>2026-05-06T04:33:56Z</time></trkpt><trkpt lat="-37.99700759710309" lon="146.038132208853"><ele>348.4</ele><time>2026-05-06T04:33:57Z</time></trkpt><trkpt lat="-37.997008066321975" lon="146.03801172961732"><ele>349.2</ele><time>2026-05-06T04:33:58Z</time></trkpt><trkpt lat="-37.997026351179116" lon="146.03789736135957"><ele>350.0</ele><time>2026-05-06T04:33:59Z</time></trkpt><trkpt lat="-37.997091546345445" lon="146.03782450560405"><ele>350.0</ele><time>2026-05-06T04:34:00Z</time></trkpt><trkpt lat="-37.99716943287183" lon="146.0377236082458"><ele>350.0</ele><time>2026-05-06T04:34:01Z</time></trkpt><trkpt lat="-37.9972867379919" lon="146.03763037824558"><ele>350.0</ele><time>2026-05-06T04:34:02Z</time></trkpt><trkpt lat="-37.99743925083651" lon="146.03752205509792"><ele>350.0</ele><time>2026-05-06T04:34:03Z</time></trkpt><trkpt lat="-37.99758611009092" lon="146.03745087263073"><ele>348.25</ele><time>2026-05-06T04:34:04Z</time></trkpt><trkpt lat="-37.99772670831665" lon="146.03735134769045"><ele>346.5</ele><time>2026-05-06T04:34:05Z</time></trkpt><trkpt lat="-37.99784293683092" lon="146.03725530435293"><ele>344.75</ele><time>2026-05-06T04:34:06Z</time></trkpt><trkpt lat="-37.99795163327699" lon="146.03713337271813"><ele>343.0</ele><time>2026-05-06T04:34:07Z</time></trkpt><trkpt lat="-37.99805752635079" lon="146.0370113953456"><ele>343.0</ele><time>2026-05-06T04:34:08Z</time></trkpt><trkpt lat="-37.99816045662366" lon="146.03686785067777"><ele>343.0</ele><time>2026-05-06T04:34:09Z</time></trkpt><trkpt lat="-37.99826044746209" lon="146.03673511977289"><ele>343.0</ele><time>2026-05-06T04:34:10Z</time></trkpt><trkpt lat="-37.998361113930784" lon="146.03658898075412"><ele>341.5</ele><time>2026-05-06T04:34:11Z</time></trkpt><trkpt lat="-37.99843703641767" lon="146.036464812343"><ele>340.0</ele><time>2026-05-06T04:34:12Z</time></trkpt><trkpt lat="-37.998511247251194" lon="146.0363378481332"><ele>338.5</ele><time>2026-05-06T04:34:13Z</time></trkpt><trkpt lat="-37.99856990179335" lon="146.03622079104196"><ele>337.0</ele><time>2026-05-06T04:34:14Z</time></trkpt><trkpt lat="-37.998616422498635" lon="146.03609642908563"><ele>337.0</ele><time>2026-05-06T04:34:15Z</time></trkpt><trkpt lat="-37.998663860446875" lon="146.0359875426265"><ele>337.0</ele><time>2026-05-06T04:34:16Z</time></trkpt><trkpt lat="-37.99867820503139" lon="146.0358531105638"><ele>337.0</ele><time>2026-05-06T04:34:17Z</time></trkpt><trkpt lat="-37.99865839903349" lon="146.03572525585463"><ele>337.0</ele><time>2026-05-06T04:34:18Z</time></trkpt><trkpt lat="-37.998658373664476" lon="146.03561610824957"><ele>337.0</ele><time>2026-05-06T04:34:19Z</time></trkpt><trkpt lat="-37.998655309928346" lon="146.03552308019457"><ele>337.8333333333333</ele><time>2026-05-06T04:34:20Z</time></trkpt><trkpt lat="-37.9986461007505" lon="146.0354407418973"><ele>338.66666666666663</ele><time>2026-05-06T04:34:21Z</time></trkpt><trkpt lat="-37.99876801920233" lon="146.03536730364254"><ele>339.5</ele><time>2026-05-06T04:34:23Z</time></trkpt><trkpt lat="-37.99882670572964" lon="146.03531057665427"><ele>340.3333333333333</ele><time>2026-05-06T04:34:24Z</time></trkpt><trkpt lat="-37.9988895359672" lon="146.03526179038124"><ele>341.1666666666667</ele><time>2026-05-06T04:34:25Z</time></trkpt><trkpt lat="-37.99895161909527" lon="146.03519514847812"><ele>342.0</ele><time>2026-05-06T04:34:26Z</time></trkpt><trkpt lat="-37.99903168771859" lon="146.03514562746284"><ele>342.0</ele><time>2026-05-06T04:34:27Z</time></trkpt><trkpt lat="-37.99912277876337" lon="146.03503800809662"><ele>342.0</ele><time>2026-05-06T04:34:29Z</time></trkpt><trkpt lat="-37.99917631011572" lon="146.03491581037613"><ele>335.0</ele><time>2026-05-06T04:34:31Z</time></trkpt><trkpt lat="-37.99921139836077" lon="146.03481851297468"><ele>335.0</ele><time>2026-05-06T04:34:33Z</time></trkpt><trkpt lat="-37.99918848707616" lon="146.0347241214782"><ele>335.0</ele><time>2026-05-06T04:34:36Z</time></trkpt></trkseg></trk></gpx>